<?xml version="1.0" encoding="UTF-8" standalone="no" ?>
<gpx xmlns="http://www.topografix.com/GPX/1/1" xmlns:xsi="http://www.w3.org/2001/XMLSchema-instance" xsi:schemaLocation="http://www.topografix.com/GPX/1/1 http://www.topografix.com/GPX/1/1/gpx.xsd" version="1.1" creator="VisuGPX - https://www.visugpx.com">
  <metadata>
    <name>[Calanques] GR98 : Traversée des Calanques entre Marseille et Cassis</name>
  </metadata>
  <wpt lat="43.23149" lon="5.35526">
    <ele>13.8</ele>
    <name><![CDATA[Arrêt de bus]]></name>
  </wpt>
  <trk>
    <name><![CDATA[[Calanques] GR98 : Traversée des Calanques entre Marseille et Cassis]]></name>
    <extensions>
      <line xmlns="http://www.topografix.com/GPX/gpx_style/0/2">
        <color>0000FF</color>
        <opacity>1</opacity>
        <width>4</width>
      </line>
    </extensions>
    <trkseg>
      <trkpt lat="43.23149" lon="5.35526">
        <ele>13.8</ele>
        <time>2026-03-01T09:00:00.000Z</time>
      </trkpt>
      <trkpt lat="43.23116" lon="5.35499">
        <ele>15.3</ele>
        <time>2026-03-01T09:00:27.280Z</time>
      </trkpt>
      <trkpt lat="43.23087" lon="5.35483">
        <ele>17.4</ele>
        <time>2026-03-01T09:00:50.842Z</time>
      </trkpt>
      <trkpt lat="43.2302" lon="5.3548">
        <ele>23.6</ele>
        <time>2026-03-01T09:01:44.543Z</time>
      </trkpt>
      <trkpt lat="43.22999" lon="5.35461">
        <ele>30</ele>
        <time>2026-03-01T09:02:19.828Z</time>
      </trkpt>
      <trkpt lat="43.22977" lon="5.35429">
        <ele>31</ele>
        <time>2026-03-01T09:02:42.245Z</time>
      </trkpt>
      <trkpt lat="43.22961" lon="5.35402">
        <ele>31</ele>
        <time>2026-03-01T09:02:59.037Z</time>
      </trkpt>
      <trkpt lat="43.22957" lon="5.35399">
        <ele>31</ele>
        <time>2026-03-01T09:03:02.055Z</time>
      </trkpt>
      <trkpt lat="43.22953" lon="5.35399">
        <ele>31</ele>
        <time>2026-03-01T09:03:04.704Z</time>
      </trkpt>
      <trkpt lat="43.2295" lon="5.354">
        <ele>31</ele>
        <time>2026-03-01T09:03:06.748Z</time>
      </trkpt>
      <trkpt lat="43.22946" lon="5.35404">
        <ele>31</ele>
        <time>2026-03-01T09:03:10.025Z</time>
      </trkpt>
      <trkpt lat="43.22947" lon="5.35409">
        <ele>31</ele>
        <time>2026-03-01T09:03:12.527Z</time>
      </trkpt>
      <trkpt lat="43.22945" lon="5.35415">
        <ele>31</ele>
        <time>2026-03-01T09:03:15.711Z</time>
      </trkpt>
      <trkpt lat="43.22948" lon="5.35424">
        <ele>31</ele>
        <time>2026-03-01T09:03:20.486Z</time>
      </trkpt>
      <trkpt lat="43.22945" lon="5.35429">
        <ele>31</ele>
        <time>2026-03-01T09:03:23.611Z</time>
      </trkpt>
      <trkpt lat="43.22943" lon="5.35441">
        <ele>32</ele>
        <time>2026-03-01T09:03:31.165Z</time>
      </trkpt>
      <trkpt lat="43.22941" lon="5.35444">
        <ele>32</ele>
        <time>2026-03-01T09:03:33.127Z</time>
      </trkpt>
      <trkpt lat="43.22932" lon="5.3545">
        <ele>33</ele>
        <time>2026-03-01T09:03:41.298Z</time>
      </trkpt>
      <trkpt lat="43.22926" lon="5.3546">
        <ele>34</ele>
        <time>2026-03-01T09:03:49.129Z</time>
      </trkpt>
      <trkpt lat="43.22925" lon="5.35456">
        <ele>33</ele>
        <time>2026-03-01T09:03:51.432Z</time>
      </trkpt>
      <trkpt lat="43.22923" lon="5.3547">
        <ele>35</ele>
        <time>2026-03-01T09:04:02.770Z</time>
      </trkpt>
      <trkpt lat="43.22912" lon="5.35482">
        <ele>37</ele>
        <time>2026-03-01T09:04:15.716Z</time>
      </trkpt>
      <trkpt lat="43.22895" lon="5.35505">
        <ele>42</ele>
        <time>2026-03-01T09:04:43.486Z</time>
      </trkpt>
      <trkpt lat="43.22882" lon="5.35518">
        <ele>45</ele>
        <time>2026-03-01T09:05:00.659Z</time>
      </trkpt>
      <trkpt lat="43.22867" lon="5.35523">
        <ele>48</ele>
        <time>2026-03-01T09:05:17.617Z</time>
      </trkpt>
      <trkpt lat="43.22841" lon="5.35539">
        <ele>52</ele>
        <time>2026-03-01T09:05:43.712Z</time>
      </trkpt>
      <trkpt lat="43.22835" lon="5.35539">
        <ele>53</ele>
        <time>2026-03-01T09:05:49.690Z</time>
      </trkpt>
      <trkpt lat="43.2282" lon="5.35535">
        <ele>56</ele>
        <time>2026-03-01T09:06:06.601Z</time>
      </trkpt>
      <trkpt lat="43.22815" lon="5.3552">
        <ele>56</ele>
        <time>2026-03-01T09:06:14.560Z</time>
      </trkpt>
      <trkpt lat="43.22805" lon="5.355">
        <ele>57</ele>
        <time>2026-03-01T09:06:27.574Z</time>
      </trkpt>
      <trkpt lat="43.22798" lon="5.35493">
        <ele>59</ele>
        <time>2026-03-01T09:06:38.556Z</time>
      </trkpt>
      <trkpt lat="43.22794" lon="5.35491">
        <ele>59</ele>
        <time>2026-03-01T09:06:41.375Z</time>
      </trkpt>
      <trkpt lat="43.22791" lon="5.35494">
        <ele>60</ele>
        <time>2026-03-01T09:06:46.948Z</time>
      </trkpt>
      <trkpt lat="43.22791" lon="5.35514">
        <ele>61</ele>
        <time>2026-03-01T09:06:57.969Z</time>
      </trkpt>
      <trkpt lat="43.22784" lon="5.35523">
        <ele>63</ele>
        <time>2026-03-01T09:07:09.087Z</time>
      </trkpt>
      <trkpt lat="43.22784" lon="5.35521">
        <ele>63</ele>
        <time>2026-03-01T09:07:10.052Z</time>
      </trkpt>
      <trkpt lat="43.22774" lon="5.35531">
        <ele>65</ele>
        <time>2026-03-01T09:07:22.176Z</time>
      </trkpt>
      <trkpt lat="43.22765" lon="5.35534">
        <ele>67</ele>
        <time>2026-03-01T09:07:33.227Z</time>
      </trkpt>
      <trkpt lat="43.22763" lon="5.35537">
        <ele>68</ele>
        <time>2026-03-01T09:07:39.482Z</time>
      </trkpt>
      <trkpt lat="43.22756" lon="5.35538">
        <ele>69</ele>
        <time>2026-03-01T09:07:45.961Z</time>
      </trkpt>
      <trkpt lat="43.22748" lon="5.35538">
        <ele>71</ele>
        <time>2026-03-01T09:07:56.965Z</time>
      </trkpt>
      <trkpt lat="43.22739" lon="5.35531">
        <ele>76</ele>
        <time>2026-03-01T09:08:37.241Z</time>
      </trkpt>
      <trkpt lat="43.22734" lon="5.35531">
        <ele>79</ele>
        <time>2026-03-01T09:08:56.707Z</time>
      </trkpt>
      <trkpt lat="43.22731" lon="5.35523">
        <ele>80</ele>
        <time>2026-03-01T09:09:02.944Z</time>
      </trkpt>
      <trkpt lat="43.22722" lon="5.35508">
        <ele>84</ele>
        <time>2026-03-01T09:09:25.554Z</time>
      </trkpt>
      <trkpt lat="43.22719" lon="5.35518">
        <ele>86</ele>
        <time>2026-03-01T09:09:36.577Z</time>
      </trkpt>
      <trkpt lat="43.22718" lon="5.35518">
        <ele>86</ele>
        <time>2026-03-01T09:09:37.239Z</time>
      </trkpt>
      <trkpt lat="43.22713" lon="5.35505">
        <ele>89</ele>
        <time>2026-03-01T09:09:54.146Z</time>
      </trkpt>
      <trkpt lat="43.22714" lon="5.35499">
        <ele>88</ele>
        <time>2026-03-01T09:09:56.863Z</time>
      </trkpt>
      <trkpt lat="43.2271" lon="5.355">
        <ele>90</ele>
        <time>2026-03-01T09:10:12.693Z</time>
      </trkpt>
      <trkpt lat="43.22708" lon="5.35503">
        <ele>91</ele>
        <time>2026-03-01T09:10:18.947Z</time>
      </trkpt>
      <trkpt lat="43.22701" lon="5.35518">
        <ele>95</ele>
        <time>2026-03-01T09:10:42.471Z</time>
      </trkpt>
      <trkpt lat="43.22697" lon="5.35521">
        <ele>97</ele>
        <time>2026-03-01T09:10:58.523Z</time>
      </trkpt>
      <trkpt lat="43.22692" lon="5.35536">
        <ele>100</ele>
        <time>2026-03-01T09:11:15.027Z</time>
      </trkpt>
      <trkpt lat="43.22692" lon="5.35538">
        <ele>100</ele>
        <time>2026-03-01T09:11:15.992Z</time>
      </trkpt>
      <trkpt lat="43.22693" lon="5.35536">
        <ele>99</ele>
        <time>2026-03-01T09:11:19.433Z</time>
      </trkpt>
      <trkpt lat="43.22692" lon="5.35535">
        <ele>100</ele>
        <time>2026-03-01T09:11:24.250Z</time>
      </trkpt>
      <trkpt lat="43.22694" lon="5.35555">
        <ele>99</ele>
        <time>2026-03-01T09:11:33.194Z</time>
      </trkpt>
      <trkpt lat="43.22695" lon="5.35558">
        <ele>99</ele>
        <time>2026-03-01T09:11:34.786Z</time>
      </trkpt>
      <trkpt lat="43.22694" lon="5.35566">
        <ele>100</ele>
        <time>2026-03-01T09:11:40.727Z</time>
      </trkpt>
      <trkpt lat="43.22689" lon="5.35573">
        <ele>102</ele>
        <time>2026-03-01T09:11:51.998Z</time>
      </trkpt>
      <trkpt lat="43.22691" lon="5.35569">
        <ele>101</ele>
        <time>2026-03-01T09:11:54.351Z</time>
      </trkpt>
      <trkpt lat="43.2269" lon="5.35571">
        <ele>102</ele>
        <time>2026-03-01T09:12:01.232Z</time>
      </trkpt>
      <trkpt lat="43.2269" lon="5.3557">
        <ele>102</ele>
        <time>2026-03-01T09:12:01.714Z</time>
      </trkpt>
      <trkpt lat="43.2269" lon="5.35579">
        <ele>102</ele>
        <time>2026-03-01T09:12:06.057Z</time>
      </trkpt>
      <trkpt lat="43.22686" lon="5.35589">
        <ele>104</ele>
        <time>2026-03-01T09:12:17.035Z</time>
      </trkpt>
      <trkpt lat="43.22686" lon="5.35594">
        <ele>104</ele>
        <time>2026-03-01T09:12:19.448Z</time>
      </trkpt>
      <trkpt lat="43.22687" lon="5.35601">
        <ele>104</ele>
        <time>2026-03-01T09:12:22.889Z</time>
      </trkpt>
      <trkpt lat="43.2269" lon="5.3561">
        <ele>103</ele>
        <time>2026-03-01T09:12:27.111Z</time>
      </trkpt>
      <trkpt lat="43.2269" lon="5.35619">
        <ele>104</ele>
        <time>2026-03-01T09:12:33.349Z</time>
      </trkpt>
      <trkpt lat="43.22679" lon="5.35628">
        <ele>109</ele>
        <time>2026-03-01T09:13:09.232Z</time>
      </trkpt>
      <trkpt lat="43.22677" lon="5.35634">
        <ele>110</ele>
        <time>2026-03-01T09:13:14.794Z</time>
      </trkpt>
      <trkpt lat="43.2267" lon="5.35645">
        <ele>114</ele>
        <time>2026-03-01T09:13:42.397Z</time>
      </trkpt>
      <trkpt lat="43.2266" lon="5.3565">
        <ele>117</ele>
        <time>2026-03-01T09:13:59.341Z</time>
      </trkpt>
      <trkpt lat="43.22655" lon="5.35642">
        <ele>118</ele>
        <time>2026-03-01T09:14:06.163Z</time>
      </trkpt>
      <trkpt lat="43.22656" lon="5.35634">
        <ele>117</ele>
        <time>2026-03-01T09:14:09.630Z</time>
      </trkpt>
      <trkpt lat="43.22653" lon="5.35632">
        <ele>118</ele>
        <time>2026-03-01T09:14:15.426Z</time>
      </trkpt>
      <trkpt lat="43.22652" lon="5.35626">
        <ele>117</ele>
        <time>2026-03-01T09:14:18.143Z</time>
      </trkpt>
      <trkpt lat="43.22649" lon="5.35636">
        <ele>119</ele>
        <time>2026-03-01T09:14:29.166Z</time>
      </trkpt>
      <trkpt lat="43.22646" lon="5.35637">
        <ele>119</ele>
        <time>2026-03-01T09:14:31.210Z</time>
      </trkpt>
      <trkpt lat="43.22644" lon="5.35631">
        <ele>119</ele>
        <time>2026-03-01T09:14:34.394Z</time>
      </trkpt>
      <trkpt lat="43.22642" lon="5.35631">
        <ele>119</ele>
        <time>2026-03-01T09:14:35.718Z</time>
      </trkpt>
      <trkpt lat="43.22642" lon="5.35633">
        <ele>120</ele>
        <time>2026-03-01T09:14:41.392Z</time>
      </trkpt>
      <trkpt lat="43.22639" lon="5.3563">
        <ele>120</ele>
        <time>2026-03-01T09:14:43.850Z</time>
      </trkpt>
      <trkpt lat="43.22637" lon="5.35631">
        <ele>120</ele>
        <time>2026-03-01T09:14:45.259Z</time>
      </trkpt>
      <trkpt lat="43.22635" lon="5.35633">
        <ele>121</ele>
        <time>2026-03-01T09:14:52.698Z</time>
      </trkpt>
      <trkpt lat="43.22638" lon="5.35635">
        <ele>121</ele>
        <time>2026-03-01T09:14:54.907Z</time>
      </trkpt>
      <trkpt lat="43.22635" lon="5.35634">
        <ele>121</ele>
        <time>2026-03-01T09:14:56.951Z</time>
      </trkpt>
      <trkpt lat="43.22626" lon="5.35648">
        <ele>124</ele>
        <time>2026-03-01T09:15:13.484Z</time>
      </trkpt>
      <trkpt lat="43.22622" lon="5.35648">
        <ele>125</ele>
        <time>2026-03-01T09:15:18.986Z</time>
      </trkpt>
      <trkpt lat="43.22623" lon="5.35649">
        <ele>125</ele>
        <time>2026-03-01T09:15:19.805Z</time>
      </trkpt>
      <trkpt lat="43.22618" lon="5.35635">
        <ele>124</ele>
        <time>2026-03-01T09:15:26.602Z</time>
      </trkpt>
      <trkpt lat="43.22613" lon="5.35635">
        <ele>125</ele>
        <time>2026-03-01T09:15:32.212Z</time>
      </trkpt>
      <trkpt lat="43.22615" lon="5.35641">
        <ele>126</ele>
        <time>2026-03-01T09:15:37.774Z</time>
      </trkpt>
      <trkpt lat="43.22599" lon="5.35649">
        <ele>130</ele>
        <time>2026-03-01T09:15:59.727Z</time>
      </trkpt>
      <trkpt lat="43.226" lon="5.35649">
        <ele>130</ele>
        <time>2026-03-01T09:16:00.389Z</time>
      </trkpt>
      <trkpt lat="43.22581" lon="5.35684">
        <ele>143</ele>
        <time>2026-03-01T09:17:38.245Z</time>
      </trkpt>
      <trkpt lat="43.22571" lon="5.35686">
        <ele>146</ele>
        <time>2026-03-01T09:17:55.550Z</time>
      </trkpt>
      <trkpt lat="43.22559" lon="5.35695">
        <ele>151</ele>
        <time>2026-03-01T09:18:29.119Z</time>
      </trkpt>
      <trkpt lat="43.2255" lon="5.35699">
        <ele>154</ele>
        <time>2026-03-01T09:18:47.066Z</time>
      </trkpt>
      <trkpt lat="43.22543" lon="5.35698">
        <ele>156</ele>
        <time>2026-03-01T09:18:58.395Z</time>
      </trkpt>
      <trkpt lat="43.22538" lon="5.35686">
        <ele>154</ele>
        <time>2026-03-01T09:19:04.375Z</time>
      </trkpt>
      <trkpt lat="43.22523" lon="5.35612">
        <ele>137</ele>
        <time>2026-03-01T09:19:43.610Z</time>
      </trkpt>
      <trkpt lat="43.22517" lon="5.35591">
        <ele>132</ele>
        <time>2026-03-01T09:19:55.146Z</time>
      </trkpt>
      <trkpt lat="43.22519" lon="5.3558">
        <ele>128</ele>
        <time>2026-03-01T09:20:11.228Z</time>
      </trkpt>
      <trkpt lat="43.22518" lon="5.3557">
        <ele>124</ele>
        <time>2026-03-01T09:20:25.545Z</time>
      </trkpt>
      <trkpt lat="43.22517" lon="5.35575">
        <ele>126</ele>
        <time>2026-03-01T09:20:40.255Z</time>
      </trkpt>
      <trkpt lat="43.22514" lon="5.35573">
        <ele>126</ele>
        <time>2026-03-01T09:20:42.463Z</time>
      </trkpt>
      <trkpt lat="43.2251" lon="5.35569">
        <ele>125</ele>
        <time>2026-03-01T09:20:45.409Z</time>
      </trkpt>
      <trkpt lat="43.22509" lon="5.35566">
        <ele>124</ele>
        <time>2026-03-01T09:20:48.509Z</time>
      </trkpt>
      <trkpt lat="43.22511" lon="5.35566">
        <ele>123</ele>
        <time>2026-03-01T09:20:52.402Z</time>
      </trkpt>
      <trkpt lat="43.22508" lon="5.35567">
        <ele>124</ele>
        <time>2026-03-01T09:20:58.469Z</time>
      </trkpt>
      <trkpt lat="43.22495" lon="5.35562">
        <ele>122</ele>
        <time>2026-03-01T09:21:06.367Z</time>
      </trkpt>
      <trkpt lat="43.22491" lon="5.35557">
        <ele>120</ele>
        <time>2026-03-01T09:21:11.299Z</time>
      </trkpt>
      <trkpt lat="43.22488" lon="5.35556">
        <ele>120</ele>
        <time>2026-03-01T09:21:13.344Z</time>
      </trkpt>
      <trkpt lat="43.22481" lon="5.35544">
        <ele>114</ele>
        <time>2026-03-01T09:21:35.148Z</time>
      </trkpt>
      <trkpt lat="43.22466" lon="5.35535">
        <ele>110</ele>
        <time>2026-03-01T09:21:45.322Z</time>
      </trkpt>
      <trkpt lat="43.22462" lon="5.3553">
        <ele>108</ele>
        <time>2026-03-01T09:21:50.255Z</time>
      </trkpt>
      <trkpt lat="43.2246" lon="5.3553">
        <ele>107</ele>
        <time>2026-03-01T09:21:54.148Z</time>
      </trkpt>
      <trkpt lat="43.22446" lon="5.35541">
        <ele>112</ele>
        <time>2026-03-01T09:22:23.648Z</time>
      </trkpt>
      <trkpt lat="43.22432" lon="5.35548">
        <ele>115</ele>
        <time>2026-03-01T09:22:40.451Z</time>
      </trkpt>
      <trkpt lat="43.22412" lon="5.35578">
        <ele>126</ele>
        <time>2026-03-01T09:23:55.420Z</time>
      </trkpt>
      <trkpt lat="43.22405" lon="5.3558">
        <ele>126</ele>
        <time>2026-03-01T09:24:00.155Z</time>
      </trkpt>
      <trkpt lat="43.22393" lon="5.35573">
        <ele>123</ele>
        <time>2026-03-01T09:24:08.114Z</time>
      </trkpt>
      <trkpt lat="43.22383" lon="5.35577">
        <ele>123</ele>
        <time>2026-03-01T09:24:15.012Z</time>
      </trkpt>
      <trkpt lat="43.22374" lon="5.35577">
        <ele>122</ele>
        <time>2026-03-01T09:24:20.325Z</time>
      </trkpt>
      <trkpt lat="43.22372" lon="5.35579">
        <ele>122</ele>
        <time>2026-03-01T09:24:21.963Z</time>
      </trkpt>
      <trkpt lat="43.22365" lon="5.35595">
        <ele>126</ele>
        <time>2026-03-01T09:24:44.940Z</time>
      </trkpt>
      <trkpt lat="43.22357" lon="5.35608">
        <ele>129</ele>
        <time>2026-03-01T09:25:01.411Z</time>
      </trkpt>
      <trkpt lat="43.22348" lon="5.35635">
        <ele>134</ele>
        <time>2026-03-01T09:25:28.865Z</time>
      </trkpt>
      <trkpt lat="43.22346" lon="5.3565">
        <ele>138</ele>
        <time>2026-03-01T09:25:55.323Z</time>
      </trkpt>
      <trkpt lat="43.22346" lon="5.35673">
        <ele>144</ele>
        <time>2026-03-01T09:26:34.807Z</time>
      </trkpt>
      <trkpt lat="43.2234" lon="5.35667">
        <ele>141</ele>
        <time>2026-03-01T09:26:43.385Z</time>
      </trkpt>
      <trkpt lat="43.22339" lon="5.35662">
        <ele>140</ele>
        <time>2026-03-01T09:26:45.810Z</time>
      </trkpt>
      <trkpt lat="43.22326" lon="5.35644">
        <ele>138</ele>
        <time>2026-03-01T09:26:56.726Z</time>
      </trkpt>
      <trkpt lat="43.22321" lon="5.35634">
        <ele>137</ele>
        <time>2026-03-01T09:27:01.939Z</time>
      </trkpt>
      <trkpt lat="43.22316" lon="5.35613">
        <ele>134</ele>
        <time>2026-03-01T09:27:11.433Z</time>
      </trkpt>
      <trkpt lat="43.22315" lon="5.35597">
        <ele>130</ele>
        <time>2026-03-01T09:27:20.768Z</time>
      </trkpt>
      <trkpt lat="43.22311" lon="5.35588">
        <ele>129</ele>
        <time>2026-03-01T09:27:25.273Z</time>
      </trkpt>
      <trkpt lat="43.22313" lon="5.35571">
        <ele>125</ele>
        <time>2026-03-01T09:27:34.475Z</time>
      </trkpt>
      <trkpt lat="43.22307" lon="5.35557">
        <ele>125</ele>
        <time>2026-03-01T09:27:42.312Z</time>
      </trkpt>
      <trkpt lat="43.22312" lon="5.3553">
        <ele>118</ele>
        <time>2026-03-01T09:27:58.711Z</time>
      </trkpt>
      <trkpt lat="43.22312" lon="5.35516">
        <ele>116</ele>
        <time>2026-03-01T09:28:04.759Z</time>
      </trkpt>
      <trkpt lat="43.22318" lon="5.35492">
        <ele>110</ele>
        <time>2026-03-01T09:28:18.579Z</time>
      </trkpt>
      <trkpt lat="43.22313" lon="5.35469">
        <ele>108</ele>
        <time>2026-03-01T09:28:28.889Z</time>
      </trkpt>
      <trkpt lat="43.223" lon="5.35448">
        <ele>108</ele>
        <time>2026-03-01T09:28:42.185Z</time>
      </trkpt>
      <trkpt lat="43.22298" lon="5.35438">
        <ele>106</ele>
        <time>2026-03-01T09:28:47.036Z</time>
      </trkpt>
      <trkpt lat="43.22296" lon="5.35439">
        <ele>107</ele>
        <time>2026-03-01T09:28:55.323Z</time>
      </trkpt>
      <trkpt lat="43.22297" lon="5.35428">
        <ele>105</ele>
        <time>2026-03-01T09:29:00.367Z</time>
      </trkpt>
      <trkpt lat="43.22295" lon="5.35401">
        <ele>101</ele>
        <time>2026-03-01T09:29:12.137Z</time>
      </trkpt>
      <trkpt lat="43.22291" lon="5.35397">
        <ele>102</ele>
        <time>2026-03-01T09:29:17.734Z</time>
      </trkpt>
      <trkpt lat="43.2228" lon="5.35394">
        <ele>104</ele>
        <time>2026-03-01T09:29:29.365Z</time>
      </trkpt>
      <trkpt lat="43.22281" lon="5.35395">
        <ele>104</ele>
        <time>2026-03-01T09:29:30.184Z</time>
      </trkpt>
      <trkpt lat="43.22281" lon="5.35394">
        <ele>104</ele>
        <time>2026-03-01T09:29:30.667Z</time>
      </trkpt>
      <trkpt lat="43.2228" lon="5.35396">
        <ele>104</ele>
        <time>2026-03-01T09:29:31.837Z</time>
      </trkpt>
      <trkpt lat="43.22271" lon="5.35396">
        <ele>107</ele>
        <time>2026-03-01T09:29:50.420Z</time>
      </trkpt>
      <trkpt lat="43.22259" lon="5.35411">
        <ele>111</ele>
        <time>2026-03-01T09:30:12.402Z</time>
      </trkpt>
      <trkpt lat="43.22246" lon="5.3542">
        <ele>116</ele>
        <time>2026-03-01T09:30:44.117Z</time>
      </trkpt>
      <trkpt lat="43.22239" lon="5.35423">
        <ele>119</ele>
        <time>2026-03-01T09:31:06.717Z</time>
      </trkpt>
      <trkpt lat="43.22229" lon="5.35443">
        <ele>127</ele>
        <time>2026-03-01T09:32:12.161Z</time>
      </trkpt>
      <trkpt lat="43.22216" lon="5.35487">
        <ele>140</ele>
        <time>2026-03-01T09:33:41.837Z</time>
      </trkpt>
      <trkpt lat="43.22215" lon="5.35488">
        <ele>141</ele>
        <time>2026-03-01T09:33:46.654Z</time>
      </trkpt>
      <trkpt lat="43.22213" lon="5.35487">
        <ele>141</ele>
        <time>2026-03-01T09:33:48.064Z</time>
      </trkpt>
      <trkpt lat="43.222" lon="5.35457">
        <ele>140</ele>
        <time>2026-03-01T09:34:04.005Z</time>
      </trkpt>
      <trkpt lat="43.22194" lon="5.35447">
        <ele>140</ele>
        <time>2026-03-01T09:34:10.256Z</time>
      </trkpt>
      <trkpt lat="43.22192" lon="5.35435">
        <ele>138</ele>
        <time>2026-03-01T09:34:15.690Z</time>
      </trkpt>
      <trkpt lat="43.22194" lon="5.35412">
        <ele>132</ele>
        <time>2026-03-01T09:34:29.994Z</time>
      </trkpt>
      <trkpt lat="43.22199" lon="5.35406">
        <ele>129</ele>
        <time>2026-03-01T09:34:42.924Z</time>
      </trkpt>
      <trkpt lat="43.22201" lon="5.35392">
        <ele>126</ele>
        <time>2026-03-01T09:34:49.935Z</time>
      </trkpt>
      <trkpt lat="43.222" lon="5.35384">
        <ele>125</ele>
        <time>2026-03-01T09:34:53.402Z</time>
      </trkpt>
      <trkpt lat="43.22198" lon="5.3538">
        <ele>124</ele>
        <time>2026-03-01T09:34:55.755Z</time>
      </trkpt>
      <trkpt lat="43.22201" lon="5.35375">
        <ele>122</ele>
        <time>2026-03-01T09:35:02.368Z</time>
      </trkpt>
      <trkpt lat="43.22206" lon="5.35356">
        <ele>117</ele>
        <time>2026-03-01T09:35:14.009Z</time>
      </trkpt>
      <trkpt lat="43.22202" lon="5.35326">
        <ele>113</ele>
        <time>2026-03-01T09:35:27.080Z</time>
      </trkpt>
      <trkpt lat="43.22203" lon="5.35316">
        <ele>111</ele>
        <time>2026-03-01T09:35:31.866Z</time>
      </trkpt>
      <trkpt lat="43.222" lon="5.35314">
        <ele>111</ele>
        <time>2026-03-01T09:35:34.075Z</time>
      </trkpt>
      <trkpt lat="43.222" lon="5.35315">
        <ele>112</ele>
        <time>2026-03-01T09:35:36.912Z</time>
      </trkpt>
      <trkpt lat="43.22195" lon="5.35316">
        <ele>112</ele>
        <time>2026-03-01T09:35:40.258Z</time>
      </trkpt>
      <trkpt lat="43.22192" lon="5.35312">
        <ele>112</ele>
        <time>2026-03-01T09:35:43.028Z</time>
      </trkpt>
      <trkpt lat="43.2219" lon="5.35312">
        <ele>113</ele>
        <time>2026-03-01T09:35:50.814Z</time>
      </trkpt>
      <trkpt lat="43.22191" lon="5.35312">
        <ele>112</ele>
        <time>2026-03-01T09:35:52.761Z</time>
      </trkpt>
      <trkpt lat="43.22188" lon="5.35317">
        <ele>114</ele>
        <time>2026-03-01T09:36:08.353Z</time>
      </trkpt>
      <trkpt lat="43.22189" lon="5.35331">
        <ele>116</ele>
        <time>2026-03-01T09:36:19.647Z</time>
      </trkpt>
      <trkpt lat="43.22189" lon="5.35323">
        <ele>114</ele>
        <time>2026-03-01T09:36:24.322Z</time>
      </trkpt>
      <trkpt lat="43.22186" lon="5.35317">
        <ele>114</ele>
        <time>2026-03-01T09:36:27.833Z</time>
      </trkpt>
      <trkpt lat="43.22187" lon="5.35314">
        <ele>113</ele>
        <time>2026-03-01T09:36:30.933Z</time>
      </trkpt>
      <trkpt lat="43.22187" lon="5.35303">
        <ele>111</ele>
        <time>2026-03-01T09:36:35.952Z</time>
      </trkpt>
      <trkpt lat="43.22187" lon="5.35302">
        <ele>111</ele>
        <time>2026-03-01T09:36:36.434Z</time>
      </trkpt>
      <trkpt lat="43.22181" lon="5.35305">
        <ele>113</ele>
        <time>2026-03-01T09:36:48.307Z</time>
      </trkpt>
      <trkpt lat="43.2218" lon="5.35302">
        <ele>112</ele>
        <time>2026-03-01T09:36:51.407Z</time>
      </trkpt>
      <trkpt lat="43.22182" lon="5.3529">
        <ele>110</ele>
        <time>2026-03-01T09:36:56.841Z</time>
      </trkpt>
      <trkpt lat="43.22179" lon="5.35283">
        <ele>109</ele>
        <time>2026-03-01T09:37:00.310Z</time>
      </trkpt>
      <trkpt lat="43.22179" lon="5.35266">
        <ele>106</ele>
        <time>2026-03-01T09:37:07.986Z</time>
      </trkpt>
      <trkpt lat="43.22177" lon="5.35263">
        <ele>105</ele>
        <time>2026-03-01T09:37:10.309Z</time>
      </trkpt>
      <trkpt lat="43.22174" lon="5.35245">
        <ele>102</ele>
        <time>2026-03-01T09:37:18.460Z</time>
      </trkpt>
      <trkpt lat="43.22173" lon="5.35243">
        <ele>101</ele>
        <time>2026-03-01T09:37:21.901Z</time>
      </trkpt>
      <trkpt lat="43.22168" lon="5.3524">
        <ele>100</ele>
        <time>2026-03-01T09:37:25.115Z</time>
      </trkpt>
      <trkpt lat="43.22165" lon="5.35235">
        <ele>98</ele>
        <time>2026-03-01T09:37:31.727Z</time>
      </trkpt>
      <trkpt lat="43.22164" lon="5.3523">
        <ele>97</ele>
        <time>2026-03-01T09:37:34.152Z</time>
      </trkpt>
      <trkpt lat="43.2216" lon="5.35224">
        <ele>94</ele>
        <time>2026-03-01T09:37:45.688Z</time>
      </trkpt>
      <trkpt lat="43.2216" lon="5.35203">
        <ele>88</ele>
        <time>2026-03-01T09:38:01.779Z</time>
      </trkpt>
      <trkpt lat="43.22154" lon="5.35201">
        <ele>87</ele>
        <time>2026-03-01T09:38:05.394Z</time>
      </trkpt>
      <trkpt lat="43.22147" lon="5.35194">
        <ele>84</ele>
        <time>2026-03-01T09:38:12.438Z</time>
      </trkpt>
      <trkpt lat="43.22147" lon="5.35193">
        <ele>83</ele>
        <time>2026-03-01T09:38:13.856Z</time>
      </trkpt>
      <trkpt lat="43.2215" lon="5.3519">
        <ele>83</ele>
        <time>2026-03-01T09:38:16.314Z</time>
      </trkpt>
      <trkpt lat="43.22141" lon="5.35185">
        <ele>80</ele>
        <time>2026-03-01T09:38:23.223Z</time>
      </trkpt>
      <trkpt lat="43.22142" lon="5.35178">
        <ele>79</ele>
        <time>2026-03-01T09:38:26.298Z</time>
      </trkpt>
      <trkpt lat="43.22139" lon="5.35176">
        <ele>78</ele>
        <time>2026-03-01T09:38:28.611Z</time>
      </trkpt>
      <trkpt lat="43.22139" lon="5.35175">
        <ele>77</ele>
        <time>2026-03-01T09:38:30.030Z</time>
      </trkpt>
      <trkpt lat="43.2214" lon="5.35175">
        <ele>78</ele>
        <time>2026-03-01T09:38:33.923Z</time>
      </trkpt>
      <trkpt lat="43.22141" lon="5.35173">
        <ele>77</ele>
        <time>2026-03-01T09:38:37.364Z</time>
      </trkpt>
      <trkpt lat="43.22139" lon="5.35172">
        <ele>77</ele>
        <time>2026-03-01T09:38:38.773Z</time>
      </trkpt>
      <trkpt lat="43.2214" lon="5.3517">
        <ele>76</ele>
        <time>2026-03-01T09:38:42.214Z</time>
      </trkpt>
      <trkpt lat="43.22139" lon="5.35172">
        <ele>77</ele>
        <time>2026-03-01T09:38:49.095Z</time>
      </trkpt>
      <trkpt lat="43.22139" lon="5.3517">
        <ele>76</ele>
        <time>2026-03-01T09:38:51.932Z</time>
      </trkpt>
      <trkpt lat="43.22138" lon="5.35171">
        <ele>76</ele>
        <time>2026-03-01T09:38:52.752Z</time>
      </trkpt>
      <trkpt lat="43.22139" lon="5.3517">
        <ele>76</ele>
        <time>2026-03-01T09:38:53.571Z</time>
      </trkpt>
      <trkpt lat="43.22133" lon="5.35173">
        <ele>76</ele>
        <time>2026-03-01T09:38:57.800Z</time>
      </trkpt>
      <trkpt lat="43.22126" lon="5.35191">
        <ele>79</ele>
        <time>2026-03-01T09:39:14.594Z</time>
      </trkpt>
      <trkpt lat="43.22126" lon="5.35239">
        <ele>90</ele>
        <time>2026-03-01T09:40:20.057Z</time>
      </trkpt>
      <trkpt lat="43.2212" lon="5.35245">
        <ele>90</ele>
        <time>2026-03-01T09:40:24.973Z</time>
      </trkpt>
      <trkpt lat="43.22112" lon="5.35247">
        <ele>89</ele>
        <time>2026-03-01T09:40:29.751Z</time>
      </trkpt>
      <trkpt lat="43.22098" lon="5.35239">
        <ele>84</ele>
        <time>2026-03-01T09:40:41.296Z</time>
      </trkpt>
      <trkpt lat="43.22088" lon="5.35228">
        <ele>79</ele>
        <time>2026-03-01T09:40:54.585Z</time>
      </trkpt>
      <trkpt lat="43.22077" lon="5.35241">
        <ele>83</ele>
        <time>2026-03-01T09:41:17.012Z</time>
      </trkpt>
      <trkpt lat="43.22068" lon="5.35247">
        <ele>87</ele>
        <time>2026-03-01T09:41:46.438Z</time>
      </trkpt>
      <trkpt lat="43.22062" lon="5.35248">
        <ele>89</ele>
        <time>2026-03-01T09:41:58.758Z</time>
      </trkpt>
      <trkpt lat="43.2206" lon="5.35247">
        <ele>90</ele>
        <time>2026-03-01T09:42:07.045Z</time>
      </trkpt>
      <trkpt lat="43.22054" lon="5.35235">
        <ele>90</ele>
        <time>2026-03-01T09:42:14.068Z</time>
      </trkpt>
      <trkpt lat="43.22054" lon="5.352">
        <ele>83</ele>
        <time>2026-03-01T09:42:30.747Z</time>
      </trkpt>
      <trkpt lat="43.22069" lon="5.35143">
        <ele>68</ele>
        <time>2026-03-01T09:43:05.670Z</time>
      </trkpt>
      <trkpt lat="43.22069" lon="5.35131">
        <ele>65</ele>
        <time>2026-03-01T09:43:12.682Z</time>
      </trkpt>
      <trkpt lat="43.22066" lon="5.35116">
        <ele>63</ele>
        <time>2026-03-01T09:43:19.341Z</time>
      </trkpt>
      <trkpt lat="43.22067" lon="5.35081">
        <ele>56</ele>
        <time>2026-03-01T09:43:36.026Z</time>
      </trkpt>
      <trkpt lat="43.22062" lon="5.35059">
        <ele>54</ele>
        <time>2026-03-01T09:43:45.907Z</time>
      </trkpt>
      <trkpt lat="43.22057" lon="5.35054">
        <ele>54</ele>
        <time>2026-03-01T09:43:50.004Z</time>
      </trkpt>
      <trkpt lat="43.22048" lon="5.35053">
        <ele>55</ele>
        <time>2026-03-01T09:43:57.593Z</time>
      </trkpt>
      <trkpt lat="43.22043" lon="5.35056">
        <ele>57</ele>
        <time>2026-03-01T09:44:11.052Z</time>
      </trkpt>
      <trkpt lat="43.22038" lon="5.35064">
        <ele>59</ele>
        <time>2026-03-01T09:44:22.118Z</time>
      </trkpt>
      <trkpt lat="43.22024" lon="5.35069">
        <ele>62</ele>
        <time>2026-03-01T09:44:38.812Z</time>
      </trkpt>
      <trkpt lat="43.22014" lon="5.35063">
        <ele>62</ele>
        <time>2026-03-01T09:44:46.039Z</time>
      </trkpt>
      <trkpt lat="43.22005" lon="5.35055">
        <ele>62</ele>
        <time>2026-03-01T09:44:53.140Z</time>
      </trkpt>
      <trkpt lat="43.22001" lon="5.35049">
        <ele>62</ele>
        <time>2026-03-01T09:44:57.064Z</time>
      </trkpt>
      <trkpt lat="43.21998" lon="5.35037">
        <ele>60</ele>
        <time>2026-03-01T09:45:02.628Z</time>
      </trkpt>
      <trkpt lat="43.21995" lon="5.35035">
        <ele>60</ele>
        <time>2026-03-01T09:45:04.837Z</time>
      </trkpt>
      <trkpt lat="43.21978" lon="5.35041">
        <ele>64</ele>
        <time>2026-03-01T09:45:26.816Z</time>
      </trkpt>
      <trkpt lat="43.21971" lon="5.35036">
        <ele>64</ele>
        <time>2026-03-01T09:45:32.042Z</time>
      </trkpt>
      <trkpt lat="43.21956" lon="5.35015">
        <ele>62</ele>
        <time>2026-03-01T09:45:44.816Z</time>
      </trkpt>
      <trkpt lat="43.21954" lon="5.35016">
        <ele>62</ele>
        <time>2026-03-01T09:45:46.226Z</time>
      </trkpt>
      <trkpt lat="43.21952" lon="5.35019">
        <ele>63</ele>
        <time>2026-03-01T09:45:52.480Z</time>
      </trkpt>
      <trkpt lat="43.21949" lon="5.35035">
        <ele>67</ele>
        <time>2026-03-01T09:46:17.195Z</time>
      </trkpt>
      <trkpt lat="43.21937" lon="5.35048">
        <ele>72</ele>
        <time>2026-03-01T09:46:47.734Z</time>
      </trkpt>
      <trkpt lat="43.21935" lon="5.35049">
        <ele>72</ele>
        <time>2026-03-01T09:46:49.143Z</time>
      </trkpt>
      <trkpt lat="43.2193" lon="5.35047">
        <ele>73</ele>
        <time>2026-03-01T09:46:54.816Z</time>
      </trkpt>
      <trkpt lat="43.21921" lon="5.35035">
        <ele>71</ele>
        <time>2026-03-01T09:47:02.160Z</time>
      </trkpt>
      <trkpt lat="43.21915" lon="5.3501">
        <ele>66</ele>
        <time>2026-03-01T09:47:14.386Z</time>
      </trkpt>
      <trkpt lat="43.21899" lon="5.3498">
        <ele>59</ele>
        <time>2026-03-01T09:47:31.589Z</time>
      </trkpt>
      <trkpt lat="43.21892" lon="5.34962">
        <ele>55</ele>
        <time>2026-03-01T09:47:41.209Z</time>
      </trkpt>
      <trkpt lat="43.21877" lon="5.34938">
        <ele>50</ele>
        <time>2026-03-01T09:47:55.087Z</time>
      </trkpt>
      <trkpt lat="43.21875" lon="5.34946">
        <ele>52</ele>
        <time>2026-03-01T09:48:07.236Z</time>
      </trkpt>
      <trkpt lat="43.21857" lon="5.34969">
        <ele>55</ele>
        <time>2026-03-01T09:48:28.567Z</time>
      </trkpt>
      <trkpt lat="43.2185" lon="5.34971">
        <ele>55</ele>
        <time>2026-03-01T09:48:33.302Z</time>
      </trkpt>
      <trkpt lat="43.21836" lon="5.34972">
        <ele>54</ele>
        <time>2026-03-01T09:48:41.800Z</time>
      </trkpt>
      <trkpt lat="43.21822" lon="5.34976">
        <ele>52</ele>
        <time>2026-03-01T09:48:50.171Z</time>
      </trkpt>
      <trkpt lat="43.21816" lon="5.34982">
        <ele>52</ele>
        <time>2026-03-01T09:48:55.087Z</time>
      </trkpt>
      <trkpt lat="43.21811" lon="5.34984">
        <ele>51</ele>
        <time>2026-03-01T09:48:58.168Z</time>
      </trkpt>
      <trkpt lat="43.21805" lon="5.34983">
        <ele>49</ele>
        <time>2026-03-01T09:49:02.789Z</time>
      </trkpt>
      <trkpt lat="43.21801" lon="5.34987">
        <ele>49</ele>
        <time>2026-03-01T09:49:06.066Z</time>
      </trkpt>
      <trkpt lat="43.21798" lon="5.34995">
        <ele>49</ele>
        <time>2026-03-01T09:49:10.408Z</time>
      </trkpt>
      <trkpt lat="43.218" lon="5.35023">
        <ele>53</ele>
        <time>2026-03-01T09:49:32.995Z</time>
      </trkpt>
      <trkpt lat="43.21797" lon="5.3504">
        <ele>54</ele>
        <time>2026-03-01T09:49:42.860Z</time>
      </trkpt>
      <trkpt lat="43.21807" lon="5.35069">
        <ele>60</ele>
        <time>2026-03-01T09:50:15.979Z</time>
      </trkpt>
      <trkpt lat="43.21805" lon="5.35084">
        <ele>62</ele>
        <time>2026-03-01T09:50:27.570Z</time>
      </trkpt>
      <trkpt lat="43.21805" lon="5.35097">
        <ele>63</ele>
        <time>2026-03-01T09:50:35.422Z</time>
      </trkpt>
      <trkpt lat="43.21802" lon="5.35109">
        <ele>63</ele>
        <time>2026-03-01T09:50:41.545Z</time>
      </trkpt>
      <trkpt lat="43.21802" lon="5.3512">
        <ele>64</ele>
        <time>2026-03-01T09:50:48.553Z</time>
      </trkpt>
      <trkpt lat="43.21807" lon="5.35141">
        <ele>66</ele>
        <time>2026-03-01T09:51:02.606Z</time>
      </trkpt>
      <trkpt lat="43.21805" lon="5.35158">
        <ele>67</ele>
        <time>2026-03-01T09:51:12.347Z</time>
      </trkpt>
      <trkpt lat="43.21805" lon="5.35167">
        <ele>68</ele>
        <time>2026-03-01T09:51:18.584Z</time>
      </trkpt>
      <trkpt lat="43.21815" lon="5.35186">
        <ele>73</ele>
        <time>2026-03-01T09:51:47.245Z</time>
      </trkpt>
      <trkpt lat="43.21816" lon="5.35193">
        <ele>74</ele>
        <time>2026-03-01T09:51:52.915Z</time>
      </trkpt>
      <trkpt lat="43.21815" lon="5.35199">
        <ele>74</ele>
        <time>2026-03-01T09:51:55.885Z</time>
      </trkpt>
      <trkpt lat="43.21813" lon="5.35201">
        <ele>74</ele>
        <time>2026-03-01T09:51:57.524Z</time>
      </trkpt>
      <trkpt lat="43.21805" lon="5.35206">
        <ele>73</ele>
        <time>2026-03-01T09:52:02.707Z</time>
      </trkpt>
      <trkpt lat="43.21797" lon="5.35215">
        <ele>73</ele>
        <time>2026-03-01T09:52:09.557Z</time>
      </trkpt>
      <trkpt lat="43.21792" lon="5.35217">
        <ele>72</ele>
        <time>2026-03-01T09:52:12.637Z</time>
      </trkpt>
      <trkpt lat="43.21785" lon="5.35216">
        <ele>71</ele>
        <time>2026-03-01T09:52:16.756Z</time>
      </trkpt>
      <trkpt lat="43.21783" lon="5.35214">
        <ele>70</ele>
        <time>2026-03-01T09:52:19.615Z</time>
      </trkpt>
      <trkpt lat="43.21774" lon="5.35212">
        <ele>68</ele>
        <time>2026-03-01T09:52:25.119Z</time>
      </trkpt>
      <trkpt lat="43.21768" lon="5.35207">
        <ele>66</ele>
        <time>2026-03-01T09:52:29.813Z</time>
      </trkpt>
      <trkpt lat="43.2175" lon="5.35204">
        <ele>62</ele>
        <time>2026-03-01T09:52:40.771Z</time>
      </trkpt>
      <trkpt lat="43.21746" lon="5.35202">
        <ele>61</ele>
        <time>2026-03-01T09:52:43.385Z</time>
      </trkpt>
      <trkpt lat="43.21742" lon="5.35202">
        <ele>61</ele>
        <time>2026-03-01T09:52:46.033Z</time>
      </trkpt>
      <trkpt lat="43.21739" lon="5.35207">
        <ele>61</ele>
        <time>2026-03-01T09:52:49.159Z</time>
      </trkpt>
      <trkpt lat="43.21739" lon="5.35216">
        <ele>63</ele>
        <time>2026-03-01T09:53:00.852Z</time>
      </trkpt>
      <trkpt lat="43.21735" lon="5.35233">
        <ele>65</ele>
        <time>2026-03-01T09:53:13.280Z</time>
      </trkpt>
      <trkpt lat="43.21735" lon="5.3525">
        <ele>67</ele>
        <time>2026-03-01T09:53:25.411Z</time>
      </trkpt>
      <trkpt lat="43.21744" lon="5.35261">
        <ele>70</ele>
        <time>2026-03-01T09:53:41.911Z</time>
      </trkpt>
      <trkpt lat="43.21744" lon="5.35259">
        <ele>69</ele>
        <time>2026-03-01T09:53:44.748Z</time>
      </trkpt>
      <trkpt lat="43.2175" lon="5.35262">
        <ele>71</ele>
        <time>2026-03-01T09:53:56.621Z</time>
      </trkpt>
      <trkpt lat="43.21755" lon="5.35263">
        <ele>72</ele>
        <time>2026-03-01T09:54:02.246Z</time>
      </trkpt>
      <trkpt lat="43.21767" lon="5.35277">
        <ele>75</ele>
        <time>2026-03-01T09:54:19.305Z</time>
      </trkpt>
      <trkpt lat="43.21775" lon="5.35294">
        <ele>79</ele>
        <time>2026-03-01T09:54:41.635Z</time>
      </trkpt>
      <trkpt lat="43.21777" lon="5.35309">
        <ele>81</ele>
        <time>2026-03-01T09:54:53.227Z</time>
      </trkpt>
      <trkpt lat="43.21782" lon="5.35315">
        <ele>83</ele>
        <time>2026-03-01T09:55:04.844Z</time>
      </trkpt>
      <trkpt lat="43.21781" lon="5.3533">
        <ele>84</ele>
        <time>2026-03-01T09:55:13.606Z</time>
      </trkpt>
      <trkpt lat="43.21779" lon="5.35334">
        <ele>84</ele>
        <time>2026-03-01T09:55:15.947Z</time>
      </trkpt>
      <trkpt lat="43.21763" lon="5.35344">
        <ele>80</ele>
        <time>2026-03-01T09:55:26.649Z</time>
      </trkpt>
      <trkpt lat="43.21754" lon="5.35351">
        <ele>79</ele>
        <time>2026-03-01T09:55:32.803Z</time>
      </trkpt>
      <trkpt lat="43.21749" lon="5.35361">
        <ele>78</ele>
        <time>2026-03-01T09:55:38.016Z</time>
      </trkpt>
      <trkpt lat="43.21745" lon="5.35378">
        <ele>80</ele>
        <time>2026-03-01T09:55:50.443Z</time>
      </trkpt>
      <trkpt lat="43.21739" lon="5.35389">
        <ele>80</ele>
        <time>2026-03-01T09:55:57.074Z</time>
      </trkpt>
      <trkpt lat="43.21729" lon="5.35402">
        <ele>79</ele>
        <time>2026-03-01T09:56:05.415Z</time>
      </trkpt>
      <trkpt lat="43.21712" lon="5.35413">
        <ele>77</ele>
        <time>2026-03-01T09:56:16.536Z</time>
      </trkpt>
      <trkpt lat="43.21708" lon="5.35419">
        <ele>76</ele>
        <time>2026-03-01T09:56:20.010Z</time>
      </trkpt>
      <trkpt lat="43.21702" lon="5.35421">
        <ele>74</ele>
        <time>2026-03-01T09:56:24.615Z</time>
      </trkpt>
      <trkpt lat="43.21696" lon="5.35426">
        <ele>72</ele>
        <time>2026-03-01T09:56:29.309Z</time>
      </trkpt>
      <trkpt lat="43.2169" lon="5.35428">
        <ele>70</ele>
        <time>2026-03-01T09:56:33.915Z</time>
      </trkpt>
      <trkpt lat="43.21684" lon="5.35424">
        <ele>69</ele>
        <time>2026-03-01T09:56:37.817Z</time>
      </trkpt>
      <trkpt lat="43.21675" lon="5.35422">
        <ele>67</ele>
        <time>2026-03-01T09:56:43.321Z</time>
      </trkpt>
      <trkpt lat="43.21669" lon="5.35423">
        <ele>65</ele>
        <time>2026-03-01T09:56:47.942Z</time>
      </trkpt>
      <trkpt lat="43.21664" lon="5.35418">
        <ele>66</ele>
        <time>2026-03-01T09:56:54.004Z</time>
      </trkpt>
      <trkpt lat="43.21658" lon="5.35416">
        <ele>65</ele>
        <time>2026-03-01T09:56:57.619Z</time>
      </trkpt>
      <trkpt lat="43.21653" lon="5.35424">
        <ele>63</ele>
        <time>2026-03-01T09:57:02.512Z</time>
      </trkpt>
      <trkpt lat="43.21653" lon="5.35427">
        <ele>63</ele>
        <time>2026-03-01T09:57:03.960Z</time>
      </trkpt>
      <trkpt lat="43.21652" lon="5.35427">
        <ele>63</ele>
        <time>2026-03-01T09:57:04.622Z</time>
      </trkpt>
      <trkpt lat="43.21653" lon="5.35429">
        <ele>63</ele>
        <time>2026-03-01T09:57:05.793Z</time>
      </trkpt>
      <trkpt lat="43.21649" lon="5.35439">
        <ele>61</ele>
        <time>2026-03-01T09:57:10.933Z</time>
      </trkpt>
      <trkpt lat="43.21653" lon="5.35447">
        <ele>60</ele>
        <time>2026-03-01T09:57:15.071Z</time>
      </trkpt>
      <trkpt lat="43.21657" lon="5.35449">
        <ele>60</ele>
        <time>2026-03-01T09:57:17.890Z</time>
      </trkpt>
      <trkpt lat="43.21662" lon="5.35465">
        <ele>57</ele>
        <time>2026-03-01T09:57:25.694Z</time>
      </trkpt>
      <trkpt lat="43.21667" lon="5.35513">
        <ele>50</ele>
        <time>2026-03-01T09:57:46.668Z</time>
      </trkpt>
      <trkpt lat="43.21672" lon="5.35522">
        <ele>49</ele>
        <time>2026-03-01T09:57:51.517Z</time>
      </trkpt>
      <trkpt lat="43.21668" lon="5.35528">
        <ele>47</ele>
        <time>2026-03-01T09:57:56.163Z</time>
      </trkpt>
      <trkpt lat="43.21667" lon="5.35538">
        <ele>45</ele>
        <time>2026-03-01T09:58:00.949Z</time>
      </trkpt>
      <trkpt lat="43.21673" lon="5.35567">
        <ele>42</ele>
        <time>2026-03-01T09:58:13.816Z</time>
      </trkpt>
      <trkpt lat="43.21676" lon="5.35575">
        <ele>41</ele>
        <time>2026-03-01T09:58:17.651Z</time>
      </trkpt>
      <trkpt lat="43.21674" lon="5.3559">
        <ele>39</ele>
        <time>2026-03-01T09:58:24.188Z</time>
      </trkpt>
      <trkpt lat="43.21668" lon="5.35599">
        <ele>38</ele>
        <time>2026-03-01T09:58:29.432Z</time>
      </trkpt>
      <trkpt lat="43.21659" lon="5.35607">
        <ele>37</ele>
        <time>2026-03-01T09:58:35.825Z</time>
      </trkpt>
      <trkpt lat="43.21654" lon="5.35609">
        <ele>36</ele>
        <time>2026-03-01T09:58:38.905Z</time>
      </trkpt>
      <trkpt lat="43.21642" lon="5.35605">
        <ele>35</ele>
        <time>2026-03-01T09:58:46.332Z</time>
      </trkpt>
      <trkpt lat="43.21627" lon="5.35607">
        <ele>33</ele>
        <time>2026-03-01T09:58:55.165Z</time>
      </trkpt>
      <trkpt lat="43.21608" lon="5.35618">
        <ele>30</ele>
        <time>2026-03-01T09:59:07.230Z</time>
      </trkpt>
      <trkpt lat="43.21589" lon="5.35631">
        <ele>27</ele>
        <time>2026-03-01T09:59:19.655Z</time>
      </trkpt>
      <trkpt lat="43.21582" lon="5.35631">
        <ele>26</ele>
        <time>2026-03-01T09:59:23.752Z</time>
      </trkpt>
      <trkpt lat="43.21571" lon="5.35627">
        <ele>26</ele>
        <time>2026-03-01T09:59:31.287Z</time>
      </trkpt>
      <trkpt lat="43.21555" lon="5.3563">
        <ele>26</ele>
        <time>2026-03-01T09:59:41.980Z</time>
      </trkpt>
      <trkpt lat="43.21549" lon="5.35623">
        <ele>25</ele>
        <time>2026-03-01T09:59:46.603Z</time>
      </trkpt>
      <trkpt lat="43.21543" lon="5.35622">
        <ele>25</ele>
        <time>2026-03-01T09:59:50.605Z</time>
      </trkpt>
      <trkpt lat="43.2153" lon="5.35602">
        <ele>24</ele>
        <time>2026-03-01T10:00:02.681Z</time>
      </trkpt>
      <trkpt lat="43.21519" lon="5.35591">
        <ele>22</ele>
        <time>2026-03-01T10:00:10.644Z</time>
      </trkpt>
      <trkpt lat="43.21518" lon="5.35577">
        <ele>23</ele>
        <time>2026-03-01T10:00:18.963Z</time>
      </trkpt>
      <trkpt lat="43.21517" lon="5.3557">
        <ele>23</ele>
        <time>2026-03-01T10:00:22.406Z</time>
      </trkpt>
      <trkpt lat="43.21509" lon="5.35565">
        <ele>23</ele>
        <time>2026-03-01T10:00:28.227Z</time>
      </trkpt>
      <trkpt lat="43.2151" lon="5.35567">
        <ele>23</ele>
        <time>2026-03-01T10:00:29.397Z</time>
      </trkpt>
      <trkpt lat="43.21508" lon="5.35566">
        <ele>23</ele>
        <time>2026-03-01T10:00:30.807Z</time>
      </trkpt>
      <trkpt lat="43.21505" lon="5.35568">
        <ele>22</ele>
        <time>2026-03-01T10:00:33.120Z</time>
      </trkpt>
      <trkpt lat="43.21486" lon="5.35552">
        <ele>22</ele>
        <time>2026-03-01T10:00:47.882Z</time>
      </trkpt>
      <trkpt lat="43.21461" lon="5.3554">
        <ele>21</ele>
        <time>2026-03-01T10:01:04.514Z</time>
      </trkpt>
      <trkpt lat="43.21447" lon="5.35526">
        <ele>20</ele>
        <time>2026-03-01T10:01:15.152Z</time>
      </trkpt>
      <trkpt lat="43.2144" lon="5.35522">
        <ele>20</ele>
        <time>2026-03-01T10:01:20.173Z</time>
      </trkpt>
      <trkpt lat="43.21431" lon="5.35522">
        <ele>19</ele>
        <time>2026-03-01T10:01:25.486Z</time>
      </trkpt>
      <trkpt lat="43.2141" lon="5.35527">
        <ele>17</ele>
        <time>2026-03-01T10:01:38.188Z</time>
      </trkpt>
      <trkpt lat="43.21409" lon="5.35528">
        <ele>17</ele>
        <time>2026-03-01T10:01:39.007Z</time>
      </trkpt>
      <trkpt lat="43.21409" lon="5.35533">
        <ele>17</ele>
        <time>2026-03-01T10:01:41.420Z</time>
      </trkpt>
      <trkpt lat="43.21405" lon="5.35531">
        <ele>17</ele>
        <time>2026-03-01T10:01:44.239Z</time>
      </trkpt>
      <trkpt lat="43.21389" lon="5.35552">
        <ele>18</ele>
        <time>2026-03-01T10:02:00.156Z</time>
      </trkpt>
      <trkpt lat="43.21385" lon="5.35551">
        <ele>18</ele>
        <time>2026-03-01T10:02:02.848Z</time>
      </trkpt>
      <trkpt lat="43.21374" lon="5.3554">
        <ele>17</ele>
        <time>2026-03-01T10:02:11.085Z</time>
      </trkpt>
      <trkpt lat="43.21359" lon="5.35519">
        <ele>16</ele>
        <time>2026-03-01T10:02:24.402Z</time>
      </trkpt>
      <trkpt lat="43.21334" lon="5.35495">
        <ele>13</ele>
        <time>2026-03-01T10:02:42.534Z</time>
      </trkpt>
      <trkpt lat="43.21307" lon="5.35459">
        <ele>16</ele>
        <time>2026-03-01T10:03:11.756Z</time>
      </trkpt>
      <trkpt lat="43.2129" lon="5.35443">
        <ele>15</ele>
        <time>2026-03-01T10:03:24.540Z</time>
      </trkpt>
      <trkpt lat="43.21281" lon="5.35429">
        <ele>14</ele>
        <time>2026-03-01T10:03:32.773Z</time>
      </trkpt>
      <trkpt lat="43.21272" lon="5.3542">
        <ele>13</ele>
        <time>2026-03-01T10:03:39.427Z</time>
      </trkpt>
      <trkpt lat="43.21264" lon="5.35424">
        <ele>12</ele>
        <time>2026-03-01T10:03:44.440Z</time>
      </trkpt>
      <trkpt lat="43.21262" lon="5.35429">
        <ele>12</ele>
        <time>2026-03-01T10:03:47.193Z</time>
      </trkpt>
      <trkpt lat="43.21258" lon="5.35432">
        <ele>12</ele>
        <time>2026-03-01T10:03:50.211Z</time>
      </trkpt>
      <trkpt lat="43.21259" lon="5.35438">
        <ele>13</ele>
        <time>2026-03-01T10:03:55.716Z</time>
      </trkpt>
      <trkpt lat="43.21257" lon="5.35441">
        <ele>13</ele>
        <time>2026-03-01T10:03:57.678Z</time>
      </trkpt>
      <trkpt lat="43.21252" lon="5.35425">
        <ele>11</ele>
        <time>2026-03-01T10:04:05.102Z</time>
      </trkpt>
      <trkpt lat="43.21245" lon="5.35417">
        <ele>12</ele>
        <time>2026-03-01T10:04:12.739Z</time>
      </trkpt>
      <trkpt lat="43.21236" lon="5.35409">
        <ele>14</ele>
        <time>2026-03-01T10:04:24.188Z</time>
      </trkpt>
      <trkpt lat="43.21255" lon="5.35429">
        <ele>12</ele>
        <time>2026-03-01T10:04:38.562Z</time>
      </trkpt>
      <trkpt lat="43.21259" lon="5.35435">
        <ele>13</ele>
        <time>2026-03-01T10:04:44.509Z</time>
      </trkpt>
      <trkpt lat="43.21255" lon="5.3545">
        <ele>14</ele>
        <time>2026-03-01T10:04:53.682Z</time>
      </trkpt>
      <trkpt lat="43.21248" lon="5.35464">
        <ele>16</ele>
        <time>2026-03-01T10:05:05.806Z</time>
      </trkpt>
      <trkpt lat="43.21246" lon="5.35464">
        <ele>16</ele>
        <time>2026-03-01T10:05:07.131Z</time>
      </trkpt>
      <trkpt lat="43.21243" lon="5.3547">
        <ele>18</ele>
        <time>2026-03-01T10:05:20.979Z</time>
      </trkpt>
      <trkpt lat="43.21244" lon="5.35483">
        <ele>19</ele>
        <time>2026-03-01T10:05:28.863Z</time>
      </trkpt>
      <trkpt lat="43.21242" lon="5.35489">
        <ele>20</ele>
        <time>2026-03-01T10:05:34.425Z</time>
      </trkpt>
      <trkpt lat="43.21237" lon="5.35494">
        <ele>23</ele>
        <time>2026-03-01T10:05:58.513Z</time>
      </trkpt>
      <trkpt lat="43.21234" lon="5.35491">
        <ele>23</ele>
        <time>2026-03-01T10:06:00.971Z</time>
      </trkpt>
      <trkpt lat="43.21234" lon="5.35472">
        <ele>21</ele>
        <time>2026-03-01T10:06:09.073Z</time>
      </trkpt>
      <trkpt lat="43.21232" lon="5.35467">
        <ele>21</ele>
        <time>2026-03-01T10:06:11.826Z</time>
      </trkpt>
      <trkpt lat="43.21219" lon="5.35461">
        <ele>25</ele>
        <time>2026-03-01T10:06:34.717Z</time>
      </trkpt>
      <trkpt lat="43.21221" lon="5.35466">
        <ele>25</ele>
        <time>2026-03-01T10:06:37.469Z</time>
      </trkpt>
      <trkpt lat="43.21219" lon="5.35471">
        <ele>26</ele>
        <time>2026-03-01T10:06:42.958Z</time>
      </trkpt>
      <trkpt lat="43.21216" lon="5.35473">
        <ele>27</ele>
        <time>2026-03-01T10:06:48.754Z</time>
      </trkpt>
      <trkpt lat="43.21209" lon="5.35464">
        <ele>28</ele>
        <time>2026-03-01T10:06:56.678Z</time>
      </trkpt>
      <trkpt lat="43.21197" lon="5.35454">
        <ele>31</ele>
        <time>2026-03-01T10:07:13.282Z</time>
      </trkpt>
      <trkpt lat="43.21194" lon="5.35445">
        <ele>31</ele>
        <time>2026-03-01T10:07:18.058Z</time>
      </trkpt>
      <trkpt lat="43.21184" lon="5.35434">
        <ele>32</ele>
        <time>2026-03-01T10:07:27.967Z</time>
      </trkpt>
      <trkpt lat="43.21178" lon="5.35419">
        <ele>32</ele>
        <time>2026-03-01T10:07:36.225Z</time>
      </trkpt>
      <trkpt lat="43.21174" lon="5.35414">
        <ele>32</ele>
        <time>2026-03-01T10:07:39.808Z</time>
      </trkpt>
      <trkpt lat="43.21173" lon="5.35408">
        <ele>31</ele>
        <time>2026-03-01T10:07:42.525Z</time>
      </trkpt>
      <trkpt lat="43.21171" lon="5.35406">
        <ele>31</ele>
        <time>2026-03-01T10:07:44.164Z</time>
      </trkpt>
      <trkpt lat="43.21161" lon="5.35404">
        <ele>33</ele>
        <time>2026-03-01T10:07:55.414Z</time>
      </trkpt>
      <trkpt lat="43.21157" lon="5.354">
        <ele>32</ele>
        <time>2026-03-01T10:07:58.360Z</time>
      </trkpt>
      <trkpt lat="43.21154" lon="5.35401">
        <ele>33</ele>
        <time>2026-03-01T10:08:04.426Z</time>
      </trkpt>
      <trkpt lat="43.21151" lon="5.35403">
        <ele>34</ele>
        <time>2026-03-01T10:08:10.222Z</time>
      </trkpt>
      <trkpt lat="43.2115" lon="5.35407">
        <ele>35</ele>
        <time>2026-03-01T10:08:16.296Z</time>
      </trkpt>
      <trkpt lat="43.21138" lon="5.35416">
        <ele>39</ele>
        <time>2026-03-01T10:08:39.216Z</time>
      </trkpt>
      <trkpt lat="43.21133" lon="5.35416">
        <ele>40</ele>
        <time>2026-03-01T10:08:44.826Z</time>
      </trkpt>
      <trkpt lat="43.21124" lon="5.35422">
        <ele>43</ele>
        <time>2026-03-01T10:09:02.214Z</time>
      </trkpt>
      <trkpt lat="43.21118" lon="5.35422">
        <ele>44</ele>
        <time>2026-03-01T10:09:08.193Z</time>
      </trkpt>
      <trkpt lat="43.21112" lon="5.35421">
        <ele>45</ele>
        <time>2026-03-01T10:09:14.190Z</time>
      </trkpt>
      <trkpt lat="43.21102" lon="5.35414">
        <ele>44</ele>
        <time>2026-03-01T10:09:20.902Z</time>
      </trkpt>
      <trkpt lat="43.21096" lon="5.35412">
        <ele>44</ele>
        <time>2026-03-01T10:09:24.991Z</time>
      </trkpt>
      <trkpt lat="43.21092" lon="5.35407">
        <ele>43</ele>
        <time>2026-03-01T10:09:28.180Z</time>
      </trkpt>
      <trkpt lat="43.2108" lon="5.35405">
        <ele>43</ele>
        <time>2026-03-01T10:09:36.184Z</time>
      </trkpt>
      <trkpt lat="43.21076" lon="5.35401">
        <ele>41</ele>
        <time>2026-03-01T10:09:41.902Z</time>
      </trkpt>
      <trkpt lat="43.2107" lon="5.35399">
        <ele>38</ele>
        <time>2026-03-01T10:09:53.922Z</time>
      </trkpt>
      <trkpt lat="43.21068" lon="5.35399">
        <ele>38</ele>
        <time>2026-03-01T10:09:55.246Z</time>
      </trkpt>
      <trkpt lat="43.21065" lon="5.35404">
        <ele>39</ele>
        <time>2026-03-01T10:10:00.789Z</time>
      </trkpt>
      <trkpt lat="43.21053" lon="5.35404">
        <ele>36</ele>
        <time>2026-03-01T10:10:08.308Z</time>
      </trkpt>
      <trkpt lat="43.21045" lon="5.35411">
        <ele>35</ele>
        <time>2026-03-01T10:10:13.925Z</time>
      </trkpt>
      <trkpt lat="43.21041" lon="5.3542">
        <ele>37</ele>
        <time>2026-03-01T10:10:24.990Z</time>
      </trkpt>
      <trkpt lat="43.21038" lon="5.35422">
        <ele>36</ele>
        <time>2026-03-01T10:10:27.303Z</time>
      </trkpt>
      <trkpt lat="43.21039" lon="5.35426">
        <ele>37</ele>
        <time>2026-03-01T10:10:33.377Z</time>
      </trkpt>
      <trkpt lat="43.21036" lon="5.35435">
        <ele>39</ele>
        <time>2026-03-01T10:10:44.612Z</time>
      </trkpt>
      <trkpt lat="43.21038" lon="5.35443">
        <ele>41</ele>
        <time>2026-03-01T10:10:56.760Z</time>
      </trkpt>
      <trkpt lat="43.21034" lon="5.35458">
        <ele>43</ele>
        <time>2026-03-01T10:11:08.563Z</time>
      </trkpt>
      <trkpt lat="43.21032" lon="5.35458">
        <ele>42</ele>
        <time>2026-03-01T10:11:12.456Z</time>
      </trkpt>
      <trkpt lat="43.21028" lon="5.35468">
        <ele>43</ele>
        <time>2026-03-01T10:11:19.632Z</time>
      </trkpt>
      <trkpt lat="43.21021" lon="5.35475">
        <ele>42</ele>
        <time>2026-03-01T10:11:24.736Z</time>
      </trkpt>
      <trkpt lat="43.21019" lon="5.35481">
        <ele>42</ele>
        <time>2026-03-01T10:11:27.920Z</time>
      </trkpt>
      <trkpt lat="43.21015" lon="5.35484">
        <ele>41</ele>
        <time>2026-03-01T10:11:30.672Z</time>
      </trkpt>
      <trkpt lat="43.21013" lon="5.35489">
        <ele>41</ele>
        <time>2026-03-01T10:11:33.425Z</time>
      </trkpt>
      <trkpt lat="43.2101" lon="5.35511">
        <ele>43</ele>
        <time>2026-03-01T10:11:47.598Z</time>
      </trkpt>
      <trkpt lat="43.21008" lon="5.35513">
        <ele>43</ele>
        <time>2026-03-01T10:11:49.237Z</time>
      </trkpt>
      <trkpt lat="43.2101" lon="5.35532">
        <ele>46</ele>
        <time>2026-03-01T10:12:05.832Z</time>
      </trkpt>
      <trkpt lat="43.21009" lon="5.35535">
        <ele>46</ele>
        <time>2026-03-01T10:12:07.424Z</time>
      </trkpt>
      <trkpt lat="43.21003" lon="5.35538">
        <ele>44</ele>
        <time>2026-03-01T10:12:12.026Z</time>
      </trkpt>
      <trkpt lat="43.21002" lon="5.35545">
        <ele>44</ele>
        <time>2026-03-01T10:12:15.468Z</time>
      </trkpt>
      <trkpt lat="43.21003" lon="5.35547">
        <ele>45</ele>
        <time>2026-03-01T10:12:22.351Z</time>
      </trkpt>
      <trkpt lat="43.20999" lon="5.35554">
        <ele>44</ele>
        <time>2026-03-01T10:12:26.143Z</time>
      </trkpt>
      <trkpt lat="43.20995" lon="5.35573">
        <ele>45</ele>
        <time>2026-03-01T10:12:37.064Z</time>
      </trkpt>
      <trkpt lat="43.2099" lon="5.3558">
        <ele>44</ele>
        <time>2026-03-01T10:12:41.245Z</time>
      </trkpt>
      <trkpt lat="43.20984" lon="5.35582">
        <ele>42</ele>
        <time>2026-03-01T10:12:45.851Z</time>
      </trkpt>
      <trkpt lat="43.20985" lon="5.35586">
        <ele>43</ele>
        <time>2026-03-01T10:12:51.925Z</time>
      </trkpt>
      <trkpt lat="43.20983" lon="5.35593">
        <ele>41</ele>
        <time>2026-03-01T10:12:56.796Z</time>
      </trkpt>
      <trkpt lat="43.20982" lon="5.35604">
        <ele>40</ele>
        <time>2026-03-01T10:13:01.542Z</time>
      </trkpt>
      <trkpt lat="43.20992" lon="5.35626">
        <ele>43</ele>
        <time>2026-03-01T10:13:19.884Z</time>
      </trkpt>
      <trkpt lat="43.20996" lon="5.35633">
        <ele>44</ele>
        <time>2026-03-01T10:13:26.085Z</time>
      </trkpt>
      <trkpt lat="43.20998" lon="5.35645">
        <ele>44</ele>
        <time>2026-03-01T10:13:32.026Z</time>
      </trkpt>
      <trkpt lat="43.20997" lon="5.35661">
        <ele>42</ele>
        <time>2026-03-01T10:13:38.890Z</time>
      </trkpt>
      <trkpt lat="43.20995" lon="5.35666">
        <ele>41</ele>
        <time>2026-03-01T10:13:41.461Z</time>
      </trkpt>
      <trkpt lat="43.20992" lon="5.35666">
        <ele>40</ele>
        <time>2026-03-01T10:13:43.775Z</time>
      </trkpt>
      <trkpt lat="43.20991" lon="5.35668">
        <ele>40</ele>
        <time>2026-03-01T10:13:44.946Z</time>
      </trkpt>
      <trkpt lat="43.20987" lon="5.35676">
        <ele>38</ele>
        <time>2026-03-01T10:13:49.653Z</time>
      </trkpt>
      <trkpt lat="43.20988" lon="5.35682">
        <ele>38</ele>
        <time>2026-03-01T10:13:52.623Z</time>
      </trkpt>
      <trkpt lat="43.2098" lon="5.3572">
        <ele>33</ele>
        <time>2026-03-01T10:14:09.542Z</time>
      </trkpt>
      <trkpt lat="43.20987" lon="5.35736">
        <ele>34</ele>
        <time>2026-03-01T10:14:19.946Z</time>
      </trkpt>
      <trkpt lat="43.20985" lon="5.35778">
        <ele>33</ele>
        <time>2026-03-01T10:14:39.334Z</time>
      </trkpt>
      <trkpt lat="43.20991" lon="5.35797">
        <ele>36</ele>
        <time>2026-03-01T10:14:56.190Z</time>
      </trkpt>
      <trkpt lat="43.2099" lon="5.35802">
        <ele>35</ele>
        <time>2026-03-01T10:14:58.616Z</time>
      </trkpt>
      <trkpt lat="43.20977" lon="5.3581">
        <ele>32</ele>
        <time>2026-03-01T10:15:07.149Z</time>
      </trkpt>
      <trkpt lat="43.2097" lon="5.35819">
        <ele>30</ele>
        <time>2026-03-01T10:15:12.885Z</time>
      </trkpt>
      <trkpt lat="43.20968" lon="5.35827">
        <ele>29</ele>
        <time>2026-03-01T10:15:16.494Z</time>
      </trkpt>
      <trkpt lat="43.20964" lon="5.35836">
        <ele>28</ele>
        <time>2026-03-01T10:15:21.000Z</time>
      </trkpt>
      <trkpt lat="43.20962" lon="5.35864">
        <ele>28</ele>
        <time>2026-03-01T10:15:34.578Z</time>
      </trkpt>
      <trkpt lat="43.20965" lon="5.35877">
        <ele>29</ele>
        <time>2026-03-01T10:15:42.708Z</time>
      </trkpt>
      <trkpt lat="43.20964" lon="5.35924">
        <ele>28</ele>
        <time>2026-03-01T10:16:04.463Z</time>
      </trkpt>
      <trkpt lat="43.20968" lon="5.35934">
        <ele>29</ele>
        <time>2026-03-01T10:16:11.639Z</time>
      </trkpt>
      <trkpt lat="43.20974" lon="5.35998">
        <ele>25</ele>
        <time>2026-03-01T10:16:39.836Z</time>
      </trkpt>
      <trkpt lat="43.20976" lon="5.36004">
        <ele>25</ele>
        <time>2026-03-01T10:16:43.020Z</time>
      </trkpt>
      <trkpt lat="43.20983" lon="5.36017">
        <ele>26</ele>
        <time>2026-03-01T10:16:52.280Z</time>
      </trkpt>
      <trkpt lat="43.20983" lon="5.36022">
        <ele>25</ele>
        <time>2026-03-01T10:16:54.663Z</time>
      </trkpt>
      <trkpt lat="43.20978" lon="5.36034">
        <ele>23</ele>
        <time>2026-03-01T10:17:00.645Z</time>
      </trkpt>
      <trkpt lat="43.20978" lon="5.36063">
        <ele>20</ele>
        <time>2026-03-01T10:17:13.014Z</time>
      </trkpt>
      <trkpt lat="43.20976" lon="5.36073">
        <ele>19</ele>
        <time>2026-03-01T10:17:17.444Z</time>
      </trkpt>
      <trkpt lat="43.20978" lon="5.36077">
        <ele>19</ele>
        <time>2026-03-01T10:17:19.785Z</time>
      </trkpt>
      <trkpt lat="43.20977" lon="5.36081">
        <ele>18</ele>
        <time>2026-03-01T10:17:22.089Z</time>
      </trkpt>
      <trkpt lat="43.20979" lon="5.36086">
        <ele>18</ele>
        <time>2026-03-01T10:17:24.841Z</time>
      </trkpt>
      <trkpt lat="43.20993" lon="5.36095">
        <ele>21</ele>
        <time>2026-03-01T10:17:41.807Z</time>
      </trkpt>
      <trkpt lat="43.20997" lon="5.36101">
        <ele>22</ele>
        <time>2026-03-01T10:17:47.754Z</time>
      </trkpt>
      <trkpt lat="43.20998" lon="5.36106">
        <ele>22</ele>
        <time>2026-03-01T10:17:50.256Z</time>
      </trkpt>
      <trkpt lat="43.20995" lon="5.36116">
        <ele>21</ele>
        <time>2026-03-01T10:17:54.882Z</time>
      </trkpt>
      <trkpt lat="43.20993" lon="5.36127">
        <ele>20</ele>
        <time>2026-03-01T10:17:59.741Z</time>
      </trkpt>
      <trkpt lat="43.20995" lon="5.36137">
        <ele>20</ele>
        <time>2026-03-01T10:18:04.746Z</time>
      </trkpt>
      <trkpt lat="43.21011" lon="5.36179">
        <ele>23</ele>
        <time>2026-03-01T10:18:32.028Z</time>
      </trkpt>
      <trkpt lat="43.21025" lon="5.36196">
        <ele>26</ele>
        <time>2026-03-01T10:18:50.276Z</time>
      </trkpt>
      <trkpt lat="43.21027" lon="5.36202">
        <ele>27</ele>
        <time>2026-03-01T10:18:55.838Z</time>
      </trkpt>
      <trkpt lat="43.2103" lon="5.36216">
        <ele>27</ele>
        <time>2026-03-01T10:19:02.880Z</time>
      </trkpt>
      <trkpt lat="43.21026" lon="5.36222">
        <ele>27</ele>
        <time>2026-03-01T10:19:06.805Z</time>
      </trkpt>
      <trkpt lat="43.21018" lon="5.36217">
        <ele>25</ele>
        <time>2026-03-01T10:19:12.156Z</time>
      </trkpt>
      <trkpt lat="43.21014" lon="5.36217">
        <ele>25</ele>
        <time>2026-03-01T10:19:14.805Z</time>
      </trkpt>
      <trkpt lat="43.21006" lon="5.36221">
        <ele>24</ele>
        <time>2026-03-01T10:19:19.818Z</time>
      </trkpt>
      <trkpt lat="43.21002" lon="5.36221">
        <ele>23</ele>
        <time>2026-03-01T10:19:22.324Z</time>
      </trkpt>
      <trkpt lat="43.20994" lon="5.36221">
        <ele>23</ele>
        <time>2026-03-01T10:19:27.622Z</time>
      </trkpt>
      <trkpt lat="43.20988" lon="5.36219">
        <ele>23</ele>
        <time>2026-03-01T10:19:31.710Z</time>
      </trkpt>
      <trkpt lat="43.20984" lon="5.36218">
        <ele>23</ele>
        <time>2026-03-01T10:19:34.403Z</time>
      </trkpt>
      <trkpt lat="43.20981" lon="5.36213">
        <ele>22</ele>
        <time>2026-03-01T10:19:37.233Z</time>
      </trkpt>
      <trkpt lat="43.20977" lon="5.36202">
        <ele>21</ele>
        <time>2026-03-01T10:19:42.521Z</time>
      </trkpt>
      <trkpt lat="43.20968" lon="5.36198">
        <ele>21</ele>
        <time>2026-03-01T10:19:48.785Z</time>
      </trkpt>
      <trkpt lat="43.20963" lon="5.36194">
        <ele>20</ele>
        <time>2026-03-01T10:19:52.181Z</time>
      </trkpt>
      <trkpt lat="43.20954" lon="5.36192">
        <ele>19</ele>
        <time>2026-03-01T10:19:57.567Z</time>
      </trkpt>
      <trkpt lat="43.20952" lon="5.36189">
        <ele>19</ele>
        <time>2026-03-01T10:19:59.529Z</time>
      </trkpt>
      <trkpt lat="43.2094" lon="5.36191">
        <ele>19</ele>
        <time>2026-03-01T10:20:07.534Z</time>
      </trkpt>
      <trkpt lat="43.20925" lon="5.36182">
        <ele>16</ele>
        <time>2026-03-01T10:20:17.176Z</time>
      </trkpt>
      <trkpt lat="43.20913" lon="5.36183">
        <ele>16</ele>
        <time>2026-03-01T10:20:25.137Z</time>
      </trkpt>
      <trkpt lat="43.20903" lon="5.36191">
        <ele>16</ele>
        <time>2026-03-01T10:20:32.802Z</time>
      </trkpt>
      <trkpt lat="43.20881" lon="5.36214">
        <ele>18</ele>
        <time>2026-03-01T10:20:53.900Z</time>
      </trkpt>
      <trkpt lat="43.20874" lon="5.36224">
        <ele>18</ele>
        <time>2026-03-01T10:21:00.591Z</time>
      </trkpt>
      <trkpt lat="43.20866" lon="5.36229">
        <ele>18</ele>
        <time>2026-03-01T10:21:06.413Z</time>
      </trkpt>
      <trkpt lat="43.20859" lon="5.36237">
        <ele>18</ele>
        <time>2026-03-01T10:21:12.445Z</time>
      </trkpt>
      <trkpt lat="43.20858" lon="5.36247">
        <ele>19</ele>
        <time>2026-03-01T10:21:19.092Z</time>
      </trkpt>
      <trkpt lat="43.20846" lon="5.36261">
        <ele>18</ele>
        <time>2026-03-01T10:21:28.711Z</time>
      </trkpt>
      <trkpt lat="43.20841" lon="5.3627">
        <ele>18</ele>
        <time>2026-03-01T10:21:34.172Z</time>
      </trkpt>
      <trkpt lat="43.20832" lon="5.36292">
        <ele>17</ele>
        <time>2026-03-01T10:21:45.503Z</time>
      </trkpt>
      <trkpt lat="43.20826" lon="5.36303">
        <ele>17</ele>
        <time>2026-03-01T10:21:52.134Z</time>
      </trkpt>
      <trkpt lat="43.20823" lon="5.36314">
        <ele>18</ele>
        <time>2026-03-01T10:21:59.451Z</time>
      </trkpt>
      <trkpt lat="43.20824" lon="5.36319">
        <ele>18</ele>
        <time>2026-03-01T10:22:01.954Z</time>
      </trkpt>
      <trkpt lat="43.20815" lon="5.3634">
        <ele>18</ele>
        <time>2026-03-01T10:22:13.712Z</time>
      </trkpt>
      <trkpt lat="43.20791" lon="5.36379">
        <ele>16</ele>
        <time>2026-03-01T10:22:36.652Z</time>
      </trkpt>
      <trkpt lat="43.20787" lon="5.36387">
        <ele>16</ele>
        <time>2026-03-01T10:22:41.334Z</time>
      </trkpt>
      <trkpt lat="43.20785" lon="5.36404">
        <ele>16</ele>
        <time>2026-03-01T10:22:49.645Z</time>
      </trkpt>
      <trkpt lat="43.20781" lon="5.3641">
        <ele>15</ele>
        <time>2026-03-01T10:22:53.119Z</time>
      </trkpt>
      <trkpt lat="43.2078" lon="5.36424">
        <ele>16</ele>
        <time>2026-03-01T10:23:01.440Z</time>
      </trkpt>
      <trkpt lat="43.20776" lon="5.36438">
        <ele>15</ele>
        <time>2026-03-01T10:23:07.982Z</time>
      </trkpt>
      <trkpt lat="43.20773" lon="5.36445">
        <ele>14</ele>
        <time>2026-03-01T10:23:11.452Z</time>
      </trkpt>
      <trkpt lat="43.20774" lon="5.3645">
        <ele>14</ele>
        <time>2026-03-01T10:23:13.955Z</time>
      </trkpt>
      <trkpt lat="43.20771" lon="5.36467">
        <ele>14</ele>
        <time>2026-03-01T10:23:22.397Z</time>
      </trkpt>
      <trkpt lat="43.20774" lon="5.36497">
        <ele>15</ele>
        <time>2026-03-01T10:23:38.268Z</time>
      </trkpt>
      <trkpt lat="43.20771" lon="5.36527">
        <ele>13</ele>
        <time>2026-03-01T10:23:51.449Z</time>
      </trkpt>
      <trkpt lat="43.20772" lon="5.36543">
        <ele>13</ele>
        <time>2026-03-01T10:23:59.199Z</time>
      </trkpt>
      <trkpt lat="43.2077" lon="5.36553">
        <ele>12</ele>
        <time>2026-03-01T10:24:03.629Z</time>
      </trkpt>
      <trkpt lat="43.20773" lon="5.36567">
        <ele>12</ele>
        <time>2026-03-01T10:24:10.673Z</time>
      </trkpt>
      <trkpt lat="43.20773" lon="5.36597">
        <ele>11</ele>
        <time>2026-03-01T10:24:24.275Z</time>
      </trkpt>
      <trkpt lat="43.20776" lon="5.36608">
        <ele>11</ele>
        <time>2026-03-01T10:24:29.944Z</time>
      </trkpt>
      <trkpt lat="43.20776" lon="5.36629">
        <ele>9</ele>
        <time>2026-03-01T10:24:38.918Z</time>
      </trkpt>
      <trkpt lat="43.20785" lon="5.36659">
        <ele>10</ele>
        <time>2026-03-01T10:24:55.818Z</time>
      </trkpt>
      <trkpt lat="43.20791" lon="5.36697">
        <ele>11</ele>
        <time>2026-03-01T10:25:15.793Z</time>
      </trkpt>
      <trkpt lat="43.20791" lon="5.36709">
        <ele>11</ele>
        <time>2026-03-01T10:25:21.585Z</time>
      </trkpt>
      <trkpt lat="43.20796" lon="5.36727">
        <ele>12</ele>
        <time>2026-03-01T10:25:32.267Z</time>
      </trkpt>
      <trkpt lat="43.20795" lon="5.36743">
        <ele>11</ele>
        <time>2026-03-01T10:25:39.283Z</time>
      </trkpt>
      <trkpt lat="43.20799" lon="5.36767">
        <ele>12</ele>
        <time>2026-03-01T10:25:52.472Z</time>
      </trkpt>
      <trkpt lat="43.20797" lon="5.36783">
        <ele>11</ele>
        <time>2026-03-01T10:25:59.569Z</time>
      </trkpt>
      <trkpt lat="43.208" lon="5.36812">
        <ele>11</ele>
        <time>2026-03-01T10:26:13.706Z</time>
      </trkpt>
      <trkpt lat="43.20803" lon="5.36822">
        <ele>11</ele>
        <time>2026-03-01T10:26:18.925Z</time>
      </trkpt>
      <trkpt lat="43.20803" lon="5.36844">
        <ele>11</ele>
        <time>2026-03-01T10:26:29.543Z</time>
      </trkpt>
      <trkpt lat="43.20807" lon="5.36866">
        <ele>11</ele>
        <time>2026-03-01T10:26:40.487Z</time>
      </trkpt>
      <trkpt lat="43.20812" lon="5.36882">
        <ele>12</ele>
        <time>2026-03-01T10:26:50.315Z</time>
      </trkpt>
      <trkpt lat="43.20819" lon="5.36916">
        <ele>12</ele>
        <time>2026-03-01T10:27:07.367Z</time>
      </trkpt>
      <trkpt lat="43.20823" lon="5.3693">
        <ele>12</ele>
        <time>2026-03-01T10:27:14.625Z</time>
      </trkpt>
      <trkpt lat="43.20826" lon="5.36943">
        <ele>12</ele>
        <time>2026-03-01T10:27:21.206Z</time>
      </trkpt>
      <trkpt lat="43.20827" lon="5.36959">
        <ele>11</ele>
        <time>2026-03-01T10:27:28.222Z</time>
      </trkpt>
      <trkpt lat="43.20835" lon="5.36992">
        <ele>11</ele>
        <time>2026-03-01T10:27:45.007Z</time>
      </trkpt>
      <trkpt lat="43.20854" lon="5.37044">
        <ele>11</ele>
        <time>2026-03-01T10:28:13.081Z</time>
      </trkpt>
      <trkpt lat="43.20889" lon="5.37087">
        <ele>16</ele>
        <time>2026-03-01T10:28:52.111Z</time>
      </trkpt>
      <trkpt lat="43.20894" lon="5.37098">
        <ele>15</ele>
        <time>2026-03-01T10:28:57.703Z</time>
      </trkpt>
      <trkpt lat="43.20894" lon="5.37097">
        <ele>15</ele>
        <time>2026-03-01T10:28:58.186Z</time>
      </trkpt>
      <trkpt lat="43.20896" lon="5.37097">
        <ele>16</ele>
        <time>2026-03-01T10:29:05.973Z</time>
      </trkpt>
      <trkpt lat="43.209" lon="5.37099">
        <ele>16</ele>
        <time>2026-03-01T10:29:08.792Z</time>
      </trkpt>
      <trkpt lat="43.20907" lon="5.37108">
        <ele>16</ele>
        <time>2026-03-01T10:29:15.144Z</time>
      </trkpt>
      <trkpt lat="43.20921" lon="5.37104">
        <ele>19</ele>
        <time>2026-03-01T10:29:31.801Z</time>
      </trkpt>
      <trkpt lat="43.20925" lon="5.37105">
        <ele>20</ele>
        <time>2026-03-01T10:29:37.296Z</time>
      </trkpt>
      <trkpt lat="43.20932" lon="5.37112">
        <ele>20</ele>
        <time>2026-03-01T10:29:43.032Z</time>
      </trkpt>
      <trkpt lat="43.20935" lon="5.37119">
        <ele>20</ele>
        <time>2026-03-01T10:29:46.951Z</time>
      </trkpt>
      <trkpt lat="43.20952" lon="5.37139">
        <ele>20</ele>
        <time>2026-03-01T10:30:01.780Z</time>
      </trkpt>
      <trkpt lat="43.20978" lon="5.37151">
        <ele>23</ele>
        <time>2026-03-01T10:30:24.750Z</time>
      </trkpt>
      <trkpt lat="43.20984" lon="5.37151">
        <ele>24</ele>
        <time>2026-03-01T10:30:30.729Z</time>
      </trkpt>
      <trkpt lat="43.20988" lon="5.37154">
        <ele>24</ele>
        <time>2026-03-01T10:30:33.748Z</time>
      </trkpt>
      <trkpt lat="43.20993" lon="5.37155">
        <ele>25</ele>
        <time>2026-03-01T10:30:39.373Z</time>
      </trkpt>
      <trkpt lat="43.21005" lon="5.37165">
        <ele>26</ele>
        <time>2026-03-01T10:30:50.055Z</time>
      </trkpt>
      <trkpt lat="43.2101" lon="5.37184">
        <ele>25</ele>
        <time>2026-03-01T10:30:59.008Z</time>
      </trkpt>
      <trkpt lat="43.21013" lon="5.37186">
        <ele>26</ele>
        <time>2026-03-01T10:31:04.804Z</time>
      </trkpt>
      <trkpt lat="43.21015" lon="5.37194">
        <ele>25</ele>
        <time>2026-03-01T10:31:08.413Z</time>
      </trkpt>
      <trkpt lat="43.2103" lon="5.37246">
        <ele>22</ele>
        <time>2026-03-01T10:31:33.074Z</time>
      </trkpt>
      <trkpt lat="43.21042" lon="5.37275">
        <ele>23</ele>
        <time>2026-03-01T10:31:50.405Z</time>
      </trkpt>
      <trkpt lat="43.21042" lon="5.37277">
        <ele>23</ele>
        <time>2026-03-01T10:31:51.370Z</time>
      </trkpt>
      <trkpt lat="43.21038" lon="5.37281">
        <ele>21</ele>
        <time>2026-03-01T10:31:57.088Z</time>
      </trkpt>
      <trkpt lat="43.2104" lon="5.37299">
        <ele>20</ele>
        <time>2026-03-01T10:32:05.106Z</time>
      </trkpt>
      <trkpt lat="43.21042" lon="5.37305">
        <ele>20</ele>
        <time>2026-03-01T10:32:08.290Z</time>
      </trkpt>
      <trkpt lat="43.21041" lon="5.37309">
        <ele>20</ele>
        <time>2026-03-01T10:32:10.331Z</time>
      </trkpt>
      <trkpt lat="43.21033" lon="5.37328">
        <ele>16</ele>
        <time>2026-03-01T10:32:20.354Z</time>
      </trkpt>
      <trkpt lat="43.21027" lon="5.37334">
        <ele>15</ele>
        <time>2026-03-01T10:32:24.703Z</time>
      </trkpt>
      <trkpt lat="43.21018" lon="5.37347">
        <ele>13</ele>
        <time>2026-03-01T10:32:32.348Z</time>
      </trkpt>
      <trkpt lat="43.21017" lon="5.37357">
        <ele>12</ele>
        <time>2026-03-01T10:32:36.657Z</time>
      </trkpt>
      <trkpt lat="43.21011" lon="5.37361">
        <ele>11</ele>
        <time>2026-03-01T10:32:40.559Z</time>
      </trkpt>
      <trkpt lat="43.21005" lon="5.37359">
        <ele>11</ele>
        <time>2026-03-01T10:32:44.648Z</time>
      </trkpt>
      <trkpt lat="43.21004" lon="5.37346">
        <ele>11</ele>
        <time>2026-03-01T10:32:50.957Z</time>
      </trkpt>
      <trkpt lat="43.21001" lon="5.37344">
        <ele>10</ele>
        <time>2026-03-01T10:32:53.270Z</time>
      </trkpt>
      <trkpt lat="43.20995" lon="5.37344">
        <ele>10</ele>
        <time>2026-03-01T10:32:57.243Z</time>
      </trkpt>
      <trkpt lat="43.20991" lon="5.37339">
        <ele>10</ele>
        <time>2026-03-01T10:33:00.827Z</time>
      </trkpt>
      <trkpt lat="43.20985" lon="5.37326">
        <ele>9</ele>
        <time>2026-03-01T10:33:07.531Z</time>
      </trkpt>
      <trkpt lat="43.20981" lon="5.3731">
        <ele>9</ele>
        <time>2026-03-01T10:33:15.695Z</time>
      </trkpt>
      <trkpt lat="43.20972" lon="5.37299">
        <ele>9</ele>
        <time>2026-03-01T10:33:23.676Z</time>
      </trkpt>
      <trkpt lat="43.2097" lon="5.37291">
        <ele>9</ele>
        <time>2026-03-01T10:33:27.758Z</time>
      </trkpt>
      <trkpt lat="43.20971" lon="5.37267">
        <ele>8</ele>
        <time>2026-03-01T10:33:38.525Z</time>
      </trkpt>
      <trkpt lat="43.20974" lon="5.3726">
        <ele>9</ele>
        <time>2026-03-01T10:33:44.468Z</time>
      </trkpt>
      <trkpt lat="43.20969" lon="5.37279">
        <ele>8</ele>
        <time>2026-03-01T10:33:53.421Z</time>
      </trkpt>
      <trkpt lat="43.20971" lon="5.37302">
        <ele>9</ele>
        <time>2026-03-01T10:34:05.924Z</time>
      </trkpt>
      <trkpt lat="43.20982" lon="5.37318">
        <ele>9</ele>
        <time>2026-03-01T10:34:16.539Z</time>
      </trkpt>
      <trkpt lat="43.20984" lon="5.37326">
        <ele>9</ele>
        <time>2026-03-01T10:34:20.621Z</time>
      </trkpt>
      <trkpt lat="43.20992" lon="5.37341">
        <ele>10</ele>
        <time>2026-03-01T10:34:30.991Z</time>
      </trkpt>
      <trkpt lat="43.20995" lon="5.37345">
        <ele>10</ele>
        <time>2026-03-01T10:34:33.761Z</time>
      </trkpt>
      <trkpt lat="43.21002" lon="5.37343">
        <ele>10</ele>
        <time>2026-03-01T10:34:38.496Z</time>
      </trkpt>
      <trkpt lat="43.21004" lon="5.37344">
        <ele>11</ele>
        <time>2026-03-01T10:34:46.783Z</time>
      </trkpt>
      <trkpt lat="43.21007" lon="5.37351">
        <ele>11</ele>
        <time>2026-03-01T10:34:50.702Z</time>
      </trkpt>
      <trkpt lat="43.21005" lon="5.37359">
        <ele>11</ele>
        <time>2026-03-01T10:34:54.784Z</time>
      </trkpt>
      <trkpt lat="43.21006" lon="5.3736">
        <ele>11</ele>
        <time>2026-03-01T10:34:55.604Z</time>
      </trkpt>
      <trkpt lat="43.21008" lon="5.37358">
        <ele>11</ele>
        <time>2026-03-01T10:34:57.243Z</time>
      </trkpt>
      <trkpt lat="43.2101" lon="5.37358">
        <ele>11</ele>
        <time>2026-03-01T10:34:58.567Z</time>
      </trkpt>
      <trkpt lat="43.21013" lon="5.37369">
        <ele>12</ele>
        <time>2026-03-01T10:35:05.884Z</time>
      </trkpt>
      <trkpt lat="43.21014" lon="5.37368">
        <ele>12</ele>
        <time>2026-03-01T10:35:06.703Z</time>
      </trkpt>
      <trkpt lat="43.21018" lon="5.37369">
        <ele>12</ele>
        <time>2026-03-01T10:35:09.396Z</time>
      </trkpt>
      <trkpt lat="43.21009" lon="5.37379">
        <ele>11</ele>
        <time>2026-03-01T10:35:16.333Z</time>
      </trkpt>
      <trkpt lat="43.20998" lon="5.37404">
        <ele>10</ele>
        <time>2026-03-01T10:35:29.554Z</time>
      </trkpt>
      <trkpt lat="43.21" lon="5.37402">
        <ele>10</ele>
        <time>2026-03-01T10:35:31.193Z</time>
      </trkpt>
      <trkpt lat="43.21004" lon="5.3741">
        <ele>10</ele>
        <time>2026-03-01T10:35:35.875Z</time>
      </trkpt>
      <trkpt lat="43.21002" lon="5.37416">
        <ele>10</ele>
        <time>2026-03-01T10:35:39.059Z</time>
      </trkpt>
      <trkpt lat="43.20997" lon="5.37421">
        <ele>10</ele>
        <time>2026-03-01T10:35:43.156Z</time>
      </trkpt>
      <trkpt lat="43.20987" lon="5.37438">
        <ele>10</ele>
        <time>2026-03-01T10:35:53.700Z</time>
      </trkpt>
      <trkpt lat="43.20983" lon="5.37462">
        <ele>11</ele>
        <time>2026-03-01T10:36:06.889Z</time>
      </trkpt>
      <trkpt lat="43.20983" lon="5.37476">
        <ele>12</ele>
        <time>2026-03-01T10:36:15.179Z</time>
      </trkpt>
      <trkpt lat="43.20994" lon="5.37517">
        <ele>15</ele>
        <time>2026-03-01T10:36:40.800Z</time>
      </trkpt>
      <trkpt lat="43.21002" lon="5.3753">
        <ele>17</ele>
        <time>2026-03-01T10:36:52.937Z</time>
      </trkpt>
      <trkpt lat="43.21006" lon="5.37555">
        <ele>19</ele>
        <time>2026-03-01T10:37:08.467Z</time>
      </trkpt>
      <trkpt lat="43.21005" lon="5.37553">
        <ele>19</ele>
        <time>2026-03-01T10:37:09.638Z</time>
      </trkpt>
      <trkpt lat="43.21014" lon="5.37563">
        <ele>22</ele>
        <time>2026-03-01T10:37:26.222Z</time>
      </trkpt>
      <trkpt lat="43.21017" lon="5.37571">
        <ele>23</ele>
        <time>2026-03-01T10:37:32.459Z</time>
      </trkpt>
      <trkpt lat="43.21019" lon="5.37581">
        <ele>25</ele>
        <time>2026-03-01T10:37:43.559Z</time>
      </trkpt>
      <trkpt lat="43.21019" lon="5.37599">
        <ele>24</ele>
        <time>2026-03-01T10:37:51.479Z</time>
      </trkpt>
      <trkpt lat="43.21026" lon="5.37613">
        <ele>26</ele>
        <time>2026-03-01T10:38:03.603Z</time>
      </trkpt>
      <trkpt lat="43.21028" lon="5.37621">
        <ele>27</ele>
        <time>2026-03-01T10:38:09.655Z</time>
      </trkpt>
      <trkpt lat="43.21025" lon="5.37626">
        <ele>26</ele>
        <time>2026-03-01T10:38:12.485Z</time>
      </trkpt>
      <trkpt lat="43.21027" lon="5.37632">
        <ele>26</ele>
        <time>2026-03-01T10:38:15.669Z</time>
      </trkpt>
      <trkpt lat="43.21034" lon="5.37647">
        <ele>29</ele>
        <time>2026-03-01T10:38:32.142Z</time>
      </trkpt>
      <trkpt lat="43.21038" lon="5.37651">
        <ele>31</ele>
        <time>2026-03-01T10:38:47.019Z</time>
      </trkpt>
      <trkpt lat="43.21046" lon="5.37666">
        <ele>36</ele>
        <time>2026-03-01T10:39:20.898Z</time>
      </trkpt>
      <trkpt lat="43.21045" lon="5.37679">
        <ele>35</ele>
        <time>2026-03-01T10:39:26.539Z</time>
      </trkpt>
      <trkpt lat="43.21041" lon="5.37696">
        <ele>32</ele>
        <time>2026-03-01T10:39:34.490Z</time>
      </trkpt>
      <trkpt lat="43.21041" lon="5.37709">
        <ele>31</ele>
        <time>2026-03-01T10:39:40.099Z</time>
      </trkpt>
      <trkpt lat="43.21049" lon="5.37754">
        <ele>33</ele>
        <time>2026-03-01T10:40:05.101Z</time>
      </trkpt>
      <trkpt lat="43.21053" lon="5.37765">
        <ele>34</ele>
        <time>2026-03-01T10:40:12.650Z</time>
      </trkpt>
      <trkpt lat="43.21067" lon="5.37784">
        <ele>39</ele>
        <time>2026-03-01T10:40:40.209Z</time>
      </trkpt>
      <trkpt lat="43.21074" lon="5.37808">
        <ele>39</ele>
        <time>2026-03-01T10:40:52.685Z</time>
      </trkpt>
      <trkpt lat="43.21093" lon="5.3784">
        <ele>45</ele>
        <time>2026-03-01T10:41:26.369Z</time>
      </trkpt>
      <trkpt lat="43.21094" lon="5.37848">
        <ele>44</ele>
        <time>2026-03-01T10:41:29.837Z</time>
      </trkpt>
      <trkpt lat="43.21089" lon="5.37868">
        <ele>39</ele>
        <time>2026-03-01T10:41:41.353Z</time>
      </trkpt>
      <trkpt lat="43.21087" lon="5.37902">
        <ele>33</ele>
        <time>2026-03-01T10:41:56.741Z</time>
      </trkpt>
      <trkpt lat="43.21094" lon="5.3792">
        <ele>34</ele>
        <time>2026-03-01T10:42:07.953Z</time>
      </trkpt>
      <trkpt lat="43.21107" lon="5.37923">
        <ele>40</ele>
        <time>2026-03-01T10:42:57.159Z</time>
      </trkpt>
      <trkpt lat="43.21116" lon="5.37939">
        <ele>42</ele>
        <time>2026-03-01T10:43:10.462Z</time>
      </trkpt>
      <trkpt lat="43.21122" lon="5.3795">
        <ele>44</ele>
        <time>2026-03-01T10:43:21.685Z</time>
      </trkpt>
      <trkpt lat="43.2112" lon="5.37952">
        <ele>42</ele>
        <time>2026-03-01T10:43:26.503Z</time>
      </trkpt>
      <trkpt lat="43.21134" lon="5.37971">
        <ele>46</ele>
        <time>2026-03-01T10:43:48.861Z</time>
      </trkpt>
      <trkpt lat="43.2114" lon="5.37989">
        <ele>45</ele>
        <time>2026-03-01T10:43:57.622Z</time>
      </trkpt>
      <trkpt lat="43.21142" lon="5.37998">
        <ele>44</ele>
        <time>2026-03-01T10:44:01.634Z</time>
      </trkpt>
      <trkpt lat="43.2114" lon="5.38002">
        <ele>43</ele>
        <time>2026-03-01T10:44:03.987Z</time>
      </trkpt>
      <trkpt lat="43.21134" lon="5.38005">
        <ele>40</ele>
        <time>2026-03-01T10:44:16.418Z</time>
      </trkpt>
      <trkpt lat="43.21132" lon="5.38009">
        <ele>40</ele>
        <time>2026-03-01T10:44:18.759Z</time>
      </trkpt>
      <trkpt lat="43.21119" lon="5.38022">
        <ele>35</ele>
        <time>2026-03-01T10:44:30.268Z</time>
      </trkpt>
      <trkpt lat="43.21119" lon="5.3803">
        <ele>36</ele>
        <time>2026-03-01T10:44:36.174Z</time>
      </trkpt>
      <trkpt lat="43.21116" lon="5.38036">
        <ele>35</ele>
        <time>2026-03-01T10:44:39.305Z</time>
      </trkpt>
      <trkpt lat="43.21119" lon="5.38047">
        <ele>37</ele>
        <time>2026-03-01T10:44:50.282Z</time>
      </trkpt>
      <trkpt lat="43.21117" lon="5.38046">
        <ele>36</ele>
        <time>2026-03-01T10:44:54.426Z</time>
      </trkpt>
      <trkpt lat="43.21105" lon="5.38052">
        <ele>32</ele>
        <time>2026-03-01T10:45:03.629Z</time>
      </trkpt>
      <trkpt lat="43.21092" lon="5.38061">
        <ele>27</ele>
        <time>2026-03-01T10:45:15.321Z</time>
      </trkpt>
      <trkpt lat="43.21088" lon="5.38067">
        <ele>26</ele>
        <time>2026-03-01T10:45:18.794Z</time>
      </trkpt>
      <trkpt lat="43.21077" lon="5.38073">
        <ele>24</ele>
        <time>2026-03-01T10:45:25.734Z</time>
      </trkpt>
      <trkpt lat="43.21076" lon="5.38077">
        <ele>24</ele>
        <time>2026-03-01T10:45:27.775Z</time>
      </trkpt>
      <trkpt lat="43.21079" lon="5.38084">
        <ele>25</ele>
        <time>2026-03-01T10:45:33.718Z</time>
      </trkpt>
      <trkpt lat="43.21077" lon="5.38088">
        <ele>25</ele>
        <time>2026-03-01T10:45:36.059Z</time>
      </trkpt>
      <trkpt lat="43.2108" lon="5.381">
        <ele>28</ele>
        <time>2026-03-01T10:45:54.280Z</time>
      </trkpt>
      <trkpt lat="43.21079" lon="5.38107">
        <ele>29</ele>
        <time>2026-03-01T10:45:59.950Z</time>
      </trkpt>
      <trkpt lat="43.21072" lon="5.38117">
        <ele>29</ele>
        <time>2026-03-01T10:46:06.641Z</time>
      </trkpt>
      <trkpt lat="43.21066" lon="5.38121">
        <ele>28</ele>
        <time>2026-03-01T10:46:10.544Z</time>
      </trkpt>
      <trkpt lat="43.21053" lon="5.38126">
        <ele>25</ele>
        <time>2026-03-01T10:46:18.716Z</time>
      </trkpt>
      <trkpt lat="43.21044" lon="5.38139">
        <ele>24</ele>
        <time>2026-03-01T10:46:26.603Z</time>
      </trkpt>
      <trkpt lat="43.21041" lon="5.38187">
        <ele>27</ele>
        <time>2026-03-01T10:46:54.241Z</time>
      </trkpt>
      <trkpt lat="43.21042" lon="5.38197">
        <ele>28</ele>
        <time>2026-03-01T10:47:00.888Z</time>
      </trkpt>
      <trkpt lat="43.21033" lon="5.38225">
        <ele>25</ele>
        <time>2026-03-01T10:47:13.955Z</time>
      </trkpt>
      <trkpt lat="43.21034" lon="5.38236">
        <ele>26</ele>
        <time>2026-03-01T10:47:20.998Z</time>
      </trkpt>
      <trkpt lat="43.21042" lon="5.38247">
        <ele>29</ele>
        <time>2026-03-01T10:47:37.652Z</time>
      </trkpt>
      <trkpt lat="43.21045" lon="5.38257">
        <ele>29</ele>
        <time>2026-03-01T10:47:42.871Z</time>
      </trkpt>
      <trkpt lat="43.21054" lon="5.3827">
        <ele>30</ele>
        <time>2026-03-01T10:47:52.938Z</time>
      </trkpt>
      <trkpt lat="43.21057" lon="5.38292">
        <ele>27</ele>
        <time>2026-03-01T10:48:02.548Z</time>
      </trkpt>
      <trkpt lat="43.2106" lon="5.3829">
        <ele>29</ele>
        <time>2026-03-01T10:48:15.534Z</time>
      </trkpt>
      <trkpt lat="43.21065" lon="5.38293">
        <ele>30</ele>
        <time>2026-03-01T10:48:21.292Z</time>
      </trkpt>
      <trkpt lat="43.21075" lon="5.38288">
        <ele>34</ele>
        <time>2026-03-01T10:48:48.891Z</time>
      </trkpt>
      <trkpt lat="43.21088" lon="5.38303">
        <ele>35</ele>
        <time>2026-03-01T10:49:01.461Z</time>
      </trkpt>
      <trkpt lat="43.21102" lon="5.38313">
        <ele>38</ele>
        <time>2026-03-01T10:49:18.531Z</time>
      </trkpt>
      <trkpt lat="43.21107" lon="5.38324">
        <ele>38</ele>
        <time>2026-03-01T10:49:24.787Z</time>
      </trkpt>
      <trkpt lat="43.21115" lon="5.38329">
        <ele>39</ele>
        <time>2026-03-01T10:49:32.238Z</time>
      </trkpt>
      <trkpt lat="43.2112" lon="5.38331">
        <ele>41</ele>
        <time>2026-03-01T10:49:46.346Z</time>
      </trkpt>
      <trkpt lat="43.21128" lon="5.38338">
        <ele>42</ele>
        <time>2026-03-01T10:49:54.206Z</time>
      </trkpt>
      <trkpt lat="43.21131" lon="5.38338">
        <ele>43</ele>
        <time>2026-03-01T10:50:00.400Z</time>
      </trkpt>
      <trkpt lat="43.21149" lon="5.38328">
        <ele>52</ele>
        <time>2026-03-01T10:51:14.634Z</time>
      </trkpt>
      <trkpt lat="43.21162" lon="5.38326">
        <ele>57</ele>
        <time>2026-03-01T10:51:49.734Z</time>
      </trkpt>
      <trkpt lat="43.21171" lon="5.38332">
        <ele>59</ele>
        <time>2026-03-01T10:52:00.956Z</time>
      </trkpt>
      <trkpt lat="43.21178" lon="5.38342">
        <ele>59</ele>
        <time>2026-03-01T10:52:07.647Z</time>
      </trkpt>
      <trkpt lat="43.2118" lon="5.38349">
        <ele>58</ele>
        <time>2026-03-01T10:52:10.873Z</time>
      </trkpt>
      <trkpt lat="43.2118" lon="5.38357">
        <ele>56</ele>
        <time>2026-03-01T10:52:15.548Z</time>
      </trkpt>
      <trkpt lat="43.21182" lon="5.38362">
        <ele>55</ele>
        <time>2026-03-01T10:52:18.118Z</time>
      </trkpt>
      <trkpt lat="43.21201" lon="5.38368">
        <ele>62</ele>
        <time>2026-03-01T10:53:04.307Z</time>
      </trkpt>
      <trkpt lat="43.21214" lon="5.38366">
        <ele>67</ele>
        <time>2026-03-01T10:53:39.406Z</time>
      </trkpt>
      <trkpt lat="43.21219" lon="5.3837">
        <ele>68</ele>
        <time>2026-03-01T10:53:45.294Z</time>
      </trkpt>
      <trkpt lat="43.21227" lon="5.38373">
        <ele>71</ele>
        <time>2026-03-01T10:54:05.229Z</time>
      </trkpt>
      <trkpt lat="43.21227" lon="5.38377">
        <ele>70</ele>
        <time>2026-03-01T10:54:07.567Z</time>
      </trkpt>
      <trkpt lat="43.21236" lon="5.38378">
        <ele>74</ele>
        <time>2026-03-01T10:54:39.888Z</time>
      </trkpt>
      <trkpt lat="43.21242" lon="5.38381">
        <ele>76</ele>
        <time>2026-03-01T10:54:51.760Z</time>
      </trkpt>
      <trkpt lat="43.2125" lon="5.38391">
        <ele>78</ele>
        <time>2026-03-01T10:55:03.244Z</time>
      </trkpt>
      <trkpt lat="43.21247" lon="5.38395">
        <ele>76</ele>
        <time>2026-03-01T10:55:11.387Z</time>
      </trkpt>
      <trkpt lat="43.21247" lon="5.38403">
        <ele>75</ele>
        <time>2026-03-01T10:55:14.807Z</time>
      </trkpt>
      <trkpt lat="43.21253" lon="5.38418">
        <ele>75</ele>
        <time>2026-03-01T10:55:23.065Z</time>
      </trkpt>
      <trkpt lat="43.21252" lon="5.38423">
        <ele>76</ele>
        <time>2026-03-01T10:55:28.615Z</time>
      </trkpt>
      <trkpt lat="43.21242" lon="5.38432">
        <ele>73</ele>
        <time>2026-03-01T10:55:36.119Z</time>
      </trkpt>
      <trkpt lat="43.2123" lon="5.3843">
        <ele>67</ele>
        <time>2026-03-01T10:55:59.650Z</time>
      </trkpt>
      <trkpt lat="43.2122" lon="5.38437">
        <ele>63</ele>
        <time>2026-03-01T10:56:09.202Z</time>
      </trkpt>
      <trkpt lat="43.21215" lon="5.38444">
        <ele>62</ele>
        <time>2026-03-01T10:56:13.384Z</time>
      </trkpt>
      <trkpt lat="43.21211" lon="5.38459">
        <ele>63</ele>
        <time>2026-03-01T10:56:22.557Z</time>
      </trkpt>
      <trkpt lat="43.21202" lon="5.38469">
        <ele>60</ele>
        <time>2026-03-01T10:56:29.919Z</time>
      </trkpt>
      <trkpt lat="43.21198" lon="5.38494">
        <ele>63</ele>
        <time>2026-03-01T10:56:48.148Z</time>
      </trkpt>
      <trkpt lat="43.21192" lon="5.38501">
        <ele>61</ele>
        <time>2026-03-01T10:56:53.113Z</time>
      </trkpt>
      <trkpt lat="43.21187" lon="5.38503">
        <ele>59</ele>
        <time>2026-03-01T10:56:58.292Z</time>
      </trkpt>
      <trkpt lat="43.21184" lon="5.38502">
        <ele>57</ele>
        <time>2026-03-01T10:57:04.302Z</time>
      </trkpt>
      <trkpt lat="43.21173" lon="5.38503">
        <ele>52</ele>
        <time>2026-03-01T10:57:25.762Z</time>
      </trkpt>
      <trkpt lat="43.21157" lon="5.38501">
        <ele>45</ele>
        <time>2026-03-01T10:57:51.909Z</time>
      </trkpt>
      <trkpt lat="43.21142" lon="5.385">
        <ele>41</ele>
        <time>2026-03-01T10:58:01.578Z</time>
      </trkpt>
      <trkpt lat="43.21132" lon="5.38506">
        <ele>38</ele>
        <time>2026-03-01T10:58:08.722Z</time>
      </trkpt>
      <trkpt lat="43.21118" lon="5.38509">
        <ele>34</ele>
        <time>2026-03-01T10:58:18.142Z</time>
      </trkpt>
      <trkpt lat="43.2111" lon="5.38515">
        <ele>32</ele>
        <time>2026-03-01T10:58:23.645Z</time>
      </trkpt>
      <trkpt lat="43.21105" lon="5.38522">
        <ele>30</ele>
        <time>2026-03-01T10:58:28.371Z</time>
      </trkpt>
      <trkpt lat="43.21118" lon="5.38538">
        <ele>35</ele>
        <time>2026-03-01T10:58:56.772Z</time>
      </trkpt>
      <trkpt lat="43.21127" lon="5.38567">
        <ele>40</ele>
        <time>2026-03-01T10:59:24.371Z</time>
      </trkpt>
      <trkpt lat="43.21132" lon="5.38576">
        <ele>42</ele>
        <time>2026-03-01T10:59:35.352Z</time>
      </trkpt>
      <trkpt lat="43.21144" lon="5.38605">
        <ele>47</ele>
        <time>2026-03-01T11:00:03.222Z</time>
      </trkpt>
      <trkpt lat="43.21149" lon="5.38611">
        <ele>49</ele>
        <time>2026-03-01T11:00:14.838Z</time>
      </trkpt>
      <trkpt lat="43.21157" lon="5.38618">
        <ele>52</ele>
        <time>2026-03-01T11:00:32.751Z</time>
      </trkpt>
      <trkpt lat="43.21159" lon="5.38622">
        <ele>53</ele>
        <time>2026-03-01T11:00:38.406Z</time>
      </trkpt>
      <trkpt lat="43.21158" lon="5.38631">
        <ele>52</ele>
        <time>2026-03-01T11:00:42.288Z</time>
      </trkpt>
      <trkpt lat="43.21152" lon="5.38649">
        <ele>50</ele>
        <time>2026-03-01T11:00:50.734Z</time>
      </trkpt>
      <trkpt lat="43.21154" lon="5.38646">
        <ele>50</ele>
        <time>2026-03-01T11:00:52.696Z</time>
      </trkpt>
      <trkpt lat="43.21153" lon="5.3865">
        <ele>50</ele>
        <time>2026-03-01T11:00:54.737Z</time>
      </trkpt>
      <trkpt lat="43.21152" lon="5.38649">
        <ele>50</ele>
        <time>2026-03-01T11:00:55.556Z</time>
      </trkpt>
      <trkpt lat="43.21154" lon="5.3865">
        <ele>50</ele>
        <time>2026-03-01T11:00:56.966Z</time>
      </trkpt>
      <trkpt lat="43.21158" lon="5.38648">
        <ele>52</ele>
        <time>2026-03-01T11:01:13.541Z</time>
      </trkpt>
      <trkpt lat="43.21159" lon="5.3865">
        <ele>52</ele>
        <time>2026-03-01T11:01:14.711Z</time>
      </trkpt>
      <trkpt lat="43.21172" lon="5.38657">
        <ele>58</ele>
        <time>2026-03-01T11:02:02.066Z</time>
      </trkpt>
      <trkpt lat="43.21196" lon="5.38663">
        <ele>68</ele>
        <time>2026-03-01T11:03:17.553Z</time>
      </trkpt>
      <trkpt lat="43.21214" lon="5.38673">
        <ele>77</ele>
        <time>2026-03-01T11:04:31.787Z</time>
      </trkpt>
      <trkpt lat="43.21218" lon="5.38674">
        <ele>79</ele>
        <time>2026-03-01T11:04:47.617Z</time>
      </trkpt>
      <trkpt lat="43.21229" lon="5.3869">
        <ele>84</ele>
        <time>2026-03-01T11:05:17.225Z</time>
      </trkpt>
      <trkpt lat="43.21232" lon="5.38701">
        <ele>86</ele>
        <time>2026-03-01T11:05:28.203Z</time>
      </trkpt>
      <trkpt lat="43.21234" lon="5.387">
        <ele>87</ele>
        <time>2026-03-01T11:05:36.491Z</time>
      </trkpt>
      <trkpt lat="43.21237" lon="5.38703">
        <ele>88</ele>
        <time>2026-03-01T11:05:42.063Z</time>
      </trkpt>
      <trkpt lat="43.21237" lon="5.38701">
        <ele>88</ele>
        <time>2026-03-01T11:05:43.028Z</time>
      </trkpt>
      <trkpt lat="43.21243" lon="5.38698">
        <ele>91</ele>
        <time>2026-03-01T11:06:07.891Z</time>
      </trkpt>
      <trkpt lat="43.21243" lon="5.38692">
        <ele>91</ele>
        <time>2026-03-01T11:06:10.787Z</time>
      </trkpt>
      <trkpt lat="43.21245" lon="5.38691">
        <ele>92</ele>
        <time>2026-03-01T11:06:19.074Z</time>
      </trkpt>
      <trkpt lat="43.21247" lon="5.38698">
        <ele>93</ele>
        <time>2026-03-01T11:06:24.841Z</time>
      </trkpt>
      <trkpt lat="43.2125" lon="5.38701">
        <ele>94</ele>
        <time>2026-03-01T11:06:30.414Z</time>
      </trkpt>
      <trkpt lat="43.21251" lon="5.38699">
        <ele>95</ele>
        <time>2026-03-01T11:06:37.296Z</time>
      </trkpt>
      <trkpt lat="43.21253" lon="5.387">
        <ele>96</ele>
        <time>2026-03-01T11:06:45.583Z</time>
      </trkpt>
      <trkpt lat="43.21256" lon="5.3871">
        <ele>98</ele>
        <time>2026-03-01T11:06:56.606Z</time>
      </trkpt>
      <trkpt lat="43.21255" lon="5.38707">
        <ele>98</ele>
        <time>2026-03-01T11:06:58.198Z</time>
      </trkpt>
      <trkpt lat="43.2126" lon="5.387">
        <ele>100</ele>
        <time>2026-03-01T11:07:09.469Z</time>
      </trkpt>
      <trkpt lat="43.21262" lon="5.38702">
        <ele>102</ele>
        <time>2026-03-01T11:07:19.104Z</time>
      </trkpt>
      <trkpt lat="43.21261" lon="5.38705">
        <ele>101</ele>
        <time>2026-03-01T11:07:22.202Z</time>
      </trkpt>
      <trkpt lat="43.21256" lon="5.38711">
        <ele>98</ele>
        <time>2026-03-01T11:07:35.133Z</time>
      </trkpt>
      <trkpt lat="43.21258" lon="5.38713">
        <ele>100</ele>
        <time>2026-03-01T11:07:44.768Z</time>
      </trkpt>
      <trkpt lat="43.21261" lon="5.38711">
        <ele>102</ele>
        <time>2026-03-01T11:07:57.754Z</time>
      </trkpt>
      <trkpt lat="43.2126" lon="5.38716">
        <ele>101</ele>
        <time>2026-03-01T11:08:00.179Z</time>
      </trkpt>
      <trkpt lat="43.21264" lon="5.38715">
        <ele>104</ele>
        <time>2026-03-01T11:08:16.009Z</time>
      </trkpt>
      <trkpt lat="43.21265" lon="5.38717">
        <ele>104</ele>
        <time>2026-03-01T11:08:17.179Z</time>
      </trkpt>
      <trkpt lat="43.21264" lon="5.38722">
        <ele>104</ele>
        <time>2026-03-01T11:08:19.682Z</time>
      </trkpt>
      <trkpt lat="43.21262" lon="5.38723">
        <ele>103</ele>
        <time>2026-03-01T11:08:23.825Z</time>
      </trkpt>
      <trkpt lat="43.21255" lon="5.38718">
        <ele>98</ele>
        <time>2026-03-01T11:08:39.188Z</time>
      </trkpt>
      <trkpt lat="43.21252" lon="5.3872">
        <ele>96</ele>
        <time>2026-03-01T11:08:45.681Z</time>
      </trkpt>
      <trkpt lat="43.21245" lon="5.38732">
        <ele>93</ele>
        <time>2026-03-01T11:08:52.913Z</time>
      </trkpt>
      <trkpt lat="43.21244" lon="5.38739">
        <ele>93</ele>
        <time>2026-03-01T11:08:56.355Z</time>
      </trkpt>
      <trkpt lat="43.21241" lon="5.38743">
        <ele>92</ele>
        <time>2026-03-01T11:08:58.937Z</time>
      </trkpt>
      <trkpt lat="43.21235" lon="5.38746">
        <ele>89</ele>
        <time>2026-03-01T11:09:11.368Z</time>
      </trkpt>
      <trkpt lat="43.21233" lon="5.38752">
        <ele>88</ele>
        <time>2026-03-01T11:09:14.242Z</time>
      </trkpt>
      <trkpt lat="43.21244" lon="5.38774">
        <ele>95</ele>
        <time>2026-03-01T11:10:00.547Z</time>
      </trkpt>
      <trkpt lat="43.21249" lon="5.38781">
        <ele>98</ele>
        <time>2026-03-01T11:10:23.740Z</time>
      </trkpt>
      <trkpt lat="43.21254" lon="5.38783">
        <ele>101</ele>
        <time>2026-03-01T11:10:44.017Z</time>
      </trkpt>
      <trkpt lat="43.21257" lon="5.38791">
        <ele>104</ele>
        <time>2026-03-01T11:11:08.670Z</time>
      </trkpt>
      <trkpt lat="43.21256" lon="5.388">
        <ele>104</ele>
        <time>2026-03-01T11:11:13.063Z</time>
      </trkpt>
      <trkpt lat="43.21255" lon="5.388">
        <ele>103</ele>
        <time>2026-03-01T11:11:15.010Z</time>
      </trkpt>
      <trkpt lat="43.21257" lon="5.38802">
        <ele>105</ele>
        <time>2026-03-01T11:11:24.645Z</time>
      </trkpt>
      <trkpt lat="43.21257" lon="5.38805">
        <ele>105</ele>
        <time>2026-03-01T11:11:26.093Z</time>
      </trkpt>
      <trkpt lat="43.21254" lon="5.38811">
        <ele>104</ele>
        <time>2026-03-01T11:11:29.224Z</time>
      </trkpt>
      <trkpt lat="43.21247" lon="5.38821">
        <ele>100</ele>
        <time>2026-03-01T11:11:40.150Z</time>
      </trkpt>
      <trkpt lat="43.21246" lon="5.38828">
        <ele>100</ele>
        <time>2026-03-01T11:11:43.593Z</time>
      </trkpt>
      <trkpt lat="43.21258" lon="5.38852">
        <ele>106</ele>
        <time>2026-03-01T11:12:17.522Z</time>
      </trkpt>
      <trkpt lat="43.2126" lon="5.38865">
        <ele>106</ele>
        <time>2026-03-01T11:12:23.934Z</time>
      </trkpt>
      <trkpt lat="43.2126" lon="5.38884">
        <ele>105</ele>
        <time>2026-03-01T11:12:32.322Z</time>
      </trkpt>
      <trkpt lat="43.21256" lon="5.38907">
        <ele>101</ele>
        <time>2026-03-01T11:12:42.867Z</time>
      </trkpt>
      <trkpt lat="43.21259" lon="5.38912">
        <ele>102</ele>
        <time>2026-03-01T11:12:48.409Z</time>
      </trkpt>
      <trkpt lat="43.21259" lon="5.3892">
        <ele>101</ele>
        <time>2026-03-01T11:12:51.830Z</time>
      </trkpt>
      <trkpt lat="43.21259" lon="5.38919">
        <ele>101</ele>
        <time>2026-03-01T11:12:52.312Z</time>
      </trkpt>
      <trkpt lat="43.21258" lon="5.3892">
        <ele>101</ele>
        <time>2026-03-01T11:12:53.132Z</time>
      </trkpt>
      <trkpt lat="43.21258" lon="5.38919">
        <ele>101</ele>
        <time>2026-03-01T11:12:53.614Z</time>
      </trkpt>
      <trkpt lat="43.21266" lon="5.38918">
        <ele>105</ele>
        <time>2026-03-01T11:13:24.890Z</time>
      </trkpt>
      <trkpt lat="43.21272" lon="5.3892">
        <ele>107</ele>
        <time>2026-03-01T11:13:37.023Z</time>
      </trkpt>
      <trkpt lat="43.21269" lon="5.3892">
        <ele>106</ele>
        <time>2026-03-01T11:13:39.338Z</time>
      </trkpt>
      <trkpt lat="43.21274" lon="5.38921">
        <ele>108</ele>
        <time>2026-03-01T11:13:53.898Z</time>
      </trkpt>
      <trkpt lat="43.2128" lon="5.38924">
        <ele>110</ele>
        <time>2026-03-01T11:14:05.771Z</time>
      </trkpt>
      <trkpt lat="43.21287" lon="5.38924">
        <ele>113</ele>
        <time>2026-03-01T11:14:29.397Z</time>
      </trkpt>
      <trkpt lat="43.21296" lon="5.38927">
        <ele>116</ele>
        <time>2026-03-01T11:14:47.598Z</time>
      </trkpt>
      <trkpt lat="43.21301" lon="5.38927">
        <ele>119</ele>
        <time>2026-03-01T11:15:07.064Z</time>
      </trkpt>
      <trkpt lat="43.21308" lon="5.38931">
        <ele>121</ele>
        <time>2026-03-01T11:15:18.157Z</time>
      </trkpt>
      <trkpt lat="43.21313" lon="5.38936">
        <ele>122</ele>
        <time>2026-03-01T11:15:24.219Z</time>
      </trkpt>
      <trkpt lat="43.21318" lon="5.38933">
        <ele>125</ele>
        <time>2026-03-01T11:15:45.465Z</time>
      </trkpt>
      <trkpt lat="43.21322" lon="5.38936">
        <ele>127</ele>
        <time>2026-03-01T11:16:01.517Z</time>
      </trkpt>
      <trkpt lat="43.21329" lon="5.38932">
        <ele>131</ele>
        <time>2026-03-01T11:16:31.039Z</time>
      </trkpt>
      <trkpt lat="43.21339" lon="5.38929">
        <ele>137</ele>
        <time>2026-03-01T11:17:10.891Z</time>
      </trkpt>
      <trkpt lat="43.2135" lon="5.38921">
        <ele>145</ele>
        <time>2026-03-01T11:17:59.362Z</time>
      </trkpt>
      <trkpt lat="43.21357" lon="5.38927">
        <ele>148</ele>
        <time>2026-03-01T11:18:19.389Z</time>
      </trkpt>
      <trkpt lat="43.21364" lon="5.38928">
        <ele>152</ele>
        <time>2026-03-01T11:18:46.789Z</time>
      </trkpt>
      <trkpt lat="43.21374" lon="5.38937">
        <ele>157</ele>
        <time>2026-03-01T11:19:25.278Z</time>
      </trkpt>
      <trkpt lat="43.21377" lon="5.38945">
        <ele>157</ele>
        <time>2026-03-01T11:19:29.620Z</time>
      </trkpt>
      <trkpt lat="43.21382" lon="5.38974">
        <ele>156</ele>
        <time>2026-03-01T11:19:43.126Z</time>
      </trkpt>
      <trkpt lat="43.21389" lon="5.3898">
        <ele>159</ele>
        <time>2026-03-01T11:20:03.153Z</time>
      </trkpt>
      <trkpt lat="43.21392" lon="5.38985">
        <ele>160</ele>
        <time>2026-03-01T11:20:08.696Z</time>
      </trkpt>
      <trkpt lat="43.21393" lon="5.3899">
        <ele>160</ele>
        <time>2026-03-01T11:20:11.198Z</time>
      </trkpt>
      <trkpt lat="43.21395" lon="5.38992">
        <ele>160</ele>
        <time>2026-03-01T11:20:12.837Z</time>
      </trkpt>
      <trkpt lat="43.21395" lon="5.39003">
        <ele>159</ele>
        <time>2026-03-01T11:20:17.545Z</time>
      </trkpt>
      <trkpt lat="43.21399" lon="5.39009">
        <ele>163</ele>
        <time>2026-03-01T11:20:40.618Z</time>
      </trkpt>
      <trkpt lat="43.21401" lon="5.39022">
        <ele>166</ele>
        <time>2026-03-01T11:20:58.313Z</time>
      </trkpt>
      <trkpt lat="43.21405" lon="5.39029">
        <ele>169</ele>
        <time>2026-03-01T11:21:23.050Z</time>
      </trkpt>
      <trkpt lat="43.21399" lon="5.39044">
        <ele>168</ele>
        <time>2026-03-01T11:21:30.554Z</time>
      </trkpt>
      <trkpt lat="43.214" lon="5.39052">
        <ele>170</ele>
        <time>2026-03-01T11:21:43.080Z</time>
      </trkpt>
      <trkpt lat="43.21394" lon="5.39062">
        <ele>168</ele>
        <time>2026-03-01T11:21:48.740Z</time>
      </trkpt>
      <trkpt lat="43.21383" lon="5.39075">
        <ele>164</ele>
        <time>2026-03-01T11:21:58.255Z</time>
      </trkpt>
      <trkpt lat="43.21382" lon="5.39081">
        <ele>164</ele>
        <time>2026-03-01T11:22:01.225Z</time>
      </trkpt>
      <trkpt lat="43.21371" lon="5.39099">
        <ele>159</ele>
        <time>2026-03-01T11:22:12.867Z</time>
      </trkpt>
      <trkpt lat="43.21369" lon="5.39109">
        <ele>158</ele>
        <time>2026-03-01T11:22:17.297Z</time>
      </trkpt>
      <trkpt lat="43.21375" lon="5.39128">
        <ele>161</ele>
        <time>2026-03-01T11:22:34.153Z</time>
      </trkpt>
      <trkpt lat="43.21386" lon="5.3914">
        <ele>168</ele>
        <time>2026-03-01T11:23:28.865Z</time>
      </trkpt>
      <trkpt lat="43.2139" lon="5.39154">
        <ele>171</ele>
        <time>2026-03-01T11:23:45.654Z</time>
      </trkpt>
      <trkpt lat="43.21395" lon="5.39162">
        <ele>175</ele>
        <time>2026-03-01T11:24:15.558Z</time>
      </trkpt>
      <trkpt lat="43.21394" lon="5.39189">
        <ele>171</ele>
        <time>2026-03-01T11:24:27.291Z</time>
      </trkpt>
      <trkpt lat="43.21395" lon="5.39209">
        <ele>169</ele>
        <time>2026-03-01T11:24:35.847Z</time>
      </trkpt>
      <trkpt lat="43.21399" lon="5.39215">
        <ele>171</ele>
        <time>2026-03-01T11:24:48.355Z</time>
      </trkpt>
      <trkpt lat="43.21409" lon="5.39223">
        <ele>177</ele>
        <time>2026-03-01T11:25:33.422Z</time>
      </trkpt>
      <trkpt lat="43.21412" lon="5.39243">
        <ele>176</ele>
        <time>2026-03-01T11:25:42.477Z</time>
      </trkpt>
      <trkpt lat="43.21404" lon="5.39262">
        <ele>169</ele>
        <time>2026-03-01T11:26:09.260Z</time>
      </trkpt>
      <trkpt lat="43.21403" lon="5.39271">
        <ele>167</ele>
        <time>2026-03-01T11:26:13.882Z</time>
      </trkpt>
      <trkpt lat="43.21405" lon="5.39284">
        <ele>168</ele>
        <time>2026-03-01T11:26:21.859Z</time>
      </trkpt>
      <trkpt lat="43.21402" lon="5.39304">
        <ele>164</ele>
        <time>2026-03-01T11:26:31.484Z</time>
      </trkpt>
      <trkpt lat="43.21408" lon="5.39315">
        <ele>168</ele>
        <time>2026-03-01T11:27:00.886Z</time>
      </trkpt>
      <trkpt lat="43.21411" lon="5.39319">
        <ele>170</ele>
        <time>2026-03-01T11:27:17.172Z</time>
      </trkpt>
      <trkpt lat="43.21411" lon="5.39327">
        <ele>170</ele>
        <time>2026-03-01T11:27:21.033Z</time>
      </trkpt>
      <trkpt lat="43.21395" lon="5.39349">
        <ele>156</ele>
        <time>2026-03-01T11:28:05.127Z</time>
      </trkpt>
      <trkpt lat="43.21395" lon="5.39353">
        <ele>156</ele>
        <time>2026-03-01T11:28:07.057Z</time>
      </trkpt>
      <trkpt lat="43.21392" lon="5.39357">
        <ele>154</ele>
        <time>2026-03-01T11:28:15.200Z</time>
      </trkpt>
      <trkpt lat="43.2139" lon="5.39364">
        <ele>152</ele>
        <time>2026-03-01T11:28:20.071Z</time>
      </trkpt>
      <trkpt lat="43.2139" lon="5.39377">
        <ele>152</ele>
        <time>2026-03-01T11:28:26.345Z</time>
      </trkpt>
      <trkpt lat="43.21392" lon="5.39385">
        <ele>154</ele>
        <time>2026-03-01T11:28:38.493Z</time>
      </trkpt>
      <trkpt lat="43.21395" lon="5.39392">
        <ele>156</ele>
        <time>2026-03-01T11:28:51.014Z</time>
      </trkpt>
      <trkpt lat="43.21403" lon="5.39401">
        <ele>163</ele>
        <time>2026-03-01T11:29:31.291Z</time>
      </trkpt>
      <trkpt lat="43.21404" lon="5.39407">
        <ele>164</ele>
        <time>2026-03-01T11:29:36.796Z</time>
      </trkpt>
      <trkpt lat="43.21403" lon="5.39413">
        <ele>163</ele>
        <time>2026-03-01T11:29:39.513Z</time>
      </trkpt>
      <trkpt lat="43.21397" lon="5.39422">
        <ele>157</ele>
        <time>2026-03-01T11:29:56.818Z</time>
      </trkpt>
      <trkpt lat="43.21392" lon="5.39436">
        <ele>151</ele>
        <time>2026-03-01T11:30:18.937Z</time>
      </trkpt>
      <trkpt lat="43.21393" lon="5.39466">
        <ele>148</ele>
        <time>2026-03-01T11:30:31.754Z</time>
      </trkpt>
      <trkpt lat="43.21394" lon="5.39472">
        <ele>148</ele>
        <time>2026-03-01T11:30:34.724Z</time>
      </trkpt>
      <trkpt lat="43.21391" lon="5.39491">
        <ele>143</ele>
        <time>2026-03-01T11:30:46.587Z</time>
      </trkpt>
      <trkpt lat="43.21392" lon="5.39501">
        <ele>142</ele>
        <time>2026-03-01T11:30:50.896Z</time>
      </trkpt>
      <trkpt lat="43.21395" lon="5.39508">
        <ele>144</ele>
        <time>2026-03-01T11:31:03.417Z</time>
      </trkpt>
      <trkpt lat="43.21405" lon="5.39519">
        <ele>151</ele>
        <time>2026-03-01T11:31:53.317Z</time>
      </trkpt>
      <trkpt lat="43.21416" lon="5.39578">
        <ele>156</ele>
        <time>2026-03-01T11:32:30.818Z</time>
      </trkpt>
      <trkpt lat="43.21421" lon="5.3959">
        <ele>154</ele>
        <time>2026-03-01T11:32:36.799Z</time>
      </trkpt>
      <trkpt lat="43.21425" lon="5.39594">
        <ele>154</ele>
        <time>2026-03-01T11:32:40.077Z</time>
      </trkpt>
      <trkpt lat="43.21431" lon="5.39594">
        <ele>155</ele>
        <time>2026-03-01T11:32:46.055Z</time>
      </trkpt>
      <trkpt lat="43.21437" lon="5.39593">
        <ele>157</ele>
        <time>2026-03-01T11:32:58.376Z</time>
      </trkpt>
      <trkpt lat="43.21447" lon="5.39589">
        <ele>160</ele>
        <time>2026-03-01T11:33:15.456Z</time>
      </trkpt>
      <trkpt lat="43.21454" lon="5.39589">
        <ele>161</ele>
        <time>2026-03-01T11:33:21.915Z</time>
      </trkpt>
      <trkpt lat="43.21461" lon="5.39586">
        <ele>163</ele>
        <time>2026-03-01T11:33:33.096Z</time>
      </trkpt>
      <trkpt lat="43.21467" lon="5.39588">
        <ele>163</ele>
        <time>2026-03-01T11:33:37.185Z</time>
      </trkpt>
      <trkpt lat="43.21476" lon="5.39584">
        <ele>166</ele>
        <time>2026-03-01T11:33:55.132Z</time>
      </trkpt>
      <trkpt lat="43.2148" lon="5.39585">
        <ele>166</ele>
        <time>2026-03-01T11:33:57.824Z</time>
      </trkpt>
      <trkpt lat="43.2149" lon="5.39583">
        <ele>168</ele>
        <time>2026-03-01T11:34:09.074Z</time>
      </trkpt>
      <trkpt lat="43.21492" lon="5.39584">
        <ele>169</ele>
        <time>2026-03-01T11:34:17.362Z</time>
      </trkpt>
      <trkpt lat="43.21495" lon="5.39587">
        <ele>169</ele>
        <time>2026-03-01T11:34:19.820Z</time>
      </trkpt>
      <trkpt lat="43.21496" lon="5.39596">
        <ele>167</ele>
        <time>2026-03-01T11:34:24.442Z</time>
      </trkpt>
      <trkpt lat="43.21499" lon="5.39596">
        <ele>168</ele>
        <time>2026-03-01T11:34:30.636Z</time>
      </trkpt>
      <trkpt lat="43.21521" lon="5.39586">
        <ele>173</ele>
        <time>2026-03-01T11:34:58.269Z</time>
      </trkpt>
      <trkpt lat="43.21523" lon="5.39581">
        <ele>175</ele>
        <time>2026-03-01T11:35:14.452Z</time>
      </trkpt>
      <trkpt lat="43.21527" lon="5.39579">
        <ele>177</ele>
        <time>2026-03-01T11:35:31.027Z</time>
      </trkpt>
      <trkpt lat="43.21537" lon="5.39582">
        <ele>177</ele>
        <time>2026-03-01T11:35:37.805Z</time>
      </trkpt>
      <trkpt lat="43.21541" lon="5.39587">
        <ele>177</ele>
        <time>2026-03-01T11:35:41.388Z</time>
      </trkpt>
      <trkpt lat="43.21543" lon="5.39595">
        <ele>177</ele>
        <time>2026-03-01T11:35:45.470Z</time>
      </trkpt>
      <trkpt lat="43.21547" lon="5.39597">
        <ele>178</ele>
        <time>2026-03-01T11:35:50.958Z</time>
      </trkpt>
      <trkpt lat="43.21554" lon="5.39597">
        <ele>179</ele>
        <time>2026-03-01T11:35:57.418Z</time>
      </trkpt>
      <trkpt lat="43.21558" lon="5.39586">
        <ele>180</ele>
        <time>2026-03-01T11:36:04.966Z</time>
      </trkpt>
      <trkpt lat="43.21572" lon="5.39571">
        <ele>188</ele>
        <time>2026-03-01T11:37:10.249Z</time>
      </trkpt>
      <trkpt lat="43.21579" lon="5.39566">
        <ele>191</ele>
        <time>2026-03-01T11:37:31.192Z</time>
      </trkpt>
      <trkpt lat="43.21583" lon="5.39561">
        <ele>194</ele>
        <time>2026-03-01T11:37:52.258Z</time>
      </trkpt>
      <trkpt lat="43.21582" lon="5.39539">
        <ele>203</ele>
        <time>2026-03-01T11:38:54.801Z</time>
      </trkpt>
      <trkpt lat="43.21584" lon="5.39529">
        <ele>207</ele>
        <time>2026-03-01T11:39:24.224Z</time>
      </trkpt>
      <trkpt lat="43.21588" lon="5.39525">
        <ele>210</ele>
        <time>2026-03-01T11:39:43.494Z</time>
      </trkpt>
      <trkpt lat="43.21601" lon="5.39524">
        <ele>212</ele>
        <time>2026-03-01T11:39:55.922Z</time>
      </trkpt>
      <trkpt lat="43.21611" lon="5.39518">
        <ele>215</ele>
        <time>2026-03-01T11:40:12.731Z</time>
      </trkpt>
      <trkpt lat="43.21616" lon="5.39518">
        <ele>216</ele>
        <time>2026-03-01T11:40:18.341Z</time>
      </trkpt>
      <trkpt lat="43.21623" lon="5.39514">
        <ele>218</ele>
        <time>2026-03-01T11:40:29.434Z</time>
      </trkpt>
      <trkpt lat="43.21627" lon="5.39514">
        <ele>218</ele>
        <time>2026-03-01T11:40:32.083Z</time>
      </trkpt>
      <trkpt lat="43.21632" lon="5.3951">
        <ele>219</ele>
        <time>2026-03-01T11:40:37.971Z</time>
      </trkpt>
      <trkpt lat="43.21632" lon="5.39507">
        <ele>219</ele>
        <time>2026-03-01T11:40:39.418Z</time>
      </trkpt>
      <trkpt lat="43.21632" lon="5.39509">
        <ele>219</ele>
        <time>2026-03-01T11:40:40.384Z</time>
      </trkpt>
      <trkpt lat="43.21634" lon="5.3951">
        <ele>219</ele>
        <time>2026-03-01T11:40:41.793Z</time>
      </trkpt>
      <trkpt lat="43.21634" lon="5.39508">
        <ele>219</ele>
        <time>2026-03-01T11:40:42.758Z</time>
      </trkpt>
      <trkpt lat="43.21638" lon="5.39507">
        <ele>220</ele>
        <time>2026-03-01T11:40:48.253Z</time>
      </trkpt>
      <trkpt lat="43.21645" lon="5.39518">
        <ele>220</ele>
        <time>2026-03-01T11:40:55.300Z</time>
      </trkpt>
      <trkpt lat="43.21656" lon="5.3952">
        <ele>221</ele>
        <time>2026-03-01T11:41:04.136Z</time>
      </trkpt>
      <trkpt lat="43.2166" lon="5.39524">
        <ele>222</ele>
        <time>2026-03-01T11:41:09.733Z</time>
      </trkpt>
      <trkpt lat="43.21658" lon="5.39526">
        <ele>222</ele>
        <time>2026-03-01T11:41:11.372Z</time>
      </trkpt>
      <trkpt lat="43.21663" lon="5.39533">
        <ele>223</ele>
        <time>2026-03-01T11:41:17.905Z</time>
      </trkpt>
      <trkpt lat="43.2166" lon="5.39543">
        <ele>223</ele>
        <time>2026-03-01T11:41:23.124Z</time>
      </trkpt>
      <trkpt lat="43.21661" lon="5.39545">
        <ele>223</ele>
        <time>2026-03-01T11:41:24.295Z</time>
      </trkpt>
      <trkpt lat="43.21664" lon="5.39541">
        <ele>224</ele>
        <time>2026-03-01T11:41:29.783Z</time>
      </trkpt>
      <trkpt lat="43.21666" lon="5.39542">
        <ele>224</ele>
        <time>2026-03-01T11:41:31.193Z</time>
      </trkpt>
      <trkpt lat="43.21665" lon="5.39558">
        <ele>225</ele>
        <time>2026-03-01T11:41:40.404Z</time>
      </trkpt>
      <trkpt lat="43.21666" lon="5.3956">
        <ele>226</ele>
        <time>2026-03-01T11:41:47.286Z</time>
      </trkpt>
      <trkpt lat="43.21665" lon="5.39565">
        <ele>226</ele>
        <time>2026-03-01T11:41:49.788Z</time>
      </trkpt>
      <trkpt lat="43.21666" lon="5.39575">
        <ele>227</ele>
        <time>2026-03-01T11:41:56.435Z</time>
      </trkpt>
      <trkpt lat="43.21666" lon="5.39579">
        <ele>227</ele>
        <time>2026-03-01T11:41:58.365Z</time>
      </trkpt>
      <trkpt lat="43.21657" lon="5.39586">
        <ele>223</ele>
        <time>2026-03-01T11:42:08.836Z</time>
      </trkpt>
      <trkpt lat="43.21659" lon="5.39596">
        <ele>226</ele>
        <time>2026-03-01T11:42:30.744Z</time>
      </trkpt>
      <trkpt lat="43.21658" lon="5.3961">
        <ele>228</ele>
        <time>2026-03-01T11:42:42.038Z</time>
      </trkpt>
      <trkpt lat="43.21656" lon="5.39621">
        <ele>228</ele>
        <time>2026-03-01T11:42:47.509Z</time>
      </trkpt>
      <trkpt lat="43.21652" lon="5.39631">
        <ele>227</ele>
        <time>2026-03-01T11:42:52.398Z</time>
      </trkpt>
      <trkpt lat="43.21648" lon="5.39661">
        <ele>228</ele>
        <time>2026-03-01T11:43:08.370Z</time>
      </trkpt>
      <trkpt lat="43.21649" lon="5.3966">
        <ele>229</ele>
        <time>2026-03-01T11:43:13.188Z</time>
      </trkpt>
      <trkpt lat="43.21648" lon="5.39656">
        <ele>228</ele>
        <time>2026-03-01T11:43:15.491Z</time>
      </trkpt>
      <trkpt lat="43.21645" lon="5.39664">
        <ele>227</ele>
        <time>2026-03-01T11:43:19.327Z</time>
      </trkpt>
      <trkpt lat="43.21647" lon="5.39663">
        <ele>228</ele>
        <time>2026-03-01T11:43:27.614Z</time>
      </trkpt>
      <trkpt lat="43.21651" lon="5.3967">
        <ele>231</ele>
        <time>2026-03-01T11:43:52.351Z</time>
      </trkpt>
      <trkpt lat="43.21653" lon="5.39678">
        <ele>233</ele>
        <time>2026-03-01T11:44:04.499Z</time>
      </trkpt>
      <trkpt lat="43.21653" lon="5.39683">
        <ele>232</ele>
        <time>2026-03-01T11:44:06.882Z</time>
      </trkpt>
      <trkpt lat="43.21638" lon="5.3971">
        <ele>221</ele>
        <time>2026-03-01T11:44:52.963Z</time>
      </trkpt>
      <trkpt lat="43.21633" lon="5.39714">
        <ele>218</ele>
        <time>2026-03-01T11:45:04.230Z</time>
      </trkpt>
      <trkpt lat="43.21631" lon="5.39713">
        <ele>216</ele>
        <time>2026-03-01T11:45:08.373Z</time>
      </trkpt>
      <trkpt lat="43.21628" lon="5.3972">
        <ele>214</ele>
        <time>2026-03-01T11:45:13.022Z</time>
      </trkpt>
      <trkpt lat="43.21628" lon="5.39719">
        <ele>214</ele>
        <time>2026-03-01T11:45:13.504Z</time>
      </trkpt>
      <trkpt lat="43.21629" lon="5.39721">
        <ele>215</ele>
        <time>2026-03-01T11:45:20.386Z</time>
      </trkpt>
      <trkpt lat="43.21628" lon="5.3974">
        <ele>214</ele>
        <time>2026-03-01T11:45:28.797Z</time>
      </trkpt>
      <trkpt lat="43.21631" lon="5.39744">
        <ele>216</ele>
        <time>2026-03-01T11:45:45.083Z</time>
      </trkpt>
      <trkpt lat="43.21636" lon="5.39746">
        <ele>219</ele>
        <time>2026-03-01T11:46:05.359Z</time>
      </trkpt>
      <trkpt lat="43.21637" lon="5.39748">
        <ele>220</ele>
        <time>2026-03-01T11:46:12.241Z</time>
      </trkpt>
      <trkpt lat="43.21634" lon="5.39752">
        <ele>218</ele>
        <time>2026-03-01T11:46:20.384Z</time>
      </trkpt>
      <trkpt lat="43.21635" lon="5.39758">
        <ele>219</ele>
        <time>2026-03-01T11:46:25.889Z</time>
      </trkpt>
      <trkpt lat="43.21633" lon="5.39768">
        <ele>218</ele>
        <time>2026-03-01T11:46:30.318Z</time>
      </trkpt>
      <trkpt lat="43.21636" lon="5.3977">
        <ele>221</ele>
        <time>2026-03-01T11:46:43.304Z</time>
      </trkpt>
      <trkpt lat="43.2163" lon="5.39783">
        <ele>218</ele>
        <time>2026-03-01T11:46:50.540Z</time>
      </trkpt>
      <trkpt lat="43.21626" lon="5.39787">
        <ele>215</ele>
        <time>2026-03-01T11:47:00.175Z</time>
      </trkpt>
      <trkpt lat="43.2162" lon="5.39791">
        <ele>212</ele>
        <time>2026-03-01T11:47:13.160Z</time>
      </trkpt>
      <trkpt lat="43.21603" lon="5.39812">
        <ele>203</ele>
        <time>2026-03-01T11:47:37.456Z</time>
      </trkpt>
      <trkpt lat="43.21588" lon="5.39819">
        <ele>195</ele>
        <time>2026-03-01T11:48:08.298Z</time>
      </trkpt>
      <trkpt lat="43.21577" lon="5.39839">
        <ele>189</ele>
        <time>2026-03-01T11:48:22.143Z</time>
      </trkpt>
      <trkpt lat="43.2157" lon="5.39845">
        <ele>183</ele>
        <time>2026-03-01T11:48:38.210Z</time>
      </trkpt>
      <trkpt lat="43.2157" lon="5.39851">
        <ele>184</ele>
        <time>2026-03-01T11:48:43.704Z</time>
      </trkpt>
      <trkpt lat="43.21567" lon="5.39853">
        <ele>181</ele>
        <time>2026-03-01T11:48:50.196Z</time>
      </trkpt>
      <trkpt lat="43.21565" lon="5.39857">
        <ele>180</ele>
        <time>2026-03-01T11:48:52.550Z</time>
      </trkpt>
      <trkpt lat="43.21565" lon="5.39863">
        <ele>181</ele>
        <time>2026-03-01T11:48:58.043Z</time>
      </trkpt>
      <trkpt lat="43.2157" lon="5.39877">
        <ele>187</ele>
        <time>2026-03-01T11:49:42.280Z</time>
      </trkpt>
      <trkpt lat="43.21585" lon="5.39895">
        <ele>200</ele>
        <time>2026-03-01T11:50:59.862Z</time>
      </trkpt>
      <trkpt lat="43.2159" lon="5.39905">
        <ele>204</ele>
        <time>2026-03-01T11:51:32.583Z</time>
      </trkpt>
      <trkpt lat="43.2159" lon="5.3991">
        <ele>204</ele>
        <time>2026-03-01T11:51:34.996Z</time>
      </trkpt>
      <trkpt lat="43.2158" lon="5.39933">
        <ele>197</ele>
        <time>2026-03-01T11:51:51.793Z</time>
      </trkpt>
      <trkpt lat="43.21581" lon="5.39938">
        <ele>197</ele>
        <time>2026-03-01T11:51:54.295Z</time>
      </trkpt>
      <trkpt lat="43.21585" lon="5.39951">
        <ele>198</ele>
        <time>2026-03-01T11:52:02.634Z</time>
      </trkpt>
      <trkpt lat="43.21594" lon="5.39964">
        <ele>202</ele>
        <time>2026-03-01T11:52:26.070Z</time>
      </trkpt>
      <trkpt lat="43.21599" lon="5.39972">
        <ele>204</ele>
        <time>2026-03-01T11:52:37.135Z</time>
      </trkpt>
      <trkpt lat="43.21617" lon="5.39987">
        <ele>214</ele>
        <time>2026-03-01T11:53:59.126Z</time>
      </trkpt>
      <trkpt lat="43.21621" lon="5.39993">
        <ele>216</ele>
        <time>2026-03-01T11:54:11.634Z</time>
      </trkpt>
      <trkpt lat="43.21616" lon="5.40007">
        <ele>212</ele>
        <time>2026-03-01T11:54:21.111Z</time>
      </trkpt>
      <trkpt lat="43.21617" lon="5.40032">
        <ele>211</ele>
        <time>2026-03-01T11:54:32.350Z</time>
      </trkpt>
      <trkpt lat="43.21615" lon="5.40045">
        <ele>209</ele>
        <time>2026-03-01T11:54:38.131Z</time>
      </trkpt>
      <trkpt lat="43.21608" lon="5.40064">
        <ele>203</ele>
        <time>2026-03-01T11:54:53.841Z</time>
      </trkpt>
      <trkpt lat="43.21611" lon="5.4007">
        <ele>205</ele>
        <time>2026-03-01T11:55:07.690Z</time>
      </trkpt>
      <trkpt lat="43.21619" lon="5.40073">
        <ele>209</ele>
        <time>2026-03-01T11:55:39.979Z</time>
      </trkpt>
      <trkpt lat="43.2163" lon="5.40096">
        <ele>214</ele>
        <time>2026-03-01T11:56:07.484Z</time>
      </trkpt>
      <trkpt lat="43.21625" lon="5.4013">
        <ele>207</ele>
        <time>2026-03-01T11:56:24.098Z</time>
      </trkpt>
      <trkpt lat="43.21628" lon="5.40139">
        <ele>209</ele>
        <time>2026-03-01T11:56:35.333Z</time>
      </trkpt>
      <trkpt lat="43.21638" lon="5.40154">
        <ele>214</ele>
        <time>2026-03-01T11:57:06.603Z</time>
      </trkpt>
      <trkpt lat="43.21641" lon="5.40165">
        <ele>215</ele>
        <time>2026-03-01T11:57:13.920Z</time>
      </trkpt>
      <trkpt lat="43.21652" lon="5.40186">
        <ele>221</ele>
        <time>2026-03-01T11:57:49.902Z</time>
      </trkpt>
      <trkpt lat="43.21651" lon="5.40213">
        <ele>218</ele>
        <time>2026-03-01T11:58:01.427Z</time>
      </trkpt>
      <trkpt lat="43.21659" lon="5.40235">
        <ele>223</ele>
        <time>2026-03-01T11:58:29.572Z</time>
      </trkpt>
      <trkpt lat="43.2166" lon="5.40243">
        <ele>223</ele>
        <time>2026-03-01T11:58:33.489Z</time>
      </trkpt>
      <trkpt lat="43.21658" lon="5.40254">
        <ele>221</ele>
        <time>2026-03-01T11:58:38.608Z</time>
      </trkpt>
      <trkpt lat="43.2166" lon="5.40257">
        <ele>222</ele>
        <time>2026-03-01T11:58:44.862Z</time>
      </trkpt>
      <trkpt lat="43.2166" lon="5.40261">
        <ele>222</ele>
        <time>2026-03-01T11:58:46.793Z</time>
      </trkpt>
      <trkpt lat="43.21658" lon="5.40276">
        <ele>219</ele>
        <time>2026-03-01T11:58:53.996Z</time>
      </trkpt>
      <trkpt lat="43.21659" lon="5.4029">
        <ele>220</ele>
        <time>2026-03-01T11:59:02.316Z</time>
      </trkpt>
      <trkpt lat="43.21657" lon="5.40288">
        <ele>218</ele>
        <time>2026-03-01T11:59:07.133Z</time>
      </trkpt>
      <trkpt lat="43.21657" lon="5.40291">
        <ele>218</ele>
        <time>2026-03-01T11:59:08.581Z</time>
      </trkpt>
      <trkpt lat="43.2166" lon="5.40296">
        <ele>220</ele>
        <time>2026-03-01T11:59:24.173Z</time>
      </trkpt>
      <trkpt lat="43.21662" lon="5.40308">
        <ele>221</ele>
        <time>2026-03-01T11:59:31.728Z</time>
      </trkpt>
      <trkpt lat="43.21666" lon="5.4031">
        <ele>223</ele>
        <time>2026-03-01T11:59:48.303Z</time>
      </trkpt>
      <trkpt lat="43.21667" lon="5.40312">
        <ele>224</ele>
        <time>2026-03-01T11:59:55.185Z</time>
      </trkpt>
      <trkpt lat="43.21665" lon="5.40315">
        <ele>222</ele>
        <time>2026-03-01T12:00:00.953Z</time>
      </trkpt>
      <trkpt lat="43.21665" lon="5.40338">
        <ele>222</ele>
        <time>2026-03-01T12:00:12.052Z</time>
      </trkpt>
      <trkpt lat="43.21672" lon="5.40345">
        <ele>227</ele>
        <time>2026-03-01T12:00:45.774Z</time>
      </trkpt>
      <trkpt lat="43.21675" lon="5.40344">
        <ele>229</ele>
        <time>2026-03-01T12:00:57.794Z</time>
      </trkpt>
      <trkpt lat="43.21675" lon="5.40388">
        <ele>233</ele>
        <time>2026-03-01T12:01:25.826Z</time>
      </trkpt>
      <trkpt lat="43.21677" lon="5.40384">
        <ele>234</ele>
        <time>2026-03-01T12:01:31.481Z</time>
      </trkpt>
      <trkpt lat="43.21681" lon="5.40385">
        <ele>236</ele>
        <time>2026-03-01T12:01:47.311Z</time>
      </trkpt>
      <trkpt lat="43.21679" lon="5.40385">
        <ele>235</ele>
        <time>2026-03-01T12:01:51.204Z</time>
      </trkpt>
      <trkpt lat="43.21677" lon="5.40392">
        <ele>235</ele>
        <time>2026-03-01T12:01:54.833Z</time>
      </trkpt>
      <trkpt lat="43.21681" lon="5.40392">
        <ele>236</ele>
        <time>2026-03-01T12:02:00.335Z</time>
      </trkpt>
      <trkpt lat="43.2168" lon="5.40391">
        <ele>236</ele>
        <time>2026-03-01T12:02:01.154Z</time>
      </trkpt>
      <trkpt lat="43.21682" lon="5.404">
        <ele>237</ele>
        <time>2026-03-01T12:02:07.540Z</time>
      </trkpt>
      <trkpt lat="43.21679" lon="5.40403">
        <ele>236</ele>
        <time>2026-03-01T12:02:09.944Z</time>
      </trkpt>
      <trkpt lat="43.21673" lon="5.40401">
        <ele>234</ele>
        <time>2026-03-01T12:02:14.550Z</time>
      </trkpt>
      <trkpt lat="43.21669" lon="5.40407">
        <ele>233</ele>
        <time>2026-03-01T12:02:18.024Z</time>
      </trkpt>
      <trkpt lat="43.21667" lon="5.40412">
        <ele>233</ele>
        <time>2026-03-01T12:02:20.776Z</time>
      </trkpt>
      <trkpt lat="43.2167" lon="5.40415">
        <ele>235</ele>
        <time>2026-03-01T12:02:35.229Z</time>
      </trkpt>
      <trkpt lat="43.21672" lon="5.4042">
        <ele>236</ele>
        <time>2026-03-01T12:02:40.718Z</time>
      </trkpt>
      <trkpt lat="43.2167" lon="5.40439">
        <ele>235</ele>
        <time>2026-03-01T12:02:49.198Z</time>
      </trkpt>
      <trkpt lat="43.21685" lon="5.40446">
        <ele>237</ele>
        <time>2026-03-01T12:03:03.108Z</time>
      </trkpt>
      <trkpt lat="43.21684" lon="5.40445">
        <ele>237</ele>
        <time>2026-03-01T12:03:03.928Z</time>
      </trkpt>
      <trkpt lat="43.21684" lon="5.40446">
        <ele>237</ele>
        <time>2026-03-01T12:03:04.410Z</time>
      </trkpt>
      <trkpt lat="43.21689" lon="5.40445">
        <ele>238</ele>
        <time>2026-03-01T12:03:10.035Z</time>
      </trkpt>
      <trkpt lat="43.21691" lon="5.40446">
        <ele>238</ele>
        <time>2026-03-01T12:03:11.445Z</time>
      </trkpt>
      <trkpt lat="43.21684" lon="5.40476">
        <ele>234</ele>
        <time>2026-03-01T12:03:24.921Z</time>
      </trkpt>
      <trkpt lat="43.21683" lon="5.40494">
        <ele>233</ele>
        <time>2026-03-01T12:03:32.865Z</time>
      </trkpt>
      <trkpt lat="43.21682" lon="5.40496">
        <ele>232</ele>
        <time>2026-03-01T12:03:36.306Z</time>
      </trkpt>
      <trkpt lat="43.21671" lon="5.40501">
        <ele>233</ele>
        <time>2026-03-01T12:03:45.446Z</time>
      </trkpt>
      <trkpt lat="43.21657" lon="5.40501">
        <ele>230</ele>
        <time>2026-03-01T12:03:53.857Z</time>
      </trkpt>
      <trkpt lat="43.21649" lon="5.40506">
        <ele>227</ele>
        <time>2026-03-01T12:04:00.855Z</time>
      </trkpt>
      <trkpt lat="43.2164" lon="5.40517">
        <ele>223</ele>
        <time>2026-03-01T12:04:10.103Z</time>
      </trkpt>
      <trkpt lat="43.21636" lon="5.4053">
        <ele>221</ele>
        <time>2026-03-01T12:04:16.194Z</time>
      </trkpt>
      <trkpt lat="43.21637" lon="5.40535">
        <ele>220</ele>
        <time>2026-03-01T12:04:18.619Z</time>
      </trkpt>
      <trkpt lat="43.2164" lon="5.40542">
        <ele>220</ele>
        <time>2026-03-01T12:04:22.538Z</time>
      </trkpt>
      <trkpt lat="43.21638" lon="5.4055">
        <ele>219</ele>
        <time>2026-03-01T12:04:26.147Z</time>
      </trkpt>
      <trkpt lat="43.21641" lon="5.40582">
        <ele>216</ele>
        <time>2026-03-01T12:04:39.944Z</time>
      </trkpt>
      <trkpt lat="43.21644" lon="5.40588">
        <ele>216</ele>
        <time>2026-03-01T12:04:43.456Z</time>
      </trkpt>
      <trkpt lat="43.21647" lon="5.4059">
        <ele>216</ele>
        <time>2026-03-01T12:04:45.664Z</time>
      </trkpt>
      <trkpt lat="43.2165" lon="5.40595">
        <ele>215</ele>
        <time>2026-03-01T12:04:48.494Z</time>
      </trkpt>
      <trkpt lat="43.21658" lon="5.40649">
        <ele>211</ele>
        <time>2026-03-01T12:05:12.342Z</time>
      </trkpt>
      <trkpt lat="43.21649" lon="5.40692">
        <ele>209</ele>
        <time>2026-03-01T12:05:32.292Z</time>
      </trkpt>
      <trkpt lat="43.21652" lon="5.40702">
        <ele>208</ele>
        <time>2026-03-01T12:05:36.917Z</time>
      </trkpt>
      <trkpt lat="43.21652" lon="5.40711">
        <ele>207</ele>
        <time>2026-03-01T12:05:40.754Z</time>
      </trkpt>
      <trkpt lat="43.21654" lon="5.40711">
        <ele>207</ele>
        <time>2026-03-01T12:05:42.079Z</time>
      </trkpt>
      <trkpt lat="43.21652" lon="5.40711">
        <ele>207</ele>
        <time>2026-03-01T12:05:43.403Z</time>
      </trkpt>
      <trkpt lat="43.21653" lon="5.40712">
        <ele>207</ele>
        <time>2026-03-01T12:05:44.222Z</time>
      </trkpt>
      <trkpt lat="43.21649" lon="5.40721">
        <ele>207</ele>
        <time>2026-03-01T12:05:49.309Z</time>
      </trkpt>
      <trkpt lat="43.21653" lon="5.40761">
        <ele>202</ele>
        <time>2026-03-01T12:06:06.562Z</time>
      </trkpt>
      <trkpt lat="43.21652" lon="5.40763">
        <ele>202</ele>
        <time>2026-03-01T12:06:07.732Z</time>
      </trkpt>
      <trkpt lat="43.21651" lon="5.40761">
        <ele>202</ele>
        <time>2026-03-01T12:06:08.903Z</time>
      </trkpt>
      <trkpt lat="43.21638" lon="5.40768">
        <ele>203</ele>
        <time>2026-03-01T12:06:19.538Z</time>
      </trkpt>
      <trkpt lat="43.21636" lon="5.40779">
        <ele>201</ele>
        <time>2026-03-01T12:06:24.657Z</time>
      </trkpt>
      <trkpt lat="43.21638" lon="5.40782">
        <ele>201</ele>
        <time>2026-03-01T12:06:26.619Z</time>
      </trkpt>
      <trkpt lat="43.21634" lon="5.40799">
        <ele>198</ele>
        <time>2026-03-01T12:06:34.569Z</time>
      </trkpt>
      <trkpt lat="43.21636" lon="5.40819">
        <ele>194</ele>
        <time>2026-03-01T12:06:44.142Z</time>
      </trkpt>
      <trkpt lat="43.21638" lon="5.4082">
        <ele>193</ele>
        <time>2026-03-01T12:06:48.285Z</time>
      </trkpt>
      <trkpt lat="43.21644" lon="5.4083">
        <ele>190</ele>
        <time>2026-03-01T12:06:55.186Z</time>
      </trkpt>
      <trkpt lat="43.21642" lon="5.40834">
        <ele>190</ele>
        <time>2026-03-01T12:06:57.527Z</time>
      </trkpt>
      <trkpt lat="43.21645" lon="5.40846">
        <ele>189</ele>
        <time>2026-03-01T12:07:02.992Z</time>
      </trkpt>
      <trkpt lat="43.21649" lon="5.4085">
        <ele>188</ele>
        <time>2026-03-01T12:07:05.938Z</time>
      </trkpt>
      <trkpt lat="43.21648" lon="5.40853">
        <ele>188</ele>
        <time>2026-03-01T12:07:07.530Z</time>
      </trkpt>
      <trkpt lat="43.21653" lon="5.40852">
        <ele>187</ele>
        <time>2026-03-01T12:07:10.528Z</time>
      </trkpt>
      <trkpt lat="43.21655" lon="5.40854">
        <ele>187</ele>
        <time>2026-03-01T12:07:12.167Z</time>
      </trkpt>
      <trkpt lat="43.21654" lon="5.40865">
        <ele>187</ele>
        <time>2026-03-01T12:07:17.517Z</time>
      </trkpt>
      <trkpt lat="43.21651" lon="5.4087">
        <ele>187</ele>
        <time>2026-03-01T12:07:20.642Z</time>
      </trkpt>
      <trkpt lat="43.21648" lon="5.40871">
        <ele>187</ele>
        <time>2026-03-01T12:07:22.686Z</time>
      </trkpt>
      <trkpt lat="43.21647" lon="5.40876">
        <ele>187</ele>
        <time>2026-03-01T12:07:25.189Z</time>
      </trkpt>
      <trkpt lat="43.21648" lon="5.40876">
        <ele>187</ele>
        <time>2026-03-01T12:07:25.851Z</time>
      </trkpt>
      <trkpt lat="43.2165" lon="5.40896">
        <ele>186</ele>
        <time>2026-03-01T12:07:34.796Z</time>
      </trkpt>
      <trkpt lat="43.21643" lon="5.40904">
        <ele>185</ele>
        <time>2026-03-01T12:07:40.178Z</time>
      </trkpt>
      <trkpt lat="43.2164" lon="5.40911">
        <ele>184</ele>
        <time>2026-03-01T12:07:43.647Z</time>
      </trkpt>
      <trkpt lat="43.21637" lon="5.4093">
        <ele>181</ele>
        <time>2026-03-01T12:07:52.141Z</time>
      </trkpt>
      <trkpt lat="43.21643" lon="5.40949">
        <ele>179</ele>
        <time>2026-03-01T12:08:00.985Z</time>
      </trkpt>
      <trkpt lat="43.21658" lon="5.40962">
        <ele>180</ele>
        <time>2026-03-01T12:08:14.043Z</time>
      </trkpt>
      <trkpt lat="43.21669" lon="5.40977">
        <ele>180</ele>
        <time>2026-03-01T12:08:24.312Z</time>
      </trkpt>
      <trkpt lat="43.21682" lon="5.41">
        <ele>180</ele>
        <time>2026-03-01T12:08:38.359Z</time>
      </trkpt>
      <trkpt lat="43.21697" lon="5.41019">
        <ele>182</ele>
        <time>2026-03-01T12:08:54.943Z</time>
      </trkpt>
      <trkpt lat="43.21703" lon="5.41035">
        <ele>182</ele>
        <time>2026-03-01T12:09:03.627Z</time>
      </trkpt>
      <trkpt lat="43.21715" lon="5.41075">
        <ele>185</ele>
        <time>2026-03-01T12:09:29.053Z</time>
      </trkpt>
      <trkpt lat="43.21721" lon="5.41112">
        <ele>186</ele>
        <time>2026-03-01T12:09:48.558Z</time>
      </trkpt>
      <trkpt lat="43.21723" lon="5.41129">
        <ele>187</ele>
        <time>2026-03-01T12:09:58.299Z</time>
      </trkpt>
      <trkpt lat="43.21717" lon="5.41156">
        <ele>183</ele>
        <time>2026-03-01T12:10:10.482Z</time>
      </trkpt>
      <trkpt lat="43.21728" lon="5.41204">
        <ele>182</ele>
        <time>2026-03-01T12:10:33.817Z</time>
      </trkpt>
      <trkpt lat="43.21734" lon="5.41208">
        <ele>184</ele>
        <time>2026-03-01T12:10:45.409Z</time>
      </trkpt>
      <trkpt lat="43.21752" lon="5.41205">
        <ele>193</ele>
        <time>2026-03-01T12:11:56.004Z</time>
      </trkpt>
      <trkpt lat="43.21762" lon="5.41207">
        <ele>194</ele>
        <time>2026-03-01T12:12:04.235Z</time>
      </trkpt>
      <trkpt lat="43.2178" lon="5.41226">
        <ele>195</ele>
        <time>2026-03-01T12:12:20.523Z</time>
      </trkpt>
      <trkpt lat="43.21805" lon="5.41247">
        <ele>198</ele>
        <time>2026-03-01T12:12:44.611Z</time>
      </trkpt>
      <trkpt lat="43.2181" lon="5.41256">
        <ele>199</ele>
        <time>2026-03-01T12:12:51.749Z</time>
      </trkpt>
      <trkpt lat="43.21812" lon="5.41264">
        <ele>198</ele>
        <time>2026-03-01T12:12:55.357Z</time>
      </trkpt>
      <trkpt lat="43.21811" lon="5.41273">
        <ele>197</ele>
        <time>2026-03-01T12:12:59.238Z</time>
      </trkpt>
      <trkpt lat="43.218" lon="5.41298">
        <ele>193</ele>
        <time>2026-03-01T12:13:11.799Z</time>
      </trkpt>
      <trkpt lat="43.21801" lon="5.41363">
        <ele>189</ele>
        <time>2026-03-01T12:13:40.219Z</time>
      </trkpt>
      <trkpt lat="43.21805" lon="5.41377">
        <ele>189</ele>
        <time>2026-03-01T12:13:47.476Z</time>
      </trkpt>
      <trkpt lat="43.21821" lon="5.41398">
        <ele>191</ele>
        <time>2026-03-01T12:14:05.116Z</time>
      </trkpt>
      <trkpt lat="43.21826" lon="5.41414">
        <ele>191</ele>
        <time>2026-03-01T12:14:13.517Z</time>
      </trkpt>
      <trkpt lat="43.21827" lon="5.41434">
        <ele>189</ele>
        <time>2026-03-01T12:14:22.072Z</time>
      </trkpt>
      <trkpt lat="43.21835" lon="5.41452">
        <ele>189</ele>
        <time>2026-03-01T12:14:32.246Z</time>
      </trkpt>
      <trkpt lat="43.21836" lon="5.41461">
        <ele>189</ele>
        <time>2026-03-01T12:14:36.640Z</time>
      </trkpt>
      <trkpt lat="43.21835" lon="5.41474">
        <ele>187</ele>
        <time>2026-03-01T12:14:42.342Z</time>
      </trkpt>
      <trkpt lat="43.2183" lon="5.41485">
        <ele>186</ele>
        <time>2026-03-01T12:14:47.934Z</time>
      </trkpt>
      <trkpt lat="43.21832" lon="5.41503">
        <ele>184</ele>
        <time>2026-03-01T12:14:55.696Z</time>
      </trkpt>
      <trkpt lat="43.21835" lon="5.41508">
        <ele>184</ele>
        <time>2026-03-01T12:14:58.821Z</time>
      </trkpt>
      <trkpt lat="43.21835" lon="5.41515">
        <ele>183</ele>
        <time>2026-03-01T12:15:01.845Z</time>
      </trkpt>
      <trkpt lat="43.21831" lon="5.41534">
        <ele>181</ele>
        <time>2026-03-01T12:15:10.283Z</time>
      </trkpt>
      <trkpt lat="43.21818" lon="5.41549">
        <ele>177</ele>
        <time>2026-03-01T12:15:20.718Z</time>
      </trkpt>
      <trkpt lat="43.21815" lon="5.41559">
        <ele>176</ele>
        <time>2026-03-01T12:15:25.343Z</time>
      </trkpt>
      <trkpt lat="43.21812" lon="5.41589">
        <ele>174</ele>
        <time>2026-03-01T12:15:38.522Z</time>
      </trkpt>
      <trkpt lat="43.21813" lon="5.41592">
        <ele>174</ele>
        <time>2026-03-01T12:15:40.114Z</time>
      </trkpt>
      <trkpt lat="43.21815" lon="5.41591">
        <ele>174</ele>
        <time>2026-03-01T12:15:41.524Z</time>
      </trkpt>
      <trkpt lat="43.21811" lon="5.41595">
        <ele>174</ele>
        <time>2026-03-01T12:15:44.801Z</time>
      </trkpt>
      <trkpt lat="43.21797" lon="5.41599">
        <ele>174</ele>
        <time>2026-03-01T12:15:54.270Z</time>
      </trkpt>
      <trkpt lat="43.21779" lon="5.41618">
        <ele>176</ele>
        <time>2026-03-01T12:16:12.262Z</time>
      </trkpt>
      <trkpt lat="43.21776" lon="5.41619">
        <ele>176</ele>
        <time>2026-03-01T12:16:14.306Z</time>
      </trkpt>
      <trkpt lat="43.21773" lon="5.41625">
        <ele>176</ele>
        <time>2026-03-01T12:16:17.818Z</time>
      </trkpt>
      <trkpt lat="43.21769" lon="5.41626">
        <ele>177</ele>
        <time>2026-03-01T12:16:23.312Z</time>
      </trkpt>
      <trkpt lat="43.21765" lon="5.41624">
        <ele>177</ele>
        <time>2026-03-01T12:16:26.132Z</time>
      </trkpt>
      <trkpt lat="43.21762" lon="5.41625">
        <ele>177</ele>
        <time>2026-03-01T12:16:28.176Z</time>
      </trkpt>
      <trkpt lat="43.2176" lon="5.41627">
        <ele>177</ele>
        <time>2026-03-01T12:16:29.815Z</time>
      </trkpt>
      <trkpt lat="43.21761" lon="5.41632">
        <ele>178</ele>
        <time>2026-03-01T12:16:35.365Z</time>
      </trkpt>
      <trkpt lat="43.21754" lon="5.41642">
        <ele>180</ele>
        <time>2026-03-01T12:16:46.615Z</time>
      </trkpt>
      <trkpt lat="43.21751" lon="5.41653">
        <ele>182</ele>
        <time>2026-03-01T12:16:57.592Z</time>
      </trkpt>
      <trkpt lat="43.21748" lon="5.41655">
        <ele>182</ele>
        <time>2026-03-01T12:16:59.801Z</time>
      </trkpt>
      <trkpt lat="43.2175" lon="5.41662">
        <ele>183</ele>
        <time>2026-03-01T12:17:05.568Z</time>
      </trkpt>
      <trkpt lat="43.21748" lon="5.41666">
        <ele>184</ele>
        <time>2026-03-01T12:17:11.223Z</time>
      </trkpt>
      <trkpt lat="43.2175" lon="5.41669">
        <ele>184</ele>
        <time>2026-03-01T12:17:13.185Z</time>
      </trkpt>
      <trkpt lat="43.21747" lon="5.41677">
        <ele>185</ele>
        <time>2026-03-01T12:17:19.422Z</time>
      </trkpt>
      <trkpt lat="43.21743" lon="5.4168">
        <ele>185</ele>
        <time>2026-03-01T12:17:22.440Z</time>
      </trkpt>
      <trkpt lat="43.21742" lon="5.41683">
        <ele>186</ele>
        <time>2026-03-01T12:17:30.100Z</time>
      </trkpt>
      <trkpt lat="43.21736" lon="5.41691">
        <ele>186</ele>
        <time>2026-03-01T12:17:35.640Z</time>
      </trkpt>
      <trkpt lat="43.21731" lon="5.41694">
        <ele>186</ele>
        <time>2026-03-01T12:17:39.253Z</time>
      </trkpt>
      <trkpt lat="43.21731" lon="5.41697">
        <ele>187</ele>
        <time>2026-03-01T12:17:47.470Z</time>
      </trkpt>
      <trkpt lat="43.2172" lon="5.41705">
        <ele>188</ele>
        <time>2026-03-01T12:17:57.148Z</time>
      </trkpt>
      <trkpt lat="43.21718" lon="5.41712">
        <ele>189</ele>
        <time>2026-03-01T12:18:02.915Z</time>
      </trkpt>
      <trkpt lat="43.21714" lon="5.41714">
        <ele>189</ele>
        <time>2026-03-01T12:18:05.734Z</time>
      </trkpt>
      <trkpt lat="43.21709" lon="5.41719">
        <ele>190</ele>
        <time>2026-03-01T12:18:11.796Z</time>
      </trkpt>
      <trkpt lat="43.217" lon="5.41724">
        <ele>191</ele>
        <time>2026-03-01T12:18:19.789Z</time>
      </trkpt>
      <trkpt lat="43.21696" lon="5.41725">
        <ele>191</ele>
        <time>2026-03-01T12:18:22.481Z</time>
      </trkpt>
      <trkpt lat="43.2169" lon="5.4173">
        <ele>192</ele>
        <time>2026-03-01T12:18:28.951Z</time>
      </trkpt>
      <trkpt lat="43.21687" lon="5.41731">
        <ele>192</ele>
        <time>2026-03-01T12:18:30.995Z</time>
      </trkpt>
      <trkpt lat="43.21683" lon="5.41735">
        <ele>193</ele>
        <time>2026-03-01T12:18:36.592Z</time>
      </trkpt>
      <trkpt lat="43.21675" lon="5.41751">
        <ele>197</ele>
        <time>2026-03-01T12:18:59.212Z</time>
      </trkpt>
      <trkpt lat="43.21672" lon="5.41753">
        <ele>197</ele>
        <time>2026-03-01T12:19:01.420Z</time>
      </trkpt>
      <trkpt lat="43.2167" lon="5.41758">
        <ele>197</ele>
        <time>2026-03-01T12:19:04.173Z</time>
      </trkpt>
      <trkpt lat="43.21665" lon="5.41763">
        <ele>197</ele>
        <time>2026-03-01T12:19:08.270Z</time>
      </trkpt>
      <trkpt lat="43.21656" lon="5.41766">
        <ele>196</ele>
        <time>2026-03-01T12:19:13.745Z</time>
      </trkpt>
      <trkpt lat="43.21652" lon="5.41769">
        <ele>196</ele>
        <time>2026-03-01T12:19:16.764Z</time>
      </trkpt>
      <trkpt lat="43.21644" lon="5.41771">
        <ele>195</ele>
        <time>2026-03-01T12:19:21.542Z</time>
      </trkpt>
      <trkpt lat="43.21639" lon="5.41777">
        <ele>195</ele>
        <time>2026-03-01T12:19:25.940Z</time>
      </trkpt>
      <trkpt lat="43.21634" lon="5.41778">
        <ele>195</ele>
        <time>2026-03-01T12:19:29.286Z</time>
      </trkpt>
      <trkpt lat="43.21627" lon="5.41785">
        <ele>195</ele>
        <time>2026-03-01T12:19:35.022Z</time>
      </trkpt>
      <trkpt lat="43.21622" lon="5.41787">
        <ele>195</ele>
        <time>2026-03-01T12:19:38.470Z</time>
      </trkpt>
      <trkpt lat="43.21613" lon="5.41787">
        <ele>194</ele>
        <time>2026-03-01T12:19:43.783Z</time>
      </trkpt>
      <trkpt lat="43.21602" lon="5.41789">
        <ele>194</ele>
        <time>2026-03-01T12:19:51.131Z</time>
      </trkpt>
      <trkpt lat="43.21599" lon="5.41791">
        <ele>194</ele>
        <time>2026-03-01T12:19:53.340Z</time>
      </trkpt>
      <trkpt lat="43.21589" lon="5.41792">
        <ele>193</ele>
        <time>2026-03-01T12:19:59.293Z</time>
      </trkpt>
      <trkpt lat="43.21574" lon="5.418">
        <ele>191</ele>
        <time>2026-03-01T12:20:08.746Z</time>
      </trkpt>
      <trkpt lat="43.21567" lon="5.418">
        <ele>188</ele>
        <time>2026-03-01T12:20:19.126Z</time>
      </trkpt>
      <trkpt lat="43.2156" lon="5.41802">
        <ele>186</ele>
        <time>2026-03-01T12:20:23.853Z</time>
      </trkpt>
      <trkpt lat="43.21553" lon="5.41801">
        <ele>183</ele>
        <time>2026-03-01T12:20:34.003Z</time>
      </trkpt>
      <trkpt lat="43.21548" lon="5.41801">
        <ele>181</ele>
        <time>2026-03-01T12:20:39.589Z</time>
      </trkpt>
      <trkpt lat="43.21525" lon="5.41815">
        <ele>175</ele>
        <time>2026-03-01T12:20:55.104Z</time>
      </trkpt>
      <trkpt lat="43.21515" lon="5.41827">
        <ele>173</ele>
        <time>2026-03-01T12:21:02.875Z</time>
      </trkpt>
      <trkpt lat="43.21512" lon="5.41828">
        <ele>172</ele>
        <time>2026-03-01T12:21:05.178Z</time>
      </trkpt>
      <trkpt lat="43.21507" lon="5.41827">
        <ele>170</ele>
        <time>2026-03-01T12:21:10.641Z</time>
      </trkpt>
      <trkpt lat="43.21509" lon="5.41826">
        <ele>171</ele>
        <time>2026-03-01T12:21:18.928Z</time>
      </trkpt>
      <trkpt lat="43.21512" lon="5.41827">
        <ele>172</ele>
        <time>2026-03-01T12:21:24.995Z</time>
      </trkpt>
      <trkpt lat="43.21515" lon="5.41831">
        <ele>174</ele>
        <time>2026-03-01T12:21:41.281Z</time>
      </trkpt>
      <trkpt lat="43.21524" lon="5.41847">
        <ele>177</ele>
        <time>2026-03-01T12:21:58.039Z</time>
      </trkpt>
      <trkpt lat="43.2153" lon="5.41867">
        <ele>177</ele>
        <time>2026-03-01T12:22:08.477Z</time>
      </trkpt>
      <trkpt lat="43.21537" lon="5.41873">
        <ele>178</ele>
        <time>2026-03-01T12:22:15.619Z</time>
      </trkpt>
      <trkpt lat="43.21542" lon="5.41885">
        <ele>179</ele>
        <time>2026-03-01T12:22:23.830Z</time>
      </trkpt>
      <trkpt lat="43.21549" lon="5.41891">
        <ele>180</ele>
        <time>2026-03-01T12:22:30.972Z</time>
      </trkpt>
      <trkpt lat="43.21554" lon="5.4189">
        <ele>181</ele>
        <time>2026-03-01T12:22:36.597Z</time>
      </trkpt>
      <trkpt lat="43.21559" lon="5.41893">
        <ele>182</ele>
        <time>2026-03-01T12:22:42.356Z</time>
      </trkpt>
      <trkpt lat="43.21562" lon="5.41894">
        <ele>183</ele>
        <time>2026-03-01T12:22:48.422Z</time>
      </trkpt>
      <trkpt lat="43.21569" lon="5.41912">
        <ele>182</ele>
        <time>2026-03-01T12:22:57.469Z</time>
      </trkpt>
      <trkpt lat="43.21579" lon="5.4193">
        <ele>182</ele>
        <time>2026-03-01T12:23:08.392Z</time>
      </trkpt>
      <trkpt lat="43.21578" lon="5.41929">
        <ele>181</ele>
        <time>2026-03-01T12:23:10.801Z</time>
      </trkpt>
      <trkpt lat="43.21575" lon="5.41922">
        <ele>182</ele>
        <time>2026-03-01T12:23:16.744Z</time>
      </trkpt>
      <trkpt lat="43.21586" lon="5.4194">
        <ele>182</ele>
        <time>2026-03-01T12:23:28.080Z</time>
      </trkpt>
      <trkpt lat="43.21605" lon="5.41959">
        <ele>180</ele>
        <time>2026-03-01T12:23:42.176Z</time>
      </trkpt>
      <trkpt lat="43.21615" lon="5.41985">
        <ele>178</ele>
        <time>2026-03-01T12:23:54.948Z</time>
      </trkpt>
      <trkpt lat="43.21624" lon="5.41997">
        <ele>177</ele>
        <time>2026-03-01T12:24:02.503Z</time>
      </trkpt>
      <trkpt lat="43.21643" lon="5.42006">
        <ele>177</ele>
        <time>2026-03-01T12:24:15.813Z</time>
      </trkpt>
      <trkpt lat="43.21655" lon="5.42027">
        <ele>175</ele>
        <time>2026-03-01T12:24:27.341Z</time>
      </trkpt>
      <trkpt lat="43.21661" lon="5.4204">
        <ele>174</ele>
        <time>2026-03-01T12:24:34.044Z</time>
      </trkpt>
      <trkpt lat="43.21664" lon="5.42042">
        <ele>174</ele>
        <time>2026-03-01T12:24:36.253Z</time>
      </trkpt>
      <trkpt lat="43.21669" lon="5.42043">
        <ele>175</ele>
        <time>2026-03-01T12:24:41.878Z</time>
      </trkpt>
      <trkpt lat="43.21674" lon="5.42045">
        <ele>175</ele>
        <time>2026-03-01T12:24:45.327Z</time>
      </trkpt>
      <trkpt lat="43.21676" lon="5.42048">
        <ele>175</ele>
        <time>2026-03-01T12:24:47.289Z</time>
      </trkpt>
      <trkpt lat="43.21675" lon="5.42053">
        <ele>174</ele>
        <time>2026-03-01T12:24:49.714Z</time>
      </trkpt>
      <trkpt lat="43.2168" lon="5.42059">
        <ele>175</ele>
        <time>2026-03-01T12:24:55.993Z</time>
      </trkpt>
      <trkpt lat="43.21687" lon="5.42063">
        <ele>176</ele>
        <time>2026-03-01T12:25:02.762Z</time>
      </trkpt>
      <trkpt lat="43.21694" lon="5.42063">
        <ele>177</ele>
        <time>2026-03-01T12:25:09.221Z</time>
      </trkpt>
      <trkpt lat="43.21697" lon="5.42061">
        <ele>178</ele>
        <time>2026-03-01T12:25:15.017Z</time>
      </trkpt>
      <trkpt lat="43.21702" lon="5.42063">
        <ele>179</ele>
        <time>2026-03-01T12:25:20.690Z</time>
      </trkpt>
      <trkpt lat="43.21704" lon="5.42066">
        <ele>179</ele>
        <time>2026-03-01T12:25:22.652Z</time>
      </trkpt>
      <trkpt lat="43.21705" lon="5.42072">
        <ele>179</ele>
        <time>2026-03-01T12:25:25.622Z</time>
      </trkpt>
      <trkpt lat="43.21713" lon="5.42083">
        <ele>182</ele>
        <time>2026-03-01T12:25:42.276Z</time>
      </trkpt>
      <trkpt lat="43.2171" lon="5.42099">
        <ele>180</ele>
        <time>2026-03-01T12:25:49.330Z</time>
      </trkpt>
      <trkpt lat="43.21713" lon="5.42115">
        <ele>179</ele>
        <time>2026-03-01T12:25:56.559Z</time>
      </trkpt>
      <trkpt lat="43.21715" lon="5.42116">
        <ele>180</ele>
        <time>2026-03-01T12:26:04.847Z</time>
      </trkpt>
      <trkpt lat="43.2172" lon="5.4212">
        <ele>181</ele>
        <time>2026-03-01T12:26:10.735Z</time>
      </trkpt>
      <trkpt lat="43.21724" lon="5.42127">
        <ele>182</ele>
        <time>2026-03-01T12:26:16.935Z</time>
      </trkpt>
      <trkpt lat="43.21727" lon="5.42136">
        <ele>183</ele>
        <time>2026-03-01T12:26:23.506Z</time>
      </trkpt>
      <trkpt lat="43.21726" lon="5.42148">
        <ele>182</ele>
        <time>2026-03-01T12:26:28.696Z</time>
      </trkpt>
      <trkpt lat="43.21728" lon="5.42161">
        <ele>182</ele>
        <time>2026-03-01T12:26:35.108Z</time>
      </trkpt>
      <trkpt lat="43.21724" lon="5.4218">
        <ele>181</ele>
        <time>2026-03-01T12:26:43.860Z</time>
      </trkpt>
      <trkpt lat="43.21725" lon="5.42192">
        <ele>182</ele>
        <time>2026-03-01T12:26:51.317Z</time>
      </trkpt>
      <trkpt lat="43.21722" lon="5.42212">
        <ele>182</ele>
        <time>2026-03-01T12:27:01.171Z</time>
      </trkpt>
      <trkpt lat="43.21722" lon="5.42228">
        <ele>184</ele>
        <time>2026-03-01T12:27:12.982Z</time>
      </trkpt>
      <trkpt lat="43.21721" lon="5.42235">
        <ele>184</ele>
        <time>2026-03-01T12:27:16.424Z</time>
      </trkpt>
      <trkpt lat="43.21722" lon="5.42254">
        <ele>186</ele>
        <time>2026-03-01T12:27:29.283Z</time>
      </trkpt>
      <trkpt lat="43.21716" lon="5.42266">
        <ele>185</ele>
        <time>2026-03-01T12:27:35.601Z</time>
      </trkpt>
      <trkpt lat="43.21719" lon="5.42269">
        <ele>187</ele>
        <time>2026-03-01T12:27:50.054Z</time>
      </trkpt>
      <trkpt lat="43.21719" lon="5.42277">
        <ele>188</ele>
        <time>2026-03-01T12:27:55.960Z</time>
      </trkpt>
      <trkpt lat="43.21714" lon="5.42285">
        <ele>188</ele>
        <time>2026-03-01T12:28:01.045Z</time>
      </trkpt>
      <trkpt lat="43.2171" lon="5.42301">
        <ele>190</ele>
        <time>2026-03-01T12:28:13.148Z</time>
      </trkpt>
      <trkpt lat="43.21716" lon="5.42343">
        <ele>198</ele>
        <time>2026-03-01T12:28:57.304Z</time>
      </trkpt>
      <trkpt lat="43.21715" lon="5.42353">
        <ele>200</ele>
        <time>2026-03-01T12:29:08.475Z</time>
      </trkpt>
      <trkpt lat="43.21713" lon="5.42361">
        <ele>200</ele>
        <time>2026-03-01T12:29:12.557Z</time>
      </trkpt>
      <trkpt lat="43.21703" lon="5.42369">
        <ele>199</ele>
        <time>2026-03-01T12:29:19.490Z</time>
      </trkpt>
      <trkpt lat="43.21702" lon="5.42371">
        <ele>199</ele>
        <time>2026-03-01T12:29:20.661Z</time>
      </trkpt>
      <trkpt lat="43.21704" lon="5.42381">
        <ele>201</ele>
        <time>2026-03-01T12:29:31.761Z</time>
      </trkpt>
      <trkpt lat="43.21705" lon="5.42415">
        <ele>206</ele>
        <time>2026-03-01T12:29:59.756Z</time>
      </trkpt>
      <trkpt lat="43.21708" lon="5.42432">
        <ele>210</ele>
        <time>2026-03-01T12:30:23.529Z</time>
      </trkpt>
      <trkpt lat="43.21706" lon="5.42451">
        <ele>213</ele>
        <time>2026-03-01T12:30:40.124Z</time>
      </trkpt>
      <trkpt lat="43.21708" lon="5.42455">
        <ele>214</ele>
        <time>2026-03-01T12:30:45.779Z</time>
      </trkpt>
      <trkpt lat="43.21707" lon="5.42468">
        <ele>216</ele>
        <time>2026-03-01T12:30:56.883Z</time>
      </trkpt>
      <trkpt lat="43.21709" lon="5.42476">
        <ele>218</ele>
        <time>2026-03-01T12:31:09.031Z</time>
      </trkpt>
      <trkpt lat="43.21709" lon="5.42486">
        <ele>220</ele>
        <time>2026-03-01T12:31:20.232Z</time>
      </trkpt>
      <trkpt lat="43.21705" lon="5.42498">
        <ele>221</ele>
        <time>2026-03-01T12:31:28.169Z</time>
      </trkpt>
      <trkpt lat="43.21706" lon="5.42506">
        <ele>222</ele>
        <time>2026-03-01T12:31:34.110Z</time>
      </trkpt>
      <trkpt lat="43.21702" lon="5.4251">
        <ele>222</ele>
        <time>2026-03-01T12:31:37.388Z</time>
      </trkpt>
      <trkpt lat="43.21701" lon="5.42525">
        <ele>222</ele>
        <time>2026-03-01T12:31:44.657Z</time>
      </trkpt>
      <trkpt lat="43.21702" lon="5.42525">
        <ele>222</ele>
        <time>2026-03-01T12:31:45.319Z</time>
      </trkpt>
      <trkpt lat="43.21699" lon="5.4253">
        <ele>223</ele>
        <time>2026-03-01T12:31:50.861Z</time>
      </trkpt>
      <trkpt lat="43.21695" lon="5.42549">
        <ele>225</ele>
        <time>2026-03-01T12:32:03.996Z</time>
      </trkpt>
      <trkpt lat="43.21695" lon="5.42551">
        <ele>225</ele>
        <time>2026-03-01T12:32:04.961Z</time>
      </trkpt>
      <trkpt lat="43.21698" lon="5.42552">
        <ele>224</ele>
        <time>2026-03-01T12:32:07.264Z</time>
      </trkpt>
      <trkpt lat="43.21697" lon="5.4255">
        <ele>224</ele>
        <time>2026-03-01T12:32:08.434Z</time>
      </trkpt>
      <trkpt lat="43.21698" lon="5.42552">
        <ele>224</ele>
        <time>2026-03-01T12:32:09.605Z</time>
      </trkpt>
      <trkpt lat="43.21698" lon="5.4255">
        <ele>224</ele>
        <time>2026-03-01T12:32:10.570Z</time>
      </trkpt>
      <trkpt lat="43.21699" lon="5.42551">
        <ele>224</ele>
        <time>2026-03-01T12:32:11.389Z</time>
      </trkpt>
      <trkpt lat="43.217" lon="5.4255">
        <ele>224</ele>
        <time>2026-03-01T12:32:12.208Z</time>
      </trkpt>
      <trkpt lat="43.2171" lon="5.42535">
        <ele>223</ele>
        <time>2026-03-01T12:32:21.221Z</time>
      </trkpt>
      <trkpt lat="43.21718" lon="5.42529">
        <ele>222</ele>
        <time>2026-03-01T12:32:26.606Z</time>
      </trkpt>
      <trkpt lat="43.21721" lon="5.42524">
        <ele>222</ele>
        <time>2026-03-01T12:32:29.732Z</time>
      </trkpt>
      <trkpt lat="43.21727" lon="5.42523">
        <ele>222</ele>
        <time>2026-03-01T12:32:33.734Z</time>
      </trkpt>
      <trkpt lat="43.21733" lon="5.42517">
        <ele>223</ele>
        <time>2026-03-01T12:32:40.417Z</time>
      </trkpt>
      <trkpt lat="43.21742" lon="5.42514">
        <ele>224</ele>
        <time>2026-03-01T12:32:48.143Z</time>
      </trkpt>
      <trkpt lat="43.21754" lon="5.42501">
        <ele>227</ele>
        <time>2026-03-01T12:33:05.057Z</time>
      </trkpt>
      <trkpt lat="43.21775" lon="5.42496">
        <ele>225</ele>
        <time>2026-03-01T12:33:17.759Z</time>
      </trkpt>
      <trkpt lat="43.21784" lon="5.42491">
        <ele>225</ele>
        <time>2026-03-01T12:33:24.188Z</time>
      </trkpt>
      <trkpt lat="43.21801" lon="5.42486">
        <ele>224</ele>
        <time>2026-03-01T12:33:34.867Z</time>
      </trkpt>
      <trkpt lat="43.21816" lon="5.42485">
        <ele>223</ele>
        <time>2026-03-01T12:33:44.010Z</time>
      </trkpt>
      <trkpt lat="43.2183" lon="5.42481">
        <ele>222</ele>
        <time>2026-03-01T12:33:52.690Z</time>
      </trkpt>
      <trkpt lat="43.21844" lon="5.42466">
        <ele>219</ele>
        <time>2026-03-01T12:34:03.102Z</time>
      </trkpt>
      <trkpt lat="43.2185" lon="5.42442">
        <ele>217</ele>
        <time>2026-03-01T12:34:14.033Z</time>
      </trkpt>
      <trkpt lat="43.21858" lon="5.42423">
        <ele>215</ele>
        <time>2026-03-01T12:34:23.423Z</time>
      </trkpt>
      <trkpt lat="43.21859" lon="5.42411">
        <ele>214</ele>
        <time>2026-03-01T12:34:28.613Z</time>
      </trkpt>
      <trkpt lat="43.21875" lon="5.42379">
        <ele>208</ele>
        <time>2026-03-01T12:34:45.574Z</time>
      </trkpt>
      <trkpt lat="43.21881" lon="5.42358">
        <ele>206</ele>
        <time>2026-03-01T12:34:55.237Z</time>
      </trkpt>
      <trkpt lat="43.21899" lon="5.42334">
        <ele>212.9</ele>
        <time>2026-03-01T12:35:33.900Z</time>
      </trkpt>
      <trkpt lat="43.21913" lon="5.42318">
        <ele>212.3</ele>
        <time>2026-03-01T12:35:45.409Z</time>
      </trkpt>
      <trkpt lat="43.21919" lon="5.42309">
        <ele>213.7</ele>
        <time>2026-03-01T12:35:54.002Z</time>
      </trkpt>
      <trkpt lat="43.21928" lon="5.423">
        <ele>205</ele>
        <time>2026-03-01T12:36:15.680Z</time>
      </trkpt>
      <trkpt lat="43.21931" lon="5.42297">
        <ele>206</ele>
        <time>2026-03-01T12:36:21.253Z</time>
      </trkpt>
      <trkpt lat="43.21934" lon="5.42285">
        <ele>206</ele>
        <time>2026-03-01T12:36:27.375Z</time>
      </trkpt>
      <trkpt lat="43.21945" lon="5.42259">
        <ele>207</ele>
        <time>2026-03-01T12:36:43.140Z</time>
      </trkpt>
      <trkpt lat="43.21952" lon="5.42254">
        <ele>208</ele>
        <time>2026-03-01T12:36:50.079Z</time>
      </trkpt>
      <trkpt lat="43.21973" lon="5.42248">
        <ele>211</ele>
        <time>2026-03-01T12:37:09.691Z</time>
      </trkpt>
      <trkpt lat="43.21994" lon="5.42236">
        <ele>213</ele>
        <time>2026-03-01T12:37:27.706Z</time>
      </trkpt>
      <trkpt lat="43.22014" lon="5.42221">
        <ele>212</ele>
        <time>2026-03-01T12:37:41.915Z</time>
      </trkpt>
      <trkpt lat="43.22043" lon="5.42214">
        <ele>210</ele>
        <time>2026-03-01T12:37:59.820Z</time>
      </trkpt>
      <trkpt lat="43.22079" lon="5.42187">
        <ele>210</ele>
        <time>2026-03-01T12:38:26.987Z</time>
      </trkpt>
      <trkpt lat="43.22088" lon="5.42185">
        <ele>210</ele>
        <time>2026-03-01T12:38:33.024Z</time>
      </trkpt>
      <trkpt lat="43.22102" lon="5.42178">
        <ele>210</ele>
        <time>2026-03-01T12:38:42.891Z</time>
      </trkpt>
      <trkpt lat="43.22106" lon="5.42178">
        <ele>210</ele>
        <time>2026-03-01T12:38:45.539Z</time>
      </trkpt>
      <trkpt lat="43.22112" lon="5.42181">
        <ele>210</ele>
        <time>2026-03-01T12:38:49.768Z</time>
      </trkpt>
      <trkpt lat="43.22124" lon="5.42177">
        <ele>210</ele>
        <time>2026-03-01T12:38:57.945Z</time>
      </trkpt>
      <trkpt lat="43.22125" lon="5.42177">
        <ele>210</ele>
        <time>2026-03-01T12:38:58.607Z</time>
      </trkpt>
      <trkpt lat="43.22123" lon="5.42176">
        <ele>210</ele>
        <time>2026-03-01T12:39:00.017Z</time>
      </trkpt>
      <trkpt lat="43.22124" lon="5.42175">
        <ele>210</ele>
        <time>2026-03-01T12:39:00.836Z</time>
      </trkpt>
      <trkpt lat="43.22125" lon="5.42177">
        <ele>210</ele>
        <time>2026-03-01T12:39:02.007Z</time>
      </trkpt>
      <trkpt lat="43.22123" lon="5.42178">
        <ele>210</ele>
        <time>2026-03-01T12:39:03.416Z</time>
      </trkpt>
      <trkpt lat="43.22124" lon="5.42179">
        <ele>210</ele>
        <time>2026-03-01T12:39:04.236Z</time>
      </trkpt>
      <trkpt lat="43.22125" lon="5.42176">
        <ele>210</ele>
        <time>2026-03-01T12:39:05.828Z</time>
      </trkpt>
      <trkpt lat="43.22132" lon="5.42175">
        <ele>210</ele>
        <time>2026-03-01T12:39:10.488Z</time>
      </trkpt>
      <trkpt lat="43.22148" lon="5.42184">
        <ele>210</ele>
        <time>2026-03-01T12:39:21.938Z</time>
      </trkpt>
      <trkpt lat="43.22154" lon="5.42185">
        <ele>209</ele>
        <time>2026-03-01T12:39:25.479Z</time>
      </trkpt>
      <trkpt lat="43.2216" lon="5.42191">
        <ele>209</ele>
        <time>2026-03-01T12:39:30.395Z</time>
      </trkpt>
      <trkpt lat="43.22167" lon="5.42194">
        <ele>208</ele>
        <time>2026-03-01T12:39:34.690Z</time>
      </trkpt>
      <trkpt lat="43.22167" lon="5.42193">
        <ele>208</ele>
        <time>2026-03-01T12:39:35.172Z</time>
      </trkpt>
      <trkpt lat="43.22166" lon="5.42194">
        <ele>208</ele>
        <time>2026-03-01T12:39:35.992Z</time>
      </trkpt>
      <trkpt lat="43.2217" lon="5.42195">
        <ele>207</ele>
        <time>2026-03-01T12:39:38.524Z</time>
      </trkpt>
      <trkpt lat="43.22178" lon="5.422">
        <ele>205</ele>
        <time>2026-03-01T12:39:43.875Z</time>
      </trkpt>
      <trkpt lat="43.22198" lon="5.42217">
        <ele>201</ele>
        <time>2026-03-01T12:39:57.670Z</time>
      </trkpt>
      <trkpt lat="43.22206" lon="5.42226">
        <ele>199</ele>
        <time>2026-03-01T12:40:03.792Z</time>
      </trkpt>
      <trkpt lat="43.22214" lon="5.42228">
        <ele>198</ele>
        <time>2026-03-01T12:40:08.571Z</time>
      </trkpt>
      <trkpt lat="43.22233" lon="5.42257">
        <ele>195</ele>
        <time>2026-03-01T12:40:25.391Z</time>
      </trkpt>
      <trkpt lat="43.22236" lon="5.42272">
        <ele>193</ele>
        <time>2026-03-01T12:40:32.050Z</time>
      </trkpt>
      <trkpt lat="43.22242" lon="5.42281">
        <ele>193</ele>
        <time>2026-03-01T12:40:37.936Z</time>
      </trkpt>
      <trkpt lat="43.22247" lon="5.42288">
        <ele>192</ele>
        <time>2026-03-01T12:40:42.117Z</time>
      </trkpt>
      <trkpt lat="43.22254" lon="5.42292">
        <ele>197.1</ele>
        <time>2026-03-01T12:41:11.638Z</time>
      </trkpt>
      <trkpt lat="43.22253" lon="5.42275">
        <ele>197.4</ele>
        <time>2026-03-01T12:41:20.216Z</time>
      </trkpt>
      <trkpt lat="43.22261" lon="5.42251">
        <ele>191.9</ele>
        <time>2026-03-01T12:41:33.108Z</time>
      </trkpt>
      <trkpt lat="43.22282" lon="5.42234">
        <ele>184.5</ele>
        <time>2026-03-01T12:41:50.188Z</time>
      </trkpt>
      <trkpt lat="43.22297" lon="5.42208">
        <ele>179.1</ele>
        <time>2026-03-01T12:42:04.834Z</time>
      </trkpt>
      <trkpt lat="43.22302" lon="5.42176">
        <ele>179</ele>
        <time>2026-03-01T12:42:20.523Z</time>
      </trkpt>
      <trkpt lat="43.22299" lon="5.42166">
        <ele>179.8</ele>
        <time>2026-03-01T12:42:26.984Z</time>
      </trkpt>
      <trkpt lat="43.22284" lon="5.42156">
        <ele>179.7</ele>
        <time>2026-03-01T12:42:37.924Z</time>
      </trkpt>
      <trkpt lat="43.22294" lon="5.42137">
        <ele>172.9</ele>
        <time>2026-03-01T12:42:56.724Z</time>
      </trkpt>
      <trkpt lat="43.22307" lon="5.42132">
        <ele>168.7</ele>
        <time>2026-03-01T12:43:06.391Z</time>
      </trkpt>
      <trkpt lat="43.22318" lon="5.42121">
        <ele>166</ele>
        <time>2026-03-01T12:43:14.471Z</time>
      </trkpt>
      <trkpt lat="43.22315" lon="5.421">
        <ele>162.7</ele>
        <time>2026-03-01T12:43:23.819Z</time>
      </trkpt>
      <trkpt lat="43.22317" lon="5.42078">
        <ele>158.3</ele>
        <time>2026-03-01T12:43:34.340Z</time>
      </trkpt>
      <trkpt lat="43.2233" lon="5.42077">
        <ele>151.3</ele>
        <time>2026-03-01T12:43:59.686Z</time>
      </trkpt>
      <trkpt lat="43.22344" lon="5.42081">
        <ele>148.6</ele>
        <time>2026-03-01T12:44:08.129Z</time>
      </trkpt>
      <trkpt lat="43.22353" lon="5.42062">
        <ele>146.2</ele>
        <time>2026-03-01T12:44:17.791Z</time>
      </trkpt>
      <trkpt lat="43.22368" lon="5.42058">
        <ele>142.5</ele>
        <time>2026-03-01T12:44:27.259Z</time>
      </trkpt>
      <trkpt lat="43.22391" lon="5.42061">
        <ele>138.9</ele>
        <time>2026-03-01T12:44:40.776Z</time>
      </trkpt>
      <trkpt lat="43.22419" lon="5.42078">
        <ele>129.9</ele>
        <time>2026-03-01T12:45:01.694Z</time>
      </trkpt>
      <trkpt lat="43.22424" lon="5.42066">
        <ele>128.6</ele>
        <time>2026-03-01T12:45:07.603Z</time>
      </trkpt>
      <trkpt lat="43.22453" lon="5.42048">
        <ele>120.2</ele>
        <time>2026-03-01T12:45:28.006Z</time>
      </trkpt>
      <trkpt lat="43.22471" lon="5.4203">
        <ele>115.8</ele>
        <time>2026-03-01T12:45:41.221Z</time>
      </trkpt>
      <trkpt lat="43.2248" lon="5.4201">
        <ele>116.5</ele>
        <time>2026-03-01T12:45:53.428Z</time>
      </trkpt>
      <trkpt lat="43.22495" lon="5.41993">
        <ele>114.2</ele>
        <time>2026-03-01T12:46:04.878Z</time>
      </trkpt>
      <trkpt lat="43.22501" lon="5.41941">
        <ele>110</ele>
        <time>2026-03-01T12:46:27.541Z</time>
      </trkpt>
      <trkpt lat="43.22521" lon="5.41915">
        <ele>110.3</ele>
        <time>2026-03-01T12:46:46.114Z</time>
      </trkpt>
      <trkpt lat="43.22517" lon="5.41887">
        <ele>109.6</ele>
        <time>2026-03-01T12:46:59.236Z</time>
      </trkpt>
      <trkpt lat="43.22507" lon="5.4187">
        <ele>107.6</ele>
        <time>2026-03-01T12:47:08.583Z</time>
      </trkpt>
      <trkpt lat="43.22516" lon="5.41851">
        <ele>107.2</ele>
        <time>2026-03-01T12:47:19.134Z</time>
      </trkpt>
      <trkpt lat="43.22538" lon="5.41833">
        <ele>105.8</ele>
        <time>2026-03-01T12:47:34.912Z</time>
      </trkpt>
      <trkpt lat="43.22532" lon="5.41812">
        <ele>102.7</ele>
        <time>2026-03-01T12:47:44.616Z</time>
      </trkpt>
      <trkpt lat="43.2253" lon="5.41778">
        <ele>98.7</ele>
        <time>2026-03-01T12:47:59.165Z</time>
      </trkpt>
      <trkpt lat="43.22514" lon="5.41692">
        <ele>95</ele>
        <time>2026-03-01T12:48:38.903Z</time>
      </trkpt>
      <trkpt lat="43.22633" lon="5.41653">
        <ele>92.2</ele>
        <time>2026-03-01T12:49:57.220Z</time>
        <extensions>
          <visugpx:TrkExtension xmlns:visugpx="https://www.visugpx.com/editgpx/">
            <visugpx:etape>1</visugpx:etape>
            </visugpx:TrkExtension>
        </extensions>
      </trkpt>
      <trkpt lat="43.22514" lon="5.41692">
        <ele>95</ele>
        <time>2026-03-01T12:51:21.464Z</time>
      </trkpt>
      <trkpt lat="43.2253" lon="5.41776">
        <ele>98.5</ele>
        <time>2026-03-01T12:52:07.923Z</time>
      </trkpt>
      <trkpt lat="43.22532" lon="5.41811">
        <ele>102.6</ele>
        <time>2026-03-01T12:52:32.876Z</time>
      </trkpt>
      <trkpt lat="43.22537" lon="5.41833">
        <ele>105.6</ele>
        <time>2026-03-01T12:52:50.311Z</time>
      </trkpt>
      <trkpt lat="43.22532" lon="5.41838">
        <ele>105.3</ele>
        <time>2026-03-01T12:52:54.148Z</time>
      </trkpt>
      <trkpt lat="43.22523" lon="5.41845">
        <ele>106.2</ele>
        <time>2026-03-01T12:53:02.322Z</time>
      </trkpt>
      <trkpt lat="43.2251" lon="5.4186">
        <ele>106.6</ele>
        <time>2026-03-01T12:53:14.031Z</time>
      </trkpt>
      <trkpt lat="43.22508" lon="5.41871">
        <ele>107.7</ele>
        <time>2026-03-01T12:53:21.433Z</time>
      </trkpt>
      <trkpt lat="43.22511" lon="5.41876">
        <ele>108.4</ele>
        <time>2026-03-01T12:53:25.863Z</time>
      </trkpt>
      <trkpt lat="43.22516" lon="5.41885">
        <ele>109.4</ele>
        <time>2026-03-01T12:53:33.001Z</time>
      </trkpt>
      <trkpt lat="43.22519" lon="5.41905">
        <ele>110.2</ele>
        <time>2026-03-01T12:53:43.891Z</time>
      </trkpt>
      <trkpt lat="43.22518" lon="5.41918">
        <ele>110.9</ele>
        <time>2026-03-01T12:53:51.176Z</time>
      </trkpt>
      <trkpt lat="43.22501" lon="5.41941">
        <ele>109.9</ele>
        <time>2026-03-01T12:54:06.093Z</time>
      </trkpt>
      <trkpt lat="43.22495" lon="5.41993">
        <ele>114.4</ele>
        <time>2026-03-01T12:54:38.928Z</time>
      </trkpt>
      <trkpt lat="43.22484" lon="5.42004">
        <ele>116.3</ele>
        <time>2026-03-01T12:54:51.362Z</time>
      </trkpt>
      <trkpt lat="43.22478" lon="5.42017">
        <ele>116.2</ele>
        <time>2026-03-01T12:54:58.685Z</time>
      </trkpt>
      <trkpt lat="43.22471" lon="5.42031">
        <ele>115.9</ele>
        <time>2026-03-01T12:55:06.591Z</time>
      </trkpt>
      <trkpt lat="43.2246" lon="5.42044">
        <ele>119.7</ele>
        <time>2026-03-01T12:55:27.636Z</time>
      </trkpt>
      <trkpt lat="43.2243" lon="5.42064">
        <ele>126.5</ele>
        <time>2026-03-01T12:56:05.612Z</time>
      </trkpt>
      <trkpt lat="43.22424" lon="5.42066">
        <ele>128.5</ele>
        <time>2026-03-01T12:56:17.745Z</time>
      </trkpt>
      <trkpt lat="43.22418" lon="5.42078">
        <ele>130</ele>
        <time>2026-03-01T12:56:27.489Z</time>
      </trkpt>
      <trkpt lat="43.22388" lon="5.42061">
        <ele>139.7</ele>
        <time>2026-03-01T12:57:23.622Z</time>
      </trkpt>
      <trkpt lat="43.22371" lon="5.42059">
        <ele>142.2</ele>
        <time>2026-03-01T12:57:39.548Z</time>
      </trkpt>
      <trkpt lat="43.22353" lon="5.42061">
        <ele>146.1</ele>
        <time>2026-03-01T12:58:01.098Z</time>
      </trkpt>
      <trkpt lat="43.22344" lon="5.42082">
        <ele>148.6</ele>
        <time>2026-03-01T12:58:17.378Z</time>
      </trkpt>
      <trkpt lat="43.2233" lon="5.42077">
        <ele>151.3</ele>
        <time>2026-03-01T12:58:32.830Z</time>
      </trkpt>
      <trkpt lat="43.22319" lon="5.42078">
        <ele>157.6</ele>
        <time>2026-03-01T12:59:15.751Z</time>
      </trkpt>
      <trkpt lat="43.22315" lon="5.42099">
        <ele>162.6</ele>
        <time>2026-03-01T12:59:45.603Z</time>
      </trkpt>
      <trkpt lat="43.22317" lon="5.42121">
        <ele>166.1</ele>
        <time>2026-03-01T13:00:04.934Z</time>
      </trkpt>
      <trkpt lat="43.22306" lon="5.42132">
        <ele>168.7</ele>
        <time>2026-03-01T13:00:19.706Z</time>
      </trkpt>
      <trkpt lat="43.22295" lon="5.42137">
        <ele>172.6</ele>
        <time>2026-03-01T13:00:44.044Z</time>
      </trkpt>
      <trkpt lat="43.22285" lon="5.42156">
        <ele>179.6</ele>
        <time>2026-03-01T13:01:36.878Z</time>
      </trkpt>
      <trkpt lat="43.22298" lon="5.42166">
        <ele>180</ele>
        <time>2026-03-01T13:01:47.215Z</time>
      </trkpt>
      <trkpt lat="43.22302" lon="5.42176">
        <ele>178.8</ele>
        <time>2026-03-01T13:01:52.078Z</time>
      </trkpt>
      <trkpt lat="43.22296" lon="5.42209">
        <ele>179.4</ele>
        <time>2026-03-01T13:02:09.185Z</time>
      </trkpt>
      <trkpt lat="43.22282" lon="5.42234">
        <ele>184.5</ele>
        <time>2026-03-01T13:02:37.271Z</time>
      </trkpt>
      <trkpt lat="43.22262" lon="5.4225">
        <ele>191.5</ele>
        <time>2026-03-01T13:03:18.017Z</time>
      </trkpt>
      <trkpt lat="43.22254" lon="5.42275">
        <ele>197.4</ele>
        <time>2026-03-01T13:03:52.033Z</time>
      </trkpt>
      <trkpt lat="43.22254" lon="5.42292">
        <ele>197.1</ele>
        <time>2026-03-01T13:03:59.949Z</time>
      </trkpt>
      <trkpt lat="43.2227" lon="5.42311">
        <ele>198.6</ele>
        <time>2026-03-01T13:04:16.035Z</time>
      </trkpt>
      <trkpt lat="43.22274" lon="5.42317">
        <ele>191</ele>
        <time>2026-03-01T13:04:27.571Z</time>
      </trkpt>
      <trkpt lat="43.22273" lon="5.42318">
        <ele>191</ele>
        <time>2026-03-01T13:04:28.390Z</time>
      </trkpt>
      <trkpt lat="43.22275" lon="5.42337">
        <ele>191</ele>
        <time>2026-03-01T13:04:37.653Z</time>
      </trkpt>
      <trkpt lat="43.2228" lon="5.42351">
        <ele>191</ele>
        <time>2026-03-01T13:04:45.176Z</time>
      </trkpt>
      <trkpt lat="43.2228" lon="5.42368">
        <ele>190</ele>
        <time>2026-03-01T13:04:52.628Z</time>
      </trkpt>
      <trkpt lat="43.22287" lon="5.42388">
        <ele>190</ele>
        <time>2026-03-01T13:05:03.334Z</time>
      </trkpt>
      <trkpt lat="43.22299" lon="5.42402">
        <ele>192</ele>
        <time>2026-03-01T13:05:17.193Z</time>
      </trkpt>
      <trkpt lat="43.22302" lon="5.42415">
        <ele>192</ele>
        <time>2026-03-01T13:05:23.773Z</time>
      </trkpt>
      <trkpt lat="43.2231" lon="5.42425">
        <ele>194</ele>
        <time>2026-03-01T13:05:35.256Z</time>
      </trkpt>
      <trkpt lat="43.22325" lon="5.42442">
        <ele>196</ele>
        <time>2026-03-01T13:05:51.263Z</time>
      </trkpt>
      <trkpt lat="43.2233" lon="5.42445">
        <ele>197</ele>
        <time>2026-03-01T13:05:57.021Z</time>
      </trkpt>
      <trkpt lat="43.22326" lon="5.42449">
        <ele>196</ele>
        <time>2026-03-01T13:05:59.967Z</time>
      </trkpt>
      <trkpt lat="43.22327" lon="5.42455">
        <ele>195</ele>
        <time>2026-03-01T13:06:02.684Z</time>
      </trkpt>
      <trkpt lat="43.22335" lon="5.42466">
        <ele>196</ele>
        <time>2026-03-01T13:06:11.661Z</time>
      </trkpt>
      <trkpt lat="43.22338" lon="5.42486">
        <ele>195</ele>
        <time>2026-03-01T13:06:20.714Z</time>
      </trkpt>
      <trkpt lat="43.22344" lon="5.42496">
        <ele>197</ele>
        <time>2026-03-01T13:06:31.799Z</time>
      </trkpt>
      <trkpt lat="43.22342" lon="5.42513">
        <ele>197</ele>
        <time>2026-03-01T13:06:40.109Z</time>
      </trkpt>
      <trkpt lat="43.22342" lon="5.42526">
        <ele>198</ele>
        <time>2026-03-01T13:06:47.960Z</time>
      </trkpt>
      <trkpt lat="43.22331" lon="5.42531">
        <ele>194</ele>
        <time>2026-03-01T13:06:57.336Z</time>
      </trkpt>
      <trkpt lat="43.22325" lon="5.42546">
        <ele>194</ele>
        <time>2026-03-01T13:07:05.593Z</time>
      </trkpt>
      <trkpt lat="43.2232" lon="5.42581">
        <ele>197</ele>
        <time>2026-03-01T13:07:27.722Z</time>
      </trkpt>
      <trkpt lat="43.22313" lon="5.42589">
        <ele>197</ele>
        <time>2026-03-01T13:07:33.754Z</time>
      </trkpt>
      <trkpt lat="43.22313" lon="5.42592">
        <ele>197</ele>
        <time>2026-03-01T13:07:35.201Z</time>
      </trkpt>
      <trkpt lat="43.22304" lon="5.42599">
        <ele>197</ele>
        <time>2026-03-01T13:07:42.052Z</time>
      </trkpt>
      <trkpt lat="43.22294" lon="5.42602">
        <ele>196</ele>
        <time>2026-03-01T13:07:48.137Z</time>
      </trkpt>
      <trkpt lat="43.22291" lon="5.42606">
        <ele>197</ele>
        <time>2026-03-01T13:07:53.626Z</time>
      </trkpt>
      <trkpt lat="43.22286" lon="5.42611">
        <ele>197</ele>
        <time>2026-03-01T13:07:57.722Z</time>
      </trkpt>
      <trkpt lat="43.22283" lon="5.4262">
        <ele>198</ele>
        <time>2026-03-01T13:08:04.292Z</time>
      </trkpt>
      <trkpt lat="43.22279" lon="5.42625">
        <ele>199</ele>
        <time>2026-03-01T13:08:10.034Z</time>
      </trkpt>
      <trkpt lat="43.22278" lon="5.42631">
        <ele>200</ele>
        <time>2026-03-01T13:08:15.539Z</time>
      </trkpt>
      <trkpt lat="43.22273" lon="5.4265">
        <ele>203</ele>
        <time>2026-03-01T13:08:32.294Z</time>
      </trkpt>
      <trkpt lat="43.22259" lon="5.42652">
        <ele>201</ele>
        <time>2026-03-01T13:08:40.532Z</time>
      </trkpt>
      <trkpt lat="43.22252" lon="5.4265">
        <ele>200</ele>
        <time>2026-03-01T13:08:44.717Z</time>
      </trkpt>
      <trkpt lat="43.22246" lon="5.42652">
        <ele>199</ele>
        <time>2026-03-01T13:08:48.332Z</time>
      </trkpt>
      <trkpt lat="43.22242" lon="5.42651">
        <ele>198</ele>
        <time>2026-03-01T13:08:50.865Z</time>
      </trkpt>
      <trkpt lat="43.22236" lon="5.42652">
        <ele>197</ele>
        <time>2026-03-01T13:08:54.405Z</time>
      </trkpt>
      <trkpt lat="43.22234" lon="5.42658">
        <ele>198</ele>
        <time>2026-03-01T13:08:59.967Z</time>
      </trkpt>
      <trkpt lat="43.22232" lon="5.4266">
        <ele>198</ele>
        <time>2026-03-01T13:09:01.605Z</time>
      </trkpt>
      <trkpt lat="43.22224" lon="5.4266">
        <ele>196</ele>
        <time>2026-03-01T13:09:06.618Z</time>
      </trkpt>
      <trkpt lat="43.22215" lon="5.42654">
        <ele>193</ele>
        <time>2026-03-01T13:09:13.558Z</time>
      </trkpt>
      <trkpt lat="43.22203" lon="5.42655">
        <ele>191</ele>
        <time>2026-03-01T13:09:20.602Z</time>
      </trkpt>
      <trkpt lat="43.22195" lon="5.42658">
        <ele>190</ele>
        <time>2026-03-01T13:09:25.479Z</time>
      </trkpt>
      <trkpt lat="43.22191" lon="5.42671">
        <ele>190</ele>
        <time>2026-03-01T13:09:32.288Z</time>
      </trkpt>
      <trkpt lat="43.22194" lon="5.42686">
        <ele>191</ele>
        <time>2026-03-01T13:09:41.272Z</time>
      </trkpt>
      <trkpt lat="43.22193" lon="5.42687">
        <ele>191</ele>
        <time>2026-03-01T13:09:42.091Z</time>
      </trkpt>
      <trkpt lat="43.22192" lon="5.42692">
        <ele>191</ele>
        <time>2026-03-01T13:09:44.593Z</time>
      </trkpt>
      <trkpt lat="43.22195" lon="5.42712">
        <ele>192</ele>
        <time>2026-03-01T13:09:55.810Z</time>
      </trkpt>
      <trkpt lat="43.22194" lon="5.42721">
        <ele>192</ele>
        <time>2026-03-01T13:10:00.203Z</time>
      </trkpt>
      <trkpt lat="43.22204" lon="5.42741">
        <ele>196</ele>
        <time>2026-03-01T13:10:22.193Z</time>
      </trkpt>
      <trkpt lat="43.22206" lon="5.42751">
        <ele>197</ele>
        <time>2026-03-01T13:10:28.948Z</time>
      </trkpt>
      <trkpt lat="43.22215" lon="5.42771">
        <ele>203</ele>
        <time>2026-03-01T13:11:07.660Z</time>
      </trkpt>
      <trkpt lat="43.22213" lon="5.42776">
        <ele>203</ele>
        <time>2026-03-01T13:11:10.412Z</time>
      </trkpt>
      <trkpt lat="43.22198" lon="5.42805">
        <ele>203</ele>
        <time>2026-03-01T13:11:27.572Z</time>
      </trkpt>
      <trkpt lat="43.22189" lon="5.42807">
        <ele>201</ele>
        <time>2026-03-01T13:11:33.076Z</time>
      </trkpt>
      <trkpt lat="43.22183" lon="5.42801">
        <ele>198</ele>
        <time>2026-03-01T13:11:41.654Z</time>
      </trkpt>
      <trkpt lat="43.22173" lon="5.42802">
        <ele>195</ele>
        <time>2026-03-01T13:11:48.597Z</time>
      </trkpt>
      <trkpt lat="43.22165" lon="5.42807">
        <ele>194</ele>
        <time>2026-03-01T13:11:53.780Z</time>
      </trkpt>
      <trkpt lat="43.22145" lon="5.42815">
        <ele>190</ele>
        <time>2026-03-01T13:12:06.101Z</time>
      </trkpt>
      <trkpt lat="43.22141" lon="5.42819">
        <ele>190</ele>
        <time>2026-03-01T13:12:09.379Z</time>
      </trkpt>
      <trkpt lat="43.22133" lon="5.42822">
        <ele>188</ele>
        <time>2026-03-01T13:12:14.511Z</time>
      </trkpt>
      <trkpt lat="43.22111" lon="5.42837">
        <ele>185</ele>
        <time>2026-03-01T13:12:28.950Z</time>
      </trkpt>
      <trkpt lat="43.2211" lon="5.42844">
        <ele>184</ele>
        <time>2026-03-01T13:12:32.025Z</time>
      </trkpt>
      <trkpt lat="43.22112" lon="5.42849">
        <ele>185</ele>
        <time>2026-03-01T13:12:37.514Z</time>
      </trkpt>
      <trkpt lat="43.22113" lon="5.42857">
        <ele>185</ele>
        <time>2026-03-01T13:12:41.431Z</time>
      </trkpt>
      <trkpt lat="43.22117" lon="5.42869">
        <ele>186</ele>
        <time>2026-03-01T13:12:49.368Z</time>
      </trkpt>
      <trkpt lat="43.22123" lon="5.42896">
        <ele>189</ele>
        <time>2026-03-01T13:13:08.526Z</time>
      </trkpt>
      <trkpt lat="43.22132" lon="5.42908">
        <ele>193</ele>
        <time>2026-03-01T13:13:32.534Z</time>
      </trkpt>
      <trkpt lat="43.22136" lon="5.42916">
        <ele>196</ele>
        <time>2026-03-01T13:13:55.952Z</time>
      </trkpt>
      <trkpt lat="43.22143" lon="5.42922">
        <ele>199</ele>
        <time>2026-03-01T13:14:15.979Z</time>
      </trkpt>
      <trkpt lat="43.22146" lon="5.42931">
        <ele>201</ele>
        <time>2026-03-01T13:14:27.215Z</time>
      </trkpt>
      <trkpt lat="43.22151" lon="5.42939">
        <ele>204</ele>
        <time>2026-03-01T13:14:48.756Z</time>
      </trkpt>
      <trkpt lat="43.22146" lon="5.42954">
        <ele>202</ele>
        <time>2026-03-01T13:14:55.798Z</time>
      </trkpt>
      <trkpt lat="43.22119" lon="5.42984">
        <ele>189</ele>
        <time>2026-03-01T13:15:28.305Z</time>
      </trkpt>
      <trkpt lat="43.22108" lon="5.42992">
        <ele>183</ele>
        <time>2026-03-01T13:15:52.539Z</time>
      </trkpt>
      <trkpt lat="43.22108" lon="5.42998">
        <ele>183</ele>
        <time>2026-03-01T13:15:55.435Z</time>
      </trkpt>
      <trkpt lat="43.22115" lon="5.43024">
        <ele>189</ele>
        <time>2026-03-01T13:16:30.056Z</time>
      </trkpt>
      <trkpt lat="43.2212" lon="5.43027">
        <ele>192</ele>
        <time>2026-03-01T13:16:51.302Z</time>
      </trkpt>
      <trkpt lat="43.22125" lon="5.43035">
        <ele>195</ele>
        <time>2026-03-01T13:17:12.843Z</time>
      </trkpt>
      <trkpt lat="43.22129" lon="5.4305">
        <ele>199</ele>
        <time>2026-03-01T13:17:38.231Z</time>
      </trkpt>
      <trkpt lat="43.22129" lon="5.43064">
        <ele>200</ele>
        <time>2026-03-01T13:17:46.520Z</time>
      </trkpt>
      <trkpt lat="43.22131" lon="5.43085">
        <ele>203</ele>
        <time>2026-03-01T13:18:03.478Z</time>
      </trkpt>
      <trkpt lat="43.2213" lon="5.43093">
        <ele>203</ele>
        <time>2026-03-01T13:18:07.395Z</time>
      </trkpt>
      <trkpt lat="43.22128" lon="5.43096">
        <ele>203</ele>
        <time>2026-03-01T13:18:09.357Z</time>
      </trkpt>
      <trkpt lat="43.22121" lon="5.43101">
        <ele>199</ele>
        <time>2026-03-01T13:18:24.719Z</time>
      </trkpt>
      <trkpt lat="43.22107" lon="5.43101">
        <ele>191</ele>
        <time>2026-03-01T13:18:51.972Z</time>
      </trkpt>
      <trkpt lat="43.22098" lon="5.43104">
        <ele>187</ele>
        <time>2026-03-01T13:19:06.292Z</time>
      </trkpt>
      <trkpt lat="43.22094" lon="5.43107">
        <ele>185</ele>
        <time>2026-03-01T13:19:14.042Z</time>
      </trkpt>
      <trkpt lat="43.22087" lon="5.43115">
        <ele>182</ele>
        <time>2026-03-01T13:19:20.967Z</time>
      </trkpt>
      <trkpt lat="43.22078" lon="5.43159">
        <ele>186</ele>
        <time>2026-03-01T13:19:49.698Z</time>
      </trkpt>
      <trkpt lat="43.22085" lon="5.43175">
        <ele>193</ele>
        <time>2026-03-01T13:20:42.644Z</time>
      </trkpt>
      <trkpt lat="43.22084" lon="5.43182">
        <ele>193</ele>
        <time>2026-03-01T13:20:46.086Z</time>
      </trkpt>
      <trkpt lat="43.22088" lon="5.432">
        <ele>199</ele>
        <time>2026-03-01T13:21:34.142Z</time>
      </trkpt>
      <trkpt lat="43.22085" lon="5.43208">
        <ele>199</ele>
        <time>2026-03-01T13:21:38.484Z</time>
      </trkpt>
      <trkpt lat="43.2208" lon="5.43215">
        <ele>199</ele>
        <time>2026-03-01T13:21:43.214Z</time>
      </trkpt>
      <trkpt lat="43.2208" lon="5.43216">
        <ele>199</ele>
        <time>2026-03-01T13:21:43.696Z</time>
      </trkpt>
      <trkpt lat="43.22073" lon="5.43221">
        <ele>197</ele>
        <time>2026-03-01T13:21:48.667Z</time>
      </trkpt>
      <trkpt lat="43.22064" lon="5.43223">
        <ele>194</ele>
        <time>2026-03-01T13:21:55.591Z</time>
      </trkpt>
      <trkpt lat="43.22062" lon="5.4323">
        <ele>195</ele>
        <time>2026-03-01T13:22:01.358Z</time>
      </trkpt>
      <trkpt lat="43.22053" lon="5.43237">
        <ele>193</ele>
        <time>2026-03-01T13:22:07.481Z</time>
      </trkpt>
      <trkpt lat="43.22042" lon="5.43234">
        <ele>188</ele>
        <time>2026-03-01T13:22:29.313Z</time>
      </trkpt>
      <trkpt lat="43.22033" lon="5.43235">
        <ele>185</ele>
        <time>2026-03-01T13:22:36.252Z</time>
      </trkpt>
      <trkpt lat="43.22026" lon="5.43238">
        <ele>184</ele>
        <time>2026-03-01T13:22:40.547Z</time>
      </trkpt>
      <trkpt lat="43.22022" lon="5.43237">
        <ele>182</ele>
        <time>2026-03-01T13:22:48.461Z</time>
      </trkpt>
      <trkpt lat="43.22017" lon="5.43243">
        <ele>181</ele>
        <time>2026-03-01T13:22:52.347Z</time>
      </trkpt>
      <trkpt lat="43.22021" lon="5.43244">
        <ele>183</ele>
        <time>2026-03-01T13:23:08.176Z</time>
      </trkpt>
      <trkpt lat="43.22024" lon="5.43253">
        <ele>186</ele>
        <time>2026-03-01T13:23:31.156Z</time>
      </trkpt>
      <trkpt lat="43.2202" lon="5.4326">
        <ele>185</ele>
        <time>2026-03-01T13:23:34.948Z</time>
      </trkpt>
      <trkpt lat="43.22022" lon="5.43266">
        <ele>187</ele>
        <time>2026-03-01T13:23:50.268Z</time>
      </trkpt>
      <trkpt lat="43.22021" lon="5.43288">
        <ele>189</ele>
        <time>2026-03-01T13:24:04.301Z</time>
      </trkpt>
      <trkpt lat="43.22022" lon="5.43306">
        <ele>192</ele>
        <time>2026-03-01T13:24:20.785Z</time>
      </trkpt>
      <trkpt lat="43.22034" lon="5.43335">
        <ele>203</ele>
        <time>2026-03-01T13:25:50.772Z</time>
      </trkpt>
      <trkpt lat="43.22046" lon="5.43345">
        <ele>211</ele>
        <time>2026-03-01T13:26:45.432Z</time>
      </trkpt>
      <trkpt lat="43.22049" lon="5.43351">
        <ele>213</ele>
        <time>2026-03-01T13:26:59.281Z</time>
      </trkpt>
      <trkpt lat="43.22048" lon="5.43366">
        <ele>214</ele>
        <time>2026-03-01T13:27:08.044Z</time>
      </trkpt>
      <trkpt lat="43.22041" lon="5.4338">
        <ele>211</ele>
        <time>2026-03-01T13:27:15.714Z</time>
      </trkpt>
      <trkpt lat="43.22043" lon="5.43394">
        <ele>214</ele>
        <time>2026-03-01T13:27:32.807Z</time>
      </trkpt>
      <trkpt lat="43.22045" lon="5.43397">
        <ele>215</ele>
        <time>2026-03-01T13:27:39.061Z</time>
      </trkpt>
      <trkpt lat="43.22045" lon="5.434">
        <ele>216</ele>
        <time>2026-03-01T13:27:47.278Z</time>
      </trkpt>
      <trkpt lat="43.22046" lon="5.434">
        <ele>216</ele>
        <time>2026-03-01T13:27:47.941Z</time>
      </trkpt>
      <trkpt lat="43.22048" lon="5.43407">
        <ele>218</ele>
        <time>2026-03-01T13:28:01.346Z</time>
      </trkpt>
      <trkpt lat="43.22045" lon="5.43421">
        <ele>217</ele>
        <time>2026-03-01T13:28:07.683Z</time>
      </trkpt>
      <trkpt lat="43.22047" lon="5.43429">
        <ele>219</ele>
        <time>2026-03-01T13:28:19.832Z</time>
      </trkpt>
      <trkpt lat="43.22046" lon="5.43437">
        <ele>219</ele>
        <time>2026-03-01T13:28:23.748Z</time>
      </trkpt>
      <trkpt lat="43.22041" lon="5.43445">
        <ele>217</ele>
        <time>2026-03-01T13:28:28.642Z</time>
      </trkpt>
      <trkpt lat="43.22042" lon="5.43448">
        <ele>217</ele>
        <time>2026-03-01T13:28:30.234Z</time>
      </trkpt>
      <trkpt lat="43.22041" lon="5.43458">
        <ele>217</ele>
        <time>2026-03-01T13:28:35.104Z</time>
      </trkpt>
      <trkpt lat="43.2204" lon="5.43459">
        <ele>217</ele>
        <time>2026-03-01T13:28:35.924Z</time>
      </trkpt>
      <trkpt lat="43.22043" lon="5.43462">
        <ele>218</ele>
        <time>2026-03-01T13:28:41.496Z</time>
      </trkpt>
      <trkpt lat="43.22046" lon="5.43476">
        <ele>220</ele>
        <time>2026-03-01T13:28:52.914Z</time>
      </trkpt>
      <trkpt lat="43.22043" lon="5.43528">
        <ele>219</ele>
        <time>2026-03-01T13:29:17.135Z</time>
      </trkpt>
      <trkpt lat="43.2204" lon="5.43535">
        <ele>218</ele>
        <time>2026-03-01T13:29:20.604Z</time>
      </trkpt>
      <trkpt lat="43.22048" lon="5.43546">
        <ele>220</ele>
        <time>2026-03-01T13:29:32.278Z</time>
      </trkpt>
      <trkpt lat="43.22048" lon="5.4355">
        <ele>220</ele>
        <time>2026-03-01T13:29:34.209Z</time>
      </trkpt>
      <trkpt lat="43.22034" lon="5.43572">
        <ele>216</ele>
        <time>2026-03-01T13:29:46.771Z</time>
      </trkpt>
      <trkpt lat="43.22016" lon="5.43617">
        <ele>215</ele>
        <time>2026-03-01T13:30:10.593Z</time>
      </trkpt>
      <trkpt lat="43.2201" lon="5.4364">
        <ele>216</ele>
        <time>2026-03-01T13:30:23.690Z</time>
      </trkpt>
      <trkpt lat="43.21998" lon="5.43675">
        <ele>217</ele>
        <time>2026-03-01T13:30:43.565Z</time>
      </trkpt>
      <trkpt lat="43.21991" lon="5.43709">
        <ele>214</ele>
        <time>2026-03-01T13:30:58.729Z</time>
      </trkpt>
      <trkpt lat="43.21979" lon="5.43745">
        <ele>208</ele>
        <time>2026-03-01T13:31:15.972Z</time>
      </trkpt>
      <trkpt lat="43.21972" lon="5.43756">
        <ele>205</ele>
        <time>2026-03-01T13:31:23.041Z</time>
      </trkpt>
      <trkpt lat="43.21968" lon="5.43757">
        <ele>203</ele>
        <time>2026-03-01T13:31:30.955Z</time>
      </trkpt>
      <trkpt lat="43.21964" lon="5.43754">
        <ele>201</ele>
        <time>2026-03-01T13:31:38.705Z</time>
      </trkpt>
      <trkpt lat="43.21965" lon="5.4376">
        <ele>201</ele>
        <time>2026-03-01T13:31:41.675Z</time>
      </trkpt>
      <trkpt lat="43.21964" lon="5.43766">
        <ele>201</ele>
        <time>2026-03-01T13:31:44.645Z</time>
      </trkpt>
      <trkpt lat="43.21952" lon="5.4378">
        <ele>195</ele>
        <time>2026-03-01T13:32:00.001Z</time>
      </trkpt>
      <trkpt lat="43.21941" lon="5.43798">
        <ele>191</ele>
        <time>2026-03-01T13:32:10.495Z</time>
      </trkpt>
      <trkpt lat="43.21935" lon="5.43823">
        <ele>190</ele>
        <time>2026-03-01T13:32:22.342Z</time>
      </trkpt>
      <trkpt lat="43.21936" lon="5.43828">
        <ele>190</ele>
        <time>2026-03-01T13:32:24.844Z</time>
      </trkpt>
      <trkpt lat="43.2194" lon="5.43835">
        <ele>191</ele>
        <time>2026-03-01T13:32:31.045Z</time>
      </trkpt>
      <trkpt lat="43.21945" lon="5.43846">
        <ele>191</ele>
        <time>2026-03-01T13:32:37.301Z</time>
      </trkpt>
      <trkpt lat="43.21956" lon="5.43859">
        <ele>191</ele>
        <time>2026-03-01T13:32:46.914Z</time>
      </trkpt>
      <trkpt lat="43.21959" lon="5.43872">
        <ele>190</ele>
        <time>2026-03-01T13:32:52.812Z</time>
      </trkpt>
      <trkpt lat="43.21972" lon="5.43884">
        <ele>191</ele>
        <time>2026-03-01T13:33:04.534Z</time>
      </trkpt>
      <trkpt lat="43.21975" lon="5.43897">
        <ele>190</ele>
        <time>2026-03-01T13:33:10.432Z</time>
      </trkpt>
      <trkpt lat="43.21983" lon="5.43915">
        <ele>188</ele>
        <time>2026-03-01T13:33:19.441Z</time>
      </trkpt>
      <trkpt lat="43.21984" lon="5.4393">
        <ele>186</ele>
        <time>2026-03-01T13:33:25.903Z</time>
      </trkpt>
      <trkpt lat="43.21989" lon="5.43935">
        <ele>187</ele>
        <time>2026-03-01T13:33:31.965Z</time>
      </trkpt>
      <trkpt lat="43.21994" lon="5.43945">
        <ele>186</ele>
        <time>2026-03-01T13:33:37.178Z</time>
      </trkpt>
      <trkpt lat="43.21994" lon="5.43949">
        <ele>186</ele>
        <time>2026-03-01T13:33:39.108Z</time>
      </trkpt>
      <trkpt lat="43.2199" lon="5.43954">
        <ele>184</ele>
        <time>2026-03-01T13:33:44.040Z</time>
      </trkpt>
      <trkpt lat="43.21989" lon="5.43959">
        <ele>183</ele>
        <time>2026-03-01T13:33:46.466Z</time>
      </trkpt>
      <trkpt lat="43.21995" lon="5.43975">
        <ele>182</ele>
        <time>2026-03-01T13:33:54.382Z</time>
      </trkpt>
      <trkpt lat="43.21995" lon="5.43988">
        <ele>179</ele>
        <time>2026-03-01T13:34:01.282Z</time>
      </trkpt>
      <trkpt lat="43.21999" lon="5.43997">
        <ele>179</ele>
        <time>2026-03-01T13:34:06.369Z</time>
      </trkpt>
      <trkpt lat="43.22" lon="5.44006">
        <ele>179</ele>
        <time>2026-03-01T13:34:10.762Z</time>
      </trkpt>
      <trkpt lat="43.2201" lon="5.44039">
        <ele>177</ele>
        <time>2026-03-01T13:34:26.478Z</time>
      </trkpt>
      <trkpt lat="43.22007" lon="5.4406">
        <ele>176</ele>
        <time>2026-03-01T13:34:35.994Z</time>
      </trkpt>
      <trkpt lat="43.22004" lon="5.44063">
        <ele>176</ele>
        <time>2026-03-01T13:34:38.452Z</time>
      </trkpt>
      <trkpt lat="43.22007" lon="5.4408">
        <ele>175</ele>
        <time>2026-03-01T13:34:46.133Z</time>
      </trkpt>
      <trkpt lat="43.22004" lon="5.44087">
        <ele>175</ele>
        <time>2026-03-01T13:34:50.052Z</time>
      </trkpt>
      <trkpt lat="43.22004" lon="5.44086">
        <ele>175</ele>
        <time>2026-03-01T13:34:50.535Z</time>
      </trkpt>
      <trkpt lat="43.22001" lon="5.44087">
        <ele>174</ele>
        <time>2026-03-01T13:34:52.837Z</time>
      </trkpt>
      <trkpt lat="43.22004" lon="5.44084">
        <ele>174</ele>
        <time>2026-03-01T13:34:55.296Z</time>
      </trkpt>
      <trkpt lat="43.22003" lon="5.44091">
        <ele>175</ele>
        <time>2026-03-01T13:35:00.965Z</time>
      </trkpt>
      <trkpt lat="43.22005" lon="5.44101">
        <ele>176</ele>
        <time>2026-03-01T13:35:07.719Z</time>
      </trkpt>
      <trkpt lat="43.22" lon="5.44109">
        <ele>176</ele>
        <time>2026-03-01T13:35:12.805Z</time>
      </trkpt>
      <trkpt lat="43.22" lon="5.44113">
        <ele>177</ele>
        <time>2026-03-01T13:35:19.143Z</time>
      </trkpt>
      <trkpt lat="43.21999" lon="5.44115">
        <ele>177</ele>
        <time>2026-03-01T13:35:20.314Z</time>
      </trkpt>
      <trkpt lat="43.21998" lon="5.44114">
        <ele>176</ele>
        <time>2026-03-01T13:35:22.722Z</time>
      </trkpt>
      <trkpt lat="43.22" lon="5.44115">
        <ele>177</ele>
        <time>2026-03-01T13:35:31.010Z</time>
      </trkpt>
      <trkpt lat="43.21999" lon="5.44125">
        <ele>178</ele>
        <time>2026-03-01T13:35:37.656Z</time>
      </trkpt>
      <trkpt lat="43.22002" lon="5.44142">
        <ele>180</ele>
        <time>2026-03-01T13:35:49.953Z</time>
      </trkpt>
      <trkpt lat="43.22007" lon="5.44155">
        <ele>181</ele>
        <time>2026-03-01T13:35:58.553Z</time>
      </trkpt>
      <trkpt lat="43.22008" lon="5.44164">
        <ele>182</ele>
        <time>2026-03-01T13:36:04.828Z</time>
      </trkpt>
      <trkpt lat="43.22006" lon="5.44178">
        <ele>184</ele>
        <time>2026-03-01T13:36:16.167Z</time>
      </trkpt>
      <trkpt lat="43.22007" lon="5.44232">
        <ele>189</ele>
        <time>2026-03-01T13:36:50.807Z</time>
      </trkpt>
      <trkpt lat="43.21999" lon="5.44268">
        <ele>192</ele>
        <time>2026-03-01T13:37:13.775Z</time>
      </trkpt>
      <trkpt lat="43.22001" lon="5.44288">
        <ele>193</ele>
        <time>2026-03-01T13:37:24.885Z</time>
      </trkpt>
      <trkpt lat="43.22" lon="5.44309">
        <ele>194</ele>
        <time>2026-03-01T13:37:36.394Z</time>
      </trkpt>
      <trkpt lat="43.21982" lon="5.44345">
        <ele>197</ele>
        <time>2026-03-01T13:38:01.999Z</time>
      </trkpt>
      <trkpt lat="43.21975" lon="5.44365">
        <ele>199</ele>
        <time>2026-03-01T13:38:16.091Z</time>
      </trkpt>
      <trkpt lat="43.21961" lon="5.44389">
        <ele>202</ele>
        <time>2026-03-01T13:38:36.210Z</time>
      </trkpt>
      <trkpt lat="43.21946" lon="5.44409">
        <ele>204</ele>
        <time>2026-03-01T13:38:53.099Z</time>
      </trkpt>
      <trkpt lat="43.21928" lon="5.44441">
        <ele>205</ele>
        <time>2026-03-01T13:39:13.808Z</time>
      </trkpt>
      <trkpt lat="43.21924" lon="5.44476">
        <ele>206</ele>
        <time>2026-03-01T13:39:32.129Z</time>
      </trkpt>
      <trkpt lat="43.21919" lon="5.445">
        <ele>206</ele>
        <time>2026-03-01T13:39:44.175Z</time>
      </trkpt>
      <trkpt lat="43.21929" lon="5.44548">
        <ele>210</ele>
        <time>2026-03-01T13:40:14.687Z</time>
      </trkpt>
      <trkpt lat="43.21927" lon="5.44559">
        <ele>211</ele>
        <time>2026-03-01T13:40:21.833Z</time>
      </trkpt>
      <trkpt lat="43.21919" lon="5.44574">
        <ele>211</ele>
        <time>2026-03-01T13:40:30.803Z</time>
      </trkpt>
      <trkpt lat="43.21901" lon="5.44611">
        <ele>213</ele>
        <time>2026-03-01T13:40:54.944Z</time>
      </trkpt>
      <trkpt lat="43.21891" lon="5.44625">
        <ele>214</ele>
        <time>2026-03-01T13:41:05.782Z</time>
      </trkpt>
      <trkpt lat="43.21882" lon="5.44661">
        <ele>216</ele>
        <time>2026-03-01T13:41:26.929Z</time>
      </trkpt>
      <trkpt lat="43.21883" lon="5.44665">
        <ele>216</ele>
        <time>2026-03-01T13:41:28.969Z</time>
      </trkpt>
      <trkpt lat="43.21872" lon="5.44699">
        <ele>216</ele>
        <time>2026-03-01T13:41:46.921Z</time>
      </trkpt>
      <trkpt lat="43.21862" lon="5.44712">
        <ele>215</ele>
        <time>2026-03-01T13:41:55.262Z</time>
      </trkpt>
      <trkpt lat="43.21854" lon="5.44713">
        <ele>215</ele>
        <time>2026-03-01T13:42:00.582Z</time>
      </trkpt>
      <trkpt lat="43.21874" lon="5.44719">
        <ele>215</ele>
        <time>2026-03-01T13:42:14.138Z</time>
      </trkpt>
      <trkpt lat="43.21877" lon="5.44725">
        <ele>216</ele>
        <time>2026-03-01T13:42:19.842Z</time>
      </trkpt>
      <trkpt lat="43.21883" lon="5.4473">
        <ele>216</ele>
        <time>2026-03-01T13:42:24.490Z</time>
      </trkpt>
      <trkpt lat="43.21888" lon="5.4474">
        <ele>216</ele>
        <time>2026-03-01T13:42:30.343Z</time>
      </trkpt>
      <trkpt lat="43.21888" lon="5.44748">
        <ele>217</ele>
        <time>2026-03-01T13:42:36.248Z</time>
      </trkpt>
      <trkpt lat="43.21886" lon="5.44759">
        <ele>217</ele>
        <time>2026-03-01T13:42:41.719Z</time>
      </trkpt>
      <trkpt lat="43.21884" lon="5.44764">
        <ele>217</ele>
        <time>2026-03-01T13:42:44.471Z</time>
      </trkpt>
      <trkpt lat="43.21877" lon="5.44773">
        <ele>216</ele>
        <time>2026-03-01T13:42:50.153Z</time>
      </trkpt>
      <trkpt lat="43.21873" lon="5.44784">
        <ele>216</ele>
        <time>2026-03-01T13:42:56.086Z</time>
      </trkpt>
      <trkpt lat="43.21872" lon="5.44797">
        <ele>216</ele>
        <time>2026-03-01T13:43:02.394Z</time>
      </trkpt>
      <trkpt lat="43.21876" lon="5.44811">
        <ele>217</ele>
        <time>2026-03-01T13:43:11.145Z</time>
      </trkpt>
      <trkpt lat="43.21877" lon="5.4482">
        <ele>218</ele>
        <time>2026-03-01T13:43:17.420Z</time>
      </trkpt>
      <trkpt lat="43.21874" lon="5.44842">
        <ele>220</ele>
        <time>2026-03-01T13:43:31.592Z</time>
      </trkpt>
      <trkpt lat="43.21872" lon="5.44847">
        <ele>220</ele>
        <time>2026-03-01T13:43:34.345Z</time>
      </trkpt>
      <trkpt lat="43.21867" lon="5.44852">
        <ele>220</ele>
        <time>2026-03-01T13:43:38.441Z</time>
      </trkpt>
      <trkpt lat="43.21845" lon="5.44854">
        <ele>214</ele>
        <time>2026-03-01T13:43:52.794Z</time>
      </trkpt>
      <trkpt lat="43.21827" lon="5.44852">
        <ele>210</ele>
        <time>2026-03-01T13:44:03.717Z</time>
      </trkpt>
      <trkpt lat="43.21813" lon="5.44859">
        <ele>209</ele>
        <time>2026-03-01T13:44:12.785Z</time>
      </trkpt>
      <trkpt lat="43.21809" lon="5.44863">
        <ele>209</ele>
        <time>2026-03-01T13:44:16.062Z</time>
      </trkpt>
      <trkpt lat="43.21807" lon="5.4487">
        <ele>210</ele>
        <time>2026-03-01T13:44:21.829Z</time>
      </trkpt>
      <trkpt lat="43.21805" lon="5.44902">
        <ele>216</ele>
        <time>2026-03-01T13:44:54.943Z</time>
      </trkpt>
      <trkpt lat="43.218" lon="5.44911">
        <ele>217</ele>
        <time>2026-03-01T13:45:02.081Z</time>
      </trkpt>
      <trkpt lat="43.2179" lon="5.44912">
        <ele>215</ele>
        <time>2026-03-01T13:45:08.037Z</time>
      </trkpt>
      <trkpt lat="43.21765" lon="5.4491">
        <ele>210</ele>
        <time>2026-03-01T13:45:22.916Z</time>
      </trkpt>
      <trkpt lat="43.21748" lon="5.44911">
        <ele>208</ele>
        <time>2026-03-01T13:45:32.934Z</time>
      </trkpt>
      <trkpt lat="43.21741" lon="5.44918">
        <ele>208</ele>
        <time>2026-03-01T13:45:38.670Z</time>
      </trkpt>
      <trkpt lat="43.21729" lon="5.44931">
        <ele>209</ele>
        <time>2026-03-01T13:45:50.149Z</time>
      </trkpt>
      <trkpt lat="43.21708" lon="5.44943">
        <ele>207</ele>
        <time>2026-03-01T13:46:03.760Z</time>
      </trkpt>
      <trkpt lat="43.21698" lon="5.44953">
        <ele>207</ele>
        <time>2026-03-01T13:46:11.953Z</time>
      </trkpt>
      <trkpt lat="43.21688" lon="5.44967">
        <ele>206</ele>
        <time>2026-03-01T13:46:20.624Z</time>
      </trkpt>
      <trkpt lat="43.21682" lon="5.44983">
        <ele>207</ele>
        <time>2026-03-01T13:46:30.720Z</time>
      </trkpt>
      <trkpt lat="43.21674" lon="5.45013">
        <ele>206</ele>
        <time>2026-03-01T13:46:45.248Z</time>
      </trkpt>
      <trkpt lat="43.21672" lon="5.45027">
        <ele>204</ele>
        <time>2026-03-01T13:46:51.399Z</time>
      </trkpt>
      <trkpt lat="43.21678" lon="5.45039">
        <ele>206</ele>
        <time>2026-03-01T13:47:02.807Z</time>
      </trkpt>
      <trkpt lat="43.21693" lon="5.45054">
        <ele>212</ele>
        <time>2026-03-01T13:47:39.157Z</time>
      </trkpt>
      <trkpt lat="43.21714" lon="5.45101">
        <ele>224</ele>
        <time>2026-03-01T13:48:48.581Z</time>
      </trkpt>
      <trkpt lat="43.21717" lon="5.45125">
        <ele>225</ele>
        <time>2026-03-01T13:49:01.641Z</time>
      </trkpt>
      <trkpt lat="43.21719" lon="5.45129">
        <ele>226</ele>
        <time>2026-03-01T13:49:07.296Z</time>
      </trkpt>
      <trkpt lat="43.21717" lon="5.4515">
        <ele>225</ele>
        <time>2026-03-01T13:49:16.709Z</time>
      </trkpt>
      <trkpt lat="43.21721" lon="5.45197">
        <ele>230</ele>
        <time>2026-03-01T13:49:48.742Z</time>
      </trkpt>
      <trkpt lat="43.21737" lon="5.45269">
        <ele>244</ele>
        <time>2026-03-01T13:51:05.959Z</time>
      </trkpt>
      <trkpt lat="43.21737" lon="5.45277">
        <ele>246</ele>
        <time>2026-03-01T13:51:18.634Z</time>
      </trkpt>
      <trkpt lat="43.21734" lon="5.45285">
        <ele>248</ele>
        <time>2026-03-01T13:51:30.329Z</time>
      </trkpt>
      <trkpt lat="43.21732" lon="5.45287">
        <ele>248</ele>
        <time>2026-03-01T13:51:31.968Z</time>
      </trkpt>
      <trkpt lat="43.21721" lon="5.45288">
        <ele>248</ele>
        <time>2026-03-01T13:51:39.268Z</time>
      </trkpt>
      <trkpt lat="43.21701" lon="5.45282">
        <ele>243</ele>
        <time>2026-03-01T13:51:51.990Z</time>
      </trkpt>
      <trkpt lat="43.21697" lon="5.45278">
        <ele>241</ele>
        <time>2026-03-01T13:51:57.708Z</time>
      </trkpt>
      <trkpt lat="43.21681" lon="5.45268">
        <ele>235</ele>
        <time>2026-03-01T13:52:11.703Z</time>
      </trkpt>
      <trkpt lat="43.21677" lon="5.45263">
        <ele>232</ele>
        <time>2026-03-01T13:52:22.236Z</time>
      </trkpt>
      <trkpt lat="43.21664" lon="5.45254">
        <ele>226</ele>
        <time>2026-03-01T13:52:40.307Z</time>
      </trkpt>
      <trkpt lat="43.21661" lon="5.4525">
        <ele>224</ele>
        <time>2026-03-01T13:52:48.450Z</time>
      </trkpt>
      <trkpt lat="43.21652" lon="5.45243">
        <ele>223</ele>
        <time>2026-03-01T13:52:54.605Z</time>
      </trkpt>
      <trkpt lat="43.21647" lon="5.45235">
        <ele>222</ele>
        <time>2026-03-01T13:52:59.109Z</time>
      </trkpt>
      <trkpt lat="43.21636" lon="5.45225">
        <ele>219</ele>
        <time>2026-03-01T13:53:07.139Z</time>
      </trkpt>
      <trkpt lat="43.21617" lon="5.45216">
        <ele>218</ele>
        <time>2026-03-01T13:53:19.587Z</time>
      </trkpt>
      <trkpt lat="43.2161" lon="5.45209">
        <ele>216</ele>
        <time>2026-03-01T13:53:24.879Z</time>
      </trkpt>
      <trkpt lat="43.21611" lon="5.45207">
        <ele>215</ele>
        <time>2026-03-01T13:53:28.320Z</time>
      </trkpt>
      <trkpt lat="43.21604" lon="5.45201">
        <ele>213</ele>
        <time>2026-03-01T13:53:33.435Z</time>
      </trkpt>
      <trkpt lat="43.21599" lon="5.452">
        <ele>213</ele>
        <time>2026-03-01T13:53:36.781Z</time>
      </trkpt>
      <trkpt lat="43.21596" lon="5.45202">
        <ele>214</ele>
        <time>2026-03-01T13:53:42.577Z</time>
      </trkpt>
      <trkpt lat="43.21583" lon="5.45231">
        <ele>224</ele>
        <time>2026-03-01T13:54:56.763Z</time>
      </trkpt>
      <trkpt lat="43.21582" lon="5.45236">
        <ele>226</ele>
        <time>2026-03-01T13:55:11.474Z</time>
      </trkpt>
      <trkpt lat="43.21577" lon="5.45241">
        <ele>227</ele>
        <time>2026-03-01T13:55:17.536Z</time>
      </trkpt>
      <trkpt lat="43.21572" lon="5.45256">
        <ele>231</ele>
        <time>2026-03-01T13:55:42.280Z</time>
      </trkpt>
      <trkpt lat="43.21567" lon="5.45263">
        <ele>232</ele>
        <time>2026-03-01T13:55:48.814Z</time>
      </trkpt>
      <trkpt lat="43.21566" lon="5.45268">
        <ele>232</ele>
        <time>2026-03-01T13:55:51.316Z</time>
      </trkpt>
      <trkpt lat="43.21559" lon="5.45277">
        <ele>233</ele>
        <time>2026-03-01T13:55:59.239Z</time>
      </trkpt>
      <trkpt lat="43.21546" lon="5.45287">
        <ele>232</ele>
        <time>2026-03-01T13:56:08.308Z</time>
      </trkpt>
      <trkpt lat="43.21546" lon="5.45294">
        <ele>233</ele>
        <time>2026-03-01T13:56:13.948Z</time>
      </trkpt>
      <trkpt lat="43.21557" lon="5.45314">
        <ele>239</ele>
        <time>2026-03-01T13:56:50.718Z</time>
      </trkpt>
      <trkpt lat="43.21561" lon="5.45313">
        <ele>240</ele>
        <time>2026-03-01T13:56:56.213Z</time>
      </trkpt>
      <trkpt lat="43.2157" lon="5.45306">
        <ele>241</ele>
        <time>2026-03-01T13:57:04.589Z</time>
      </trkpt>
      <trkpt lat="43.2158" lon="5.45302">
        <ele>243</ele>
        <time>2026-03-01T13:57:15.934Z</time>
      </trkpt>
      <trkpt lat="43.21589" lon="5.45302">
        <ele>244</ele>
        <time>2026-03-01T13:57:23.507Z</time>
      </trkpt>
      <trkpt lat="43.21591" lon="5.45303">
        <ele>245</ele>
        <time>2026-03-01T13:57:31.794Z</time>
      </trkpt>
      <trkpt lat="43.216" lon="5.45301">
        <ele>245</ele>
        <time>2026-03-01T13:57:37.831Z</time>
      </trkpt>
      <trkpt lat="43.21602" lon="5.45304">
        <ele>246</ele>
        <time>2026-03-01T13:57:44.085Z</time>
      </trkpt>
      <trkpt lat="43.21602" lon="5.45311">
        <ele>248</ele>
        <time>2026-03-01T13:57:58.501Z</time>
      </trkpt>
      <trkpt lat="43.21599" lon="5.45315">
        <ele>249</ele>
        <time>2026-03-01T13:58:03.990Z</time>
      </trkpt>
      <trkpt lat="43.21592" lon="5.45322">
        <ele>250</ele>
        <time>2026-03-01T13:58:11.365Z</time>
      </trkpt>
      <trkpt lat="43.21588" lon="5.4533">
        <ele>252</ele>
        <time>2026-03-01T13:58:22.675Z</time>
      </trkpt>
      <trkpt lat="43.21586" lon="5.4533">
        <ele>252</ele>
        <time>2026-03-01T13:58:23.999Z</time>
      </trkpt>
      <trkpt lat="43.21587" lon="5.45331">
        <ele>252</ele>
        <time>2026-03-01T13:58:24.819Z</time>
      </trkpt>
      <trkpt lat="43.21585" lon="5.45336">
        <ele>253</ele>
        <time>2026-03-01T13:58:30.308Z</time>
      </trkpt>
      <trkpt lat="43.21579" lon="5.45344">
        <ele>252</ele>
        <time>2026-03-01T13:58:35.230Z</time>
      </trkpt>
      <trkpt lat="43.21577" lon="5.45359">
        <ele>253</ele>
        <time>2026-03-01T13:58:44.076Z</time>
      </trkpt>
      <trkpt lat="43.21579" lon="5.45387">
        <ele>257</ele>
        <time>2026-03-01T13:59:06.663Z</time>
      </trkpt>
      <trkpt lat="43.21575" lon="5.45414">
        <ele>258</ele>
        <time>2026-03-01T13:59:21.237Z</time>
      </trkpt>
      <trkpt lat="43.21571" lon="5.45427">
        <ele>258</ele>
        <time>2026-03-01T13:59:28.047Z</time>
      </trkpt>
      <trkpt lat="43.21571" lon="5.45439">
        <ele>259</ele>
        <time>2026-03-01T13:59:35.471Z</time>
      </trkpt>
      <trkpt lat="43.21573" lon="5.45446">
        <ele>260</ele>
        <time>2026-03-01T13:59:41.238Z</time>
      </trkpt>
      <trkpt lat="43.21584" lon="5.45453">
        <ele>266</ele>
        <time>2026-03-01T14:00:28.446Z</time>
      </trkpt>
      <trkpt lat="43.21597" lon="5.45469">
        <ele>272</ele>
        <time>2026-03-01T14:01:06.520Z</time>
      </trkpt>
      <trkpt lat="43.21606" lon="5.45474">
        <ele>276</ele>
        <time>2026-03-01T14:01:36.867Z</time>
      </trkpt>
      <trkpt lat="43.21607" lon="5.4548">
        <ele>277</ele>
        <time>2026-03-01T14:01:42.372Z</time>
      </trkpt>
      <trkpt lat="43.21611" lon="5.45485">
        <ele>279</ele>
        <time>2026-03-01T14:01:55.943Z</time>
      </trkpt>
      <trkpt lat="43.21614" lon="5.45483">
        <ele>280</ele>
        <time>2026-03-01T14:02:01.739Z</time>
      </trkpt>
      <trkpt lat="43.21616" lon="5.45486">
        <ele>281</ele>
        <time>2026-03-01T14:02:07.993Z</time>
      </trkpt>
      <trkpt lat="43.21615" lon="5.45491">
        <ele>282</ele>
        <time>2026-03-01T14:02:13.543Z</time>
      </trkpt>
      <trkpt lat="43.2162" lon="5.45515">
        <ele>286</ele>
        <time>2026-03-01T14:02:35.594Z</time>
      </trkpt>
      <trkpt lat="43.2162" lon="5.45529">
        <ele>288</ele>
        <time>2026-03-01T14:02:46.873Z</time>
      </trkpt>
      <trkpt lat="43.21626" lon="5.45549">
        <ele>292</ele>
        <time>2026-03-01T14:03:08.919Z</time>
      </trkpt>
      <trkpt lat="43.21628" lon="5.45552">
        <ele>294</ele>
        <time>2026-03-01T14:03:20.455Z</time>
      </trkpt>
      <trkpt lat="43.21638" lon="5.45581">
        <ele>302</ele>
        <time>2026-03-01T14:04:11.047Z</time>
      </trkpt>
      <trkpt lat="43.21641" lon="5.45606">
        <ele>303</ele>
        <time>2026-03-01T14:04:24.573Z</time>
      </trkpt>
      <trkpt lat="43.21646" lon="5.45627">
        <ele>306</ele>
        <time>2026-03-01T14:04:41.752Z</time>
      </trkpt>
      <trkpt lat="43.21647" lon="5.45648">
        <ele>306</ele>
        <time>2026-03-01T14:04:51.907Z</time>
      </trkpt>
      <trkpt lat="43.21651" lon="5.4566">
        <ele>308</ele>
        <time>2026-03-01T14:05:03.030Z</time>
      </trkpt>
      <trkpt lat="43.21668" lon="5.45692">
        <ele>314</ele>
        <time>2026-03-01T14:05:36.402Z</time>
      </trkpt>
      <trkpt lat="43.21684" lon="5.45708">
        <ele>322</ele>
        <time>2026-03-01T14:06:35.912Z</time>
      </trkpt>
      <trkpt lat="43.21687" lon="5.45715">
        <ele>323</ele>
        <time>2026-03-01T14:06:41.855Z</time>
      </trkpt>
      <trkpt lat="43.21693" lon="5.45721">
        <ele>325</ele>
        <time>2026-03-01T14:06:53.000Z</time>
      </trkpt>
      <trkpt lat="43.21695" lon="5.45726">
        <ele>325</ele>
        <time>2026-03-01T14:06:55.752Z</time>
      </trkpt>
      <trkpt lat="43.217" lon="5.45729">
        <ele>328</ele>
        <time>2026-03-01T14:07:16.998Z</time>
      </trkpt>
      <trkpt lat="43.21704" lon="5.45738">
        <ele>328</ele>
        <time>2026-03-01T14:07:22.086Z</time>
      </trkpt>
      <trkpt lat="43.21709" lon="5.45739">
        <ele>331</ele>
        <time>2026-03-01T14:07:41.758Z</time>
      </trkpt>
      <trkpt lat="43.21708" lon="5.45751">
        <ele>328</ele>
        <time>2026-03-01T14:07:48.751Z</time>
      </trkpt>
      <trkpt lat="43.21715" lon="5.4576">
        <ele>333</ele>
        <time>2026-03-01T14:08:26.099Z</time>
      </trkpt>
      <trkpt lat="43.21716" lon="5.45775">
        <ele>335</ele>
        <time>2026-03-01T14:08:37.639Z</time>
      </trkpt>
      <trkpt lat="43.21718" lon="5.45778">
        <ele>336</ele>
        <time>2026-03-01T14:08:43.893Z</time>
      </trkpt>
      <trkpt lat="43.2172" lon="5.45776">
        <ele>337</ele>
        <time>2026-03-01T14:08:51.332Z</time>
      </trkpt>
      <trkpt lat="43.21724" lon="5.45778">
        <ele>340</ele>
        <time>2026-03-01T14:09:07.907Z</time>
      </trkpt>
      <trkpt lat="43.21725" lon="5.45784">
        <ele>341</ele>
        <time>2026-03-01T14:09:13.411Z</time>
      </trkpt>
      <trkpt lat="43.21725" lon="5.45782">
        <ele>341</ele>
        <time>2026-03-01T14:09:14.376Z</time>
      </trkpt>
      <trkpt lat="43.21726" lon="5.45784">
        <ele>342</ele>
        <time>2026-03-01T14:09:21.258Z</time>
      </trkpt>
      <trkpt lat="43.21732" lon="5.4578">
        <ele>344</ele>
        <time>2026-03-01T14:09:32.850Z</time>
      </trkpt>
      <trkpt lat="43.21734" lon="5.45781">
        <ele>346</ele>
        <time>2026-03-01T14:09:41.138Z</time>
      </trkpt>
      <trkpt lat="43.2174" lon="5.45779">
        <ele>349</ele>
        <time>2026-03-01T14:10:05.177Z</time>
      </trkpt>
      <trkpt lat="43.21741" lon="5.45782">
        <ele>350</ele>
        <time>2026-03-01T14:10:12.837Z</time>
      </trkpt>
      <trkpt lat="43.21746" lon="5.4578">
        <ele>352</ele>
        <time>2026-03-01T14:10:26.945Z</time>
      </trkpt>
      <trkpt lat="43.21751" lon="5.45781">
        <ele>355</ele>
        <time>2026-03-01T14:10:46.617Z</time>
      </trkpt>
      <trkpt lat="43.21758" lon="5.45773">
        <ele>358</ele>
        <time>2026-03-01T14:11:05.032Z</time>
      </trkpt>
      <trkpt lat="43.21761" lon="5.45774">
        <ele>360</ele>
        <time>2026-03-01T14:11:17.051Z</time>
      </trkpt>
      <trkpt lat="43.21763" lon="5.45773">
        <ele>361</ele>
        <time>2026-03-01T14:11:25.339Z</time>
      </trkpt>
      <trkpt lat="43.21764" lon="5.45776">
        <ele>362</ele>
        <time>2026-03-01T14:11:32.998Z</time>
      </trkpt>
      <trkpt lat="43.21772" lon="5.45775">
        <ele>366</ele>
        <time>2026-03-01T14:12:04.274Z</time>
      </trkpt>
      <trkpt lat="43.21777" lon="5.45778">
        <ele>369</ele>
        <time>2026-03-01T14:12:25.520Z</time>
      </trkpt>
      <trkpt lat="43.21777" lon="5.45781">
        <ele>369</ele>
        <time>2026-03-01T14:12:26.968Z</time>
      </trkpt>
      <trkpt lat="43.21781" lon="5.45777">
        <ele>371</ele>
        <time>2026-03-01T14:12:41.845Z</time>
      </trkpt>
      <trkpt lat="43.21783" lon="5.45779">
        <ele>373</ele>
        <time>2026-03-01T14:12:51.480Z</time>
      </trkpt>
      <trkpt lat="43.21786" lon="5.45775">
        <ele>374</ele>
        <time>2026-03-01T14:12:56.969Z</time>
      </trkpt>
      <trkpt lat="43.21789" lon="5.45785">
        <ele>376</ele>
        <time>2026-03-01T14:13:07.991Z</time>
      </trkpt>
      <trkpt lat="43.21792" lon="5.45785">
        <ele>378</ele>
        <time>2026-03-01T14:13:19.671Z</time>
      </trkpt>
      <trkpt lat="43.21793" lon="5.45781">
        <ele>378</ele>
        <time>2026-03-01T14:13:21.712Z</time>
      </trkpt>
      <trkpt lat="43.21796" lon="5.45779">
        <ele>380</ele>
        <time>2026-03-01T14:13:34.697Z</time>
      </trkpt>
      <trkpt lat="43.21795" lon="5.45785">
        <ele>379</ele>
        <time>2026-03-01T14:13:37.415Z</time>
      </trkpt>
      <trkpt lat="43.21798" lon="5.45784">
        <ele>381</ele>
        <time>2026-03-01T14:13:49.434Z</time>
      </trkpt>
      <trkpt lat="43.21799" lon="5.45789">
        <ele>382</ele>
        <time>2026-03-01T14:13:54.984Z</time>
      </trkpt>
      <trkpt lat="43.21801" lon="5.45787">
        <ele>383</ele>
        <time>2026-03-01T14:14:02.423Z</time>
      </trkpt>
      <trkpt lat="43.21802" lon="5.4579">
        <ele>383</ele>
        <time>2026-03-01T14:14:04.015Z</time>
      </trkpt>
      <trkpt lat="43.21803" lon="5.45789">
        <ele>384</ele>
        <time>2026-03-01T14:14:08.833Z</time>
      </trkpt>
      <trkpt lat="43.21804" lon="5.45786">
        <ele>384</ele>
        <time>2026-03-01T14:14:10.424Z</time>
      </trkpt>
      <trkpt lat="43.21804" lon="5.45787">
        <ele>384</ele>
        <time>2026-03-01T14:14:10.907Z</time>
      </trkpt>
      <trkpt lat="43.21808" lon="5.45786">
        <ele>386</ele>
        <time>2026-03-01T14:14:26.737Z</time>
      </trkpt>
      <trkpt lat="43.21809" lon="5.45789">
        <ele>387</ele>
        <time>2026-03-01T14:14:34.396Z</time>
      </trkpt>
      <trkpt lat="43.21811" lon="5.45789">
        <ele>388</ele>
        <time>2026-03-01T14:14:42.183Z</time>
      </trkpt>
      <trkpt lat="43.21811" lon="5.4579">
        <ele>388</ele>
        <time>2026-03-01T14:14:42.665Z</time>
      </trkpt>
      <trkpt lat="43.2181" lon="5.4579">
        <ele>388</ele>
        <time>2026-03-01T14:14:43.328Z</time>
      </trkpt>
      <trkpt lat="43.21809" lon="5.45797">
        <ele>387</ele>
        <time>2026-03-01T14:14:46.403Z</time>
      </trkpt>
      <trkpt lat="43.2181" lon="5.45794">
        <ele>388</ele>
        <time>2026-03-01T14:14:54.062Z</time>
      </trkpt>
      <trkpt lat="43.2181" lon="5.45795">
        <ele>388</ele>
        <time>2026-03-01T14:14:54.545Z</time>
      </trkpt>
      <trkpt lat="43.2181" lon="5.45794">
        <ele>388</ele>
        <time>2026-03-01T14:14:55.027Z</time>
      </trkpt>
      <trkpt lat="43.21812" lon="5.45794">
        <ele>389</ele>
        <time>2026-03-01T14:15:02.814Z</time>
      </trkpt>
      <trkpt lat="43.21812" lon="5.458">
        <ele>389</ele>
        <time>2026-03-01T14:15:05.709Z</time>
      </trkpt>
      <trkpt lat="43.21815" lon="5.45801">
        <ele>390</ele>
        <time>2026-03-01T14:15:11.776Z</time>
      </trkpt>
      <trkpt lat="43.21813" lon="5.45807">
        <ele>389</ele>
        <time>2026-03-01T14:15:14.650Z</time>
      </trkpt>
      <trkpt lat="43.21794" lon="5.45808">
        <ele>379</ele>
        <time>2026-03-01T14:15:51.664Z</time>
      </trkpt>
      <trkpt lat="43.2179" lon="5.45811">
        <ele>377</ele>
        <time>2026-03-01T14:15:59.413Z</time>
      </trkpt>
      <trkpt lat="43.21789" lon="5.45812">
        <ele>377</ele>
        <time>2026-03-01T14:16:00.232Z</time>
      </trkpt>
      <trkpt lat="43.2179" lon="5.45811">
        <ele>377</ele>
        <time>2026-03-01T14:16:01.052Z</time>
      </trkpt>
      <trkpt lat="43.21791" lon="5.45813">
        <ele>378</ele>
        <time>2026-03-01T14:16:07.934Z</time>
      </trkpt>
      <trkpt lat="43.21788" lon="5.45811">
        <ele>376</ele>
        <time>2026-03-01T14:16:14.426Z</time>
      </trkpt>
      <trkpt lat="43.2179" lon="5.45821">
        <ele>378</ele>
        <time>2026-03-01T14:16:25.527Z</time>
      </trkpt>
      <trkpt lat="43.21787" lon="5.45823">
        <ele>376</ele>
        <time>2026-03-01T14:16:32.019Z</time>
      </trkpt>
      <trkpt lat="43.21787" lon="5.45826">
        <ele>376</ele>
        <time>2026-03-01T14:16:33.467Z</time>
      </trkpt>
      <trkpt lat="43.21789" lon="5.45837">
        <ele>378</ele>
        <time>2026-03-01T14:16:44.448Z</time>
      </trkpt>
      <trkpt lat="43.21791" lon="5.45839">
        <ele>380</ele>
        <time>2026-03-01T14:16:54.083Z</time>
      </trkpt>
      <trkpt lat="43.21792" lon="5.45841">
        <ele>381</ele>
        <time>2026-03-01T14:17:00.964Z</time>
      </trkpt>
      <trkpt lat="43.21792" lon="5.45851">
        <ele>383</ele>
        <time>2026-03-01T14:17:12.165Z</time>
      </trkpt>
      <trkpt lat="43.21795" lon="5.45853">
        <ele>385</ele>
        <time>2026-03-01T14:17:25.150Z</time>
      </trkpt>
      <trkpt lat="43.21795" lon="5.45862">
        <ele>386</ele>
        <time>2026-03-01T14:17:31.388Z</time>
      </trkpt>
      <trkpt lat="43.21789" lon="5.45871">
        <ele>386</ele>
        <time>2026-03-01T14:17:37.275Z</time>
      </trkpt>
      <trkpt lat="43.21773" lon="5.45873">
        <ele>379</ele>
        <time>2026-03-01T14:18:03.421Z</time>
      </trkpt>
      <trkpt lat="43.21768" lon="5.45876">
        <ele>378</ele>
        <time>2026-03-01T14:18:06.635Z</time>
      </trkpt>
      <trkpt lat="43.21764" lon="5.45876">
        <ele>376</ele>
        <time>2026-03-01T14:18:14.422Z</time>
      </trkpt>
      <trkpt lat="43.21754" lon="5.45873">
        <ele>371</ele>
        <time>2026-03-01T14:18:34.348Z</time>
      </trkpt>
      <trkpt lat="43.21743" lon="5.45879">
        <ele>368</ele>
        <time>2026-03-01T14:18:41.804Z</time>
      </trkpt>
      <trkpt lat="43.21741" lon="5.45884">
        <ele>368</ele>
        <time>2026-03-01T14:18:44.557Z</time>
      </trkpt>
      <trkpt lat="43.21733" lon="5.45887">
        <ele>365</ele>
        <time>2026-03-01T14:18:51.806Z</time>
      </trkpt>
      <trkpt lat="43.21721" lon="5.45886">
        <ele>358</ele>
        <time>2026-03-01T14:19:15.209Z</time>
      </trkpt>
      <trkpt lat="43.21705" lon="5.45892">
        <ele>352</ele>
        <time>2026-03-01T14:19:29.706Z</time>
      </trkpt>
      <trkpt lat="43.21697" lon="5.45892">
        <ele>348</ele>
        <time>2026-03-01T14:19:45.279Z</time>
      </trkpt>
      <trkpt lat="43.21692" lon="5.45895">
        <ele>347</ele>
        <time>2026-03-01T14:19:48.493Z</time>
      </trkpt>
      <trkpt lat="43.21689" lon="5.45903">
        <ele>348</ele>
        <time>2026-03-01T14:19:54.730Z</time>
      </trkpt>
      <trkpt lat="43.21689" lon="5.45918">
        <ele>352</ele>
        <time>2026-03-01T14:20:21.606Z</time>
      </trkpt>
      <trkpt lat="43.21679" lon="5.45938">
        <ele>351</ele>
        <time>2026-03-01T14:20:32.473Z</time>
      </trkpt>
      <trkpt lat="43.21682" lon="5.45963">
        <ele>357</ele>
        <time>2026-03-01T14:21:08.954Z</time>
      </trkpt>
      <trkpt lat="43.2168" lon="5.45974">
        <ele>358</ele>
        <time>2026-03-01T14:21:16.101Z</time>
      </trkpt>
      <trkpt lat="43.21681" lon="5.45988">
        <ele>361</ele>
        <time>2026-03-01T14:21:33.294Z</time>
      </trkpt>
      <trkpt lat="43.21684" lon="5.45995">
        <ele>364</ele>
        <time>2026-03-01T14:21:56.335Z</time>
      </trkpt>
      <trkpt lat="43.21688" lon="5.46">
        <ele>367</ele>
        <time>2026-03-01T14:22:17.401Z</time>
      </trkpt>
      <trkpt lat="43.21696" lon="5.46017">
        <ele>375</ele>
        <time>2026-03-01T14:23:14.818Z</time>
      </trkpt>
      <trkpt lat="43.21704" lon="5.46024">
        <ele>381</ele>
        <time>2026-03-01T14:23:51.758Z</time>
      </trkpt>
      <trkpt lat="43.21706" lon="5.46029">
        <ele>382</ele>
        <time>2026-03-01T14:23:57.247Z</time>
      </trkpt>
      <trkpt lat="43.21706" lon="5.46037">
        <ele>384</ele>
        <time>2026-03-01T14:24:09.922Z</time>
      </trkpt>
      <trkpt lat="43.21703" lon="5.46043">
        <ele>383</ele>
        <time>2026-03-01T14:24:13.053Z</time>
      </trkpt>
      <trkpt lat="43.21693" lon="5.46048">
        <ele>379</ele>
        <time>2026-03-01T14:24:23.108Z</time>
      </trkpt>
      <trkpt lat="43.21676" lon="5.46053">
        <ele>372</ele>
        <time>2026-03-01T14:24:42.950Z</time>
      </trkpt>
      <trkpt lat="43.21665" lon="5.46065">
        <ele>370</ele>
        <time>2026-03-01T14:24:51.174Z</time>
      </trkpt>
      <trkpt lat="43.2166" lon="5.46067">
        <ele>370</ele>
        <time>2026-03-01T14:24:54.622Z</time>
      </trkpt>
      <trkpt lat="43.21637" lon="5.46055">
        <ele>363</ele>
        <time>2026-03-01T14:25:11.061Z</time>
      </trkpt>
      <trkpt lat="43.21634" lon="5.46055">
        <ele>362</ele>
        <time>2026-03-01T14:25:13.375Z</time>
      </trkpt>
      <trkpt lat="43.21627" lon="5.46048">
        <ele>359</ele>
        <time>2026-03-01T14:25:20.419Z</time>
      </trkpt>
      <trkpt lat="43.21617" lon="5.4605">
        <ele>358</ele>
        <time>2026-03-01T14:25:26.422Z</time>
      </trkpt>
      <trkpt lat="43.21608" lon="5.46056">
        <ele>359</ele>
        <time>2026-03-01T14:25:34.593Z</time>
      </trkpt>
      <trkpt lat="43.21602" lon="5.46063">
        <ele>361</ele>
        <time>2026-03-01T14:25:45.617Z</time>
      </trkpt>
      <trkpt lat="43.21592" lon="5.46065">
        <ele>360</ele>
        <time>2026-03-01T14:25:51.620Z</time>
      </trkpt>
      <trkpt lat="43.21592" lon="5.46064">
        <ele>360</ele>
        <time>2026-03-01T14:25:52.103Z</time>
      </trkpt>
      <trkpt lat="43.2159" lon="5.46065">
        <ele>360</ele>
        <time>2026-03-01T14:25:53.513Z</time>
      </trkpt>
      <trkpt lat="43.21565" lon="5.46058">
        <ele>346</ele>
        <time>2026-03-01T14:26:43.182Z</time>
      </trkpt>
      <trkpt lat="43.21558" lon="5.46052">
        <ele>339</ele>
        <time>2026-03-01T14:26:59.249Z</time>
      </trkpt>
      <trkpt lat="43.21538" lon="5.46046">
        <ele>325</ele>
        <time>2026-03-01T14:27:39.101Z</time>
      </trkpt>
      <trkpt lat="43.21532" lon="5.46048">
        <ele>323</ele>
        <time>2026-03-01T14:27:43.707Z</time>
      </trkpt>
      <trkpt lat="43.2153" lon="5.46069">
        <ele>335</ele>
        <time>2026-03-01T14:28:43.799Z</time>
      </trkpt>
      <trkpt lat="43.21527" lon="5.46083">
        <ele>342</ele>
        <time>2026-03-01T14:29:25.204Z</time>
      </trkpt>
      <trkpt lat="43.21524" lon="5.46089">
        <ele>343</ele>
        <time>2026-03-01T14:29:30.908Z</time>
      </trkpt>
      <trkpt lat="43.21524" lon="5.46094">
        <ele>345</ele>
        <time>2026-03-01T14:29:45.095Z</time>
      </trkpt>
      <trkpt lat="43.21528" lon="5.46106">
        <ele>351</ele>
        <time>2026-03-01T14:30:22.536Z</time>
      </trkpt>
      <trkpt lat="43.21528" lon="5.46117">
        <ele>354</ele>
        <time>2026-03-01T14:30:43.145Z</time>
      </trkpt>
      <trkpt lat="43.21515" lon="5.46159">
        <ele>362</ele>
        <time>2026-03-01T14:31:27.059Z</time>
      </trkpt>
      <trkpt lat="43.21511" lon="5.46163">
        <ele>362</ele>
        <time>2026-03-01T14:31:30.337Z</time>
      </trkpt>
      <trkpt lat="43.21502" lon="5.46165">
        <ele>358</ele>
        <time>2026-03-01T14:31:45.832Z</time>
      </trkpt>
      <trkpt lat="43.21494" lon="5.46175">
        <ele>356</ele>
        <time>2026-03-01T14:31:52.210Z</time>
      </trkpt>
      <trkpt lat="43.21488" lon="5.46175">
        <ele>352</ele>
        <time>2026-03-01T14:32:03.890Z</time>
      </trkpt>
      <trkpt lat="43.21483" lon="5.46181">
        <ele>351</ele>
        <time>2026-03-01T14:32:07.776Z</time>
      </trkpt>
      <trkpt lat="43.21473" lon="5.46181">
        <ele>344</ele>
        <time>2026-03-01T14:32:27.242Z</time>
      </trkpt>
      <trkpt lat="43.21461" lon="5.46191">
        <ele>340</ele>
        <time>2026-03-01T14:32:36.631Z</time>
      </trkpt>
      <trkpt lat="43.21457" lon="5.46192">
        <ele>338</ele>
        <time>2026-03-01T14:32:44.545Z</time>
      </trkpt>
      <trkpt lat="43.21452" lon="5.46191">
        <ele>334</ele>
        <time>2026-03-01T14:32:54.381Z</time>
      </trkpt>
      <trkpt lat="43.2145" lon="5.46192">
        <ele>333</ele>
        <time>2026-03-01T14:32:58.525Z</time>
      </trkpt>
      <trkpt lat="43.21444" lon="5.46201">
        <ele>333</ele>
        <time>2026-03-01T14:33:04.412Z</time>
      </trkpt>
      <trkpt lat="43.21441" lon="5.46217">
        <ele>337</ele>
        <time>2026-03-01T14:33:29.125Z</time>
      </trkpt>
      <trkpt lat="43.21439" lon="5.46236">
        <ele>342</ele>
        <time>2026-03-01T14:34:01.975Z</time>
      </trkpt>
      <trkpt lat="43.21439" lon="5.46268">
        <ele>349</ele>
        <time>2026-03-01T14:34:42.570Z</time>
      </trkpt>
      <trkpt lat="43.2144" lon="5.46285">
        <ele>352</ele>
        <time>2026-03-01T14:34:59.039Z</time>
      </trkpt>
      <trkpt lat="43.21443" lon="5.46292">
        <ele>354</ele>
        <time>2026-03-01T14:35:11.561Z</time>
      </trkpt>
      <trkpt lat="43.21444" lon="5.46303">
        <ele>355</ele>
        <time>2026-03-01T14:35:18.604Z</time>
      </trkpt>
      <trkpt lat="43.21455" lon="5.46319">
        <ele>362</ele>
        <time>2026-03-01T14:36:14.585Z</time>
      </trkpt>
      <trkpt lat="43.21468" lon="5.46327">
        <ele>369</ele>
        <time>2026-03-01T14:37:10.055Z</time>
      </trkpt>
      <trkpt lat="43.21472" lon="5.46336">
        <ele>372</ele>
        <time>2026-03-01T14:37:31.589Z</time>
      </trkpt>
      <trkpt lat="43.21472" lon="5.46338">
        <ele>372</ele>
        <time>2026-03-01T14:37:32.554Z</time>
      </trkpt>
      <trkpt lat="43.21463" lon="5.4635">
        <ele>369</ele>
        <time>2026-03-01T14:37:40.299Z</time>
      </trkpt>
      <trkpt lat="43.21455" lon="5.46365">
        <ele>368</ele>
        <time>2026-03-01T14:37:48.493Z</time>
      </trkpt>
      <trkpt lat="43.21452" lon="5.46374">
        <ele>368</ele>
        <time>2026-03-01T14:37:53.269Z</time>
      </trkpt>
      <trkpt lat="43.21452" lon="5.46382">
        <ele>369</ele>
        <time>2026-03-01T14:37:59.175Z</time>
      </trkpt>
      <trkpt lat="43.21446" lon="5.4639">
        <ele>368</ele>
        <time>2026-03-01T14:38:04.097Z</time>
      </trkpt>
      <trkpt lat="43.21444" lon="5.46401">
        <ele>369</ele>
        <time>2026-03-01T14:38:11.244Z</time>
      </trkpt>
      <trkpt lat="43.21445" lon="5.46413">
        <ele>371</ele>
        <time>2026-03-01T14:38:22.235Z</time>
      </trkpt>
      <trkpt lat="43.21449" lon="5.46425">
        <ele>375</ele>
        <time>2026-03-01T14:38:52.872Z</time>
      </trkpt>
      <trkpt lat="43.21453" lon="5.46429">
        <ele>378</ele>
        <time>2026-03-01T14:39:12.143Z</time>
      </trkpt>
      <trkpt lat="43.2146" lon="5.46431">
        <ele>380</ele>
        <time>2026-03-01T14:39:23.409Z</time>
      </trkpt>
      <trkpt lat="43.21469" lon="5.46443">
        <ele>386</ele>
        <time>2026-03-01T14:40:12.267Z</time>
      </trkpt>
      <trkpt lat="43.21468" lon="5.46459">
        <ele>389</ele>
        <time>2026-03-01T14:40:28.824Z</time>
      </trkpt>
      <trkpt lat="43.21466" lon="5.46461">
        <ele>389</ele>
        <time>2026-03-01T14:40:30.463Z</time>
      </trkpt>
      <trkpt lat="43.21466" lon="5.46463">
        <ele>390</ele>
        <time>2026-03-01T14:40:36.138Z</time>
      </trkpt>
      <trkpt lat="43.21459" lon="5.46467">
        <ele>389</ele>
        <time>2026-03-01T14:40:40.583Z</time>
      </trkpt>
      <trkpt lat="43.21454" lon="5.46474">
        <ele>390</ele>
        <time>2026-03-01T14:40:47.117Z</time>
      </trkpt>
      <trkpt lat="43.21438" lon="5.46479">
        <ele>389</ele>
        <time>2026-03-01T14:40:57.161Z</time>
      </trkpt>
      <trkpt lat="43.21431" lon="5.46484">
        <ele>389</ele>
        <time>2026-03-01T14:41:02.387Z</time>
      </trkpt>
      <trkpt lat="43.21427" lon="5.46495">
        <ele>393</ele>
        <time>2026-03-01T14:41:34.868Z</time>
      </trkpt>
      <trkpt lat="43.21429" lon="5.46501">
        <ele>395</ele>
        <time>2026-03-01T14:41:50.187Z</time>
      </trkpt>
      <trkpt lat="43.21424" lon="5.46504">
        <ele>395</ele>
        <time>2026-03-01T14:41:53.800Z</time>
      </trkpt>
      <trkpt lat="43.21417" lon="5.46514">
        <ele>397</ele>
        <time>2026-03-01T14:42:05.050Z</time>
      </trkpt>
      <trkpt lat="43.21397" lon="5.46514">
        <ele>395</ele>
        <time>2026-03-01T14:42:16.924Z</time>
      </trkpt>
      <trkpt lat="43.21395" lon="5.46517">
        <ele>396</ele>
        <time>2026-03-01T14:42:23.178Z</time>
      </trkpt>
      <trkpt lat="43.21391" lon="5.46517">
        <ele>396</ele>
        <time>2026-03-01T14:42:25.827Z</time>
      </trkpt>
      <trkpt lat="43.21383" lon="5.46515">
        <ele>395</ele>
        <time>2026-03-01T14:42:30.605Z</time>
      </trkpt>
      <trkpt lat="43.21373" lon="5.46521">
        <ele>396</ele>
        <time>2026-03-01T14:42:39.329Z</time>
      </trkpt>
      <trkpt lat="43.21373" lon="5.46526">
        <ele>397</ele>
        <time>2026-03-01T14:42:44.930Z</time>
      </trkpt>
      <trkpt lat="43.21369" lon="5.46529">
        <ele>398</ele>
        <time>2026-03-01T14:42:50.444Z</time>
      </trkpt>
      <trkpt lat="43.21363" lon="5.46526">
        <ele>397</ele>
        <time>2026-03-01T14:42:54.180Z</time>
      </trkpt>
      <trkpt lat="43.21362" lon="5.46524">
        <ele>396</ele>
        <time>2026-03-01T14:42:57.621Z</time>
      </trkpt>
      <trkpt lat="43.21355" lon="5.46525">
        <ele>396</ele>
        <time>2026-03-01T14:43:02.282Z</time>
      </trkpt>
      <trkpt lat="43.21355" lon="5.46523">
        <ele>395</ele>
        <time>2026-03-01T14:43:05.119Z</time>
      </trkpt>
      <trkpt lat="43.21348" lon="5.46538">
        <ele>399</ele>
        <time>2026-03-01T14:43:28.641Z</time>
      </trkpt>
      <trkpt lat="43.21347" lon="5.46546">
        <ele>402</ele>
        <time>2026-03-01T14:43:51.672Z</time>
      </trkpt>
      <trkpt lat="43.21341" lon="5.46562">
        <ele>407</ele>
        <time>2026-03-01T14:44:26.681Z</time>
      </trkpt>
      <trkpt lat="43.21332" lon="5.46574">
        <ele>410</ele>
        <time>2026-03-01T14:44:43.147Z</time>
      </trkpt>
      <trkpt lat="43.21316" lon="5.46583">
        <ele>408</ele>
        <time>2026-03-01T14:44:53.335Z</time>
      </trkpt>
      <trkpt lat="43.21306" lon="5.46583">
        <ele>406</ele>
        <time>2026-03-01T14:44:59.277Z</time>
      </trkpt>
      <trkpt lat="43.21307" lon="5.46585">
        <ele>406</ele>
        <time>2026-03-01T14:45:00.448Z</time>
      </trkpt>
      <trkpt lat="43.21306" lon="5.46583">
        <ele>406</ele>
        <time>2026-03-01T14:45:01.619Z</time>
      </trkpt>
      <trkpt lat="43.21305" lon="5.46584">
        <ele>405</ele>
        <time>2026-03-01T14:45:04.027Z</time>
      </trkpt>
      <trkpt lat="43.21301" lon="5.4659">
        <ele>404</ele>
        <time>2026-03-01T14:45:07.501Z</time>
      </trkpt>
      <trkpt lat="43.21298" lon="5.46592">
        <ele>404</ele>
        <time>2026-03-01T14:45:09.710Z</time>
      </trkpt>
      <trkpt lat="43.21292" lon="5.46591">
        <ele>402</ele>
        <time>2026-03-01T14:45:14.331Z</time>
      </trkpt>
      <trkpt lat="43.21289" lon="5.46587">
        <ele>401</ele>
        <time>2026-03-01T14:45:16.913Z</time>
      </trkpt>
      <trkpt lat="43.21288" lon="5.46589">
        <ele>401</ele>
        <time>2026-03-01T14:45:18.083Z</time>
      </trkpt>
      <trkpt lat="43.21288" lon="5.46588">
        <ele>401</ele>
        <time>2026-03-01T14:45:18.566Z</time>
      </trkpt>
      <trkpt lat="43.21287" lon="5.46589">
        <ele>401</ele>
        <time>2026-03-01T14:45:19.385Z</time>
      </trkpt>
      <trkpt lat="43.21288" lon="5.46588">
        <ele>401</ele>
        <time>2026-03-01T14:45:20.205Z</time>
      </trkpt>
      <trkpt lat="43.21291" lon="5.46592">
        <ele>402</ele>
        <time>2026-03-01T14:45:25.693Z</time>
      </trkpt>
      <trkpt lat="43.21293" lon="5.46597">
        <ele>402</ele>
        <time>2026-03-01T14:45:28.446Z</time>
      </trkpt>
      <trkpt lat="43.21297" lon="5.46598">
        <ele>403</ele>
        <time>2026-03-01T14:45:33.941Z</time>
      </trkpt>
      <trkpt lat="43.21297" lon="5.46597">
        <ele>403</ele>
        <time>2026-03-01T14:45:34.423Z</time>
      </trkpt>
      <trkpt lat="43.21305" lon="5.46603">
        <ele>405</ele>
        <time>2026-03-01T14:45:45.452Z</time>
      </trkpt>
      <trkpt lat="43.21311" lon="5.466">
        <ele>406</ele>
        <time>2026-03-01T14:45:51.607Z</time>
      </trkpt>
      <trkpt lat="43.2131" lon="5.46601">
        <ele>406</ele>
        <time>2026-03-01T14:45:52.426Z</time>
      </trkpt>
      <trkpt lat="43.2131" lon="5.466">
        <ele>406</ele>
        <time>2026-03-01T14:45:52.909Z</time>
      </trkpt>
      <trkpt lat="43.2131" lon="5.46607">
        <ele>406</ele>
        <time>2026-03-01T14:45:56.287Z</time>
      </trkpt>
      <trkpt lat="43.21316" lon="5.46613">
        <ele>406</ele>
        <time>2026-03-01T14:46:01.203Z</time>
      </trkpt>
      <trkpt lat="43.21324" lon="5.46609">
        <ele>408</ele>
        <time>2026-03-01T14:46:12.180Z</time>
      </trkpt>
      <trkpt lat="43.21328" lon="5.46605">
        <ele>409</ele>
        <time>2026-03-01T14:46:17.776Z</time>
      </trkpt>
      <trkpt lat="43.21339" lon="5.46602">
        <ele>411</ele>
        <time>2026-03-01T14:46:29.408Z</time>
      </trkpt>
      <trkpt lat="43.21346" lon="5.46609">
        <ele>411</ele>
        <time>2026-03-01T14:46:35.143Z</time>
      </trkpt>
      <trkpt lat="43.21352" lon="5.46612">
        <ele>410</ele>
        <time>2026-03-01T14:46:38.880Z</time>
      </trkpt>
      <trkpt lat="43.21355" lon="5.46619">
        <ele>410</ele>
        <time>2026-03-01T14:46:42.799Z</time>
      </trkpt>
      <trkpt lat="43.21364" lon="5.46618">
        <ele>410</ele>
        <time>2026-03-01T14:46:48.778Z</time>
      </trkpt>
      <trkpt lat="43.21372" lon="5.46621">
        <ele>410</ele>
        <time>2026-03-01T14:46:54.270Z</time>
      </trkpt>
      <trkpt lat="43.21375" lon="5.46621">
        <ele>410</ele>
        <time>2026-03-01T14:46:56.256Z</time>
      </trkpt>
      <trkpt lat="43.2139" lon="5.46612">
        <ele>412</ele>
        <time>2026-03-01T14:47:10.463Z</time>
      </trkpt>
      <trkpt lat="43.21397" lon="5.46611">
        <ele>413</ele>
        <time>2026-03-01T14:47:16.942Z</time>
      </trkpt>
      <trkpt lat="43.21402" lon="5.46608">
        <ele>413</ele>
        <time>2026-03-01T14:47:20.555Z</time>
      </trkpt>
      <trkpt lat="43.21408" lon="5.46608">
        <ele>414</ele>
        <time>2026-03-01T14:47:26.534Z</time>
      </trkpt>
      <trkpt lat="43.21416" lon="5.46609">
        <ele>414</ele>
        <time>2026-03-01T14:47:31.853Z</time>
      </trkpt>
      <trkpt lat="43.21423" lon="5.46607">
        <ele>415</ele>
        <time>2026-03-01T14:47:38.391Z</time>
      </trkpt>
      <trkpt lat="43.21438" lon="5.46607">
        <ele>416</ele>
        <time>2026-03-01T14:47:49.685Z</time>
      </trkpt>
      <trkpt lat="43.21439" lon="5.46608">
        <ele>416</ele>
        <time>2026-03-01T14:47:50.504Z</time>
      </trkpt>
      <trkpt lat="43.21433" lon="5.46609">
        <ele>415</ele>
        <time>2026-03-01T14:47:54.045Z</time>
      </trkpt>
      <trkpt lat="43.21421" lon="5.46609">
        <ele>414</ele>
        <time>2026-03-01T14:48:01.249Z</time>
      </trkpt>
      <trkpt lat="43.21418" lon="5.46618">
        <ele>413</ele>
        <time>2026-03-01T14:48:05.472Z</time>
      </trkpt>
      <trkpt lat="43.2142" lon="5.46617">
        <ele>413</ele>
        <time>2026-03-01T14:48:06.881Z</time>
      </trkpt>
      <trkpt lat="43.21419" lon="5.46615">
        <ele>413</ele>
        <time>2026-03-01T14:48:08.052Z</time>
      </trkpt>
      <trkpt lat="43.21427" lon="5.46622">
        <ele>413</ele>
        <time>2026-03-01T14:48:14.335Z</time>
      </trkpt>
      <trkpt lat="43.21441" lon="5.46629">
        <ele>413</ele>
        <time>2026-03-01T14:48:24.201Z</time>
      </trkpt>
      <trkpt lat="43.21455" lon="5.46642">
        <ele>412</ele>
        <time>2026-03-01T14:48:34.567Z</time>
      </trkpt>
      <trkpt lat="43.21456" lon="5.46646">
        <ele>411</ele>
        <time>2026-03-01T14:48:36.871Z</time>
      </trkpt>
      <trkpt lat="43.21464" lon="5.46654">
        <ele>411</ele>
        <time>2026-03-01T14:48:43.426Z</time>
      </trkpt>
      <trkpt lat="43.21477" lon="5.46653">
        <ele>411</ele>
        <time>2026-03-01T14:48:52.048Z</time>
      </trkpt>
      <trkpt lat="43.21486" lon="5.46654">
        <ele>412</ele>
        <time>2026-03-01T14:48:59.637Z</time>
      </trkpt>
      <trkpt lat="43.21496" lon="5.4665">
        <ele>413</ele>
        <time>2026-03-01T14:49:08.057Z</time>
      </trkpt>
      <trkpt lat="43.21523" lon="5.46646">
        <ele>418</ele>
        <time>2026-03-01T14:49:36.803Z</time>
      </trkpt>
      <trkpt lat="43.21527" lon="5.46647">
        <ele>419</ele>
        <time>2026-03-01T14:49:42.298Z</time>
      </trkpt>
      <trkpt lat="43.21534" lon="5.46653">
        <ele>419</ele>
        <time>2026-03-01T14:49:47.763Z</time>
      </trkpt>
      <trkpt lat="43.21552" lon="5.46658">
        <ele>422</ele>
        <time>2026-03-01T14:50:05.861Z</time>
      </trkpt>
      <trkpt lat="43.2156" lon="5.46663">
        <ele>423</ele>
        <time>2026-03-01T14:50:13.311Z</time>
      </trkpt>
      <trkpt lat="43.21579" lon="5.46668">
        <ele>426</ele>
        <time>2026-03-01T14:50:31.865Z</time>
      </trkpt>
      <trkpt lat="43.21585" lon="5.46675">
        <ele>427</ele>
        <time>2026-03-01T14:50:38.795Z</time>
      </trkpt>
      <trkpt lat="43.21586" lon="5.46686">
        <ele>427</ele>
        <time>2026-03-01T14:50:44.144Z</time>
      </trkpt>
      <trkpt lat="43.21578" lon="5.46692">
        <ele>424</ele>
        <time>2026-03-01T14:50:51.069Z</time>
      </trkpt>
      <trkpt lat="43.21565" lon="5.46721">
        <ele>418</ele>
        <time>2026-03-01T14:51:06.437Z</time>
      </trkpt>
      <trkpt lat="43.21553" lon="5.46728">
        <ele>414</ele>
        <time>2026-03-01T14:51:15.656Z</time>
      </trkpt>
      <trkpt lat="43.21542" lon="5.46745">
        <ele>409</ele>
        <time>2026-03-01T14:51:27.208Z</time>
      </trkpt>
      <trkpt lat="43.21513" lon="5.46769">
        <ele>404</ele>
        <time>2026-03-01T14:51:47.020Z</time>
      </trkpt>
      <trkpt lat="43.21494" lon="5.46795">
        <ele>404</ele>
        <time>2026-03-01T14:52:04.788Z</time>
      </trkpt>
      <trkpt lat="43.21486" lon="5.46796">
        <ele>402</ele>
        <time>2026-03-01T14:52:09.814Z</time>
      </trkpt>
      <trkpt lat="43.21483" lon="5.46799">
        <ele>402</ele>
        <time>2026-03-01T14:52:12.272Z</time>
      </trkpt>
      <trkpt lat="43.21477" lon="5.46798">
        <ele>401</ele>
        <time>2026-03-01T14:52:15.813Z</time>
      </trkpt>
      <trkpt lat="43.21465" lon="5.46802">
        <ele>399</ele>
        <time>2026-03-01T14:52:23.043Z</time>
      </trkpt>
      <trkpt lat="43.21453" lon="5.46815">
        <ele>398</ele>
        <time>2026-03-01T14:52:32.361Z</time>
      </trkpt>
      <trkpt lat="43.21451" lon="5.46823">
        <ele>398</ele>
        <time>2026-03-01T14:52:36.443Z</time>
      </trkpt>
      <trkpt lat="43.21447" lon="5.46824">
        <ele>397</ele>
        <time>2026-03-01T14:52:38.976Z</time>
      </trkpt>
      <trkpt lat="43.21441" lon="5.46835">
        <ele>397</ele>
        <time>2026-03-01T14:52:45.606Z</time>
      </trkpt>
      <trkpt lat="43.21419" lon="5.46855">
        <ele>395</ele>
        <time>2026-03-01T14:53:01.544Z</time>
      </trkpt>
      <trkpt lat="43.21408" lon="5.46869">
        <ele>394</ele>
        <time>2026-03-01T14:53:10.678Z</time>
      </trkpt>
      <trkpt lat="43.21401" lon="5.46874">
        <ele>393</ele>
        <time>2026-03-01T14:53:15.310Z</time>
      </trkpt>
      <trkpt lat="43.21399" lon="5.46879">
        <ele>393</ele>
        <time>2026-03-01T14:53:18.063Z</time>
      </trkpt>
      <trkpt lat="43.21394" lon="5.46893">
        <ele>393</ele>
        <time>2026-03-01T14:53:25.587Z</time>
      </trkpt>
      <trkpt lat="43.21395" lon="5.46898">
        <ele>394</ele>
        <time>2026-03-01T14:53:31.137Z</time>
      </trkpt>
      <trkpt lat="43.21393" lon="5.46906">
        <ele>395</ele>
        <time>2026-03-01T14:53:37.188Z</time>
      </trkpt>
      <trkpt lat="43.21385" lon="5.46918">
        <ele>394</ele>
        <time>2026-03-01T14:53:44.298Z</time>
      </trkpt>
      <trkpt lat="43.21379" lon="5.46942">
        <ele>393</ele>
        <time>2026-03-01T14:53:55.697Z</time>
      </trkpt>
      <trkpt lat="43.21377" lon="5.46943">
        <ele>392</ele>
        <time>2026-03-01T14:53:59.841Z</time>
      </trkpt>
      <trkpt lat="43.21375" lon="5.46941">
        <ele>391</ele>
        <time>2026-03-01T14:54:02.700Z</time>
      </trkpt>
      <trkpt lat="43.21372" lon="5.46943">
        <ele>390</ele>
        <time>2026-03-01T14:54:05.013Z</time>
      </trkpt>
      <trkpt lat="43.2137" lon="5.4695">
        <ele>389</ele>
        <time>2026-03-01T14:54:08.239Z</time>
      </trkpt>
      <trkpt lat="43.21367" lon="5.46956">
        <ele>387</ele>
        <time>2026-03-01T14:54:13.289Z</time>
      </trkpt>
      <trkpt lat="43.21358" lon="5.46964">
        <ele>382</ele>
        <time>2026-03-01T14:54:34.164Z</time>
      </trkpt>
      <trkpt lat="43.21352" lon="5.46984">
        <ele>378</ele>
        <time>2026-03-01T14:54:44.098Z</time>
      </trkpt>
      <trkpt lat="43.21348" lon="5.47006">
        <ele>373</ele>
        <time>2026-03-01T14:54:55.645Z</time>
      </trkpt>
      <trkpt lat="43.21345" lon="5.4701">
        <ele>371</ele>
        <time>2026-03-01T14:55:03.789Z</time>
      </trkpt>
      <trkpt lat="43.21334" lon="5.47018">
        <ele>362</ele>
        <time>2026-03-01T14:55:28.024Z</time>
      </trkpt>
      <trkpt lat="43.21337" lon="5.47033">
        <ele>364</ele>
        <time>2026-03-01T14:55:39.703Z</time>
      </trkpt>
      <trkpt lat="43.21335" lon="5.47042">
        <ele>362</ele>
        <time>2026-03-01T14:55:44.361Z</time>
      </trkpt>
      <trkpt lat="43.21342" lon="5.47054">
        <ele>367</ele>
        <time>2026-03-01T14:56:24.956Z</time>
      </trkpt>
      <trkpt lat="43.21339" lon="5.47063">
        <ele>364</ele>
        <time>2026-03-01T14:56:34.252Z</time>
      </trkpt>
      <trkpt lat="43.21336" lon="5.47061">
        <ele>361</ele>
        <time>2026-03-01T14:56:40.745Z</time>
      </trkpt>
      <trkpt lat="43.21339" lon="5.47063">
        <ele>364</ele>
        <time>2026-03-01T14:56:53.730Z</time>
      </trkpt>
      <trkpt lat="43.21338" lon="5.47067">
        <ele>363</ele>
        <time>2026-03-01T14:56:56.034Z</time>
      </trkpt>
      <trkpt lat="43.21336" lon="5.47097">
        <ele>362</ele>
        <time>2026-03-01T14:57:09.695Z</time>
      </trkpt>
      <trkpt lat="43.21344" lon="5.47125">
        <ele>371</ele>
        <time>2026-03-01T14:58:17.749Z</time>
      </trkpt>
      <trkpt lat="43.21343" lon="5.4713">
        <ele>371</ele>
        <time>2026-03-01T14:58:20.251Z</time>
      </trkpt>
      <trkpt lat="43.21339" lon="5.47136">
        <ele>369</ele>
        <time>2026-03-01T14:58:24.897Z</time>
      </trkpt>
      <trkpt lat="43.21334" lon="5.47138">
        <ele>365</ele>
        <time>2026-03-01T14:58:35.036Z</time>
      </trkpt>
      <trkpt lat="43.21333" lon="5.47144">
        <ele>365</ele>
        <time>2026-03-01T14:58:38.006Z</time>
      </trkpt>
      <trkpt lat="43.2133" lon="5.47139">
        <ele>363</ele>
        <time>2026-03-01T14:58:44.616Z</time>
      </trkpt>
      <trkpt lat="43.21328" lon="5.47141">
        <ele>362</ele>
        <time>2026-03-01T14:58:47.475Z</time>
      </trkpt>
      <trkpt lat="43.21311" lon="5.47138">
        <ele>353</ele>
        <time>2026-03-01T14:59:20.841Z</time>
      </trkpt>
      <trkpt lat="43.21307" lon="5.47139">
        <ele>351</ele>
        <time>2026-03-01T14:59:28.756Z</time>
      </trkpt>
      <trkpt lat="43.21306" lon="5.47142">
        <ele>351</ele>
        <time>2026-03-01T14:59:30.348Z</time>
      </trkpt>
      <trkpt lat="43.21299" lon="5.47143">
        <ele>347</ele>
        <time>2026-03-01T14:59:44.048Z</time>
      </trkpt>
      <trkpt lat="43.21296" lon="5.4714">
        <ele>345</ele>
        <time>2026-03-01T14:59:51.275Z</time>
      </trkpt>
      <trkpt lat="43.21291" lon="5.47143">
        <ele>343</ele>
        <time>2026-03-01T14:59:56.165Z</time>
      </trkpt>
      <trkpt lat="43.21285" lon="5.47144">
        <ele>340</ele>
        <time>2026-03-01T15:00:07.930Z</time>
      </trkpt>
      <trkpt lat="43.21282" lon="5.4714">
        <ele>338</ele>
        <time>2026-03-01T15:00:16.073Z</time>
      </trkpt>
      <trkpt lat="43.21272" lon="5.47142">
        <ele>333</ele>
        <time>2026-03-01T15:00:35.746Z</time>
      </trkpt>
      <trkpt lat="43.2127" lon="5.47146">
        <ele>333</ele>
        <time>2026-03-01T15:00:38.087Z</time>
      </trkpt>
      <trkpt lat="43.21265" lon="5.47141">
        <ele>329</ele>
        <time>2026-03-01T15:00:50.131Z</time>
      </trkpt>
      <trkpt lat="43.21262" lon="5.47141">
        <ele>327</ele>
        <time>2026-03-01T15:00:55.971Z</time>
      </trkpt>
      <trkpt lat="43.21259" lon="5.47143">
        <ele>326</ele>
        <time>2026-03-01T15:00:58.284Z</time>
      </trkpt>
      <trkpt lat="43.21259" lon="5.47146">
        <ele>327</ele>
        <time>2026-03-01T15:01:06.501Z</time>
      </trkpt>
      <trkpt lat="43.21256" lon="5.47148">
        <ele>327</ele>
        <time>2026-03-01T15:01:08.709Z</time>
      </trkpt>
      <trkpt lat="43.21247" lon="5.47148">
        <ele>322</ele>
        <time>2026-03-01T15:01:26.229Z</time>
      </trkpt>
      <trkpt lat="43.21244" lon="5.47152">
        <ele>322</ele>
        <time>2026-03-01T15:01:28.999Z</time>
      </trkpt>
      <trkpt lat="43.21238" lon="5.47157">
        <ele>322</ele>
        <time>2026-03-01T15:01:33.648Z</time>
      </trkpt>
      <trkpt lat="43.21229" lon="5.47156">
        <ele>317</ele>
        <time>2026-03-01T15:01:51.225Z</time>
      </trkpt>
      <trkpt lat="43.21225" lon="5.47151">
        <ele>314</ele>
        <time>2026-03-01T15:02:01.758Z</time>
      </trkpt>
      <trkpt lat="43.21218" lon="5.47151">
        <ele>311</ele>
        <time>2026-03-01T15:02:12.138Z</time>
      </trkpt>
      <trkpt lat="43.21217" lon="5.47155">
        <ele>312</ele>
        <time>2026-03-01T15:02:18.212Z</time>
      </trkpt>
      <trkpt lat="43.21212" lon="5.47155">
        <ele>310</ele>
        <time>2026-03-01T15:02:23.797Z</time>
      </trkpt>
      <trkpt lat="43.21212" lon="5.47153">
        <ele>309</ele>
        <time>2026-03-01T15:02:26.635Z</time>
      </trkpt>
      <trkpt lat="43.2121" lon="5.47152">
        <ele>308</ele>
        <time>2026-03-01T15:02:30.779Z</time>
      </trkpt>
      <trkpt lat="43.21209" lon="5.47153">
        <ele>308</ele>
        <time>2026-03-01T15:02:31.598Z</time>
      </trkpt>
      <trkpt lat="43.21208" lon="5.47145">
        <ele>305</ele>
        <time>2026-03-01T15:02:43.114Z</time>
      </trkpt>
      <trkpt lat="43.21204" lon="5.47137">
        <ele>301</ele>
        <time>2026-03-01T15:02:56.878Z</time>
      </trkpt>
      <trkpt lat="43.21199" lon="5.47138">
        <ele>299</ele>
        <time>2026-03-01T15:03:02.341Z</time>
      </trkpt>
      <trkpt lat="43.21195" lon="5.4714">
        <ele>298</ele>
        <time>2026-03-01T15:03:04.954Z</time>
      </trkpt>
      <trkpt lat="43.21189" lon="5.47149">
        <ele>299</ele>
        <time>2026-03-01T15:03:12.462Z</time>
      </trkpt>
      <trkpt lat="43.21185" lon="5.47151">
        <ele>297</ele>
        <time>2026-03-01T15:03:20.750Z</time>
      </trkpt>
      <trkpt lat="43.21184" lon="5.47158">
        <ele>299</ele>
        <time>2026-03-01T15:03:34.884Z</time>
      </trkpt>
      <trkpt lat="43.21184" lon="5.47157">
        <ele>299</ele>
        <time>2026-03-01T15:03:35.366Z</time>
      </trkpt>
      <trkpt lat="43.21182" lon="5.47157">
        <ele>298</ele>
        <time>2026-03-01T15:03:39.260Z</time>
      </trkpt>
      <trkpt lat="43.21183" lon="5.47156">
        <ele>298</ele>
        <time>2026-03-01T15:03:40.079Z</time>
      </trkpt>
      <trkpt lat="43.21182" lon="5.47157">
        <ele>298</ele>
        <time>2026-03-01T15:03:40.898Z</time>
      </trkpt>
      <trkpt lat="43.21177" lon="5.47155">
        <ele>295</ele>
        <time>2026-03-01T15:03:51.037Z</time>
      </trkpt>
      <trkpt lat="43.21178" lon="5.47156">
        <ele>296</ele>
        <time>2026-03-01T15:03:55.854Z</time>
      </trkpt>
      <trkpt lat="43.21176" lon="5.47158">
        <ele>296</ele>
        <time>2026-03-01T15:03:57.493Z</time>
      </trkpt>
      <trkpt lat="43.21171" lon="5.4716">
        <ele>294</ele>
        <time>2026-03-01T15:04:02.673Z</time>
      </trkpt>
      <trkpt lat="43.21167" lon="5.47158">
        <ele>292</ele>
        <time>2026-03-01T15:04:10.960Z</time>
      </trkpt>
      <trkpt lat="43.21163" lon="5.47168">
        <ele>293</ele>
        <time>2026-03-01T15:04:18.136Z</time>
      </trkpt>
      <trkpt lat="43.21165" lon="5.47173">
        <ele>294</ele>
        <time>2026-03-01T15:04:23.625Z</time>
      </trkpt>
      <trkpt lat="43.21163" lon="5.47176">
        <ele>294</ele>
        <time>2026-03-01T15:04:25.587Z</time>
      </trkpt>
      <trkpt lat="43.21162" lon="5.47188">
        <ele>295</ele>
        <time>2026-03-01T15:04:33.045Z</time>
      </trkpt>
      <trkpt lat="43.21165" lon="5.47214">
        <ele>299</ele>
        <time>2026-03-01T15:04:55.280Z</time>
      </trkpt>
      <trkpt lat="43.21156" lon="5.47217">
        <ele>296</ele>
        <time>2026-03-01T15:05:02.189Z</time>
      </trkpt>
      <trkpt lat="43.21148" lon="5.47226">
        <ele>294</ele>
        <time>2026-03-01T15:05:08.312Z</time>
      </trkpt>
      <trkpt lat="43.21146" lon="5.47224">
        <ele>293</ele>
        <time>2026-03-01T15:05:11.171Z</time>
      </trkpt>
      <trkpt lat="43.21147" lon="5.47216">
        <ele>293</ele>
        <time>2026-03-01T15:05:15.088Z</time>
      </trkpt>
      <trkpt lat="43.21146" lon="5.47217">
        <ele>292</ele>
        <time>2026-03-01T15:05:17.497Z</time>
      </trkpt>
      <trkpt lat="43.21145" lon="5.47217">
        <ele>292</ele>
        <time>2026-03-01T15:05:18.159Z</time>
      </trkpt>
      <trkpt lat="43.21142" lon="5.47212">
        <ele>291</ele>
        <time>2026-03-01T15:05:20.989Z</time>
      </trkpt>
      <trkpt lat="43.21147" lon="5.47207">
        <ele>292</ele>
        <time>2026-03-01T15:05:27.051Z</time>
      </trkpt>
      <trkpt lat="43.21148" lon="5.47199">
        <ele>291</ele>
        <time>2026-03-01T15:05:30.519Z</time>
      </trkpt>
      <trkpt lat="43.21147" lon="5.47193">
        <ele>290</ele>
        <time>2026-03-01T15:05:33.237Z</time>
      </trkpt>
      <trkpt lat="43.21142" lon="5.47194">
        <ele>289</ele>
        <time>2026-03-01T15:05:36.235Z</time>
      </trkpt>
      <trkpt lat="43.21136" lon="5.47191">
        <ele>286</ele>
        <time>2026-03-01T15:05:48.667Z</time>
      </trkpt>
      <trkpt lat="43.21132" lon="5.47193">
        <ele>285</ele>
        <time>2026-03-01T15:05:51.280Z</time>
      </trkpt>
      <trkpt lat="43.21114" lon="5.47167">
        <ele>276</ele>
        <time>2026-03-01T15:06:12.352Z</time>
      </trkpt>
      <trkpt lat="43.21105" lon="5.47156">
        <ele>269</ele>
        <time>2026-03-01T15:06:35.815Z</time>
      </trkpt>
      <trkpt lat="43.21097" lon="5.47154">
        <ele>266</ele>
        <time>2026-03-01T15:06:43.199Z</time>
      </trkpt>
      <trkpt lat="43.21094" lon="5.47147">
        <ele>262</ele>
        <time>2026-03-01T15:06:54.721Z</time>
      </trkpt>
      <trkpt lat="43.2109" lon="5.47151">
        <ele>262</ele>
        <time>2026-03-01T15:06:57.998Z</time>
      </trkpt>
      <trkpt lat="43.21089" lon="5.47156">
        <ele>264</ele>
        <time>2026-03-01T15:07:12.711Z</time>
      </trkpt>
      <trkpt lat="43.21082" lon="5.47166">
        <ele>265</ele>
        <time>2026-03-01T15:07:20.942Z</time>
      </trkpt>
      <trkpt lat="43.21071" lon="5.47172">
        <ele>261</ele>
        <time>2026-03-01T15:07:30.238Z</time>
      </trkpt>
      <trkpt lat="43.21063" lon="5.4718">
        <ele>259</ele>
        <time>2026-03-01T15:07:36.129Z</time>
      </trkpt>
      <trkpt lat="43.21056" lon="5.47196">
        <ele>261</ele>
        <time>2026-03-01T15:07:48.844Z</time>
      </trkpt>
      <trkpt lat="43.21049" lon="5.47186">
        <ele>255</ele>
        <time>2026-03-01T15:08:08.516Z</time>
      </trkpt>
      <trkpt lat="43.21044" lon="5.47188">
        <ele>254</ele>
        <time>2026-03-01T15:08:11.596Z</time>
      </trkpt>
      <trkpt lat="43.21033" lon="5.47188">
        <ele>251</ele>
        <time>2026-03-01T15:08:18.765Z</time>
      </trkpt>
      <trkpt lat="43.21027" lon="5.47191">
        <ele>250</ele>
        <time>2026-03-01T15:08:22.502Z</time>
      </trkpt>
      <trkpt lat="43.21024" lon="5.47196">
        <ele>252</ele>
        <time>2026-03-01T15:08:38.092Z</time>
      </trkpt>
      <trkpt lat="43.2102" lon="5.47199">
        <ele>252</ele>
        <time>2026-03-01T15:08:41.111Z</time>
      </trkpt>
      <trkpt lat="43.21022" lon="5.47201">
        <ele>254</ele>
        <time>2026-03-01T15:08:50.746Z</time>
      </trkpt>
      <trkpt lat="43.21021" lon="5.47203">
        <ele>254</ele>
        <time>2026-03-01T15:08:51.917Z</time>
      </trkpt>
      <trkpt lat="43.21019" lon="5.47203">
        <ele>254</ele>
        <time>2026-03-01T15:08:53.241Z</time>
      </trkpt>
      <trkpt lat="43.21019" lon="5.47208">
        <ele>257</ele>
        <time>2026-03-01T15:09:07.429Z</time>
      </trkpt>
      <trkpt lat="43.21015" lon="5.47212">
        <ele>258</ele>
        <time>2026-03-01T15:09:13.026Z</time>
      </trkpt>
      <trkpt lat="43.21005" lon="5.47227">
        <ele>266</ele>
        <time>2026-03-01T15:10:10.710Z</time>
      </trkpt>
      <trkpt lat="43.21001" lon="5.47237">
        <ele>273</ele>
        <time>2026-03-01T15:10:43.079Z</time>
      </trkpt>
      <trkpt lat="43.20994" lon="5.47243">
        <ele>273</ele>
        <time>2026-03-01T15:10:48.545Z</time>
      </trkpt>
      <trkpt lat="43.20989" lon="5.47253">
        <ele>276</ele>
        <time>2026-03-01T15:11:07.393Z</time>
      </trkpt>
      <trkpt lat="43.20985" lon="5.47257">
        <ele>274</ele>
        <time>2026-03-01T15:11:13.110Z</time>
      </trkpt>
      <trkpt lat="43.20983" lon="5.47267">
        <ele>275</ele>
        <time>2026-03-01T15:11:19.866Z</time>
      </trkpt>
      <trkpt lat="43.20972" lon="5.47268">
        <ele>270</ele>
        <time>2026-03-01T15:11:41.326Z</time>
      </trkpt>
      <trkpt lat="43.2097" lon="5.47275">
        <ele>272</ele>
        <time>2026-03-01T15:11:54.730Z</time>
      </trkpt>
      <trkpt lat="43.20967" lon="5.47273">
        <ele>270</ele>
        <time>2026-03-01T15:12:01.223Z</time>
      </trkpt>
      <trkpt lat="43.20964" lon="5.47274">
        <ele>269</ele>
        <time>2026-03-01T15:12:03.525Z</time>
      </trkpt>
      <trkpt lat="43.20962" lon="5.4728">
        <ele>271</ele>
        <time>2026-03-01T15:12:18.843Z</time>
      </trkpt>
      <trkpt lat="43.20962" lon="5.47287">
        <ele>274</ele>
        <time>2026-03-01T15:12:38.707Z</time>
      </trkpt>
      <trkpt lat="43.2096" lon="5.47289">
        <ele>274</ele>
        <time>2026-03-01T15:12:40.345Z</time>
      </trkpt>
      <trkpt lat="43.20953" lon="5.47288">
        <ele>272</ele>
        <time>2026-03-01T15:12:45.044Z</time>
      </trkpt>
      <trkpt lat="43.2095" lon="5.47289">
        <ele>272</ele>
        <time>2026-03-01T15:12:47.088Z</time>
      </trkpt>
      <trkpt lat="43.20948" lon="5.47288">
        <ele>271</ele>
        <time>2026-03-01T15:12:51.232Z</time>
      </trkpt>
      <trkpt lat="43.20946" lon="5.47284">
        <ele>269</ele>
        <time>2026-03-01T15:12:58.114Z</time>
      </trkpt>
      <trkpt lat="43.20947" lon="5.47284">
        <ele>269</ele>
        <time>2026-03-01T15:12:58.776Z</time>
      </trkpt>
      <trkpt lat="43.20948" lon="5.47287">
        <ele>271</ele>
        <time>2026-03-01T15:13:08.137Z</time>
      </trkpt>
      <trkpt lat="43.20946" lon="5.4729">
        <ele>272</ele>
        <time>2026-03-01T15:13:14.391Z</time>
      </trkpt>
      <trkpt lat="43.20938" lon="5.47289">
        <ele>270</ele>
        <time>2026-03-01T15:13:19.417Z</time>
      </trkpt>
      <trkpt lat="43.20928" lon="5.47292">
        <ele>271</ele>
        <time>2026-03-01T15:13:27.727Z</time>
      </trkpt>
      <trkpt lat="43.20926" lon="5.47298">
        <ele>275</ele>
        <time>2026-03-01T15:13:46.449Z</time>
      </trkpt>
      <trkpt lat="43.20922" lon="5.473">
        <ele>277</ele>
        <time>2026-03-01T15:14:03.024Z</time>
      </trkpt>
      <trkpt lat="43.20918" lon="5.47307">
        <ele>283</ele>
        <time>2026-03-01T15:14:28.265Z</time>
      </trkpt>
      <trkpt lat="43.20906" lon="5.47318">
        <ele>286</ele>
        <time>2026-03-01T15:14:44.951Z</time>
      </trkpt>
      <trkpt lat="43.20902" lon="5.47329">
        <ele>294</ele>
        <time>2026-03-01T15:15:19.835Z</time>
      </trkpt>
      <trkpt lat="43.20892" lon="5.47344">
        <ele>293</ele>
        <time>2026-03-01T15:15:28.848Z</time>
      </trkpt>
      <trkpt lat="43.20892" lon="5.4735">
        <ele>293</ele>
        <time>2026-03-01T15:15:31.744Z</time>
      </trkpt>
      <trkpt lat="43.20881" lon="5.47359">
        <ele>289</ele>
        <time>2026-03-01T15:15:40.948Z</time>
      </trkpt>
      <trkpt lat="43.20878" lon="5.4736">
        <ele>287</ele>
        <time>2026-03-01T15:15:46.958Z</time>
      </trkpt>
      <trkpt lat="43.20875" lon="5.47358">
        <ele>286</ele>
        <time>2026-03-01T15:15:49.271Z</time>
      </trkpt>
      <trkpt lat="43.20877" lon="5.47364">
        <ele>288</ele>
        <time>2026-03-01T15:16:04.588Z</time>
      </trkpt>
      <trkpt lat="43.2087" lon="5.47369">
        <ele>286</ele>
        <time>2026-03-01T15:16:09.559Z</time>
      </trkpt>
      <trkpt lat="43.20866" lon="5.47376">
        <ele>285</ele>
        <time>2026-03-01T15:16:13.352Z</time>
      </trkpt>
      <trkpt lat="43.20853" lon="5.47385">
        <ele>284</ele>
        <time>2026-03-01T15:16:22.200Z</time>
      </trkpt>
      <trkpt lat="43.20848" lon="5.47394">
        <ele>285</ele>
        <time>2026-03-01T15:16:29.339Z</time>
      </trkpt>
      <trkpt lat="43.20841" lon="5.474">
        <ele>286</ele>
        <time>2026-03-01T15:16:36.481Z</time>
      </trkpt>
      <trkpt lat="43.20842" lon="5.47401">
        <ele>286</ele>
        <time>2026-03-01T15:16:37.300Z</time>
      </trkpt>
      <trkpt lat="43.2084" lon="5.47408">
        <ele>288</ele>
        <time>2026-03-01T15:16:50.704Z</time>
      </trkpt>
      <trkpt lat="43.20847" lon="5.47438">
        <ele>293</ele>
        <time>2026-03-01T15:17:18.301Z</time>
      </trkpt>
      <trkpt lat="43.20848" lon="5.47445">
        <ele>293</ele>
        <time>2026-03-01T15:17:21.744Z</time>
      </trkpt>
      <trkpt lat="43.20847" lon="5.4745">
        <ele>294</ele>
        <time>2026-03-01T15:17:27.294Z</time>
      </trkpt>
      <trkpt lat="43.20844" lon="5.47453">
        <ele>294</ele>
        <time>2026-03-01T15:17:29.752Z</time>
      </trkpt>
      <trkpt lat="43.20838" lon="5.47467">
        <ele>294</ele>
        <time>2026-03-01T15:17:37.590Z</time>
      </trkpt>
      <trkpt lat="43.20834" lon="5.47471">
        <ele>295</ele>
        <time>2026-03-01T15:17:43.187Z</time>
      </trkpt>
      <trkpt lat="43.20833" lon="5.47485">
        <ele>296</ele>
        <time>2026-03-01T15:17:51.507Z</time>
      </trkpt>
      <trkpt lat="43.20824" lon="5.47506">
        <ele>290</ele>
        <time>2026-03-01T15:18:05.451Z</time>
      </trkpt>
      <trkpt lat="43.20823" lon="5.47516">
        <ele>290</ele>
        <time>2026-03-01T15:18:10.323Z</time>
      </trkpt>
      <trkpt lat="43.2082" lon="5.47522">
        <ele>289</ele>
        <time>2026-03-01T15:18:13.454Z</time>
      </trkpt>
      <trkpt lat="43.2082" lon="5.47521">
        <ele>289</ele>
        <time>2026-03-01T15:18:13.936Z</time>
      </trkpt>
      <trkpt lat="43.20813" lon="5.47542">
        <ele>287</ele>
        <time>2026-03-01T15:18:23.841Z</time>
      </trkpt>
      <trkpt lat="43.20805" lon="5.47554">
        <ele>284</ele>
        <time>2026-03-01T15:18:31.303Z</time>
      </trkpt>
      <trkpt lat="43.20797" lon="5.47559">
        <ele>281</ele>
        <time>2026-03-01T15:18:38.300Z</time>
      </trkpt>
      <trkpt lat="43.20793" lon="5.47569">
        <ele>281</ele>
        <time>2026-03-01T15:18:43.806Z</time>
      </trkpt>
      <trkpt lat="43.20787" lon="5.47577">
        <ele>281</ele>
        <time>2026-03-01T15:18:49.346Z</time>
      </trkpt>
      <trkpt lat="43.20776" lon="5.47595">
        <ele>279</ele>
        <time>2026-03-01T15:18:59.428Z</time>
      </trkpt>
      <trkpt lat="43.20774" lon="5.47601">
        <ele>278</ele>
        <time>2026-03-01T15:19:02.303Z</time>
      </trkpt>
      <trkpt lat="43.20775" lon="5.47613">
        <ele>279</ele>
        <time>2026-03-01T15:19:09.760Z</time>
      </trkpt>
      <trkpt lat="43.2077" lon="5.47632">
        <ele>278</ele>
        <time>2026-03-01T15:19:18.713Z</time>
      </trkpt>
      <trkpt lat="43.20768" lon="5.47647">
        <ele>279</ele>
        <time>2026-03-01T15:19:27.561Z</time>
      </trkpt>
      <trkpt lat="43.20767" lon="5.47648">
        <ele>279</ele>
        <time>2026-03-01T15:19:28.380Z</time>
      </trkpt>
      <trkpt lat="43.20759" lon="5.47648">
        <ele>279</ele>
        <time>2026-03-01T15:19:33.678Z</time>
      </trkpt>
      <trkpt lat="43.20745" lon="5.47673">
        <ele>275</ele>
        <time>2026-03-01T15:19:47.166Z</time>
      </trkpt>
      <trkpt lat="43.20744" lon="5.47672">
        <ele>275</ele>
        <time>2026-03-01T15:19:47.986Z</time>
      </trkpt>
      <trkpt lat="43.20741" lon="5.47676">
        <ele>271</ele>
        <time>2026-03-01T15:19:56.129Z</time>
      </trkpt>
      <trkpt lat="43.20742" lon="5.4768">
        <ele>270</ele>
        <time>2026-03-01T15:19:58.433Z</time>
      </trkpt>
      <trkpt lat="43.20739" lon="5.47686">
        <ele>266</ele>
        <time>2026-03-01T15:20:08.756Z</time>
      </trkpt>
      <trkpt lat="43.2074" lon="5.47692">
        <ele>265</ele>
        <time>2026-03-01T15:20:11.474Z</time>
      </trkpt>
      <trkpt lat="43.2075" lon="5.47699">
        <ele>269</ele>
        <time>2026-03-01T15:20:37.681Z</time>
      </trkpt>
      <trkpt lat="43.20749" lon="5.47706">
        <ele>266</ele>
        <time>2026-03-01T15:20:47.802Z</time>
      </trkpt>
      <trkpt lat="43.20753" lon="5.47712">
        <ele>264</ele>
        <time>2026-03-01T15:20:52.448Z</time>
      </trkpt>
      <trkpt lat="43.20768" lon="5.47721">
        <ele>258</ele>
        <time>2026-03-01T15:21:07.118Z</time>
      </trkpt>
      <trkpt lat="43.20767" lon="5.47725">
        <ele>256</ele>
        <time>2026-03-01T15:21:13.118Z</time>
      </trkpt>
      <trkpt lat="43.20769" lon="5.47731">
        <ele>254</ele>
        <time>2026-03-01T15:21:19.314Z</time>
      </trkpt>
      <trkpt lat="43.20762" lon="5.47736">
        <ele>253</ele>
        <time>2026-03-01T15:21:23.946Z</time>
      </trkpt>
      <trkpt lat="43.2076" lon="5.47736">
        <ele>253</ele>
        <time>2026-03-01T15:21:25.270Z</time>
      </trkpt>
      <trkpt lat="43.20758" lon="5.47742">
        <ele>251</ele>
        <time>2026-03-01T15:21:31.466Z</time>
      </trkpt>
      <trkpt lat="43.20754" lon="5.47743">
        <ele>252</ele>
        <time>2026-03-01T15:21:36.961Z</time>
      </trkpt>
      <trkpt lat="43.20752" lon="5.47746">
        <ele>251</ele>
        <time>2026-03-01T15:21:39.284Z</time>
      </trkpt>
      <trkpt lat="43.20758" lon="5.47746">
        <ele>250</ele>
        <time>2026-03-01T15:21:42.799Z</time>
      </trkpt>
      <trkpt lat="43.20761" lon="5.47751">
        <ele>247</ele>
        <time>2026-03-01T15:21:51.988Z</time>
      </trkpt>
      <trkpt lat="43.20749" lon="5.47793">
        <ele>236</ele>
        <time>2026-03-01T15:22:17.474Z</time>
      </trkpt>
      <trkpt lat="43.20743" lon="5.47796">
        <ele>233</ele>
        <time>2026-03-01T15:22:29.905Z</time>
      </trkpt>
      <trkpt lat="43.20743" lon="5.47808">
        <ele>230</ele>
        <time>2026-03-01T15:22:36.917Z</time>
      </trkpt>
      <trkpt lat="43.20738" lon="5.47811">
        <ele>228</ele>
        <time>2026-03-01T15:22:41.807Z</time>
      </trkpt>
      <trkpt lat="43.20736" lon="5.47816">
        <ele>226</ele>
        <time>2026-03-01T15:22:49.899Z</time>
      </trkpt>
      <trkpt lat="43.20734" lon="5.47823">
        <ele>224</ele>
        <time>2026-03-01T15:22:54.770Z</time>
      </trkpt>
      <trkpt lat="43.20722" lon="5.47849">
        <ele>220</ele>
        <time>2026-03-01T15:23:07.955Z</time>
      </trkpt>
      <trkpt lat="43.20722" lon="5.47851">
        <ele>220</ele>
        <time>2026-03-01T15:23:08.920Z</time>
      </trkpt>
      <trkpt lat="43.20722" lon="5.47845">
        <ele>220</ele>
        <time>2026-03-01T15:23:11.816Z</time>
      </trkpt>
      <trkpt lat="43.20721" lon="5.47847">
        <ele>220</ele>
        <time>2026-03-01T15:23:12.987Z</time>
      </trkpt>
      <trkpt lat="43.20725" lon="5.47848">
        <ele>220</ele>
        <time>2026-03-01T15:23:15.679Z</time>
      </trkpt>
      <trkpt lat="43.20725" lon="5.47849">
        <ele>220</ele>
        <time>2026-03-01T15:23:16.162Z</time>
      </trkpt>
      <trkpt lat="43.20722" lon="5.47871">
        <ele>219</ele>
        <time>2026-03-01T15:23:26.144Z</time>
      </trkpt>
      <trkpt lat="43.2072" lon="5.47871">
        <ele>219</ele>
        <time>2026-03-01T15:23:27.469Z</time>
      </trkpt>
      <trkpt lat="43.2072" lon="5.47874">
        <ele>219</ele>
        <time>2026-03-01T15:23:28.917Z</time>
      </trkpt>
      <trkpt lat="43.20722" lon="5.47892">
        <ele>219</ele>
        <time>2026-03-01T15:23:37.705Z</time>
      </trkpt>
      <trkpt lat="43.20726" lon="5.47891">
        <ele>218</ele>
        <time>2026-03-01T15:23:40.238Z</time>
      </trkpt>
      <trkpt lat="43.20729" lon="5.47895">
        <ele>218</ele>
        <time>2026-03-01T15:23:43.008Z</time>
      </trkpt>
      <trkpt lat="43.20733" lon="5.47907">
        <ele>217</ele>
        <time>2026-03-01T15:23:48.705Z</time>
      </trkpt>
      <trkpt lat="43.20737" lon="5.47904">
        <ele>216</ele>
        <time>2026-03-01T15:23:51.457Z</time>
      </trkpt>
      <trkpt lat="43.20738" lon="5.47913">
        <ele>215</ele>
        <time>2026-03-01T15:23:55.339Z</time>
      </trkpt>
      <trkpt lat="43.20741" lon="5.47916">
        <ele>215</ele>
        <time>2026-03-01T15:23:57.797Z</time>
      </trkpt>
      <trkpt lat="43.20743" lon="5.47929">
        <ele>215</ele>
        <time>2026-03-01T15:24:04.210Z</time>
      </trkpt>
      <trkpt lat="43.20745" lon="5.47918">
        <ele>214</ele>
        <time>2026-03-01T15:24:09.068Z</time>
      </trkpt>
      <trkpt lat="43.20749" lon="5.47917">
        <ele>213</ele>
        <time>2026-03-01T15:24:11.601Z</time>
      </trkpt>
      <trkpt lat="43.20752" lon="5.47938">
        <ele>215</ele>
        <time>2026-03-01T15:24:25.375Z</time>
      </trkpt>
      <trkpt lat="43.20752" lon="5.47948">
        <ele>216</ele>
        <time>2026-03-01T15:24:31.986Z</time>
      </trkpt>
      <trkpt lat="43.20755" lon="5.4796">
        <ele>218</ele>
        <time>2026-03-01T15:24:43.035Z</time>
      </trkpt>
      <trkpt lat="43.20757" lon="5.48006">
        <ele>221</ele>
        <time>2026-03-01T15:25:09.728Z</time>
      </trkpt>
      <trkpt lat="43.2076" lon="5.48015">
        <ele>221</ele>
        <time>2026-03-01T15:25:14.504Z</time>
      </trkpt>
      <trkpt lat="43.2076" lon="5.48024">
        <ele>220</ele>
        <time>2026-03-01T15:25:18.342Z</time>
      </trkpt>
      <trkpt lat="43.20763" lon="5.48029">
        <ele>220</ele>
        <time>2026-03-01T15:25:21.468Z</time>
      </trkpt>
      <trkpt lat="43.20765" lon="5.48037">
        <ele>219</ele>
        <time>2026-03-01T15:25:25.077Z</time>
      </trkpt>
      <trkpt lat="43.20767" lon="5.48061">
        <ele>218</ele>
        <time>2026-03-01T15:25:35.899Z</time>
      </trkpt>
      <trkpt lat="43.20772" lon="5.48055">
        <ele>218</ele>
        <time>2026-03-01T15:25:40.298Z</time>
      </trkpt>
      <trkpt lat="43.20771" lon="5.48053">
        <ele>218</ele>
        <time>2026-03-01T15:25:41.468Z</time>
      </trkpt>
      <trkpt lat="43.20773" lon="5.48049">
        <ele>218</ele>
        <time>2026-03-01T15:25:43.810Z</time>
      </trkpt>
      <trkpt lat="43.20776" lon="5.48052">
        <ele>218</ele>
        <time>2026-03-01T15:25:46.268Z</time>
      </trkpt>
      <trkpt lat="43.20785" lon="5.48048">
        <ele>217</ele>
        <time>2026-03-01T15:25:51.867Z</time>
      </trkpt>
      <trkpt lat="43.20787" lon="5.48036">
        <ele>218</ele>
        <time>2026-03-01T15:25:59.423Z</time>
      </trkpt>
      <trkpt lat="43.20786" lon="5.48028">
        <ele>218</ele>
        <time>2026-03-01T15:26:03.341Z</time>
      </trkpt>
      <trkpt lat="43.20791" lon="5.48028">
        <ele>218</ele>
        <time>2026-03-01T15:26:06.652Z</time>
      </trkpt>
      <trkpt lat="43.20809" lon="5.48045">
        <ele>215</ele>
        <time>2026-03-01T15:26:19.448Z</time>
      </trkpt>
      <trkpt lat="43.20813" lon="5.48053">
        <ele>214</ele>
        <time>2026-03-01T15:26:23.587Z</time>
      </trkpt>
      <trkpt lat="43.20818" lon="5.48072">
        <ele>213</ele>
        <time>2026-03-01T15:26:32.540Z</time>
      </trkpt>
      <trkpt lat="43.20816" lon="5.48077">
        <ele>212</ele>
        <time>2026-03-01T15:26:35.110Z</time>
      </trkpt>
      <trkpt lat="43.20813" lon="5.48093">
        <ele>210</ele>
        <time>2026-03-01T15:26:42.165Z</time>
      </trkpt>
      <trkpt lat="43.20815" lon="5.48106">
        <ele>207</ele>
        <time>2026-03-01T15:26:49.071Z</time>
      </trkpt>
      <trkpt lat="43.20824" lon="5.4812">
        <ele>204</ele>
        <time>2026-03-01T15:26:57.294Z</time>
      </trkpt>
      <trkpt lat="43.20837" lon="5.48132">
        <ele>201</ele>
        <time>2026-03-01T15:27:06.558Z</time>
      </trkpt>
      <trkpt lat="43.20858" lon="5.48148">
        <ele>202</ele>
        <time>2026-03-01T15:27:23.702Z</time>
      </trkpt>
      <trkpt lat="43.2089" lon="5.48203">
        <ele>201</ele>
        <time>2026-03-01T15:27:56.691Z</time>
      </trkpt>
      <trkpt lat="43.209" lon="5.48227">
        <ele>200</ele>
        <time>2026-03-01T15:28:09.171Z</time>
      </trkpt>
      <trkpt lat="43.20914" lon="5.48241">
        <ele>198</ele>
        <time>2026-03-01T15:28:19.379Z</time>
      </trkpt>
      <trkpt lat="43.20924" lon="5.48241">
        <ele>200</ele>
        <time>2026-03-01T15:28:30.599Z</time>
      </trkpt>
      <trkpt lat="43.20929" lon="5.48239">
        <ele>201</ele>
        <time>2026-03-01T15:28:36.271Z</time>
      </trkpt>
      <trkpt lat="43.20935" lon="5.48233">
        <ele>203</ele>
        <time>2026-03-01T15:28:47.417Z</time>
      </trkpt>
      <trkpt lat="43.20959" lon="5.4818">
        <ele>212</ele>
        <time>2026-03-01T15:29:38.043Z</time>
      </trkpt>
      <trkpt lat="43.20968" lon="5.48149">
        <ele>216</ele>
        <time>2026-03-01T15:30:02.099Z</time>
      </trkpt>
      <trkpt lat="43.20968" lon="5.48142">
        <ele>217</ele>
        <time>2026-03-01T15:30:07.738Z</time>
      </trkpt>
      <trkpt lat="43.20972" lon="5.48125">
        <ele>219</ele>
        <time>2026-03-01T15:30:20.167Z</time>
      </trkpt>
      <trkpt lat="43.20974" lon="5.48112">
        <ele>221</ele>
        <time>2026-03-01T15:30:31.305Z</time>
      </trkpt>
      <trkpt lat="43.20974" lon="5.48087">
        <ele>224</ele>
        <time>2026-03-01T15:30:49.338Z</time>
      </trkpt>
      <trkpt lat="43.20977" lon="5.48087">
        <ele>224</ele>
        <time>2026-03-01T15:30:51.325Z</time>
      </trkpt>
      <trkpt lat="43.20982" lon="5.48105">
        <ele>221</ele>
        <time>2026-03-01T15:30:59.756Z</time>
      </trkpt>
      <trkpt lat="43.20988" lon="5.48112">
        <ele>220</ele>
        <time>2026-03-01T15:31:04.378Z</time>
      </trkpt>
      <trkpt lat="43.20997" lon="5.48137">
        <ele>217</ele>
        <time>2026-03-01T15:31:16.267Z</time>
      </trkpt>
      <trkpt lat="43.20997" lon="5.48144">
        <ele>216</ele>
        <time>2026-03-01T15:31:19.292Z</time>
      </trkpt>
      <trkpt lat="43.20999" lon="5.48147">
        <ele>216</ele>
        <time>2026-03-01T15:31:21.254Z</time>
      </trkpt>
      <trkpt lat="43.21003" lon="5.48158">
        <ele>216</ele>
        <time>2026-03-01T15:31:27.187Z</time>
      </trkpt>
      <trkpt lat="43.2101" lon="5.48169">
        <ele>217</ele>
        <time>2026-03-01T15:31:35.745Z</time>
      </trkpt>
      <trkpt lat="43.21015" lon="5.48182">
        <ele>219</ele>
        <time>2026-03-01T15:31:47.190Z</time>
      </trkpt>
      <trkpt lat="43.21016" lon="5.48195">
        <ele>219</ele>
        <time>2026-03-01T15:31:53.499Z</time>
      </trkpt>
      <trkpt lat="43.21014" lon="5.48222">
        <ele>217</ele>
        <time>2026-03-01T15:32:05.235Z</time>
      </trkpt>
      <trkpt lat="43.21018" lon="5.48235">
        <ele>218</ele>
        <time>2026-03-01T15:32:13.575Z</time>
      </trkpt>
      <trkpt lat="43.21023" lon="5.48314">
        <ele>220</ele>
        <time>2026-03-01T15:32:54.258Z</time>
      </trkpt>
      <trkpt lat="43.21021" lon="5.48326">
        <ele>220</ele>
        <time>2026-03-01T15:33:00.199Z</time>
      </trkpt>
      <trkpt lat="43.21019" lon="5.48348">
        <ele>219</ele>
        <time>2026-03-01T15:33:10.081Z</time>
      </trkpt>
      <trkpt lat="43.2102" lon="5.48377">
        <ele>218</ele>
        <time>2026-03-01T15:33:23.221Z</time>
      </trkpt>
      <trkpt lat="43.21021" lon="5.48384">
        <ele>218</ele>
        <time>2026-03-01T15:33:26.664Z</time>
      </trkpt>
      <trkpt lat="43.21033" lon="5.48417">
        <ele>219</ele>
        <time>2026-03-01T15:33:45.681Z</time>
      </trkpt>
      <trkpt lat="43.21039" lon="5.48429">
        <ele>220</ele>
        <time>2026-03-01T15:33:54.216Z</time>
      </trkpt>
      <trkpt lat="43.21038" lon="5.48478">
        <ele>216</ele>
        <time>2026-03-01T15:34:15.299Z</time>
      </trkpt>
      <trkpt lat="43.21032" lon="5.48487">
        <ele>215</ele>
        <time>2026-03-01T15:34:20.543Z</time>
      </trkpt>
      <trkpt lat="43.21026" lon="5.48516">
        <ele>212</ele>
        <time>2026-03-01T15:34:33.411Z</time>
      </trkpt>
      <trkpt lat="43.21019" lon="5.48532">
        <ele>210</ele>
        <time>2026-03-01T15:34:41.368Z</time>
      </trkpt>
      <trkpt lat="43.2101" lon="5.48543">
        <ele>209</ele>
        <time>2026-03-01T15:34:48.606Z</time>
      </trkpt>
      <trkpt lat="43.21001" lon="5.48551">
        <ele>208</ele>
        <time>2026-03-01T15:34:54.999Z</time>
      </trkpt>
      <trkpt lat="43.20997" lon="5.48561">
        <ele>206</ele>
        <time>2026-03-01T15:35:00.140Z</time>
      </trkpt>
      <trkpt lat="43.20993" lon="5.48563">
        <ele>205</ele>
        <time>2026-03-01T15:35:02.753Z</time>
      </trkpt>
      <trkpt lat="43.20983" lon="5.48578">
        <ele>200</ele>
        <time>2026-03-01T15:35:14.368Z</time>
      </trkpt>
      <trkpt lat="43.20977" lon="5.4859">
        <ele>196</ele>
        <time>2026-03-01T15:35:24.467Z</time>
      </trkpt>
      <trkpt lat="43.20973" lon="5.4861">
        <ele>192</ele>
        <time>2026-03-01T15:35:34.169Z</time>
      </trkpt>
      <trkpt lat="43.20972" lon="5.48622">
        <ele>190</ele>
        <time>2026-03-01T15:35:39.526Z</time>
      </trkpt>
      <trkpt lat="43.20965" lon="5.48652">
        <ele>185</ele>
        <time>2026-03-01T15:35:53.364Z</time>
      </trkpt>
      <trkpt lat="43.2096" lon="5.48663">
        <ele>182</ele>
        <time>2026-03-01T15:36:00.264Z</time>
      </trkpt>
      <trkpt lat="43.2096" lon="5.48672">
        <ele>181</ele>
        <time>2026-03-01T15:36:04.102Z</time>
      </trkpt>
      <trkpt lat="43.20955" lon="5.48692">
        <ele>178</ele>
        <time>2026-03-01T15:36:13.230Z</time>
      </trkpt>
      <trkpt lat="43.20956" lon="5.4874">
        <ele>173</ele>
        <time>2026-03-01T15:36:33.710Z</time>
      </trkpt>
      <trkpt lat="43.20953" lon="5.48748">
        <ele>172</ele>
        <time>2026-03-01T15:36:37.546Z</time>
      </trkpt>
      <trkpt lat="43.20949" lon="5.48768">
        <ele>170</ele>
        <time>2026-03-01T15:36:46.406Z</time>
      </trkpt>
      <trkpt lat="43.2095" lon="5.48777">
        <ele>170</ele>
        <time>2026-03-01T15:36:50.800Z</time>
      </trkpt>
      <trkpt lat="43.20948" lon="5.48791">
        <ele>169</ele>
        <time>2026-03-01T15:36:56.988Z</time>
      </trkpt>
      <trkpt lat="43.20949" lon="5.48815">
        <ele>167</ele>
        <time>2026-03-01T15:37:07.317Z</time>
      </trkpt>
      <trkpt lat="43.20946" lon="5.48825">
        <ele>167</ele>
        <time>2026-03-01T15:37:12.536Z</time>
      </trkpt>
      <trkpt lat="43.20947" lon="5.48834">
        <ele>166</ele>
        <time>2026-03-01T15:37:16.418Z</time>
      </trkpt>
      <trkpt lat="43.20945" lon="5.48847">
        <ele>163</ele>
        <time>2026-03-01T15:37:23.325Z</time>
      </trkpt>
      <trkpt lat="43.20941" lon="5.48849">
        <ele>164</ele>
        <time>2026-03-01T15:37:28.813Z</time>
      </trkpt>
      <trkpt lat="43.20937" lon="5.48856">
        <ele>163</ele>
        <time>2026-03-01T15:37:32.606Z</time>
      </trkpt>
      <trkpt lat="43.20942" lon="5.48856">
        <ele>161</ele>
        <time>2026-03-01T15:37:38.191Z</time>
      </trkpt>
      <trkpt lat="43.20947" lon="5.48853">
        <ele>161</ele>
        <time>2026-03-01T15:37:41.805Z</time>
      </trkpt>
      <trkpt lat="43.2095" lon="5.48849">
        <ele>161</ele>
        <time>2026-03-01T15:37:44.575Z</time>
      </trkpt>
      <trkpt lat="43.20962" lon="5.48841">
        <ele>160</ele>
        <time>2026-03-01T15:37:52.638Z</time>
      </trkpt>
      <trkpt lat="43.20972" lon="5.48831">
        <ele>159</ele>
        <time>2026-03-01T15:38:00.081Z</time>
      </trkpt>
      <trkpt lat="43.2098" lon="5.48825">
        <ele>158</ele>
        <time>2026-03-01T15:38:05.466Z</time>
      </trkpt>
      <trkpt lat="43.20994" lon="5.48808">
        <ele>158</ele>
        <time>2026-03-01T15:38:17.846Z</time>
      </trkpt>
      <trkpt lat="43.21011" lon="5.48783">
        <ele>161</ele>
        <time>2026-03-01T15:38:39.362Z</time>
      </trkpt>
      <trkpt lat="43.21017" lon="5.48778">
        <ele>162</ele>
        <time>2026-03-01T15:38:45.831Z</time>
      </trkpt>
      <trkpt lat="43.21036" lon="5.48767">
        <ele>161</ele>
        <time>2026-03-01T15:38:58.620Z</time>
      </trkpt>
      <trkpt lat="43.21045" lon="5.48766">
        <ele>160</ele>
        <time>2026-03-01T15:39:03.951Z</time>
      </trkpt>
      <trkpt lat="43.21052" lon="5.48771">
        <ele>158</ele>
        <time>2026-03-01T15:39:08.922Z</time>
      </trkpt>
      <trkpt lat="43.21062" lon="5.48773">
        <ele>157</ele>
        <time>2026-03-01T15:39:14.926Z</time>
      </trkpt>
      <trkpt lat="43.21073" lon="5.48779">
        <ele>155</ele>
        <time>2026-03-01T15:39:21.865Z</time>
      </trkpt>
      <trkpt lat="43.21077" lon="5.48783">
        <ele>154</ele>
        <time>2026-03-01T15:39:24.811Z</time>
      </trkpt>
      <trkpt lat="43.21081" lon="5.48791">
        <ele>154</ele>
        <time>2026-03-01T15:39:29.493Z</time>
      </trkpt>
      <trkpt lat="43.21098" lon="5.4878">
        <ele>157</ele>
        <time>2026-03-01T15:39:47.787Z</time>
      </trkpt>
      <trkpt lat="43.21106" lon="5.48786">
        <ele>159</ele>
        <time>2026-03-01T15:39:58.816Z</time>
      </trkpt>
      <trkpt lat="43.21108" lon="5.48792">
        <ele>159</ele>
        <time>2026-03-01T15:40:02.000Z</time>
      </trkpt>
      <trkpt lat="43.21104" lon="5.48801">
        <ele>159</ele>
        <time>2026-03-01T15:40:07.088Z</time>
      </trkpt>
      <trkpt lat="43.211" lon="5.48802">
        <ele>158</ele>
        <time>2026-03-01T15:40:09.620Z</time>
      </trkpt>
      <trkpt lat="43.21087" lon="5.48811">
        <ele>154</ele>
        <time>2026-03-01T15:40:19.147Z</time>
      </trkpt>
      <trkpt lat="43.21072" lon="5.48835">
        <ele>153</ele>
        <time>2026-03-01T15:40:33.520Z</time>
      </trkpt>
      <trkpt lat="43.21056" lon="5.48844">
        <ele>152</ele>
        <time>2026-03-01T15:40:44.138Z</time>
      </trkpt>
      <trkpt lat="43.21053" lon="5.4885">
        <ele>152</ele>
        <time>2026-03-01T15:40:47.650Z</time>
      </trkpt>
      <trkpt lat="43.21051" lon="5.48856">
        <ele>152</ele>
        <time>2026-03-01T15:40:50.834Z</time>
      </trkpt>
      <trkpt lat="43.21049" lon="5.48869">
        <ele>152</ele>
        <time>2026-03-01T15:40:57.247Z</time>
      </trkpt>
      <trkpt lat="43.21052" lon="5.48879">
        <ele>152</ele>
        <time>2026-03-01T15:41:02.466Z</time>
      </trkpt>
      <trkpt lat="43.21058" lon="5.48885">
        <ele>154</ele>
        <time>2026-03-01T15:41:13.611Z</time>
      </trkpt>
      <trkpt lat="43.21067" lon="5.48888">
        <ele>156</ele>
        <time>2026-03-01T15:41:24.663Z</time>
      </trkpt>
      <trkpt lat="43.21071" lon="5.48897">
        <ele>158</ele>
        <time>2026-03-01T15:41:35.728Z</time>
      </trkpt>
      <trkpt lat="43.21073" lon="5.48909">
        <ele>160</ele>
        <time>2026-03-01T15:41:46.737Z</time>
      </trkpt>
      <trkpt lat="43.21068" lon="5.48935">
        <ele>160</ele>
        <time>2026-03-01T15:41:59.715Z</time>
      </trkpt>
      <trkpt lat="43.21069" lon="5.48943">
        <ele>161</ele>
        <time>2026-03-01T15:42:05.657Z</time>
      </trkpt>
      <trkpt lat="43.21062" lon="5.48968">
        <ele>161</ele>
        <time>2026-03-01T15:42:18.582Z</time>
      </trkpt>
      <trkpt lat="43.21045" lon="5.49005">
        <ele>158</ele>
        <time>2026-03-01T15:42:37.576Z</time>
      </trkpt>
      <trkpt lat="43.21031" lon="5.49021">
        <ele>155</ele>
        <time>2026-03-01T15:42:48.248Z</time>
      </trkpt>
      <trkpt lat="43.21024" lon="5.49033">
        <ele>155</ele>
        <time>2026-03-01T15:42:55.666Z</time>
      </trkpt>
      <trkpt lat="43.21013" lon="5.49096">
        <ele>161</ele>
        <time>2026-03-01T15:43:37.223Z</time>
      </trkpt>
      <trkpt lat="43.21005" lon="5.49119">
        <ele>163</ele>
        <time>2026-03-01T15:43:52.706Z</time>
      </trkpt>
      <trkpt lat="43.21004" lon="5.4913">
        <ele>164</ele>
        <time>2026-03-01T15:43:59.749Z</time>
      </trkpt>
      <trkpt lat="43.21005" lon="5.49132">
        <ele>164</ele>
        <time>2026-03-01T15:44:00.920Z</time>
      </trkpt>
      <trkpt lat="43.21008" lon="5.49133">
        <ele>164</ele>
        <time>2026-03-01T15:44:02.964Z</time>
      </trkpt>
      <trkpt lat="43.2102" lon="5.4913">
        <ele>164</ele>
        <time>2026-03-01T15:44:11.041Z</time>
      </trkpt>
      <trkpt lat="43.21036" lon="5.49121">
        <ele>164</ele>
        <time>2026-03-01T15:44:22.492Z</time>
      </trkpt>
      <trkpt lat="43.21047" lon="5.49113">
        <ele>165</ele>
        <time>2026-03-01T15:44:32.170Z</time>
      </trkpt>
      <trkpt lat="43.21081" lon="5.4911">
        <ele>168</ele>
        <time>2026-03-01T15:44:59.161Z</time>
      </trkpt>
      <trkpt lat="43.21096" lon="5.49106">
        <ele>170</ele>
        <time>2026-03-01T15:45:12.761Z</time>
      </trkpt>
      <trkpt lat="43.2111" lon="5.49105">
        <ele>171</ele>
        <time>2026-03-01T15:45:23.430Z</time>
      </trkpt>
      <trkpt lat="43.21128" lon="5.49099">
        <ele>172</ele>
        <time>2026-03-01T15:45:36.994Z</time>
      </trkpt>
      <trkpt lat="43.21134" lon="5.49101">
        <ele>172</ele>
        <time>2026-03-01T15:45:41.082Z</time>
      </trkpt>
      <trkpt lat="43.21137" lon="5.49108">
        <ele>172</ele>
        <time>2026-03-01T15:45:45.001Z</time>
      </trkpt>
      <trkpt lat="43.21122" lon="5.49139">
        <ele>169</ele>
        <time>2026-03-01T15:46:01.014Z</time>
      </trkpt>
      <trkpt lat="43.2111" lon="5.49154">
        <ele>167</ele>
        <time>2026-03-01T15:46:10.552Z</time>
      </trkpt>
      <trkpt lat="43.21096" lon="5.49167">
        <ele>163</ele>
        <time>2026-03-01T15:46:20.952Z</time>
      </trkpt>
      <trkpt lat="43.21068" lon="5.49208">
        <ele>159</ele>
        <time>2026-03-01T15:46:45.299Z</time>
      </trkpt>
      <trkpt lat="43.21066" lon="5.49215">
        <ele>159</ele>
        <time>2026-03-01T15:46:48.927Z</time>
      </trkpt>
      <trkpt lat="43.21066" lon="5.49242">
        <ele>157</ele>
        <time>2026-03-01T15:47:00.600Z</time>
      </trkpt>
      <trkpt lat="43.2108" lon="5.49282">
        <ele>151</ele>
        <time>2026-03-01T15:47:19.666Z</time>
      </trkpt>
      <trkpt lat="43.21087" lon="5.49327">
        <ele>147</ele>
        <time>2026-03-01T15:47:39.397Z</time>
      </trkpt>
      <trkpt lat="43.21098" lon="5.4937">
        <ele>146</ele>
        <time>2026-03-01T15:48:00.455Z</time>
      </trkpt>
      <trkpt lat="43.21106" lon="5.49392">
        <ele>146</ele>
        <time>2026-03-01T15:48:12.321Z</time>
      </trkpt>
      <trkpt lat="43.21116" lon="5.4941">
        <ele>145</ele>
        <time>2026-03-01T15:48:22.421Z</time>
      </trkpt>
      <trkpt lat="43.2112" lon="5.49425">
        <ele>144</ele>
        <time>2026-03-01T15:48:29.397Z</time>
      </trkpt>
      <trkpt lat="43.21125" lon="5.49473">
        <ele>140</ele>
        <time>2026-03-01T15:48:50.239Z</time>
      </trkpt>
      <trkpt lat="43.21119" lon="5.49501">
        <ele>138</ele>
        <time>2026-03-01T15:49:02.914Z</time>
      </trkpt>
      <trkpt lat="43.21115" lon="5.49511">
        <ele>135</ele>
        <time>2026-03-01T15:49:10.148Z</time>
      </trkpt>
      <trkpt lat="43.21119" lon="5.49541">
        <ele>127</ele>
        <time>2026-03-01T15:49:29.398Z</time>
      </trkpt>
      <trkpt lat="43.21124" lon="5.4955">
        <ele>124</ele>
        <time>2026-03-01T15:49:36.682Z</time>
      </trkpt>
      <trkpt lat="43.21134" lon="5.49561">
        <ele>121</ele>
        <time>2026-03-01T15:49:44.542Z</time>
      </trkpt>
      <trkpt lat="43.21139" lon="5.49573">
        <ele>118</ele>
        <time>2026-03-01T15:49:51.492Z</time>
      </trkpt>
      <trkpt lat="43.21139" lon="5.49585">
        <ele>115</ele>
        <time>2026-03-01T15:49:58.504Z</time>
      </trkpt>
      <trkpt lat="43.21134" lon="5.49597">
        <ele>112</ele>
        <time>2026-03-01T15:50:05.455Z</time>
      </trkpt>
      <trkpt lat="43.21132" lon="5.49606">
        <ele>109</ele>
        <time>2026-03-01T15:50:16.898Z</time>
      </trkpt>
      <trkpt lat="43.21135" lon="5.49629">
        <ele>103</ele>
        <time>2026-03-01T15:50:31.120Z</time>
      </trkpt>
      <trkpt lat="43.21138" lon="5.49639">
        <ele>101</ele>
        <time>2026-03-01T15:50:36.087Z</time>
      </trkpt>
      <trkpt lat="43.21151" lon="5.49661">
        <ele>95</ele>
        <time>2026-03-01T15:50:50.077Z</time>
      </trkpt>
      <trkpt lat="43.21161" lon="5.49662">
        <ele>94</ele>
        <time>2026-03-01T15:50:56.031Z</time>
      </trkpt>
      <trkpt lat="43.21165" lon="5.49664">
        <ele>94</ele>
        <time>2026-03-01T15:50:58.850Z</time>
      </trkpt>
      <trkpt lat="43.21167" lon="5.49667">
        <ele>93</ele>
        <time>2026-03-01T15:51:01.173Z</time>
      </trkpt>
      <trkpt lat="43.21166" lon="5.49673">
        <ele>92</ele>
        <time>2026-03-01T15:51:03.891Z</time>
      </trkpt>
      <trkpt lat="43.21148" lon="5.49689">
        <ele>92</ele>
        <time>2026-03-01T15:51:18.093Z</time>
      </trkpt>
      <trkpt lat="43.21136" lon="5.49715">
        <ele>92</ele>
        <time>2026-03-01T15:51:32.945Z</time>
      </trkpt>
      <trkpt lat="43.2112" lon="5.49722">
        <ele>94</ele>
        <time>2026-03-01T15:51:47.392Z</time>
      </trkpt>
      <trkpt lat="43.21109" lon="5.49723">
        <ele>95</ele>
        <time>2026-03-01T15:51:56.183Z</time>
      </trkpt>
      <trkpt lat="43.21102" lon="5.49722">
        <ele>96</ele>
        <time>2026-03-01T15:52:02.662Z</time>
      </trkpt>
      <trkpt lat="43.21097" lon="5.49717">
        <ele>96</ele>
        <time>2026-03-01T15:52:06.759Z</time>
      </trkpt>
      <trkpt lat="43.21084" lon="5.49697">
        <ele>96</ele>
        <time>2026-03-01T15:52:19.693Z</time>
      </trkpt>
      <trkpt lat="43.21072" lon="5.49691">
        <ele>97</ele>
        <time>2026-03-01T15:52:29.573Z</time>
      </trkpt>
      <trkpt lat="43.21052" lon="5.49672">
        <ele>98</ele>
        <time>2026-03-01T15:52:46.918Z</time>
      </trkpt>
      <trkpt lat="43.21039" lon="5.49665">
        <ele>99</ele>
        <time>2026-03-01T15:52:57.553Z</time>
      </trkpt>
      <trkpt lat="43.21033" lon="5.49664">
        <ele>101</ele>
        <time>2026-03-01T15:53:09.873Z</time>
      </trkpt>
      <trkpt lat="43.21029" lon="5.49664">
        <ele>101</ele>
        <time>2026-03-01T15:53:12.522Z</time>
      </trkpt>
      <trkpt lat="43.21017" lon="5.49673">
        <ele>102</ele>
        <time>2026-03-01T15:53:22.973Z</time>
      </trkpt>
      <trkpt lat="43.21011" lon="5.49683">
        <ele>104</ele>
        <time>2026-03-01T15:53:34.058Z</time>
      </trkpt>
      <trkpt lat="43.21005" lon="5.49689">
        <ele>106</ele>
        <time>2026-03-01T15:53:45.203Z</time>
      </trkpt>
      <trkpt lat="43.20988" lon="5.49696">
        <ele>106</ele>
        <time>2026-03-01T15:53:56.957Z</time>
      </trkpt>
      <trkpt lat="43.20955" lon="5.49698">
        <ele>102</ele>
        <time>2026-03-01T15:54:16.379Z</time>
      </trkpt>
      <trkpt lat="43.20927" lon="5.49708">
        <ele>99</ele>
        <time>2026-03-01T15:54:33.521Z</time>
      </trkpt>
      <trkpt lat="43.20915" lon="5.4971">
        <ele>97</ele>
        <time>2026-03-01T15:54:40.602Z</time>
      </trkpt>
      <trkpt lat="43.20888" lon="5.4971">
        <ele>95</ele>
        <time>2026-03-01T15:54:56.932Z</time>
      </trkpt>
      <trkpt lat="43.2088" lon="5.49715">
        <ele>93</ele>
        <time>2026-03-01T15:55:02.283Z</time>
      </trkpt>
      <trkpt lat="43.20872" lon="5.49716">
        <ele>92</ele>
        <time>2026-03-01T15:55:07.001Z</time>
      </trkpt>
      <trkpt lat="43.20863" lon="5.49719">
        <ele>90</ele>
        <time>2026-03-01T15:55:12.574Z</time>
      </trkpt>
      <trkpt lat="43.20848" lon="5.49729">
        <ele>84</ele>
        <time>2026-03-01T15:55:27.007Z</time>
      </trkpt>
      <trkpt lat="43.20805" lon="5.49762">
        <ele>75</ele>
        <time>2026-03-01T15:55:56.017Z</time>
      </trkpt>
      <trkpt lat="43.20776" lon="5.49792">
        <ele>79</ele>
        <time>2026-03-01T15:56:26.494Z</time>
      </trkpt>
      <trkpt lat="43.20748" lon="5.49814">
        <ele>75</ele>
        <time>2026-03-01T15:56:45.448Z</time>
      </trkpt>
      <trkpt lat="43.20732" lon="5.49829">
        <ele>69</ele>
        <time>2026-03-01T15:56:59.262Z</time>
      </trkpt>
      <trkpt lat="43.20715" lon="5.49849">
        <ele>67</ele>
        <time>2026-03-01T15:57:12.648Z</time>
      </trkpt>
      <trkpt lat="43.20708" lon="5.49854">
        <ele>66</ele>
        <time>2026-03-01T15:57:17.280Z</time>
      </trkpt>
      <trkpt lat="43.20689" lon="5.49862">
        <ele>60</ele>
        <time>2026-03-01T15:57:31.142Z</time>
      </trkpt>
      <trkpt lat="43.20682" lon="5.49869">
        <ele>58</ele>
        <time>2026-03-01T15:57:36.435Z</time>
      </trkpt>
      <trkpt lat="43.20673" lon="5.49886">
        <ele>56</ele>
        <time>2026-03-01T15:57:45.414Z</time>
      </trkpt>
      <trkpt lat="43.20661" lon="5.49901">
        <ele>56</ele>
        <time>2026-03-01T15:57:56.164Z</time>
      </trkpt>
      <trkpt lat="43.20649" lon="5.49909">
        <ele>59</ele>
        <time>2026-03-01T15:58:12.665Z</time>
      </trkpt>
      <trkpt lat="43.20636" lon="5.49912">
        <ele>63</ele>
        <time>2026-03-01T15:58:35.991Z</time>
      </trkpt>
      <trkpt lat="43.20626" lon="5.49913">
        <ele>65</ele>
        <time>2026-03-01T15:58:47.218Z</time>
      </trkpt>
      <trkpt lat="43.20614" lon="5.49907">
        <ele>67</ele>
        <time>2026-03-01T15:58:59.528Z</time>
      </trkpt>
      <trkpt lat="43.20613" lon="5.49912">
        <ele>68</ele>
        <time>2026-03-01T15:59:05.078Z</time>
      </trkpt>
      <trkpt lat="43.20615" lon="5.49918">
        <ele>68</ele>
        <time>2026-03-01T15:59:08.262Z</time>
      </trkpt>
      <trkpt lat="43.20618" lon="5.49921">
        <ele>68</ele>
        <time>2026-03-01T15:59:10.720Z</time>
      </trkpt>
      <trkpt lat="43.20618" lon="5.49926">
        <ele>69</ele>
        <time>2026-03-01T15:59:16.321Z</time>
      </trkpt>
      <trkpt lat="43.20626" lon="5.49938">
        <ele>71</ele>
        <time>2026-03-01T15:59:28.214Z</time>
      </trkpt>
      <trkpt lat="43.20626" lon="5.49952">
        <ele>74</ele>
        <time>2026-03-01T15:59:45.442Z</time>
      </trkpt>
      <trkpt lat="43.20631" lon="5.49964">
        <ele>76</ele>
        <time>2026-03-01T15:59:56.684Z</time>
      </trkpt>
      <trkpt lat="43.20634" lon="5.49981">
        <ele>80</ele>
        <time>2026-03-01T16:00:20.454Z</time>
      </trkpt>
      <trkpt lat="43.20632" lon="5.49986">
        <ele>82</ele>
        <time>2026-03-01T16:00:36.640Z</time>
      </trkpt>
      <trkpt lat="43.20635" lon="5.49994">
        <ele>83</ele>
        <time>2026-03-01T16:00:42.877Z</time>
      </trkpt>
      <trkpt lat="43.20655" lon="5.50016">
        <ele>85</ele>
        <time>2026-03-01T16:01:02.695Z</time>
      </trkpt>
      <trkpt lat="43.20657" lon="5.50024">
        <ele>87</ele>
        <time>2026-03-01T16:01:14.842Z</time>
      </trkpt>
      <trkpt lat="43.20663" lon="5.50034">
        <ele>89</ele>
        <time>2026-03-01T16:01:25.927Z</time>
      </trkpt>
      <trkpt lat="43.20689" lon="5.5007">
        <ele>104</ele>
        <time>2026-03-01T16:03:18.074Z</time>
      </trkpt>
      <trkpt lat="43.20687" lon="5.50084">
        <ele>106</ele>
        <time>2026-03-01T16:03:29.413Z</time>
      </trkpt>
      <trkpt lat="43.20682" lon="5.5009">
        <ele>107</ele>
        <time>2026-03-01T16:03:35.692Z</time>
      </trkpt>
      <trkpt lat="43.2068" lon="5.50096">
        <ele>108</ele>
        <time>2026-03-01T16:03:41.254Z</time>
      </trkpt>
      <trkpt lat="43.2067" lon="5.50102">
        <ele>108</ele>
        <time>2026-03-01T16:03:48.481Z</time>
      </trkpt>
      <trkpt lat="43.20664" lon="5.5011">
        <ele>110</ele>
        <time>2026-03-01T16:03:59.458Z</time>
      </trkpt>
      <trkpt lat="43.20667" lon="5.5012">
        <ele>113</ele>
        <time>2026-03-01T16:04:20.426Z</time>
      </trkpt>
      <trkpt lat="43.20672" lon="5.50126">
        <ele>115</ele>
        <time>2026-03-01T16:04:32.043Z</time>
      </trkpt>
      <trkpt lat="43.20668" lon="5.50132">
        <ele>116</ele>
        <time>2026-03-01T16:04:37.989Z</time>
      </trkpt>
      <trkpt lat="43.20666" lon="5.50143">
        <ele>120</ele>
        <time>2026-03-01T16:05:10.162Z</time>
      </trkpt>
      <trkpt lat="43.20662" lon="5.50142">
        <ele>120</ele>
        <time>2026-03-01T16:05:12.854Z</time>
      </trkpt>
      <trkpt lat="43.20655" lon="5.50142">
        <ele>121</ele>
        <time>2026-03-01T16:05:19.313Z</time>
      </trkpt>
      <trkpt lat="43.20644" lon="5.50151">
        <ele>125</ele>
        <time>2026-03-01T16:05:43.019Z</time>
      </trkpt>
      <trkpt lat="43.20641" lon="5.50157">
        <ele>127</ele>
        <time>2026-03-01T16:05:56.866Z</time>
      </trkpt>
      <trkpt lat="43.20641" lon="5.50163">
        <ele>129</ele>
        <time>2026-03-01T16:06:13.299Z</time>
      </trkpt>
      <trkpt lat="43.20629" lon="5.50193">
        <ele>133</ele>
        <time>2026-03-01T16:06:37.637Z</time>
      </trkpt>
      <trkpt lat="43.20625" lon="5.50205">
        <ele>134</ele>
        <time>2026-03-01T16:06:45.575Z</time>
      </trkpt>
      <trkpt lat="43.20624" lon="5.50218">
        <ele>134</ele>
        <time>2026-03-01T16:06:51.884Z</time>
      </trkpt>
      <trkpt lat="43.20621" lon="5.50226">
        <ele>135</ele>
        <time>2026-03-01T16:06:58.122Z</time>
      </trkpt>
      <trkpt lat="43.20622" lon="5.50229">
        <ele>135</ele>
        <time>2026-03-01T16:06:59.714Z</time>
      </trkpt>
      <trkpt lat="43.20622" lon="5.50244">
        <ele>135</ele>
        <time>2026-03-01T16:07:06.954Z</time>
      </trkpt>
      <trkpt lat="43.20615" lon="5.50254">
        <ele>135</ele>
        <time>2026-03-01T16:07:13.646Z</time>
      </trkpt>
      <trkpt lat="43.20603" lon="5.50264">
        <ele>133</ele>
        <time>2026-03-01T16:07:21.862Z</time>
      </trkpt>
      <trkpt lat="43.206" lon="5.50268">
        <ele>132</ele>
        <time>2026-03-01T16:07:24.444Z</time>
      </trkpt>
      <trkpt lat="43.20594" lon="5.50292">
        <ele>128</ele>
        <time>2026-03-01T16:07:35.575Z</time>
      </trkpt>
      <trkpt lat="43.20593" lon="5.50304">
        <ele>126</ele>
        <time>2026-03-01T16:07:40.932Z</time>
      </trkpt>
      <trkpt lat="43.20585" lon="5.50322">
        <ele>122</ele>
        <time>2026-03-01T16:07:50.721Z</time>
      </trkpt>
      <trkpt lat="43.20586" lon="5.50335">
        <ele>120</ele>
        <time>2026-03-01T16:07:56.425Z</time>
      </trkpt>
      <trkpt lat="43.20582" lon="5.50353">
        <ele>116</ele>
        <time>2026-03-01T16:08:05.742Z</time>
      </trkpt>
      <trkpt lat="43.20584" lon="5.50371">
        <ele>113</ele>
        <time>2026-03-01T16:08:13.808Z</time>
      </trkpt>
      <trkpt lat="43.20581" lon="5.50379">
        <ele>112</ele>
        <time>2026-03-01T16:08:17.644Z</time>
      </trkpt>
      <trkpt lat="43.20577" lon="5.50398">
        <ele>109</ele>
        <time>2026-03-01T16:08:26.261Z</time>
      </trkpt>
      <trkpt lat="43.20572" lon="5.50413">
        <ele>106</ele>
        <time>2026-03-01T16:08:33.789Z</time>
      </trkpt>
      <trkpt lat="43.20569" lon="5.50419">
        <ele>106</ele>
        <time>2026-03-01T16:08:37.301Z</time>
      </trkpt>
      <trkpt lat="43.20566" lon="5.50431">
        <ele>105</ele>
        <time>2026-03-01T16:08:42.767Z</time>
      </trkpt>
      <trkpt lat="43.2055" lon="5.50455">
        <ele>104</ele>
        <time>2026-03-01T16:08:57.576Z</time>
      </trkpt>
      <trkpt lat="43.20532" lon="5.50487">
        <ele>100</ele>
        <time>2026-03-01T16:09:14.833Z</time>
      </trkpt>
      <trkpt lat="43.20529" lon="5.50489">
        <ele>100</ele>
        <time>2026-03-01T16:09:17.041Z</time>
      </trkpt>
      <trkpt lat="43.20522" lon="5.50501">
        <ele>97</ele>
        <time>2026-03-01T16:09:24.274Z</time>
      </trkpt>
      <trkpt lat="43.20516" lon="5.50504">
        <ele>97</ele>
        <time>2026-03-01T16:09:28.502Z</time>
      </trkpt>
      <trkpt lat="43.20513" lon="5.50509">
        <ele>96</ele>
        <time>2026-03-01T16:09:31.333Z</time>
      </trkpt>
      <trkpt lat="43.20513" lon="5.50512">
        <ele>95</ele>
        <time>2026-03-01T16:09:35.589Z</time>
      </trkpt>
      <trkpt lat="43.20515" lon="5.50515">
        <ele>95</ele>
        <time>2026-03-01T16:09:37.552Z</time>
      </trkpt>
      <trkpt lat="43.20512" lon="5.50525">
        <ele>93</ele>
        <time>2026-03-01T16:09:42.519Z</time>
      </trkpt>
      <trkpt lat="43.20511" lon="5.50535">
        <ele>91</ele>
        <time>2026-03-01T16:09:47.306Z</time>
      </trkpt>
      <trkpt lat="43.20499" lon="5.50559">
        <ele>86</ele>
        <time>2026-03-01T16:10:00.342Z</time>
      </trkpt>
      <trkpt lat="43.20491" lon="5.50582">
        <ele>83</ele>
        <time>2026-03-01T16:10:11.216Z</time>
      </trkpt>
      <trkpt lat="43.20477" lon="5.50602">
        <ele>82</ele>
        <time>2026-03-01T16:10:23.737Z</time>
      </trkpt>
      <trkpt lat="43.20474" lon="5.50611">
        <ele>82</ele>
        <time>2026-03-01T16:10:28.514Z</time>
      </trkpt>
      <trkpt lat="43.20463" lon="5.50653">
        <ele>77</ele>
        <time>2026-03-01T16:10:47.544Z</time>
      </trkpt>
      <trkpt lat="43.20457" lon="5.50666">
        <ele>75</ele>
        <time>2026-03-01T16:10:54.137Z</time>
      </trkpt>
      <trkpt lat="43.20454" lon="5.50684">
        <ele>72</ele>
        <time>2026-03-01T16:11:02.290Z</time>
      </trkpt>
      <trkpt lat="43.20449" lon="5.50689">
        <ele>71</ele>
        <time>2026-03-01T16:11:05.912Z</time>
      </trkpt>
      <trkpt lat="43.20446" lon="5.50695">
        <ele>70</ele>
        <time>2026-03-01T16:11:09.043Z</time>
      </trkpt>
      <trkpt lat="43.20445" lon="5.50704">
        <ele>68</ele>
        <time>2026-03-01T16:11:13.665Z</time>
      </trkpt>
      <trkpt lat="43.20439" lon="5.50754">
        <ele>59</ele>
        <time>2026-03-01T16:11:36.600Z</time>
      </trkpt>
      <trkpt lat="43.2044" lon="5.50764">
        <ele>57</ele>
        <time>2026-03-01T16:11:41.386Z</time>
      </trkpt>
      <trkpt lat="43.2044" lon="5.50782">
        <ele>53</ele>
        <time>2026-03-01T16:11:50.613Z</time>
      </trkpt>
      <trkpt lat="43.20442" lon="5.50794">
        <ele>51</ele>
        <time>2026-03-01T16:11:56.048Z</time>
      </trkpt>
      <trkpt lat="43.20441" lon="5.508">
        <ele>50</ele>
        <time>2026-03-01T16:11:58.766Z</time>
      </trkpt>
      <trkpt lat="43.20435" lon="5.50819">
        <ele>46</ele>
        <time>2026-03-01T16:12:08.460Z</time>
      </trkpt>
      <trkpt lat="43.2043" lon="5.50828">
        <ele>43</ele>
        <time>2026-03-01T16:12:15.743Z</time>
      </trkpt>
      <trkpt lat="43.20431" lon="5.50848">
        <ele>41</ele>
        <time>2026-03-01T16:12:24.301Z</time>
      </trkpt>
      <trkpt lat="43.20429" lon="5.50854">
        <ele>40</ele>
        <time>2026-03-01T16:12:27.175Z</time>
      </trkpt>
      <trkpt lat="43.2042" lon="5.50864">
        <ele>38</ele>
        <time>2026-03-01T16:12:33.971Z</time>
      </trkpt>
      <trkpt lat="43.20415" lon="5.50874">
        <ele>36</ele>
        <time>2026-03-01T16:12:39.344Z</time>
      </trkpt>
      <trkpt lat="43.20408" lon="5.50893">
        <ele>35</ele>
        <time>2026-03-01T16:12:48.810Z</time>
      </trkpt>
      <trkpt lat="43.20409" lon="5.50907">
        <ele>33</ele>
        <time>2026-03-01T16:12:54.885Z</time>
      </trkpt>
      <trkpt lat="43.20415" lon="5.50934">
        <ele>29</ele>
        <time>2026-03-01T16:13:07.071Z</time>
      </trkpt>
      <trkpt lat="43.20414" lon="5.50953">
        <ele>26</ele>
        <time>2026-03-01T16:13:15.427Z</time>
      </trkpt>
      <trkpt lat="43.20416" lon="5.50981">
        <ele>22</ele>
        <time>2026-03-01T16:13:27.576Z</time>
      </trkpt>
      <trkpt lat="43.20409" lon="5.51055">
        <ele>16</ele>
        <time>2026-03-01T16:13:59.697Z</time>
      </trkpt>
      <trkpt lat="43.20413" lon="5.5107">
        <ele>15</ele>
        <time>2026-03-01T16:14:06.673Z</time>
      </trkpt>
      <trkpt lat="43.20414" lon="5.51087">
        <ele>15</ele>
        <time>2026-03-01T16:14:14.905Z</time>
      </trkpt>
      <trkpt lat="43.20416" lon="5.51087">
        <ele>15</ele>
        <time>2026-03-01T16:14:16.230Z</time>
      </trkpt>
      <trkpt lat="43.20421" lon="5.51093">
        <ele>16</ele>
        <time>2026-03-01T16:14:22.509Z</time>
      </trkpt>
      <trkpt lat="43.20422" lon="5.51107">
        <ele>18</ele>
        <time>2026-03-01T16:14:33.803Z</time>
      </trkpt>
      <trkpt lat="43.20425" lon="5.51115">
        <ele>19</ele>
        <time>2026-03-01T16:14:40.040Z</time>
      </trkpt>
      <trkpt lat="43.20425" lon="5.51122">
        <ele>20</ele>
        <time>2026-03-01T16:14:45.680Z</time>
      </trkpt>
      <trkpt lat="43.20428" lon="5.5113">
        <ele>21</ele>
        <time>2026-03-01T16:14:51.917Z</time>
      </trkpt>
      <trkpt lat="43.20431" lon="5.51135">
        <ele>22</ele>
        <time>2026-03-01T16:14:57.460Z</time>
      </trkpt>
      <trkpt lat="43.20431" lon="5.51131">
        <ele>22</ele>
        <time>2026-03-01T16:14:59.391Z</time>
      </trkpt>
      <trkpt lat="43.20432" lon="5.51137">
        <ele>22</ele>
        <time>2026-03-01T16:15:02.362Z</time>
      </trkpt>
      <trkpt lat="43.20436" lon="5.51141">
        <ele>23</ele>
        <time>2026-03-01T16:15:07.958Z</time>
      </trkpt>
      <trkpt lat="43.20442" lon="5.51142">
        <ele>24</ele>
        <time>2026-03-01T16:15:13.956Z</time>
      </trkpt>
      <trkpt lat="43.20443" lon="5.51146">
        <ele>25</ele>
        <time>2026-03-01T16:15:20.029Z</time>
      </trkpt>
      <trkpt lat="43.20443" lon="5.51154">
        <ele>26</ele>
        <time>2026-03-01T16:15:25.935Z</time>
      </trkpt>
      <trkpt lat="43.20438" lon="5.51156">
        <ele>25</ele>
        <time>2026-03-01T16:15:29.016Z</time>
      </trkpt>
      <trkpt lat="43.2044" lon="5.5116">
        <ele>26</ele>
        <time>2026-03-01T16:15:34.670Z</time>
      </trkpt>
      <trkpt lat="43.20448" lon="5.51161">
        <ele>27</ele>
        <time>2026-03-01T16:15:41.688Z</time>
      </trkpt>
      <trkpt lat="43.20455" lon="5.51159">
        <ele>28</ele>
        <time>2026-03-01T16:15:48.225Z</time>
      </trkpt>
      <trkpt lat="43.20459" lon="5.51156">
        <ele>28</ele>
        <time>2026-03-01T16:15:51.244Z</time>
      </trkpt>
      <trkpt lat="43.20468" lon="5.51154">
        <ele>29</ele>
        <time>2026-03-01T16:15:58.885Z</time>
      </trkpt>
      <trkpt lat="43.20469" lon="5.51157">
        <ele>29</ele>
        <time>2026-03-01T16:16:00.477Z</time>
      </trkpt>
      <trkpt lat="43.2048" lon="5.51156">
        <ele>30</ele>
        <time>2026-03-01T16:16:09.269Z</time>
      </trkpt>
      <trkpt lat="43.20492" lon="5.51158">
        <ele>32</ele>
        <time>2026-03-01T16:16:21.265Z</time>
      </trkpt>
      <trkpt lat="43.20499" lon="5.51158">
        <ele>33</ele>
        <time>2026-03-01T16:16:27.724Z</time>
      </trkpt>
      <trkpt lat="43.20505" lon="5.5116">
        <ele>34</ele>
        <time>2026-03-01T16:16:33.781Z</time>
      </trkpt>
      <trkpt lat="43.20511" lon="5.51159">
        <ele>35</ele>
        <time>2026-03-01T16:16:39.779Z</time>
      </trkpt>
      <trkpt lat="43.20517" lon="5.51162">
        <ele>36</ele>
        <time>2026-03-01T16:16:45.934Z</time>
      </trkpt>
      <trkpt lat="43.20521" lon="5.5116">
        <ele>37</ele>
        <time>2026-03-01T16:16:51.422Z</time>
      </trkpt>
      <trkpt lat="43.20521" lon="5.51161">
        <ele>37</ele>
        <time>2026-03-01T16:16:51.905Z</time>
      </trkpt>
      <trkpt lat="43.20523" lon="5.5116">
        <ele>37</ele>
        <time>2026-03-01T16:16:53.314Z</time>
      </trkpt>
      <trkpt lat="43.20527" lon="5.51161">
        <ele>38</ele>
        <time>2026-03-01T16:16:58.809Z</time>
      </trkpt>
      <trkpt lat="43.20533" lon="5.51169">
        <ele>40</ele>
        <time>2026-03-01T16:17:09.786Z</time>
      </trkpt>
      <trkpt lat="43.20534" lon="5.51177">
        <ele>39</ele>
        <time>2026-03-01T16:17:13.254Z</time>
      </trkpt>
      <trkpt lat="43.20543" lon="5.51184">
        <ele>41</ele>
        <time>2026-03-01T16:17:24.577Z</time>
      </trkpt>
      <trkpt lat="43.20549" lon="5.51184">
        <ele>42</ele>
        <time>2026-03-01T16:17:30.556Z</time>
      </trkpt>
      <trkpt lat="43.20553" lon="5.51186">
        <ele>42</ele>
        <time>2026-03-01T16:17:33.375Z</time>
      </trkpt>
      <trkpt lat="43.20564" lon="5.51196">
        <ele>44</ele>
        <time>2026-03-01T16:17:45.889Z</time>
      </trkpt>
      <trkpt lat="43.2057" lon="5.51207">
        <ele>45</ele>
        <time>2026-03-01T16:17:54.065Z</time>
      </trkpt>
      <trkpt lat="43.20577" lon="5.51214">
        <ele>46</ele>
        <time>2026-03-01T16:18:01.440Z</time>
      </trkpt>
      <trkpt lat="43.20579" lon="5.51219">
        <ele>46</ele>
        <time>2026-03-01T16:18:04.193Z</time>
      </trkpt>
      <trkpt lat="43.20588" lon="5.51229">
        <ele>47</ele>
        <time>2026-03-01T16:18:13.329Z</time>
      </trkpt>
      <trkpt lat="43.20592" lon="5.51255">
        <ele>47</ele>
        <time>2026-03-01T16:18:26.155Z</time>
      </trkpt>
      <trkpt lat="43.20597" lon="5.5127">
        <ele>46</ele>
        <time>2026-03-01T16:18:33.373Z</time>
      </trkpt>
      <trkpt lat="43.20599" lon="5.51273">
        <ele>47</ele>
        <time>2026-03-01T16:18:39.627Z</time>
      </trkpt>
      <trkpt lat="43.20601" lon="5.51291">
        <ele>45</ele>
        <time>2026-03-01T16:18:47.390Z</time>
      </trkpt>
      <trkpt lat="43.20599" lon="5.51303">
        <ele>44</ele>
        <time>2026-03-01T16:18:52.686Z</time>
      </trkpt>
      <trkpt lat="43.20588" lon="5.51327">
        <ele>40</ele>
        <time>2026-03-01T16:19:04.919Z</time>
      </trkpt>
      <trkpt lat="43.20587" lon="5.51327">
        <ele>39</ele>
        <time>2026-03-01T16:19:06.865Z</time>
      </trkpt>
      <trkpt lat="43.20585" lon="5.51332">
        <ele>39</ele>
        <time>2026-03-01T16:19:09.618Z</time>
      </trkpt>
      <trkpt lat="43.2058" lon="5.5135">
        <ele>35</ele>
        <time>2026-03-01T16:19:19.007Z</time>
      </trkpt>
      <trkpt lat="43.20586" lon="5.51379">
        <ele>31</ele>
        <time>2026-03-01T16:19:31.941Z</time>
      </trkpt>
      <trkpt lat="43.20598" lon="5.51404">
        <ele>30</ele>
        <time>2026-03-01T16:19:45.512Z</time>
      </trkpt>
      <trkpt lat="43.2062" lon="5.51431">
        <ele>29</ele>
        <time>2026-03-01T16:20:04.137Z</time>
      </trkpt>
      <trkpt lat="43.20639" lon="5.51445">
        <ele>28</ele>
        <time>2026-03-01T16:20:17.544Z</time>
      </trkpt>
      <trkpt lat="43.20643" lon="5.51451">
        <ele>27</ele>
        <time>2026-03-01T16:20:21.018Z</time>
      </trkpt>
      <trkpt lat="43.20655" lon="5.51463">
        <ele>25</ele>
        <time>2026-03-01T16:20:29.717Z</time>
      </trkpt>
      <trkpt lat="43.20674" lon="5.51471">
        <ele>24</ele>
        <time>2026-03-01T16:20:42.018Z</time>
      </trkpt>
      <trkpt lat="43.20705" lon="5.51474">
        <ele>28</ele>
        <time>2026-03-01T16:21:09.501Z</time>
      </trkpt>
      <trkpt lat="43.20727" lon="5.51489">
        <ele>25</ele>
        <time>2026-03-01T16:21:23.940Z</time>
      </trkpt>
      <trkpt lat="43.20741" lon="5.51505">
        <ele>22</ele>
        <time>2026-03-01T16:21:34.612Z</time>
      </trkpt>
      <trkpt lat="43.20759" lon="5.51542">
        <ele>18</ele>
        <time>2026-03-01T16:21:53.662Z</time>
      </trkpt>
      <trkpt lat="43.20808" lon="5.51631">
        <ele>15</ele>
        <time>2026-03-01T16:22:44.765Z</time>
      </trkpt>
      <trkpt lat="43.20828" lon="5.51664">
        <ele>13</ele>
        <time>2026-03-01T16:23:03.858Z</time>
      </trkpt>
      <trkpt lat="43.20853" lon="5.51699">
        <ele>15</ele>
        <time>2026-03-01T16:23:30.125Z</time>
      </trkpt>
      <trkpt lat="43.20866" lon="5.51727">
        <ele>14</ele>
        <time>2026-03-01T16:23:45.255Z</time>
      </trkpt>
      <trkpt lat="43.20882" lon="5.51751">
        <ele>14</ele>
        <time>2026-03-01T16:24:00.953Z</time>
      </trkpt>
      <trkpt lat="43.20889" lon="5.51772">
        <ele>13</ele>
        <time>2026-03-01T16:24:11.271Z</time>
      </trkpt>
      <trkpt lat="43.209" lon="5.51791">
        <ele>12</ele>
        <time>2026-03-01T16:24:22.144Z</time>
      </trkpt>
      <trkpt lat="43.20901" lon="5.51799">
        <ele>11</ele>
        <time>2026-03-01T16:24:25.612Z</time>
      </trkpt>
      <trkpt lat="43.20908" lon="5.51809">
        <ele>10</ele>
        <time>2026-03-01T16:24:31.616Z</time>
      </trkpt>
      <trkpt lat="43.20911" lon="5.51821">
        <ele>9</ele>
        <time>2026-03-01T16:24:37.082Z</time>
      </trkpt>
      <trkpt lat="43.20923" lon="5.51835">
        <ele>10</ele>
        <time>2026-03-01T16:24:48.858Z</time>
      </trkpt>
      <trkpt lat="43.20936" lon="5.5186">
        <ele>12</ele>
        <time>2026-03-01T16:25:06.648Z</time>
      </trkpt>
      <trkpt lat="43.20963" lon="5.51896">
        <ele>15</ele>
        <time>2026-03-01T16:25:35.870Z</time>
      </trkpt>
      <trkpt lat="43.20986" lon="5.51934">
        <ele>15</ele>
        <time>2026-03-01T16:25:59.710Z</time>
      </trkpt>
      <trkpt lat="43.20998" lon="5.5195">
        <ele>15</ele>
        <time>2026-03-01T16:26:10.790Z</time>
      </trkpt>
      <trkpt lat="43.21007" lon="5.51958">
        <ele>16</ele>
        <time>2026-03-01T16:26:19.397Z</time>
      </trkpt>
      <trkpt lat="43.21015" lon="5.5197">
        <ele>16</ele>
        <time>2026-03-01T16:26:27.246Z</time>
      </trkpt>
      <trkpt lat="43.21035" lon="5.51988">
        <ele>18</ele>
        <time>2026-03-01T16:26:45.989Z</time>
      </trkpt>
      <trkpt lat="43.21043" lon="5.51991">
        <ele>19</ele>
        <time>2026-03-01T16:26:53.153Z</time>
      </trkpt>
      <trkpt lat="43.21068" lon="5.5202">
        <ele>20</ele>
        <time>2026-03-01T16:27:16.019Z</time>
      </trkpt>
      <trkpt lat="43.21097" lon="5.52045">
        <ele>20</ele>
        <time>2026-03-01T16:27:38.698Z</time>
      </trkpt>
      <trkpt lat="43.21111" lon="5.52061">
        <ele>20</ele>
        <time>2026-03-01T16:27:50.763Z</time>
      </trkpt>
      <trkpt lat="43.21125" lon="5.52087">
        <ele>18</ele>
        <time>2026-03-01T16:28:04.891Z</time>
      </trkpt>
      <trkpt lat="43.21155" lon="5.52105">
        <ele>24</ele>
        <time>2026-03-01T16:28:39.443Z</time>
      </trkpt>
      <trkpt lat="43.21171" lon="5.52133">
        <ele>25</ele>
        <time>2026-03-01T16:28:57.839Z</time>
      </trkpt>
      <trkpt lat="43.21195" lon="5.52163">
        <ele>27</ele>
        <time>2026-03-01T16:29:22.009Z</time>
      </trkpt>
      <trkpt lat="43.21202" lon="5.52177">
        <ele>28</ele>
        <time>2026-03-01T16:29:31.639Z</time>
      </trkpt>
      <trkpt lat="43.21206" lon="5.52184">
        <ele>29</ele>
        <time>2026-03-01T16:29:37.841Z</time>
      </trkpt>
      <trkpt lat="43.21216" lon="5.5219">
        <ele>30</ele>
        <time>2026-03-01T16:29:46.565Z</time>
      </trkpt>
      <trkpt lat="43.21218" lon="5.5219">
        <ele>31</ele>
        <time>2026-03-01T16:29:54.351Z</time>
      </trkpt>
      <trkpt lat="43.21224" lon="5.52198">
        <ele>31</ele>
        <time>2026-03-01T16:29:59.891Z</time>
      </trkpt>
      <trkpt lat="43.21224" lon="5.52197">
        <ele>31</ele>
        <time>2026-03-01T16:30:00.374Z</time>
      </trkpt>
      <trkpt lat="43.21222" lon="5.522">
        <ele>31</ele>
        <time>2026-03-01T16:30:02.336Z</time>
      </trkpt>
      <trkpt lat="43.21223" lon="5.52194">
        <ele>31</ele>
        <time>2026-03-01T16:30:05.307Z</time>
      </trkpt>
      <trkpt lat="43.21222" lon="5.52194">
        <ele>31</ele>
        <time>2026-03-01T16:30:05.969Z</time>
      </trkpt>
      <trkpt lat="43.21222" lon="5.52198">
        <ele>31</ele>
        <time>2026-03-01T16:30:07.899Z</time>
      </trkpt>
      <trkpt lat="43.21223" lon="5.52198">
        <ele>31</ele>
        <time>2026-03-01T16:30:08.561Z</time>
      </trkpt>
      <trkpt lat="43.21221" lon="5.52194">
        <ele>31</ele>
        <time>2026-03-01T16:30:10.902Z</time>
      </trkpt>
      <trkpt lat="43.21219" lon="5.52194">
        <ele>31</ele>
        <time>2026-03-01T16:30:12.227Z</time>
      </trkpt>
      <trkpt lat="43.21219" lon="5.52196">
        <ele>31</ele>
        <time>2026-03-01T16:30:13.192Z</time>
      </trkpt>
      <trkpt lat="43.21208" lon="5.52201">
        <ele>29</ele>
        <time>2026-03-01T16:30:19.991Z</time>
      </trkpt>
      <trkpt lat="43.21205" lon="5.52206">
        <ele>29</ele>
        <time>2026-03-01T16:30:23.117Z</time>
      </trkpt>
      <trkpt lat="43.21209" lon="5.52207">
        <ele>29</ele>
        <time>2026-03-01T16:30:25.809Z</time>
      </trkpt>
      <trkpt lat="43.2121" lon="5.52211">
        <ele>29</ele>
        <time>2026-03-01T16:30:27.850Z</time>
      </trkpt>
      <trkpt lat="43.21206" lon="5.52209">
        <ele>29</ele>
        <time>2026-03-01T16:30:30.669Z</time>
      </trkpt>
      <trkpt lat="43.21194" lon="5.52216">
        <ele>28</ele>
        <time>2026-03-01T16:30:38.538Z</time>
      </trkpt>
      <trkpt lat="43.21181" lon="5.52216">
        <ele>28</ele>
        <time>2026-03-01T16:30:47.147Z</time>
      </trkpt>
      <trkpt lat="43.21169" lon="5.52209">
        <ele>26</ele>
        <time>2026-03-01T16:30:54.775Z</time>
      </trkpt>
      <trkpt lat="43.21166" lon="5.52205">
        <ele>25</ele>
        <time>2026-03-01T16:30:57.356Z</time>
      </trkpt>
      <trkpt lat="43.21157" lon="5.52202">
        <ele>25</ele>
        <time>2026-03-01T16:31:03.489Z</time>
      </trkpt>
      <trkpt lat="43.21151" lon="5.52205">
        <ele>25</ele>
        <time>2026-03-01T16:31:07.718Z</time>
      </trkpt>
      <trkpt lat="43.21147" lon="5.52211">
        <ele>27</ele>
        <time>2026-03-01T16:31:20.225Z</time>
      </trkpt>
      <trkpt lat="43.21142" lon="5.52228">
        <ele>30</ele>
        <time>2026-03-01T16:31:36.728Z</time>
      </trkpt>
      <trkpt lat="43.2114" lon="5.52264">
        <ele>37</ele>
        <time>2026-03-01T16:32:15.622Z</time>
      </trkpt>
      <trkpt lat="43.2114" lon="5.5228">
        <ele>40</ele>
        <time>2026-03-01T16:32:32.188Z</time>
      </trkpt>
      <trkpt lat="43.21142" lon="5.52286">
        <ele>41</ele>
        <time>2026-03-01T16:32:37.750Z</time>
      </trkpt>
      <trkpt lat="43.21144" lon="5.52305">
        <ele>44</ele>
        <time>2026-03-01T16:32:54.345Z</time>
      </trkpt>
      <trkpt lat="43.21141" lon="5.5233">
        <ele>49</ele>
        <time>2026-03-01T16:33:22.244Z</time>
      </trkpt>
      <trkpt lat="43.21141" lon="5.52356">
        <ele>50</ele>
        <time>2026-03-01T16:33:36.084Z</time>
      </trkpt>
      <trkpt lat="43.21163" lon="5.52419">
        <ele>52</ele>
        <time>2026-03-01T16:34:12.254Z</time>
      </trkpt>
      <trkpt lat="43.21168" lon="5.52444">
        <ele>52</ele>
        <time>2026-03-01T16:34:24.766Z</time>
      </trkpt>
      <trkpt lat="43.21186" lon="5.52491">
        <ele>55</ele>
        <time>2026-03-01T16:34:54.646Z</time>
      </trkpt>
      <trkpt lat="43.21189" lon="5.52507">
        <ele>55</ele>
        <time>2026-03-01T16:35:02.620Z</time>
      </trkpt>
      <trkpt lat="43.21196" lon="5.52521">
        <ele>56</ele>
        <time>2026-03-01T16:35:12.250Z</time>
      </trkpt>
      <trkpt lat="43.21211" lon="5.52569">
        <ele>56</ele>
        <time>2026-03-01T16:35:37.455Z</time>
      </trkpt>
      <trkpt lat="43.21226" lon="5.5262">
        <ele>54</ele>
        <time>2026-03-01T16:36:02.274Z</time>
      </trkpt>
      <trkpt lat="43.21228" lon="5.52632">
        <ele>54</ele>
        <time>2026-03-01T16:36:08.215Z</time>
      </trkpt>
      <trkpt lat="43.21234" lon="5.52646">
        <ele>54</ele>
        <time>2026-03-01T16:36:16.053Z</time>
      </trkpt>
      <trkpt lat="43.21251" lon="5.52697">
        <ele>54</ele>
        <time>2026-03-01T16:36:43.118Z</time>
      </trkpt>
      <trkpt lat="43.21258" lon="5.52713">
        <ele>52</ele>
        <time>2026-03-01T16:36:51.075Z</time>
      </trkpt>
      <trkpt lat="43.21266" lon="5.52771">
        <ele>49</ele>
        <time>2026-03-01T16:37:17.193Z</time>
      </trkpt>
      <trkpt lat="43.21277" lon="5.5283">
        <ele>41</ele>
        <time>2026-03-01T16:37:43.301Z</time>
      </trkpt>
      <trkpt lat="43.21274" lon="5.52864">
        <ele>38</ele>
        <time>2026-03-01T16:37:57.982Z</time>
      </trkpt>
      <trkpt lat="43.21265" lon="5.52877">
        <ele>38</ele>
        <time>2026-03-01T16:38:06.635Z</time>
      </trkpt>
      <trkpt lat="43.21261" lon="5.52881">
        <ele>39</ele>
        <time>2026-03-01T16:38:12.232Z</time>
      </trkpt>
      <trkpt lat="43.21249" lon="5.52883">
        <ele>41</ele>
        <time>2026-03-01T16:38:24.227Z</time>
      </trkpt>
      <trkpt lat="43.21236" lon="5.52881">
        <ele>40</ele>
        <time>2026-03-01T16:38:32.123Z</time>
      </trkpt>
      <trkpt lat="43.21223" lon="5.52872">
        <ele>40</ele>
        <time>2026-03-01T16:38:41.765Z</time>
      </trkpt>
      <trkpt lat="43.21214" lon="5.52859">
        <ele>40</ele>
        <time>2026-03-01T16:38:50.419Z</time>
      </trkpt>
      <trkpt lat="43.21207" lon="5.52858">
        <ele>40</ele>
        <time>2026-03-01T16:38:55.079Z</time>
      </trkpt>
      <trkpt lat="43.21205" lon="5.52861">
        <ele>39</ele>
        <time>2026-03-01T16:38:57.402Z</time>
      </trkpt>
      <trkpt lat="43.2121" lon="5.5287">
        <ele>38</ele>
        <time>2026-03-01T16:39:02.251Z</time>
      </trkpt>
      <trkpt lat="43.21215" lon="5.52891">
        <ele>36</ele>
        <time>2026-03-01T16:39:11.709Z</time>
      </trkpt>
      <trkpt lat="43.21221" lon="5.52938">
        <ele>30</ele>
        <time>2026-03-01T16:39:32.113Z</time>
      </trkpt>
      <trkpt lat="43.2122" lon="5.52973">
        <ele>24</ele>
        <time>2026-03-01T16:39:47.788Z</time>
      </trkpt>
      <trkpt lat="43.21216" lon="5.53">
        <ele>20</ele>
        <time>2026-03-01T16:39:59.715Z</time>
      </trkpt>
      <trkpt lat="43.21215" lon="5.5302">
        <ele>18</ele>
        <time>2026-03-01T16:40:08.272Z</time>
      </trkpt>
      <trkpt lat="43.21217" lon="5.53029">
        <ele>17</ele>
        <time>2026-03-01T16:40:12.284Z</time>
      </trkpt>
      <trkpt lat="43.21221" lon="5.53039">
        <ele>17</ele>
        <time>2026-03-01T16:40:17.789Z</time>
      </trkpt>
      <trkpt lat="43.21219" lon="5.53058">
        <ele>14</ele>
        <time>2026-03-01T16:40:26.196Z</time>
      </trkpt>
      <trkpt lat="43.21224" lon="5.53074">
        <ele>13</ele>
        <time>2026-03-01T16:40:33.840Z</time>
      </trkpt>
      <trkpt lat="43.21224" lon="5.53076">
        <ele>13</ele>
        <time>2026-03-01T16:40:34.805Z</time>
      </trkpt>
      <trkpt lat="43.21222" lon="5.53077">
        <ele>13</ele>
        <time>2026-03-01T16:40:36.215Z</time>
      </trkpt>
      <trkpt lat="43.21222" lon="5.53082">
        <ele>12</ele>
        <time>2026-03-01T16:40:38.597Z</time>
      </trkpt>
      <trkpt lat="43.21223" lon="5.53084">
        <ele>12</ele>
        <time>2026-03-01T16:40:39.768Z</time>
      </trkpt>
      <trkpt lat="43.21226" lon="5.53084">
        <ele>12</ele>
        <time>2026-03-01T16:40:41.755Z</time>
      </trkpt>
      <trkpt lat="43.21233" lon="5.5308">
        <ele>13</ele>
        <time>2026-03-01T16:40:48.523Z</time>
      </trkpt>
      <trkpt lat="43.21242" lon="5.53079">
        <ele>13</ele>
        <time>2026-03-01T16:40:54.502Z</time>
      </trkpt>
      <trkpt lat="43.21266" lon="5.53065">
        <ele>16</ele>
        <time>2026-03-01T16:41:16.683Z</time>
      </trkpt>
      <trkpt lat="43.21274" lon="5.53062">
        <ele>16</ele>
        <time>2026-03-01T16:41:22.175Z</time>
      </trkpt>
      <trkpt lat="43.21281" lon="5.53065">
        <ele>16</ele>
        <time>2026-03-01T16:41:27.031Z</time>
      </trkpt>
      <trkpt lat="43.21291" lon="5.53074">
        <ele>16</ele>
        <time>2026-03-01T16:41:34.950Z</time>
      </trkpt>
      <trkpt lat="43.21297" lon="5.53084">
        <ele>16</ele>
        <time>2026-03-01T16:41:41.201Z</time>
      </trkpt>
      <trkpt lat="43.21301" lon="5.53093">
        <ele>16</ele>
        <time>2026-03-01T16:41:46.288Z</time>
      </trkpt>
      <trkpt lat="43.21312" lon="5.53111">
        <ele>15</ele>
        <time>2026-03-01T16:41:56.794Z</time>
      </trkpt>
      <trkpt lat="43.21324" lon="5.53113">
        <ele>16</ele>
        <time>2026-03-01T16:42:06.246Z</time>
      </trkpt>
      <trkpt lat="43.21326" lon="5.53114">
        <ele>16</ele>
        <time>2026-03-01T16:42:07.656Z</time>
      </trkpt>
      <trkpt lat="43.21333" lon="5.53135">
        <ele>16</ele>
        <time>2026-03-01T16:42:18.800Z</time>
      </trkpt>
      <trkpt lat="43.21335" lon="5.53155">
        <ele>16</ele>
        <time>2026-03-01T16:42:28.543Z</time>
      </trkpt>
      <trkpt lat="43.21341" lon="5.53175">
        <ele>17</ele>
        <time>2026-03-01T16:42:40.326Z</time>
      </trkpt>
      <trkpt lat="43.21346" lon="5.53182">
        <ele>18</ele>
        <time>2026-03-01T16:42:46.860Z</time>
      </trkpt>
      <trkpt lat="43.21353" lon="5.53188">
        <ele>19</ele>
        <time>2026-03-01T16:42:54.001Z</time>
      </trkpt>
      <trkpt lat="43.21356" lon="5.53195">
        <ele>20</ele>
        <time>2026-03-01T16:42:59.944Z</time>
      </trkpt>
      <trkpt lat="43.21369" lon="5.53217">
        <ele>22</ele>
        <time>2026-03-01T16:43:16.667Z</time>
      </trkpt>
      <trkpt lat="43.21375" lon="5.53228">
        <ele>22</ele>
        <time>2026-03-01T16:43:23.298Z</time>
      </trkpt>
      <trkpt lat="43.21385" lon="5.53263">
        <ele>22</ele>
        <time>2026-03-01T16:43:41.441Z</time>
      </trkpt>
      <trkpt lat="43.21389" lon="5.53269">
        <ele>23</ele>
        <time>2026-03-01T16:43:47.387Z</time>
      </trkpt>
      <trkpt lat="43.214" lon="5.53302">
        <ele>22</ele>
        <time>2026-03-01T16:44:03.993Z</time>
      </trkpt>
      <trkpt lat="43.21405" lon="5.53307">
        <ele>23</ele>
        <time>2026-03-01T16:44:10.055Z</time>
      </trkpt>
      <trkpt lat="43.21411" lon="5.5331">
        <ele>23</ele>
        <time>2026-03-01T16:44:14.284Z</time>
      </trkpt>
      <trkpt lat="43.21431" lon="5.53314">
        <ele>26</ele>
        <time>2026-03-01T16:44:33.262Z</time>
      </trkpt>
      <trkpt lat="43.21451" lon="5.53325">
        <ele>28</ele>
        <time>2026-03-01T16:44:50.537Z</time>
      </trkpt>
      <trkpt lat="43.21457" lon="5.53335">
        <ele>28</ele>
        <time>2026-03-01T16:44:56.788Z</time>
      </trkpt>
      <trkpt lat="43.2146" lon="5.53344">
        <ele>28</ele>
        <time>2026-03-01T16:45:01.564Z</time>
      </trkpt>
      <trkpt lat="43.21458" lon="5.53358">
        <ele>26</ele>
        <time>2026-03-01T16:45:07.715Z</time>
      </trkpt>
      <trkpt lat="43.21459" lon="5.53357">
        <ele>26</ele>
        <time>2026-03-01T16:45:08.534Z</time>
      </trkpt>
      <trkpt lat="43.21448" lon="5.53371">
        <ele>24</ele>
        <time>2026-03-01T16:45:17.326Z</time>
      </trkpt>
      <trkpt lat="43.21427" lon="5.53391">
        <ele>19</ele>
        <time>2026-03-01T16:45:32.476Z</time>
      </trkpt>
      <trkpt lat="43.2142" lon="5.53407">
        <ele>17</ele>
        <time>2026-03-01T16:45:40.433Z</time>
      </trkpt>
      <trkpt lat="43.2142" lon="5.53415">
        <ele>17</ele>
        <time>2026-03-01T16:45:44.293Z</time>
      </trkpt>
      <trkpt lat="43.21426" lon="5.53427">
        <ele>16</ele>
        <time>2026-03-01T16:45:50.612Z</time>
      </trkpt>
      <trkpt lat="43.21427" lon="5.53451">
        <ele>15</ele>
        <time>2026-03-01T16:46:01.378Z</time>
      </trkpt>
      <trkpt lat="43.21435" lon="5.5348">
        <ele>13</ele>
        <time>2026-03-01T16:46:14.893Z</time>
      </trkpt>
      <trkpt lat="43.21447" lon="5.53502">
        <ele>12</ele>
        <time>2026-03-01T16:46:27.293Z</time>
      </trkpt>
      <trkpt lat="43.21468" lon="5.53528">
        <ele>13</ele>
        <time>2026-03-01T16:46:47.233Z</time>
      </trkpt>
      <trkpt lat="43.21473" lon="5.53541">
        <ele>13</ele>
        <time>2026-03-01T16:46:54.326Z</time>
      </trkpt>
      <trkpt lat="43.21475" lon="5.53549">
        <ele>12</ele>
        <time>2026-03-01T16:46:57.935Z</time>
      </trkpt>
      <trkpt lat="43.21467" lon="5.53557">
        <ele>11</ele>
        <time>2026-03-01T16:47:03.809Z</time>
      </trkpt>
      <trkpt lat="43.21453" lon="5.53566">
        <ele>9</ele>
        <time>2026-03-01T16:47:12.877Z</time>
      </trkpt>
      <trkpt lat="43.21452" lon="5.53575">
        <ele>8</ele>
        <time>2026-03-01T16:47:16.758Z</time>
      </trkpt>
      <trkpt lat="43.21454" lon="5.53587">
        <ele>8</ele>
        <time>2026-03-01T16:47:22.699Z</time>
      </trkpt>
      <trkpt lat="43.21473" lon="5.53653">
        <ele>8</ele>
        <time>2026-03-01T16:47:56.945Z</time>
      </trkpt>
      <trkpt lat="43.21472" lon="5.53659">
        <ele>8</ele>
        <time>2026-03-01T16:47:59.915Z</time>
      </trkpt>
      <trkpt lat="43.21483" lon="5.53697">
        <ele>9</ele>
        <time>2026-03-01T16:48:20.848Z</time>
      </trkpt>
      <trkpt lat="43.21489" lon="5.53702">
        <ele>9</ele>
        <time>2026-03-01T16:48:25.497Z</time>
      </trkpt>
      <trkpt lat="43.21478" lon="5.53725">
        <ele>8</ele>
        <time>2026-03-01T16:48:37.911Z</time>
      </trkpt>
      <trkpt lat="43.21464" lon="5.53749">
        <ele>7</ele>
        <time>2026-03-01T16:48:51.866Z</time>
      </trkpt>
      <trkpt lat="43.21459" lon="5.53753">
        <ele>7</ele>
        <time>2026-03-01T16:48:55.698Z</time>
      </trkpt>
      <trkpt lat="43.21441" lon="5.53766">
        <ele>6</ele>
        <time>2026-03-01T16:49:08.303Z</time>
      </trkpt>
      <trkpt lat="43.21433" lon="5.5378">
        <ele>6</ele>
        <time>2026-03-01T16:49:16.889Z</time>
      </trkpt>
      <trkpt lat="43.21415" lon="5.53813">
        <ele>6</ele>
        <time>2026-03-01T16:49:36.781Z</time>
      </trkpt>
      <trkpt lat="43.21412" lon="5.53823">
        <ele>7</ele>
        <time>2026-03-01T16:49:43.714Z</time>
      </trkpt>
      <trkpt lat="43.21408" lon="5.53826">
        <ele>7</ele>
        <time>2026-03-01T16:49:46.732Z</time>
        <extensions>
          <visugpx:TrkExtension xmlns:visugpx="https://www.visugpx.com/editgpx/">
            <visugpx:node>1</visugpx:node>
            </visugpx:TrkExtension>
        </extensions>
      </trkpt>
    </trkseg>
  </trk>
</gpx>